<?xml version="1.0" encoding="UTF-8" standalone="no" ?>
<gpx xmlns="http://www.topografix.com/GPX/1/1" xmlns:xsi="http://www.w3.org/2001/XMLSchema-instance" xsi:schemaLocation="http://www.topografix.com/GPX/1/1 http://www.topografix.com/GPX/1/1/gpx.xsd" version="1.1" creator="VisuGPX - https://www.visugpx.com">
  <metadata>
    <name>Pic de Bastan (Pyrénées)</name>
  </metadata>
  <trk>
    <name><![CDATA[19-JUIL-19 18:10:47]]></name>
    <trkseg>
      <trkpt lat="42.9168" lon="0.20941">
        <ele>1425.29</ele>
        <time>2019-07-19T08:16:23Z</time>
      </trkpt>
      <trkpt lat="42.91679" lon="0.20941">
        <ele>1428.66</ele>
        <time>2019-07-19T08:16:24Z</time>
      </trkpt>
      <trkpt lat="42.91677" lon="0.20938">
        <ele>1424.81</ele>
        <time>2019-07-19T08:16:28Z</time>
      </trkpt>
      <trkpt lat="42.9167" lon="0.20931">
        <ele>1426.73</ele>
        <time>2019-07-19T08:16:42Z</time>
      </trkpt>
      <trkpt lat="42.91666" lon="0.2093">
        <ele>1426.25</ele>
        <time>2019-07-19T08:16:59Z</time>
      </trkpt>
      <trkpt lat="42.91666" lon="0.20934">
        <ele>1426.73</ele>
        <time>2019-07-19T08:17:16Z</time>
      </trkpt>
      <trkpt lat="42.91665" lon="0.20932">
        <ele>1426.25</ele>
        <time>2019-07-19T08:17:22Z</time>
      </trkpt>
      <trkpt lat="42.91663" lon="0.20923">
        <ele>1423.85</ele>
        <time>2019-07-19T08:17:31Z</time>
      </trkpt>
      <trkpt lat="42.91657" lon="0.20918">
        <ele>1422.89</ele>
        <time>2019-07-19T08:17:37Z</time>
      </trkpt>
      <trkpt lat="42.91652" lon="0.20918">
        <ele>1421.93</ele>
        <time>2019-07-19T08:17:45Z</time>
      </trkpt>
      <trkpt lat="42.91652" lon="0.20924">
        <ele>1420.97</ele>
        <time>2019-07-19T08:17:50Z</time>
      </trkpt>
      <trkpt lat="42.91652" lon="0.20927">
        <ele>1420.97</ele>
        <time>2019-07-19T08:17:52Z</time>
      </trkpt>
      <trkpt lat="42.91649" lon="0.20938">
        <ele>1419.52</ele>
        <time>2019-07-19T08:18:04Z</time>
      </trkpt>
      <trkpt lat="42.91647" lon="0.20944">
        <ele>1419.52</ele>
        <time>2019-07-19T08:18:24Z</time>
      </trkpt>
      <trkpt lat="42.91646" lon="0.20938">
        <ele>1419.52</ele>
        <time>2019-07-19T08:18:45Z</time>
      </trkpt>
      <trkpt lat="42.91646" lon="0.20934">
        <ele>1420</ele>
        <time>2019-07-19T08:19:01Z</time>
      </trkpt>
      <trkpt lat="42.91647" lon="0.20933">
        <ele>1420</ele>
        <time>2019-07-19T08:19:24Z</time>
      </trkpt>
      <trkpt lat="42.91645" lon="0.20933">
        <ele>1420</ele>
        <time>2019-07-19T08:19:35Z</time>
      </trkpt>
      <trkpt lat="42.91642" lon="0.20935">
        <ele>1420.49</ele>
        <time>2019-07-19T08:19:39Z</time>
      </trkpt>
      <trkpt lat="42.91636" lon="0.20933">
        <ele>1420.97</ele>
        <time>2019-07-19T08:19:48Z</time>
      </trkpt>
      <trkpt lat="42.91635" lon="0.20932">
        <ele>1422.41</ele>
        <time>2019-07-19T08:19:58Z</time>
      </trkpt>
      <trkpt lat="42.91634" lon="0.20931">
        <ele>1422.41</ele>
        <time>2019-07-19T08:20:02Z</time>
      </trkpt>
      <trkpt lat="42.91637" lon="0.20931">
        <ele>1420.97</ele>
        <time>2019-07-19T08:20:15Z</time>
      </trkpt>
      <trkpt lat="42.91637" lon="0.20931">
        <ele>1420.97</ele>
        <time>2019-07-19T08:20:32Z</time>
      </trkpt>
      <trkpt lat="42.91641" lon="0.20925">
        <ele>1420.97</ele>
        <time>2019-07-19T08:21:01Z</time>
      </trkpt>
      <trkpt lat="42.91637" lon="0.20932">
        <ele>1420.97</ele>
        <time>2019-07-19T08:21:23Z</time>
      </trkpt>
      <trkpt lat="42.91634" lon="0.20938">
        <ele>1421.45</ele>
        <time>2019-07-19T08:21:53Z</time>
      </trkpt>
      <trkpt lat="42.91639" lon="0.20935">
        <ele>1421.45</ele>
        <time>2019-07-19T08:22:25Z</time>
      </trkpt>
      <trkpt lat="42.91639" lon="0.20936">
        <ele>1421.45</ele>
        <time>2019-07-19T08:22:55Z</time>
      </trkpt>
      <trkpt lat="42.9164" lon="0.20934">
        <ele>1420.97</ele>
        <time>2019-07-19T08:23:12Z</time>
      </trkpt>
      <trkpt lat="42.91639" lon="0.20933">
        <ele>1422.41</ele>
        <time>2019-07-19T08:23:19Z</time>
      </trkpt>
      <trkpt lat="42.91639" lon="0.20933">
        <ele>1421.45</ele>
        <time>2019-07-19T08:23:21Z</time>
      </trkpt>
      <trkpt lat="42.91639" lon="0.20934">
        <ele>1421.45</ele>
        <time>2019-07-19T08:23:25Z</time>
      </trkpt>
      <trkpt lat="42.91641" lon="0.20932">
        <ele>1422.89</ele>
        <time>2019-07-19T08:23:29Z</time>
      </trkpt>
      <trkpt lat="42.91636" lon="0.20933">
        <ele>1424.33</ele>
        <time>2019-07-19T08:23:38Z</time>
      </trkpt>
      <trkpt lat="42.91635" lon="0.20934">
        <ele>1424.33</ele>
        <time>2019-07-19T08:23:40Z</time>
      </trkpt>
      <trkpt lat="42.91634" lon="0.20937">
        <ele>1424.33</ele>
        <time>2019-07-19T08:23:42Z</time>
      </trkpt>
      <trkpt lat="42.91634" lon="0.20941">
        <ele>1424.33</ele>
        <time>2019-07-19T08:23:46Z</time>
      </trkpt>
      <trkpt lat="42.91634" lon="0.20943">
        <ele>1424.33</ele>
        <time>2019-07-19T08:23:49Z</time>
      </trkpt>
      <trkpt lat="42.91641" lon="0.20958">
        <ele>1422.89</ele>
        <time>2019-07-19T08:24:00Z</time>
      </trkpt>
      <trkpt lat="42.91641" lon="0.20961">
        <ele>1422.89</ele>
        <time>2019-07-19T08:24:02Z</time>
      </trkpt>
      <trkpt lat="42.91641" lon="0.20963">
        <ele>1422.41</ele>
        <time>2019-07-19T08:24:04Z</time>
      </trkpt>
      <trkpt lat="42.91644" lon="0.20971">
        <ele>1422.89</ele>
        <time>2019-07-19T08:24:09Z</time>
      </trkpt>
      <trkpt lat="42.91645" lon="0.20974">
        <ele>1423.37</ele>
        <time>2019-07-19T08:24:12Z</time>
      </trkpt>
      <trkpt lat="42.91642" lon="0.2098">
        <ele>1424.33</ele>
        <time>2019-07-19T08:24:18Z</time>
      </trkpt>
      <trkpt lat="42.91637" lon="0.20982">
        <ele>1424.33</ele>
        <time>2019-07-19T08:24:21Z</time>
      </trkpt>
      <trkpt lat="42.91633" lon="0.20983">
        <ele>1425.77</ele>
        <time>2019-07-19T08:24:25Z</time>
      </trkpt>
      <trkpt lat="42.91627" lon="0.20993">
        <ele>1427.7</ele>
        <time>2019-07-19T08:24:36Z</time>
      </trkpt>
      <trkpt lat="42.91626" lon="0.20995">
        <ele>1428.18</ele>
        <time>2019-07-19T08:24:38Z</time>
      </trkpt>
      <trkpt lat="42.91621" lon="0.21006">
        <ele>1428.66</ele>
        <time>2019-07-19T08:24:49Z</time>
      </trkpt>
      <trkpt lat="42.91616" lon="0.21009">
        <ele>1428.18</ele>
        <time>2019-07-19T08:24:55Z</time>
      </trkpt>
      <trkpt lat="42.91614" lon="0.21021">
        <ele>1428.18</ele>
        <time>2019-07-19T08:25:03Z</time>
      </trkpt>
      <trkpt lat="42.91612" lon="0.21023">
        <ele>1428.66</ele>
        <time>2019-07-19T08:25:05Z</time>
      </trkpt>
      <trkpt lat="42.91612" lon="0.21038">
        <ele>1429.62</ele>
        <time>2019-07-19T08:25:16Z</time>
      </trkpt>
      <trkpt lat="42.91617" lon="0.21046">
        <ele>1430.58</ele>
        <time>2019-07-19T08:25:23Z</time>
      </trkpt>
      <trkpt lat="42.91619" lon="0.21057">
        <ele>1432.5</ele>
        <time>2019-07-19T08:25:33Z</time>
      </trkpt>
      <trkpt lat="42.91619" lon="0.21058">
        <ele>1432.98</ele>
        <time>2019-07-19T08:25:34Z</time>
      </trkpt>
      <trkpt lat="42.91618" lon="0.21061">
        <ele>1433.46</ele>
        <time>2019-07-19T08:25:37Z</time>
      </trkpt>
      <trkpt lat="42.91619" lon="0.21075">
        <ele>1435.39</ele>
        <time>2019-07-19T08:25:47Z</time>
      </trkpt>
      <trkpt lat="42.9162" lon="0.21084">
        <ele>1436.35</ele>
        <time>2019-07-19T08:25:54Z</time>
      </trkpt>
      <trkpt lat="42.9162" lon="0.21095">
        <ele>1439.23</ele>
        <time>2019-07-19T08:26:07Z</time>
      </trkpt>
      <trkpt lat="42.91621" lon="0.21099">
        <ele>1439.71</ele>
        <time>2019-07-19T08:26:11Z</time>
      </trkpt>
      <trkpt lat="42.91621" lon="0.21103">
        <ele>1440.67</ele>
        <time>2019-07-19T08:26:14Z</time>
      </trkpt>
      <trkpt lat="42.91622" lon="0.21107">
        <ele>1441.63</ele>
        <time>2019-07-19T08:26:20Z</time>
      </trkpt>
      <trkpt lat="42.91618" lon="0.21115">
        <ele>1444.04</ele>
        <time>2019-07-19T08:26:30Z</time>
      </trkpt>
      <trkpt lat="42.91613" lon="0.21124">
        <ele>1446.44</ele>
        <time>2019-07-19T08:26:41Z</time>
      </trkpt>
      <trkpt lat="42.91607" lon="0.21129">
        <ele>1449.32</ele>
        <time>2019-07-19T08:26:52Z</time>
      </trkpt>
      <trkpt lat="42.91598" lon="0.21134">
        <ele>1451.73</ele>
        <time>2019-07-19T08:27:02Z</time>
      </trkpt>
      <trkpt lat="42.91597" lon="0.21138">
        <ele>1452.69</ele>
        <time>2019-07-19T08:27:06Z</time>
      </trkpt>
      <trkpt lat="42.91595" lon="0.2114">
        <ele>1453.17</ele>
        <time>2019-07-19T08:27:09Z</time>
      </trkpt>
      <trkpt lat="42.91594" lon="0.21142">
        <ele>1453.65</ele>
        <time>2019-07-19T08:27:11Z</time>
      </trkpt>
      <trkpt lat="42.91594" lon="0.2115">
        <ele>1456.05</ele>
        <time>2019-07-19T08:27:22Z</time>
      </trkpt>
      <trkpt lat="42.91586" lon="0.21157">
        <ele>1457.98</ele>
        <time>2019-07-19T08:27:32Z</time>
      </trkpt>
      <trkpt lat="42.91584" lon="0.21161">
        <ele>1459.9</ele>
        <time>2019-07-19T08:27:41Z</time>
      </trkpt>
      <trkpt lat="42.91579" lon="0.21165">
        <ele>1461.82</ele>
        <time>2019-07-19T08:27:51Z</time>
      </trkpt>
      <trkpt lat="42.91577" lon="0.21165">
        <ele>1462.78</ele>
        <time>2019-07-19T08:27:57Z</time>
      </trkpt>
      <trkpt lat="42.91577" lon="0.21175">
        <ele>1463.74</ele>
        <time>2019-07-19T08:28:05Z</time>
      </trkpt>
      <trkpt lat="42.91578" lon="0.21177">
        <ele>1466.15</ele>
        <time>2019-07-19T08:28:15Z</time>
      </trkpt>
      <trkpt lat="42.91577" lon="0.21179">
        <ele>1467.11</ele>
        <time>2019-07-19T08:28:21Z</time>
      </trkpt>
      <trkpt lat="42.91572" lon="0.21185">
        <ele>1469.51</ele>
        <time>2019-07-19T08:28:33Z</time>
      </trkpt>
      <trkpt lat="42.91572" lon="0.21187">
        <ele>1470.47</ele>
        <time>2019-07-19T08:28:36Z</time>
      </trkpt>
      <trkpt lat="42.91572" lon="0.21197">
        <ele>1473.36</ele>
        <time>2019-07-19T08:28:49Z</time>
      </trkpt>
      <trkpt lat="42.91572" lon="0.212">
        <ele>1474.32</ele>
        <time>2019-07-19T08:28:54Z</time>
      </trkpt>
      <trkpt lat="42.91574" lon="0.21206">
        <ele>1476.24</ele>
        <time>2019-07-19T08:29:02Z</time>
      </trkpt>
      <trkpt lat="42.91577" lon="0.2121">
        <ele>1476.72</ele>
        <time>2019-07-19T08:29:06Z</time>
      </trkpt>
      <trkpt lat="42.91577" lon="0.21218">
        <ele>1479.13</ele>
        <time>2019-07-19T08:29:17Z</time>
      </trkpt>
      <trkpt lat="42.91576" lon="0.21226">
        <ele>1480.57</ele>
        <time>2019-07-19T08:29:26Z</time>
      </trkpt>
      <trkpt lat="42.91573" lon="0.2123">
        <ele>1482.01</ele>
        <time>2019-07-19T08:29:32Z</time>
      </trkpt>
      <trkpt lat="42.91567" lon="0.21234">
        <ele>1483.93</ele>
        <time>2019-07-19T08:29:42Z</time>
      </trkpt>
      <trkpt lat="42.91563" lon="0.21235">
        <ele>1485.37</ele>
        <time>2019-07-19T08:29:49Z</time>
      </trkpt>
      <trkpt lat="42.91563" lon="0.21237">
        <ele>1485.85</ele>
        <time>2019-07-19T08:29:51Z</time>
      </trkpt>
      <trkpt lat="42.91562" lon="0.21241">
        <ele>1486.34</ele>
        <time>2019-07-19T08:29:55Z</time>
      </trkpt>
      <trkpt lat="42.91563" lon="0.21248">
        <ele>1487.3</ele>
        <time>2019-07-19T08:30:01Z</time>
      </trkpt>
      <trkpt lat="42.91564" lon="0.21256">
        <ele>1488.26</ele>
        <time>2019-07-19T08:30:08Z</time>
      </trkpt>
      <trkpt lat="42.91566" lon="0.21263">
        <ele>1489.7</ele>
        <time>2019-07-19T08:30:15Z</time>
      </trkpt>
      <trkpt lat="42.91566" lon="0.21267">
        <ele>1490.18</ele>
        <time>2019-07-19T08:30:18Z</time>
      </trkpt>
      <trkpt lat="42.91565" lon="0.21277">
        <ele>1492.1</ele>
        <time>2019-07-19T08:30:28Z</time>
      </trkpt>
      <trkpt lat="42.91565" lon="0.21286">
        <ele>1494.51</ele>
        <time>2019-07-19T08:30:40Z</time>
      </trkpt>
      <trkpt lat="42.91566" lon="0.21293">
        <ele>1496.91</ele>
        <time>2019-07-19T08:30:52Z</time>
      </trkpt>
      <trkpt lat="42.91566" lon="0.21294">
        <ele>1496.91</ele>
        <time>2019-07-19T08:30:53Z</time>
      </trkpt>
      <trkpt lat="42.91571" lon="0.21301">
        <ele>1498.35</ele>
        <time>2019-07-19T08:31:02Z</time>
      </trkpt>
      <trkpt lat="42.91573" lon="0.2131">
        <ele>1500.76</ele>
        <time>2019-07-19T08:31:13Z</time>
      </trkpt>
      <trkpt lat="42.91579" lon="0.21316">
        <ele>1502.2</ele>
        <time>2019-07-19T08:31:23Z</time>
      </trkpt>
      <trkpt lat="42.91582" lon="0.21323">
        <ele>1504.6</ele>
        <time>2019-07-19T08:31:35Z</time>
      </trkpt>
      <trkpt lat="42.91584" lon="0.21329">
        <ele>1507</ele>
        <time>2019-07-19T08:31:47Z</time>
      </trkpt>
      <trkpt lat="42.91586" lon="0.21331">
        <ele>1507.97</ele>
        <time>2019-07-19T08:31:53Z</time>
      </trkpt>
      <trkpt lat="42.91592" lon="0.21335">
        <ele>1510.37</ele>
        <time>2019-07-19T08:32:04Z</time>
      </trkpt>
      <trkpt lat="42.91594" lon="0.2134">
        <ele>1512.29</ele>
        <time>2019-07-19T08:32:15Z</time>
      </trkpt>
      <trkpt lat="42.9159" lon="0.21344">
        <ele>1514.69</ele>
        <time>2019-07-19T08:32:27Z</time>
      </trkpt>
      <trkpt lat="42.91588" lon="0.21348">
        <ele>1516.62</ele>
        <time>2019-07-19T08:32:36Z</time>
      </trkpt>
      <trkpt lat="42.91591" lon="0.21354">
        <ele>1518.54</ele>
        <time>2019-07-19T08:32:47Z</time>
      </trkpt>
      <trkpt lat="42.91591" lon="0.21358">
        <ele>1519.5</ele>
        <time>2019-07-19T08:32:51Z</time>
      </trkpt>
      <trkpt lat="42.91589" lon="0.21363">
        <ele>1521.9</ele>
        <time>2019-07-19T08:33:02Z</time>
      </trkpt>
      <trkpt lat="42.91589" lon="0.21368">
        <ele>1523.83</ele>
        <time>2019-07-19T08:33:12Z</time>
      </trkpt>
      <trkpt lat="42.91589" lon="0.21371">
        <ele>1525.27</ele>
        <time>2019-07-19T08:33:21Z</time>
      </trkpt>
      <trkpt lat="42.91587" lon="0.21377">
        <ele>1527.19</ele>
        <time>2019-07-19T08:33:33Z</time>
      </trkpt>
      <trkpt lat="42.91588" lon="0.21385">
        <ele>1528.63</ele>
        <time>2019-07-19T08:33:40Z</time>
      </trkpt>
      <trkpt lat="42.91589" lon="0.21389">
        <ele>1529.59</ele>
        <time>2019-07-19T08:33:46Z</time>
      </trkpt>
      <trkpt lat="42.91588" lon="0.21397">
        <ele>1531.52</ele>
        <time>2019-07-19T08:33:56Z</time>
      </trkpt>
      <trkpt lat="42.91587" lon="0.21402">
        <ele>1533.44</ele>
        <time>2019-07-19T08:34:05Z</time>
      </trkpt>
      <trkpt lat="42.91584" lon="0.21412">
        <ele>1535.84</ele>
        <time>2019-07-19T08:34:16Z</time>
      </trkpt>
      <trkpt lat="42.91582" lon="0.21419">
        <ele>1537.29</ele>
        <time>2019-07-19T08:34:23Z</time>
      </trkpt>
      <trkpt lat="42.9158" lon="0.21424">
        <ele>1538.73</ele>
        <time>2019-07-19T08:34:28Z</time>
      </trkpt>
      <trkpt lat="42.91576" lon="0.21436">
        <ele>1540.65</ele>
        <time>2019-07-19T08:34:40Z</time>
      </trkpt>
      <trkpt lat="42.91573" lon="0.21442">
        <ele>1541.61</ele>
        <time>2019-07-19T08:34:46Z</time>
      </trkpt>
      <trkpt lat="42.91572" lon="0.2145">
        <ele>1543.05</ele>
        <time>2019-07-19T08:34:53Z</time>
      </trkpt>
      <trkpt lat="42.91571" lon="0.21456">
        <ele>1543.53</ele>
        <time>2019-07-19T08:34:57Z</time>
      </trkpt>
      <trkpt lat="42.91565" lon="0.21467">
        <ele>1544.5</ele>
        <time>2019-07-19T08:35:05Z</time>
      </trkpt>
      <trkpt lat="42.91564" lon="0.21469">
        <ele>1544.5</ele>
        <time>2019-07-19T08:35:07Z</time>
      </trkpt>
      <trkpt lat="42.91561" lon="0.21479">
        <ele>1544.98</ele>
        <time>2019-07-19T08:35:14Z</time>
      </trkpt>
      <trkpt lat="42.91559" lon="0.21489">
        <ele>1545.46</ele>
        <time>2019-07-19T08:35:20Z</time>
      </trkpt>
      <trkpt lat="42.91554" lon="0.21502">
        <ele>1545.94</ele>
        <time>2019-07-19T08:35:30Z</time>
      </trkpt>
      <trkpt lat="42.91553" lon="0.21504">
        <ele>1546.42</ele>
        <time>2019-07-19T08:35:32Z</time>
      </trkpt>
      <trkpt lat="42.91548" lon="0.21521">
        <ele>1547.86</ele>
        <time>2019-07-19T08:35:43Z</time>
      </trkpt>
      <trkpt lat="42.91546" lon="0.2153">
        <ele>1548.34</ele>
        <time>2019-07-19T08:35:49Z</time>
      </trkpt>
      <trkpt lat="42.91543" lon="0.2155">
        <ele>1549.78</ele>
        <time>2019-07-19T08:36:02Z</time>
      </trkpt>
      <trkpt lat="42.91541" lon="0.21554">
        <ele>1550.26</ele>
        <time>2019-07-19T08:36:05Z</time>
      </trkpt>
      <trkpt lat="42.9154" lon="0.2156">
        <ele>1550.26</ele>
        <time>2019-07-19T08:36:08Z</time>
      </trkpt>
      <trkpt lat="42.91538" lon="0.21566">
        <ele>1550.26</ele>
        <time>2019-07-19T08:36:12Z</time>
      </trkpt>
      <trkpt lat="42.91536" lon="0.21574">
        <ele>1550.26</ele>
        <time>2019-07-19T08:36:17Z</time>
      </trkpt>
      <trkpt lat="42.91527" lon="0.21593">
        <ele>1551.22</ele>
        <time>2019-07-19T08:36:30Z</time>
      </trkpt>
      <trkpt lat="42.91525" lon="0.21596">
        <ele>1551.22</ele>
        <time>2019-07-19T08:36:32Z</time>
      </trkpt>
      <trkpt lat="42.91523" lon="0.21602">
        <ele>1551.22</ele>
        <time>2019-07-19T08:36:36Z</time>
      </trkpt>
      <trkpt lat="42.9152" lon="0.21607">
        <ele>1551.22</ele>
        <time>2019-07-19T08:36:40Z</time>
      </trkpt>
      <trkpt lat="42.91515" lon="0.21617">
        <ele>1550.74</ele>
        <time>2019-07-19T08:36:47Z</time>
      </trkpt>
      <trkpt lat="42.91506" lon="0.21627">
        <ele>1550.74</ele>
        <time>2019-07-19T08:36:56Z</time>
      </trkpt>
      <trkpt lat="42.91502" lon="0.21629">
        <ele>1551.22</ele>
        <time>2019-07-19T08:37:00Z</time>
      </trkpt>
      <trkpt lat="42.915" lon="0.21631">
        <ele>1550.74</ele>
        <time>2019-07-19T08:37:02Z</time>
      </trkpt>
      <trkpt lat="42.91493" lon="0.2164">
        <ele>1551.22</ele>
        <time>2019-07-19T08:37:09Z</time>
      </trkpt>
      <trkpt lat="42.91483" lon="0.21655">
        <ele>1552.19</ele>
        <time>2019-07-19T08:37:22Z</time>
      </trkpt>
      <trkpt lat="42.91477" lon="0.21668">
        <ele>1553.15</ele>
        <time>2019-07-19T08:37:34Z</time>
      </trkpt>
      <trkpt lat="42.91475" lon="0.21669">
        <ele>1553.15</ele>
        <time>2019-07-19T08:37:35Z</time>
      </trkpt>
      <trkpt lat="42.91472" lon="0.21669">
        <ele>1553.15</ele>
        <time>2019-07-19T08:37:38Z</time>
      </trkpt>
      <trkpt lat="42.91468" lon="0.2167">
        <ele>1553.15</ele>
        <time>2019-07-19T08:37:52Z</time>
      </trkpt>
      <trkpt lat="42.91469" lon="0.21669">
        <ele>1553.15</ele>
        <time>2019-07-19T08:38:13Z</time>
      </trkpt>
      <trkpt lat="42.91469" lon="0.21668">
        <ele>1553.63</ele>
        <time>2019-07-19T08:38:38Z</time>
      </trkpt>
      <trkpt lat="42.91468" lon="0.21669">
        <ele>1553.63</ele>
        <time>2019-07-19T08:39:03Z</time>
      </trkpt>
      <trkpt lat="42.91469" lon="0.21669">
        <ele>1553.63</ele>
        <time>2019-07-19T08:39:28Z</time>
      </trkpt>
      <trkpt lat="42.9147" lon="0.21668">
        <ele>1554.11</ele>
        <time>2019-07-19T08:39:42Z</time>
      </trkpt>
      <trkpt lat="42.91468" lon="0.21669">
        <ele>1554.11</ele>
        <time>2019-07-19T08:40:05Z</time>
      </trkpt>
      <trkpt lat="42.91468" lon="0.21669">
        <ele>1554.11</ele>
        <time>2019-07-19T08:40:26Z</time>
      </trkpt>
      <trkpt lat="42.91466" lon="0.21669">
        <ele>1554.11</ele>
        <time>2019-07-19T08:40:37Z</time>
      </trkpt>
      <trkpt lat="42.91462" lon="0.21671">
        <ele>1554.11</ele>
        <time>2019-07-19T08:40:41Z</time>
      </trkpt>
      <trkpt lat="42.91458" lon="0.21672">
        <ele>1554.11</ele>
        <time>2019-07-19T08:40:45Z</time>
      </trkpt>
      <trkpt lat="42.91447" lon="0.21673">
        <ele>1554.59</ele>
        <time>2019-07-19T08:40:56Z</time>
      </trkpt>
      <trkpt lat="42.91437" lon="0.21673">
        <ele>1554.59</ele>
        <time>2019-07-19T08:41:07Z</time>
      </trkpt>
      <trkpt lat="42.91442" lon="0.21676">
        <ele>1553.63</ele>
        <time>2019-07-19T08:41:15Z</time>
      </trkpt>
      <trkpt lat="42.9144" lon="0.21674">
        <ele>1553.63</ele>
        <time>2019-07-19T08:41:43Z</time>
      </trkpt>
      <trkpt lat="42.9144" lon="0.21675">
        <ele>1554.11</ele>
        <time>2019-07-19T08:42:12Z</time>
      </trkpt>
      <trkpt lat="42.9144" lon="0.21674">
        <ele>1554.11</ele>
        <time>2019-07-19T08:42:25Z</time>
      </trkpt>
      <trkpt lat="42.9144" lon="0.21672">
        <ele>1555.07</ele>
        <time>2019-07-19T08:42:28Z</time>
      </trkpt>
      <trkpt lat="42.91436" lon="0.21672">
        <ele>1555.55</ele>
        <time>2019-07-19T08:42:32Z</time>
      </trkpt>
      <trkpt lat="42.91432" lon="0.21673">
        <ele>1555.07</ele>
        <time>2019-07-19T08:42:44Z</time>
      </trkpt>
      <trkpt lat="42.91418" lon="0.21672">
        <ele>1555.55</ele>
        <time>2019-07-19T08:42:55Z</time>
      </trkpt>
      <trkpt lat="42.91406" lon="0.21672">
        <ele>1555.55</ele>
        <time>2019-07-19T08:43:04Z</time>
      </trkpt>
      <trkpt lat="42.91402" lon="0.21674">
        <ele>1556.03</ele>
        <time>2019-07-19T08:43:06Z</time>
      </trkpt>
      <trkpt lat="42.91392" lon="0.21671">
        <ele>1556.03</ele>
        <time>2019-07-19T08:43:14Z</time>
      </trkpt>
      <trkpt lat="42.91385" lon="0.21668">
        <ele>1556.51</ele>
        <time>2019-07-19T08:43:19Z</time>
      </trkpt>
      <trkpt lat="42.91382" lon="0.21667">
        <ele>1556.51</ele>
        <time>2019-07-19T08:43:21Z</time>
      </trkpt>
      <trkpt lat="42.9137" lon="0.2166">
        <ele>1557.47</ele>
        <time>2019-07-19T08:43:31Z</time>
      </trkpt>
      <trkpt lat="42.91357" lon="0.2165">
        <ele>1558.43</ele>
        <time>2019-07-19T08:43:44Z</time>
      </trkpt>
      <trkpt lat="42.91346" lon="0.2164">
        <ele>1558.43</ele>
        <time>2019-07-19T08:43:55Z</time>
      </trkpt>
      <trkpt lat="42.91344" lon="0.21638">
        <ele>1557.95</ele>
        <time>2019-07-19T08:43:58Z</time>
      </trkpt>
      <trkpt lat="42.91334" lon="0.21633">
        <ele>1556.99</ele>
        <time>2019-07-19T08:44:06Z</time>
      </trkpt>
      <trkpt lat="42.91329" lon="0.21632">
        <ele>1556.99</ele>
        <time>2019-07-19T08:44:10Z</time>
      </trkpt>
      <trkpt lat="42.91319" lon="0.21627">
        <ele>1556.51</ele>
        <time>2019-07-19T08:44:18Z</time>
      </trkpt>
      <trkpt lat="42.91314" lon="0.21622">
        <ele>1556.51</ele>
        <time>2019-07-19T08:44:22Z</time>
      </trkpt>
      <trkpt lat="42.91297" lon="0.21618">
        <ele>1556.99</ele>
        <time>2019-07-19T08:44:34Z</time>
      </trkpt>
      <trkpt lat="42.91284" lon="0.21613">
        <ele>1556.99</ele>
        <time>2019-07-19T08:44:45Z</time>
      </trkpt>
      <trkpt lat="42.91274" lon="0.21602">
        <ele>1556.03</ele>
        <time>2019-07-19T08:44:54Z</time>
      </trkpt>
      <trkpt lat="42.9127" lon="0.216">
        <ele>1556.03</ele>
        <time>2019-07-19T08:44:57Z</time>
      </trkpt>
      <trkpt lat="42.91259" lon="0.21594">
        <ele>1555.55</ele>
        <time>2019-07-19T08:45:05Z</time>
      </trkpt>
      <trkpt lat="42.91254" lon="0.21589">
        <ele>1555.55</ele>
        <time>2019-07-19T08:45:10Z</time>
      </trkpt>
      <trkpt lat="42.91235" lon="0.21582">
        <ele>1554.59</ele>
        <time>2019-07-19T08:45:23Z</time>
      </trkpt>
      <trkpt lat="42.91228" lon="0.21578">
        <ele>1554.11</ele>
        <time>2019-07-19T08:45:28Z</time>
      </trkpt>
      <trkpt lat="42.91218" lon="0.21575">
        <ele>1553.15</ele>
        <time>2019-07-19T08:45:35Z</time>
      </trkpt>
      <trkpt lat="42.91214" lon="0.21572">
        <ele>1552.67</ele>
        <time>2019-07-19T08:45:38Z</time>
      </trkpt>
      <trkpt lat="42.91207" lon="0.21568">
        <ele>1552.19</ele>
        <time>2019-07-19T08:45:44Z</time>
      </trkpt>
      <trkpt lat="42.91201" lon="0.21561">
        <ele>1552.19</ele>
        <time>2019-07-19T08:45:50Z</time>
      </trkpt>
      <trkpt lat="42.91198" lon="0.21559">
        <ele>1552.67</ele>
        <time>2019-07-19T08:45:53Z</time>
      </trkpt>
      <trkpt lat="42.91194" lon="0.21551">
        <ele>1553.15</ele>
        <time>2019-07-19T08:45:58Z</time>
      </trkpt>
      <trkpt lat="42.91189" lon="0.21545">
        <ele>1553.15</ele>
        <time>2019-07-19T08:46:02Z</time>
      </trkpt>
      <trkpt lat="42.91185" lon="0.21541">
        <ele>1553.63</ele>
        <time>2019-07-19T08:46:06Z</time>
      </trkpt>
      <trkpt lat="42.91184" lon="0.21539">
        <ele>1554.11</ele>
        <time>2019-07-19T08:46:07Z</time>
      </trkpt>
      <trkpt lat="42.91181" lon="0.21537">
        <ele>1554.59</ele>
        <time>2019-07-19T08:46:10Z</time>
      </trkpt>
      <trkpt lat="42.91175" lon="0.21529">
        <ele>1556.03</ele>
        <time>2019-07-19T08:46:17Z</time>
      </trkpt>
      <trkpt lat="42.91175" lon="0.21522">
        <ele>1556.03</ele>
        <time>2019-07-19T08:46:22Z</time>
      </trkpt>
      <trkpt lat="42.91174" lon="0.21517">
        <ele>1556.51</ele>
        <time>2019-07-19T08:46:24Z</time>
      </trkpt>
      <trkpt lat="42.91172" lon="0.21515">
        <ele>1556.51</ele>
        <time>2019-07-19T08:46:27Z</time>
      </trkpt>
      <trkpt lat="42.91161" lon="0.21505">
        <ele>1556.03</ele>
        <time>2019-07-19T08:46:38Z</time>
      </trkpt>
      <trkpt lat="42.91153" lon="0.21498">
        <ele>1556.03</ele>
        <time>2019-07-19T08:46:45Z</time>
      </trkpt>
      <trkpt lat="42.9115" lon="0.21497">
        <ele>1556.03</ele>
        <time>2019-07-19T08:46:48Z</time>
      </trkpt>
      <trkpt lat="42.91146" lon="0.21492">
        <ele>1556.51</ele>
        <time>2019-07-19T08:46:53Z</time>
      </trkpt>
      <trkpt lat="42.91139" lon="0.21483">
        <ele>1558.43</ele>
        <time>2019-07-19T08:47:02Z</time>
      </trkpt>
      <trkpt lat="42.91133" lon="0.21477">
        <ele>1560.36</ele>
        <time>2019-07-19T08:47:11Z</time>
      </trkpt>
      <trkpt lat="42.91127" lon="0.21473">
        <ele>1561.8</ele>
        <time>2019-07-19T08:47:19Z</time>
      </trkpt>
      <trkpt lat="42.91122" lon="0.21476">
        <ele>1562.76</ele>
        <time>2019-07-19T08:47:26Z</time>
      </trkpt>
      <trkpt lat="42.91119" lon="0.2148">
        <ele>1562.28</ele>
        <time>2019-07-19T08:47:29Z</time>
      </trkpt>
      <trkpt lat="42.91117" lon="0.21484">
        <ele>1562.28</ele>
        <time>2019-07-19T08:47:33Z</time>
      </trkpt>
      <trkpt lat="42.91105" lon="0.21491">
        <ele>1561.32</ele>
        <time>2019-07-19T08:47:44Z</time>
      </trkpt>
      <trkpt lat="42.91102" lon="0.21492">
        <ele>1561.32</ele>
        <time>2019-07-19T08:47:46Z</time>
      </trkpt>
      <trkpt lat="42.91098" lon="0.21494">
        <ele>1561.32</ele>
        <time>2019-07-19T08:47:50Z</time>
      </trkpt>
      <trkpt lat="42.91096" lon="0.21499">
        <ele>1560.84</ele>
        <time>2019-07-19T08:47:53Z</time>
      </trkpt>
      <trkpt lat="42.91095" lon="0.21503">
        <ele>1559.88</ele>
        <time>2019-07-19T08:47:56Z</time>
      </trkpt>
      <trkpt lat="42.91093" lon="0.21509">
        <ele>1558.43</ele>
        <time>2019-07-19T08:48:01Z</time>
      </trkpt>
      <trkpt lat="42.91093" lon="0.21512">
        <ele>1557.95</ele>
        <time>2019-07-19T08:48:03Z</time>
      </trkpt>
      <trkpt lat="42.9109" lon="0.21519">
        <ele>1556.51</ele>
        <time>2019-07-19T08:48:09Z</time>
      </trkpt>
      <trkpt lat="42.91082" lon="0.21527">
        <ele>1553.63</ele>
        <time>2019-07-19T08:48:18Z</time>
      </trkpt>
      <trkpt lat="42.91077" lon="0.21529">
        <ele>1554.11</ele>
        <time>2019-07-19T08:48:22Z</time>
      </trkpt>
      <trkpt lat="42.91075" lon="0.21532">
        <ele>1554.11</ele>
        <time>2019-07-19T08:48:24Z</time>
      </trkpt>
      <trkpt lat="42.91069" lon="0.21532">
        <ele>1554.59</ele>
        <time>2019-07-19T08:48:28Z</time>
      </trkpt>
      <trkpt lat="42.91063" lon="0.21532">
        <ele>1555.07</ele>
        <time>2019-07-19T08:48:34Z</time>
      </trkpt>
      <trkpt lat="42.91053" lon="0.21534">
        <ele>1556.99</ele>
        <time>2019-07-19T08:48:44Z</time>
      </trkpt>
      <trkpt lat="42.91052" lon="0.21533">
        <ele>1557.47</ele>
        <time>2019-07-19T08:48:46Z</time>
      </trkpt>
      <trkpt lat="42.91051" lon="0.21534">
        <ele>1557.95</ele>
        <time>2019-07-19T08:48:48Z</time>
      </trkpt>
      <trkpt lat="42.9105" lon="0.21529">
        <ele>1558.92</ele>
        <time>2019-07-19T08:48:52Z</time>
      </trkpt>
      <trkpt lat="42.9104" lon="0.21524">
        <ele>1559.4</ele>
        <time>2019-07-19T08:49:01Z</time>
      </trkpt>
      <trkpt lat="42.91039" lon="0.21524">
        <ele>1559.88</ele>
        <time>2019-07-19T08:49:02Z</time>
      </trkpt>
      <trkpt lat="42.91036" lon="0.21523">
        <ele>1559.88</ele>
        <time>2019-07-19T08:49:04Z</time>
      </trkpt>
      <trkpt lat="42.91029" lon="0.21517">
        <ele>1560.36</ele>
        <time>2019-07-19T08:49:13Z</time>
      </trkpt>
      <trkpt lat="42.91023" lon="0.21508">
        <ele>1562.28</ele>
        <time>2019-07-19T08:49:25Z</time>
      </trkpt>
      <trkpt lat="42.91022" lon="0.21507">
        <ele>1562.28</ele>
        <time>2019-07-19T08:49:26Z</time>
      </trkpt>
      <trkpt lat="42.91016" lon="0.21506">
        <ele>1563.72</ele>
        <time>2019-07-19T08:49:33Z</time>
      </trkpt>
      <trkpt lat="42.91013" lon="0.21505">
        <ele>1563.72</ele>
        <time>2019-07-19T08:49:35Z</time>
      </trkpt>
      <trkpt lat="42.91011" lon="0.21505">
        <ele>1564.2</ele>
        <time>2019-07-19T08:49:37Z</time>
      </trkpt>
      <trkpt lat="42.91008" lon="0.21503">
        <ele>1564.68</ele>
        <time>2019-07-19T08:49:41Z</time>
      </trkpt>
      <trkpt lat="42.91006" lon="0.21499">
        <ele>1564.68</ele>
        <time>2019-07-19T08:49:44Z</time>
      </trkpt>
      <trkpt lat="42.91001" lon="0.21491">
        <ele>1565.16</ele>
        <time>2019-07-19T08:49:50Z</time>
      </trkpt>
      <trkpt lat="42.90997" lon="0.2149">
        <ele>1565.16</ele>
        <time>2019-07-19T08:49:53Z</time>
      </trkpt>
      <trkpt lat="42.90994" lon="0.21487">
        <ele>1565.64</ele>
        <time>2019-07-19T08:49:57Z</time>
      </trkpt>
      <trkpt lat="42.90991" lon="0.21487">
        <ele>1566.12</ele>
        <time>2019-07-19T08:50:00Z</time>
      </trkpt>
      <trkpt lat="42.90987" lon="0.21485">
        <ele>1566.61</ele>
        <time>2019-07-19T08:50:03Z</time>
      </trkpt>
      <trkpt lat="42.90985" lon="0.21485">
        <ele>1567.09</ele>
        <time>2019-07-19T08:50:05Z</time>
      </trkpt>
      <trkpt lat="42.9098" lon="0.2148">
        <ele>1568.05</ele>
        <time>2019-07-19T08:50:11Z</time>
      </trkpt>
      <trkpt lat="42.90976" lon="0.21476">
        <ele>1567.57</ele>
        <time>2019-07-19T08:50:15Z</time>
      </trkpt>
      <trkpt lat="42.90966" lon="0.21466">
        <ele>1568.53</ele>
        <time>2019-07-19T08:50:24Z</time>
      </trkpt>
      <trkpt lat="42.90964" lon="0.21466">
        <ele>1569.01</ele>
        <time>2019-07-19T08:50:26Z</time>
      </trkpt>
      <trkpt lat="42.90957" lon="0.21456">
        <ele>1569.97</ele>
        <time>2019-07-19T08:50:34Z</time>
      </trkpt>
      <trkpt lat="42.90955" lon="0.21455">
        <ele>1569.97</ele>
        <time>2019-07-19T08:50:36Z</time>
      </trkpt>
      <trkpt lat="42.9095" lon="0.21449">
        <ele>1570.45</ele>
        <time>2019-07-19T08:50:42Z</time>
      </trkpt>
      <trkpt lat="42.90939" lon="0.21445">
        <ele>1573.33</ele>
        <time>2019-07-19T08:50:54Z</time>
      </trkpt>
      <trkpt lat="42.90937" lon="0.21444">
        <ele>1573.33</ele>
        <time>2019-07-19T08:50:56Z</time>
      </trkpt>
      <trkpt lat="42.90931" lon="0.21441">
        <ele>1573.33</ele>
        <time>2019-07-19T08:51:01Z</time>
      </trkpt>
      <trkpt lat="42.90926" lon="0.21438">
        <ele>1573.82</ele>
        <time>2019-07-19T08:51:05Z</time>
      </trkpt>
      <trkpt lat="42.90917" lon="0.21435">
        <ele>1574.78</ele>
        <time>2019-07-19T08:51:13Z</time>
      </trkpt>
      <trkpt lat="42.90906" lon="0.21423">
        <ele>1574.3</ele>
        <time>2019-07-19T08:51:23Z</time>
      </trkpt>
      <trkpt lat="42.90904" lon="0.21421">
        <ele>1574.78</ele>
        <time>2019-07-19T08:51:26Z</time>
      </trkpt>
      <trkpt lat="42.909" lon="0.21416">
        <ele>1574.3</ele>
        <time>2019-07-19T08:51:33Z</time>
      </trkpt>
      <trkpt lat="42.90894" lon="0.21408">
        <ele>1575.26</ele>
        <time>2019-07-19T08:51:41Z</time>
      </trkpt>
      <trkpt lat="42.90894" lon="0.21403">
        <ele>1575.74</ele>
        <time>2019-07-19T08:51:44Z</time>
      </trkpt>
      <trkpt lat="42.90888" lon="0.214">
        <ele>1575.74</ele>
        <time>2019-07-19T08:51:52Z</time>
      </trkpt>
      <trkpt lat="42.90885" lon="0.21395">
        <ele>1575.74</ele>
        <time>2019-07-19T08:52:00Z</time>
      </trkpt>
      <trkpt lat="42.9088" lon="0.2139">
        <ele>1576.7</ele>
        <time>2019-07-19T08:52:08Z</time>
      </trkpt>
      <trkpt lat="42.9088" lon="0.21391">
        <ele>1577.18</ele>
        <time>2019-07-19T08:52:10Z</time>
      </trkpt>
      <trkpt lat="42.90879" lon="0.21389">
        <ele>1578.14</ele>
        <time>2019-07-19T08:52:12Z</time>
      </trkpt>
      <trkpt lat="42.9087" lon="0.21385">
        <ele>1578.14</ele>
        <time>2019-07-19T08:52:24Z</time>
      </trkpt>
      <trkpt lat="42.90867" lon="0.21384">
        <ele>1578.62</ele>
        <time>2019-07-19T08:52:28Z</time>
      </trkpt>
      <trkpt lat="42.90865" lon="0.21383">
        <ele>1579.1</ele>
        <time>2019-07-19T08:52:30Z</time>
      </trkpt>
      <trkpt lat="42.90863" lon="0.2138">
        <ele>1579.1</ele>
        <time>2019-07-19T08:52:33Z</time>
      </trkpt>
      <trkpt lat="42.90861" lon="0.21375">
        <ele>1579.58</ele>
        <time>2019-07-19T08:52:36Z</time>
      </trkpt>
      <trkpt lat="42.90855" lon="0.21362">
        <ele>1580.06</ele>
        <time>2019-07-19T08:52:46Z</time>
      </trkpt>
      <trkpt lat="42.90851" lon="0.21358">
        <ele>1580.54</ele>
        <time>2019-07-19T08:52:50Z</time>
      </trkpt>
      <trkpt lat="42.90848" lon="0.21357">
        <ele>1581.03</ele>
        <time>2019-07-19T08:52:52Z</time>
      </trkpt>
      <trkpt lat="42.9084" lon="0.21345">
        <ele>1582.47</ele>
        <time>2019-07-19T08:53:04Z</time>
      </trkpt>
      <trkpt lat="42.90838" lon="0.21341">
        <ele>1582.47</ele>
        <time>2019-07-19T08:53:07Z</time>
      </trkpt>
      <trkpt lat="42.90831" lon="0.21336">
        <ele>1582.95</ele>
        <time>2019-07-19T08:53:13Z</time>
      </trkpt>
      <trkpt lat="42.90824" lon="0.21328">
        <ele>1583.91</ele>
        <time>2019-07-19T08:53:19Z</time>
      </trkpt>
      <trkpt lat="42.90818" lon="0.21316">
        <ele>1584.87</ele>
        <time>2019-07-19T08:53:26Z</time>
      </trkpt>
      <trkpt lat="42.90815" lon="0.21313">
        <ele>1585.35</ele>
        <time>2019-07-19T08:53:30Z</time>
      </trkpt>
      <trkpt lat="42.90812" lon="0.21308">
        <ele>1585.35</ele>
        <time>2019-07-19T08:53:33Z</time>
      </trkpt>
      <trkpt lat="42.90807" lon="0.21305">
        <ele>1586.31</ele>
        <time>2019-07-19T08:53:38Z</time>
      </trkpt>
      <trkpt lat="42.90801" lon="0.21299">
        <ele>1586.31</ele>
        <time>2019-07-19T08:53:44Z</time>
      </trkpt>
      <trkpt lat="42.90796" lon="0.21298">
        <ele>1585.83</ele>
        <time>2019-07-19T08:53:48Z</time>
      </trkpt>
      <trkpt lat="42.90792" lon="0.21294">
        <ele>1585.35</ele>
        <time>2019-07-19T08:53:52Z</time>
      </trkpt>
      <trkpt lat="42.90787" lon="0.21291">
        <ele>1584.87</ele>
        <time>2019-07-19T08:53:56Z</time>
      </trkpt>
      <trkpt lat="42.90782" lon="0.21286">
        <ele>1584.87</ele>
        <time>2019-07-19T08:54:01Z</time>
      </trkpt>
      <trkpt lat="42.90781" lon="0.21286">
        <ele>1584.87</ele>
        <time>2019-07-19T08:54:02Z</time>
      </trkpt>
      <trkpt lat="42.90779" lon="0.21284">
        <ele>1585.35</ele>
        <time>2019-07-19T08:54:04Z</time>
      </trkpt>
      <trkpt lat="42.90776" lon="0.21284">
        <ele>1585.83</ele>
        <time>2019-07-19T08:54:06Z</time>
      </trkpt>
      <trkpt lat="42.90772" lon="0.21279">
        <ele>1587.75</ele>
        <time>2019-07-19T08:54:12Z</time>
      </trkpt>
      <trkpt lat="42.9077" lon="0.21279">
        <ele>1587.27</ele>
        <time>2019-07-19T08:54:14Z</time>
      </trkpt>
      <trkpt lat="42.90765" lon="0.21274">
        <ele>1587.75</ele>
        <time>2019-07-19T08:54:21Z</time>
      </trkpt>
      <trkpt lat="42.90762" lon="0.2127">
        <ele>1588.24</ele>
        <time>2019-07-19T08:54:26Z</time>
      </trkpt>
      <trkpt lat="42.90759" lon="0.21254">
        <ele>1588.24</ele>
        <time>2019-07-19T08:54:35Z</time>
      </trkpt>
      <trkpt lat="42.90757" lon="0.21249">
        <ele>1588.72</ele>
        <time>2019-07-19T08:54:40Z</time>
      </trkpt>
      <trkpt lat="42.90756" lon="0.21246">
        <ele>1589.2</ele>
        <time>2019-07-19T08:54:42Z</time>
      </trkpt>
      <trkpt lat="42.90755" lon="0.21244">
        <ele>1589.2</ele>
        <time>2019-07-19T08:54:43Z</time>
      </trkpt>
      <trkpt lat="42.90752" lon="0.21234">
        <ele>1589.2</ele>
        <time>2019-07-19T08:54:49Z</time>
      </trkpt>
      <trkpt lat="42.90748" lon="0.21223">
        <ele>1590.16</ele>
        <time>2019-07-19T08:54:56Z</time>
      </trkpt>
      <trkpt lat="42.90746" lon="0.2122">
        <ele>1591.12</ele>
        <time>2019-07-19T08:55:00Z</time>
      </trkpt>
      <trkpt lat="42.90743" lon="0.21216">
        <ele>1591.12</ele>
        <time>2019-07-19T08:55:04Z</time>
      </trkpt>
      <trkpt lat="42.9074" lon="0.21208">
        <ele>1591.12</ele>
        <time>2019-07-19T08:55:09Z</time>
      </trkpt>
      <trkpt lat="42.90737" lon="0.21206">
        <ele>1591.6</ele>
        <time>2019-07-19T08:55:12Z</time>
      </trkpt>
      <trkpt lat="42.90728" lon="0.21196">
        <ele>1592.56</ele>
        <time>2019-07-19T08:55:22Z</time>
      </trkpt>
      <trkpt lat="42.90724" lon="0.21187">
        <ele>1593.04</ele>
        <time>2019-07-19T08:55:27Z</time>
      </trkpt>
      <trkpt lat="42.9072" lon="0.21179">
        <ele>1593.04</ele>
        <time>2019-07-19T08:55:32Z</time>
      </trkpt>
      <trkpt lat="42.9072" lon="0.21176">
        <ele>1593.52</ele>
        <time>2019-07-19T08:55:34Z</time>
      </trkpt>
      <trkpt lat="42.90718" lon="0.21168">
        <ele>1593.52</ele>
        <time>2019-07-19T08:55:39Z</time>
      </trkpt>
      <trkpt lat="42.90715" lon="0.21154">
        <ele>1594.48</ele>
        <time>2019-07-19T08:55:50Z</time>
      </trkpt>
      <trkpt lat="42.90715" lon="0.21151">
        <ele>1594.96</ele>
        <time>2019-07-19T08:55:53Z</time>
      </trkpt>
      <trkpt lat="42.90713" lon="0.21149">
        <ele>1595.45</ele>
        <time>2019-07-19T08:55:55Z</time>
      </trkpt>
      <trkpt lat="42.9071" lon="0.21147">
        <ele>1595.93</ele>
        <time>2019-07-19T08:55:58Z</time>
      </trkpt>
      <trkpt lat="42.90708" lon="0.21142">
        <ele>1596.89</ele>
        <time>2019-07-19T08:56:02Z</time>
      </trkpt>
      <trkpt lat="42.90704" lon="0.21136">
        <ele>1597.85</ele>
        <time>2019-07-19T08:56:08Z</time>
      </trkpt>
      <trkpt lat="42.90694" lon="0.21129">
        <ele>1600.25</ele>
        <time>2019-07-19T08:56:20Z</time>
      </trkpt>
      <trkpt lat="42.90689" lon="0.21125">
        <ele>1602.17</ele>
        <time>2019-07-19T08:56:30Z</time>
      </trkpt>
      <trkpt lat="42.90685" lon="0.21121">
        <ele>1603.62</ele>
        <time>2019-07-19T08:56:40Z</time>
      </trkpt>
      <trkpt lat="42.90681" lon="0.2112">
        <ele>1604.1</ele>
        <time>2019-07-19T08:56:45Z</time>
      </trkpt>
      <trkpt lat="42.90676" lon="0.21125">
        <ele>1605.06</ele>
        <time>2019-07-19T08:56:51Z</time>
      </trkpt>
      <trkpt lat="42.90673" lon="0.21125">
        <ele>1605.54</ele>
        <time>2019-07-19T08:56:54Z</time>
      </trkpt>
      <trkpt lat="42.90667" lon="0.21126">
        <ele>1606.5</ele>
        <time>2019-07-19T08:56:58Z</time>
      </trkpt>
      <trkpt lat="42.90665" lon="0.21125">
        <ele>1606.98</ele>
        <time>2019-07-19T08:57:00Z</time>
      </trkpt>
      <trkpt lat="42.90655" lon="0.21122">
        <ele>1608.42</ele>
        <time>2019-07-19T08:57:10Z</time>
      </trkpt>
      <trkpt lat="42.9065" lon="0.2112">
        <ele>1608.9</ele>
        <time>2019-07-19T08:57:15Z</time>
      </trkpt>
      <trkpt lat="42.90647" lon="0.2112">
        <ele>1609.38</ele>
        <time>2019-07-19T08:57:17Z</time>
      </trkpt>
      <trkpt lat="42.90636" lon="0.2112">
        <ele>1610.83</ele>
        <time>2019-07-19T08:57:27Z</time>
      </trkpt>
      <trkpt lat="42.90633" lon="0.21119">
        <ele>1611.31</ele>
        <time>2019-07-19T08:57:30Z</time>
      </trkpt>
      <trkpt lat="42.9063" lon="0.21121">
        <ele>1611.79</ele>
        <time>2019-07-19T08:57:32Z</time>
      </trkpt>
      <trkpt lat="42.90628" lon="0.2112">
        <ele>1612.27</ele>
        <time>2019-07-19T08:57:33Z</time>
      </trkpt>
      <trkpt lat="42.90619" lon="0.21119">
        <ele>1613.23</ele>
        <time>2019-07-19T08:57:41Z</time>
      </trkpt>
      <trkpt lat="42.90613" lon="0.21119">
        <ele>1613.23</ele>
        <time>2019-07-19T08:57:46Z</time>
      </trkpt>
      <trkpt lat="42.90611" lon="0.21116">
        <ele>1613.71</ele>
        <time>2019-07-19T08:57:48Z</time>
      </trkpt>
      <trkpt lat="42.90607" lon="0.21108">
        <ele>1615.15</ele>
        <time>2019-07-19T08:57:55Z</time>
      </trkpt>
      <trkpt lat="42.90606" lon="0.21107">
        <ele>1615.63</ele>
        <time>2019-07-19T08:57:57Z</time>
      </trkpt>
      <trkpt lat="42.90602" lon="0.21103">
        <ele>1616.59</ele>
        <time>2019-07-19T08:58:01Z</time>
      </trkpt>
      <trkpt lat="42.90598" lon="0.211">
        <ele>1617.07</ele>
        <time>2019-07-19T08:58:05Z</time>
      </trkpt>
      <trkpt lat="42.90594" lon="0.21095">
        <ele>1618.52</ele>
        <time>2019-07-19T08:58:12Z</time>
      </trkpt>
      <trkpt lat="42.90591" lon="0.21095">
        <ele>1619</ele>
        <time>2019-07-19T08:58:14Z</time>
      </trkpt>
      <trkpt lat="42.90588" lon="0.21098">
        <ele>1620.44</ele>
        <time>2019-07-19T08:58:18Z</time>
      </trkpt>
      <trkpt lat="42.9058" lon="0.21098">
        <ele>1622.36</ele>
        <time>2019-07-19T08:58:28Z</time>
      </trkpt>
      <trkpt lat="42.90578" lon="0.21095">
        <ele>1623.32</ele>
        <time>2019-07-19T08:58:31Z</time>
      </trkpt>
      <trkpt lat="42.90577" lon="0.2109">
        <ele>1623.8</ele>
        <time>2019-07-19T08:58:34Z</time>
      </trkpt>
      <trkpt lat="42.90575" lon="0.21082">
        <ele>1624.28</ele>
        <time>2019-07-19T08:58:39Z</time>
      </trkpt>
      <trkpt lat="42.90573" lon="0.21079">
        <ele>1624.28</ele>
        <time>2019-07-19T08:58:41Z</time>
      </trkpt>
      <trkpt lat="42.9057" lon="0.21076">
        <ele>1625.25</ele>
        <time>2019-07-19T08:58:45Z</time>
      </trkpt>
      <trkpt lat="42.90568" lon="0.21075">
        <ele>1625.25</ele>
        <time>2019-07-19T08:58:47Z</time>
      </trkpt>
      <trkpt lat="42.90565" lon="0.21071">
        <ele>1626.21</ele>
        <time>2019-07-19T08:58:51Z</time>
      </trkpt>
      <trkpt lat="42.90563" lon="0.21064">
        <ele>1627.17</ele>
        <time>2019-07-19T08:58:55Z</time>
      </trkpt>
      <trkpt lat="42.9056" lon="0.21049">
        <ele>1629.57</ele>
        <time>2019-07-19T08:59:06Z</time>
      </trkpt>
      <trkpt lat="42.90556" lon="0.21044">
        <ele>1632.46</ele>
        <time>2019-07-19T08:59:16Z</time>
      </trkpt>
      <trkpt lat="42.90552" lon="0.21031">
        <ele>1635.34</ele>
        <time>2019-07-19T08:59:29Z</time>
      </trkpt>
      <trkpt lat="42.9055" lon="0.21024">
        <ele>1637.74</ele>
        <time>2019-07-19T08:59:40Z</time>
      </trkpt>
      <trkpt lat="42.90546" lon="0.21029">
        <ele>1640.15</ele>
        <time>2019-07-19T08:59:50Z</time>
      </trkpt>
      <trkpt lat="42.90542" lon="0.21019">
        <ele>1642.55</ele>
        <time>2019-07-19T09:00:01Z</time>
      </trkpt>
      <trkpt lat="42.90538" lon="0.21013">
        <ele>1646.4</ele>
        <time>2019-07-19T09:00:13Z</time>
      </trkpt>
      <trkpt lat="42.90538" lon="0.21007">
        <ele>1647.36</ele>
        <time>2019-07-19T09:00:22Z</time>
      </trkpt>
      <trkpt lat="42.90539" lon="0.21005">
        <ele>1647.84</ele>
        <time>2019-07-19T09:00:24Z</time>
      </trkpt>
      <trkpt lat="42.90539" lon="0.21002">
        <ele>1648.32</ele>
        <time>2019-07-19T09:00:26Z</time>
      </trkpt>
      <trkpt lat="42.9054" lon="0.20999">
        <ele>1648.32</ele>
        <time>2019-07-19T09:00:28Z</time>
      </trkpt>
      <trkpt lat="42.90541" lon="0.20991">
        <ele>1649.28</ele>
        <time>2019-07-19T09:00:33Z</time>
      </trkpt>
      <trkpt lat="42.90544" lon="0.20981">
        <ele>1651.2</ele>
        <time>2019-07-19T09:00:43Z</time>
      </trkpt>
      <trkpt lat="42.90545" lon="0.20971">
        <ele>1654.09</ele>
        <time>2019-07-19T09:00:54Z</time>
      </trkpt>
      <trkpt lat="42.90545" lon="0.20961">
        <ele>1656.01</ele>
        <time>2019-07-19T09:01:04Z</time>
      </trkpt>
      <trkpt lat="42.90546" lon="0.20951">
        <ele>1657.93</ele>
        <time>2019-07-19T09:01:14Z</time>
      </trkpt>
      <trkpt lat="42.90546" lon="0.2095">
        <ele>1658.89</ele>
        <time>2019-07-19T09:01:17Z</time>
      </trkpt>
      <trkpt lat="42.9055" lon="0.20947">
        <ele>1659.37</ele>
        <time>2019-07-19T09:01:21Z</time>
      </trkpt>
      <trkpt lat="42.90553" lon="0.20945">
        <ele>1659.85</ele>
        <time>2019-07-19T09:01:24Z</time>
      </trkpt>
      <trkpt lat="42.90554" lon="0.2094">
        <ele>1660.81</ele>
        <time>2019-07-19T09:01:28Z</time>
      </trkpt>
      <trkpt lat="42.90556" lon="0.20935">
        <ele>1661.3</ele>
        <time>2019-07-19T09:01:32Z</time>
      </trkpt>
      <trkpt lat="42.90561" lon="0.20928">
        <ele>1663.7</ele>
        <time>2019-07-19T09:01:41Z</time>
      </trkpt>
      <trkpt lat="42.90561" lon="0.20921">
        <ele>1665.62</ele>
        <time>2019-07-19T09:01:51Z</time>
      </trkpt>
      <trkpt lat="42.90563" lon="0.20912">
        <ele>1668.51</ele>
        <time>2019-07-19T09:02:03Z</time>
      </trkpt>
      <trkpt lat="42.90559" lon="0.20909">
        <ele>1670.91</ele>
        <time>2019-07-19T09:02:14Z</time>
      </trkpt>
      <trkpt lat="42.90556" lon="0.20907">
        <ele>1671.39</ele>
        <time>2019-07-19T09:02:18Z</time>
      </trkpt>
      <trkpt lat="42.90547" lon="0.20909">
        <ele>1674.27</ele>
        <time>2019-07-19T09:02:30Z</time>
      </trkpt>
      <trkpt lat="42.9054" lon="0.20909">
        <ele>1676.2</ele>
        <time>2019-07-19T09:02:41Z</time>
      </trkpt>
      <trkpt lat="42.90536" lon="0.20911">
        <ele>1678.6</ele>
        <time>2019-07-19T09:02:52Z</time>
      </trkpt>
      <trkpt lat="42.9053" lon="0.20918">
        <ele>1681</ele>
        <time>2019-07-19T09:03:02Z</time>
      </trkpt>
      <trkpt lat="42.90525" lon="0.20919">
        <ele>1682.44</ele>
        <time>2019-07-19T09:03:11Z</time>
      </trkpt>
      <trkpt lat="42.90517" lon="0.20921">
        <ele>1685.81</ele>
        <time>2019-07-19T09:03:23Z</time>
      </trkpt>
      <trkpt lat="42.90513" lon="0.20923">
        <ele>1687.25</ele>
        <time>2019-07-19T09:03:30Z</time>
      </trkpt>
      <trkpt lat="42.90511" lon="0.20928">
        <ele>1689.65</ele>
        <time>2019-07-19T09:03:41Z</time>
      </trkpt>
      <trkpt lat="42.90508" lon="0.20931">
        <ele>1692.06</ele>
        <time>2019-07-19T09:03:52Z</time>
      </trkpt>
      <trkpt lat="42.90506" lon="0.20934">
        <ele>1693.5</ele>
        <time>2019-07-19T09:03:59Z</time>
      </trkpt>
      <trkpt lat="42.90507" lon="0.20939">
        <ele>1694.94</ele>
        <time>2019-07-19T09:04:06Z</time>
      </trkpt>
      <trkpt lat="42.90501" lon="0.20944">
        <ele>1696.86</ele>
        <time>2019-07-19T09:04:16Z</time>
      </trkpt>
      <trkpt lat="42.90494" lon="0.20952">
        <ele>1699.27</ele>
        <time>2019-07-19T09:04:27Z</time>
      </trkpt>
      <trkpt lat="42.90488" lon="0.20958">
        <ele>1701.67</ele>
        <time>2019-07-19T09:04:38Z</time>
      </trkpt>
      <trkpt lat="42.90484" lon="0.20959">
        <ele>1704.07</ele>
        <time>2019-07-19T09:04:48Z</time>
      </trkpt>
      <trkpt lat="42.90479" lon="0.20956">
        <ele>1706.48</ele>
        <time>2019-07-19T09:04:58Z</time>
      </trkpt>
      <trkpt lat="42.90474" lon="0.20956">
        <ele>1707.92</ele>
        <time>2019-07-19T09:05:06Z</time>
      </trkpt>
      <trkpt lat="42.90473" lon="0.20951">
        <ele>1709.36</ele>
        <time>2019-07-19T09:05:13Z</time>
      </trkpt>
      <trkpt lat="42.90472" lon="0.20946">
        <ele>1711.76</ele>
        <time>2019-07-19T09:05:21Z</time>
      </trkpt>
      <trkpt lat="42.90466" lon="0.20943">
        <ele>1714.17</ele>
        <time>2019-07-19T09:05:32Z</time>
      </trkpt>
      <trkpt lat="42.90462" lon="0.2095">
        <ele>1716.09</ele>
        <time>2019-07-19T09:05:41Z</time>
      </trkpt>
      <trkpt lat="42.90457" lon="0.20957">
        <ele>1718.01</ele>
        <time>2019-07-19T09:05:51Z</time>
      </trkpt>
      <trkpt lat="42.90457" lon="0.20962">
        <ele>1719.46</ele>
        <time>2019-07-19T09:05:56Z</time>
      </trkpt>
      <trkpt lat="42.90456" lon="0.20964">
        <ele>1719.46</ele>
        <time>2019-07-19T09:05:58Z</time>
      </trkpt>
      <trkpt lat="42.90454" lon="0.20972">
        <ele>1720.9</ele>
        <time>2019-07-19T09:06:05Z</time>
      </trkpt>
      <trkpt lat="42.90452" lon="0.20973">
        <ele>1721.38</ele>
        <time>2019-07-19T09:06:07Z</time>
      </trkpt>
      <trkpt lat="42.9045" lon="0.20971">
        <ele>1722.34</ele>
        <time>2019-07-19T09:06:10Z</time>
      </trkpt>
      <trkpt lat="42.90445" lon="0.20966">
        <ele>1724.26</ele>
        <time>2019-07-19T09:06:23Z</time>
      </trkpt>
      <trkpt lat="42.90445" lon="0.20963">
        <ele>1724.26</ele>
        <time>2019-07-19T09:06:32Z</time>
      </trkpt>
      <trkpt lat="42.90444" lon="0.20961">
        <ele>1724.74</ele>
        <time>2019-07-19T09:06:34Z</time>
      </trkpt>
      <trkpt lat="42.9044" lon="0.20954">
        <ele>1724.74</ele>
        <time>2019-07-19T09:06:40Z</time>
      </trkpt>
      <trkpt lat="42.90437" lon="0.20951">
        <ele>1725.22</ele>
        <time>2019-07-19T09:06:44Z</time>
      </trkpt>
      <trkpt lat="42.90427" lon="0.20947">
        <ele>1727.15</ele>
        <time>2019-07-19T09:06:54Z</time>
      </trkpt>
      <trkpt lat="42.90416" lon="0.20946">
        <ele>1730.03</ele>
        <time>2019-07-19T09:07:06Z</time>
      </trkpt>
      <trkpt lat="42.90408" lon="0.20943">
        <ele>1731.95</ele>
        <time>2019-07-19T09:07:16Z</time>
      </trkpt>
      <trkpt lat="42.90403" lon="0.20936">
        <ele>1732.91</ele>
        <time>2019-07-19T09:07:24Z</time>
      </trkpt>
      <trkpt lat="42.90396" lon="0.2093">
        <ele>1735.32</ele>
        <time>2019-07-19T09:07:34Z</time>
      </trkpt>
      <trkpt lat="42.90394" lon="0.20932">
        <ele>1735.8</ele>
        <time>2019-07-19T09:07:37Z</time>
      </trkpt>
      <trkpt lat="42.90388" lon="0.20926">
        <ele>1737.24</ele>
        <time>2019-07-19T09:07:46Z</time>
      </trkpt>
      <trkpt lat="42.90386" lon="0.20925">
        <ele>1737.72</ele>
        <time>2019-07-19T09:07:48Z</time>
      </trkpt>
      <trkpt lat="42.90381" lon="0.20917">
        <ele>1740.12</ele>
        <time>2019-07-19T09:08:00Z</time>
      </trkpt>
      <trkpt lat="42.90379" lon="0.20912">
        <ele>1741.08</ele>
        <time>2019-07-19T09:08:05Z</time>
      </trkpt>
      <trkpt lat="42.90377" lon="0.20912">
        <ele>1741.57</ele>
        <time>2019-07-19T09:08:07Z</time>
      </trkpt>
      <trkpt lat="42.90375" lon="0.20912">
        <ele>1742.05</ele>
        <time>2019-07-19T09:08:11Z</time>
      </trkpt>
      <trkpt lat="42.90373" lon="0.20912">
        <ele>1742.05</ele>
        <time>2019-07-19T09:08:13Z</time>
      </trkpt>
      <trkpt lat="42.90367" lon="0.20905">
        <ele>1744.45</ele>
        <time>2019-07-19T09:08:23Z</time>
      </trkpt>
      <trkpt lat="42.90359" lon="0.20899">
        <ele>1746.37</ele>
        <time>2019-07-19T09:08:35Z</time>
      </trkpt>
      <trkpt lat="42.90356" lon="0.20896">
        <ele>1746.85</ele>
        <time>2019-07-19T09:08:39Z</time>
      </trkpt>
      <trkpt lat="42.9035" lon="0.20894">
        <ele>1748.29</ele>
        <time>2019-07-19T09:08:45Z</time>
      </trkpt>
      <trkpt lat="42.90344" lon="0.20892">
        <ele>1750.22</ele>
        <time>2019-07-19T09:08:55Z</time>
      </trkpt>
      <trkpt lat="42.90338" lon="0.20885">
        <ele>1751.66</ele>
        <time>2019-07-19T09:09:04Z</time>
      </trkpt>
      <trkpt lat="42.90333" lon="0.20883">
        <ele>1753.1</ele>
        <time>2019-07-19T09:09:10Z</time>
      </trkpt>
      <trkpt lat="42.90327" lon="0.20879">
        <ele>1755.02</ele>
        <time>2019-07-19T09:09:20Z</time>
      </trkpt>
      <trkpt lat="42.90326" lon="0.20877">
        <ele>1755.99</ele>
        <time>2019-07-19T09:09:24Z</time>
      </trkpt>
      <trkpt lat="42.90317" lon="0.20872">
        <ele>1755.99</ele>
        <time>2019-07-19T09:09:34Z</time>
      </trkpt>
      <trkpt lat="42.90314" lon="0.2087">
        <ele>1755.5</ele>
        <time>2019-07-19T09:09:38Z</time>
      </trkpt>
      <trkpt lat="42.90311" lon="0.20865">
        <ele>1755.02</ele>
        <time>2019-07-19T09:09:43Z</time>
      </trkpt>
      <trkpt lat="42.90305" lon="0.20859">
        <ele>1754.54</ele>
        <time>2019-07-19T09:09:49Z</time>
      </trkpt>
      <trkpt lat="42.90299" lon="0.20858">
        <ele>1754.54</ele>
        <time>2019-07-19T09:09:54Z</time>
      </trkpt>
      <trkpt lat="42.90289" lon="0.20857">
        <ele>1755.99</ele>
        <time>2019-07-19T09:10:02Z</time>
      </trkpt>
      <trkpt lat="42.90285" lon="0.20854">
        <ele>1758.39</ele>
        <time>2019-07-19T09:10:12Z</time>
      </trkpt>
      <trkpt lat="42.9028" lon="0.2085">
        <ele>1760.79</ele>
        <time>2019-07-19T09:10:23Z</time>
      </trkpt>
      <trkpt lat="42.9028" lon="0.20851">
        <ele>1761.27</ele>
        <time>2019-07-19T09:10:25Z</time>
      </trkpt>
      <trkpt lat="42.90275" lon="0.20849">
        <ele>1763.68</ele>
        <time>2019-07-19T09:10:35Z</time>
      </trkpt>
      <trkpt lat="42.90276" lon="0.20838">
        <ele>1766.08</ele>
        <time>2019-07-19T09:10:47Z</time>
      </trkpt>
      <trkpt lat="42.90271" lon="0.20835">
        <ele>1768.48</ele>
        <time>2019-07-19T09:10:58Z</time>
      </trkpt>
      <trkpt lat="42.90268" lon="0.20835">
        <ele>1770.41</ele>
        <time>2019-07-19T09:11:09Z</time>
      </trkpt>
      <trkpt lat="42.90263" lon="0.20832">
        <ele>1772.81</ele>
        <time>2019-07-19T09:11:20Z</time>
      </trkpt>
      <trkpt lat="42.90259" lon="0.20829">
        <ele>1775.69</ele>
        <time>2019-07-19T09:11:31Z</time>
      </trkpt>
      <trkpt lat="42.90254" lon="0.2083">
        <ele>1778.1</ele>
        <time>2019-07-19T09:11:42Z</time>
      </trkpt>
      <trkpt lat="42.90252" lon="0.20832">
        <ele>1779.54</ele>
        <time>2019-07-19T09:11:50Z</time>
      </trkpt>
      <trkpt lat="42.90252" lon="0.20835">
        <ele>1780.5</ele>
        <time>2019-07-19T09:11:56Z</time>
      </trkpt>
      <trkpt lat="42.90248" lon="0.20834">
        <ele>1780.98</ele>
        <time>2019-07-19T09:12:02Z</time>
      </trkpt>
      <trkpt lat="42.90242" lon="0.20837">
        <ele>1781.94</ele>
        <time>2019-07-19T09:12:10Z</time>
      </trkpt>
      <trkpt lat="42.90234" lon="0.20836">
        <ele>1784.34</ele>
        <time>2019-07-19T09:12:21Z</time>
      </trkpt>
      <trkpt lat="42.90232" lon="0.20836">
        <ele>1785.31</ele>
        <time>2019-07-19T09:12:25Z</time>
      </trkpt>
      <trkpt lat="42.90225" lon="0.20837">
        <ele>1787.71</ele>
        <time>2019-07-19T09:12:35Z</time>
      </trkpt>
      <trkpt lat="42.9022" lon="0.20837">
        <ele>1789.63</ele>
        <time>2019-07-19T09:12:45Z</time>
      </trkpt>
      <trkpt lat="42.90217" lon="0.20836">
        <ele>1791.07</ele>
        <time>2019-07-19T09:12:51Z</time>
      </trkpt>
      <trkpt lat="42.90215" lon="0.20833">
        <ele>1792.52</ele>
        <time>2019-07-19T09:12:59Z</time>
      </trkpt>
      <trkpt lat="42.90216" lon="0.20829">
        <ele>1793.48</ele>
        <time>2019-07-19T09:13:01Z</time>
      </trkpt>
      <trkpt lat="42.90216" lon="0.20823">
        <ele>1794.92</ele>
        <time>2019-07-19T09:13:08Z</time>
      </trkpt>
      <trkpt lat="42.90217" lon="0.20818">
        <ele>1795.4</ele>
        <time>2019-07-19T09:13:14Z</time>
      </trkpt>
      <trkpt lat="42.90214" lon="0.20814">
        <ele>1796.84</ele>
        <time>2019-07-19T09:13:20Z</time>
      </trkpt>
      <trkpt lat="42.90211" lon="0.20811">
        <ele>1798.76</ele>
        <time>2019-07-19T09:13:30Z</time>
      </trkpt>
      <trkpt lat="42.90205" lon="0.20801">
        <ele>1800.69</ele>
        <time>2019-07-19T09:13:39Z</time>
      </trkpt>
      <trkpt lat="42.90201" lon="0.20799">
        <ele>1802.13</ele>
        <time>2019-07-19T09:13:46Z</time>
      </trkpt>
      <trkpt lat="42.90198" lon="0.208">
        <ele>1802.61</ele>
        <time>2019-07-19T09:13:49Z</time>
      </trkpt>
      <trkpt lat="42.90194" lon="0.20802">
        <ele>1804.05</ele>
        <time>2019-07-19T09:13:54Z</time>
      </trkpt>
      <trkpt lat="42.90191" lon="0.20803">
        <ele>1804.53</ele>
        <time>2019-07-19T09:13:58Z</time>
      </trkpt>
      <trkpt lat="42.90189" lon="0.20801">
        <ele>1806.45</ele>
        <time>2019-07-19T09:14:07Z</time>
      </trkpt>
      <trkpt lat="42.90181" lon="0.20799">
        <ele>1808.86</ele>
        <time>2019-07-19T09:14:19Z</time>
      </trkpt>
      <trkpt lat="42.90176" lon="0.20793">
        <ele>1810.78</ele>
        <time>2019-07-19T09:14:29Z</time>
      </trkpt>
      <trkpt lat="42.90174" lon="0.20791">
        <ele>1811.74</ele>
        <time>2019-07-19T09:14:33Z</time>
      </trkpt>
      <trkpt lat="42.90172" lon="0.20793">
        <ele>1812.7</ele>
        <time>2019-07-19T09:14:36Z</time>
      </trkpt>
      <trkpt lat="42.90165" lon="0.20793">
        <ele>1814.15</ele>
        <time>2019-07-19T09:14:46Z</time>
      </trkpt>
      <trkpt lat="42.90165" lon="0.20793">
        <ele>1814.63</ele>
        <time>2019-07-19T09:14:47Z</time>
      </trkpt>
      <trkpt lat="42.90158" lon="0.20793">
        <ele>1816.07</ele>
        <time>2019-07-19T09:14:56Z</time>
      </trkpt>
      <trkpt lat="42.90151" lon="0.2079">
        <ele>1818.47</ele>
        <time>2019-07-19T09:15:07Z</time>
      </trkpt>
      <trkpt lat="42.90147" lon="0.20783">
        <ele>1819.91</ele>
        <time>2019-07-19T09:15:16Z</time>
      </trkpt>
      <trkpt lat="42.90151" lon="0.20778">
        <ele>1820.39</ele>
        <time>2019-07-19T09:15:20Z</time>
      </trkpt>
      <trkpt lat="42.90152" lon="0.20774">
        <ele>1820.87</ele>
        <time>2019-07-19T09:15:23Z</time>
      </trkpt>
      <trkpt lat="42.90153" lon="0.20772">
        <ele>1821.35</ele>
        <time>2019-07-19T09:15:25Z</time>
      </trkpt>
      <trkpt lat="42.90156" lon="0.20769">
        <ele>1821.35</ele>
        <time>2019-07-19T09:15:28Z</time>
      </trkpt>
      <trkpt lat="42.90161" lon="0.20764">
        <ele>1822.32</ele>
        <time>2019-07-19T09:15:34Z</time>
      </trkpt>
      <trkpt lat="42.90165" lon="0.20756">
        <ele>1822.8</ele>
        <time>2019-07-19T09:15:41Z</time>
      </trkpt>
      <trkpt lat="42.90175" lon="0.20748">
        <ele>1825.2</ele>
        <time>2019-07-19T09:15:53Z</time>
      </trkpt>
      <trkpt lat="42.90181" lon="0.20743">
        <ele>1826.64</ele>
        <time>2019-07-19T09:16:01Z</time>
      </trkpt>
      <trkpt lat="42.90183" lon="0.20739">
        <ele>1828.08</ele>
        <time>2019-07-19T09:16:08Z</time>
      </trkpt>
      <trkpt lat="42.9018" lon="0.20736">
        <ele>1829.53</ele>
        <time>2019-07-19T09:16:16Z</time>
      </trkpt>
      <trkpt lat="42.90174" lon="0.20735">
        <ele>1831.45</ele>
        <time>2019-07-19T09:16:26Z</time>
      </trkpt>
      <trkpt lat="42.90169" lon="0.20728">
        <ele>1833.85</ele>
        <time>2019-07-19T09:16:38Z</time>
      </trkpt>
      <trkpt lat="42.90166" lon="0.20723">
        <ele>1835.77</ele>
        <time>2019-07-19T09:16:47Z</time>
      </trkpt>
      <trkpt lat="42.90165" lon="0.20723">
        <ele>1836.26</ele>
        <time>2019-07-19T09:16:50Z</time>
      </trkpt>
      <trkpt lat="42.9016" lon="0.20711">
        <ele>1838.66</ele>
        <time>2019-07-19T09:17:05Z</time>
      </trkpt>
      <trkpt lat="42.90157" lon="0.20696">
        <ele>1841.06</ele>
        <time>2019-07-19T09:17:20Z</time>
      </trkpt>
      <trkpt lat="42.90151" lon="0.20677">
        <ele>1844.91</ele>
        <time>2019-07-19T09:17:38Z</time>
      </trkpt>
      <trkpt lat="42.90144" lon="0.20657">
        <ele>1847.79</ele>
        <time>2019-07-19T09:17:54Z</time>
      </trkpt>
      <trkpt lat="42.90134" lon="0.20642">
        <ele>1850.68</ele>
        <time>2019-07-19T09:18:09Z</time>
      </trkpt>
      <trkpt lat="42.90134" lon="0.2063">
        <ele>1853.56</ele>
        <time>2019-07-19T09:18:21Z</time>
      </trkpt>
      <trkpt lat="42.90133" lon="0.20626">
        <ele>1854.04</ele>
        <time>2019-07-19T09:18:23Z</time>
      </trkpt>
      <trkpt lat="42.90124" lon="0.20602">
        <ele>1856.92</ele>
        <time>2019-07-19T09:18:40Z</time>
      </trkpt>
      <trkpt lat="42.90113" lon="0.20585">
        <ele>1860.29</ele>
        <time>2019-07-19T09:18:57Z</time>
      </trkpt>
      <trkpt lat="42.90109" lon="0.20567">
        <ele>1863.17</ele>
        <time>2019-07-19T09:19:15Z</time>
      </trkpt>
      <trkpt lat="42.90103" lon="0.20564">
        <ele>1866.06</ele>
        <time>2019-07-19T09:19:30Z</time>
      </trkpt>
      <trkpt lat="42.90096" lon="0.20557">
        <ele>1868.46</ele>
        <time>2019-07-19T09:19:42Z</time>
      </trkpt>
      <trkpt lat="42.90091" lon="0.20545">
        <ele>1871.82</ele>
        <time>2019-07-19T09:19:59Z</time>
      </trkpt>
      <trkpt lat="42.90087" lon="0.2054">
        <ele>1873.27</ele>
        <time>2019-07-19T09:20:08Z</time>
      </trkpt>
      <trkpt lat="42.90081" lon="0.20526">
        <ele>1876.63</ele>
        <time>2019-07-19T09:20:26Z</time>
      </trkpt>
      <trkpt lat="42.90076" lon="0.2051">
        <ele>1880</ele>
        <time>2019-07-19T09:20:42Z</time>
      </trkpt>
      <trkpt lat="42.90073" lon="0.20508">
        <ele>1881.92</ele>
        <time>2019-07-19T09:20:53Z</time>
      </trkpt>
      <trkpt lat="42.90071" lon="0.20503">
        <ele>1883.36</ele>
        <time>2019-07-19T09:21:00Z</time>
      </trkpt>
      <trkpt lat="42.90068" lon="0.20496">
        <ele>1884.8</ele>
        <time>2019-07-19T09:21:10Z</time>
      </trkpt>
      <trkpt lat="42.90068" lon="0.20493">
        <ele>1885.76</ele>
        <time>2019-07-19T09:21:13Z</time>
      </trkpt>
      <trkpt lat="42.90064" lon="0.20489">
        <ele>1887.69</ele>
        <time>2019-07-19T09:21:21Z</time>
      </trkpt>
      <trkpt lat="42.90062" lon="0.20483">
        <ele>1888.65</ele>
        <time>2019-07-19T09:21:29Z</time>
      </trkpt>
      <trkpt lat="42.90059" lon="0.20481">
        <ele>1889.13</ele>
        <time>2019-07-19T09:21:33Z</time>
      </trkpt>
      <trkpt lat="42.90056" lon="0.20479">
        <ele>1890.09</ele>
        <time>2019-07-19T09:21:37Z</time>
      </trkpt>
      <trkpt lat="42.90056" lon="0.20476">
        <ele>1890.57</ele>
        <time>2019-07-19T09:21:40Z</time>
      </trkpt>
      <trkpt lat="42.90055" lon="0.20474">
        <ele>1891.05</ele>
        <time>2019-07-19T09:21:42Z</time>
      </trkpt>
      <trkpt lat="42.90048" lon="0.20464">
        <ele>1892.97</ele>
        <time>2019-07-19T09:21:54Z</time>
      </trkpt>
      <trkpt lat="42.90042" lon="0.20453">
        <ele>1895.38</ele>
        <time>2019-07-19T09:22:05Z</time>
      </trkpt>
      <trkpt lat="42.90042" lon="0.20453">
        <ele>1895.38</ele>
        <time>2019-07-19T09:22:06Z</time>
      </trkpt>
      <trkpt lat="42.9004" lon="0.20451">
        <ele>1896.34</ele>
        <time>2019-07-19T09:22:08Z</time>
      </trkpt>
      <trkpt lat="42.90037" lon="0.20451">
        <ele>1896.34</ele>
        <time>2019-07-19T09:22:10Z</time>
      </trkpt>
      <trkpt lat="42.90028" lon="0.2044">
        <ele>1898.74</ele>
        <time>2019-07-19T09:22:23Z</time>
      </trkpt>
      <trkpt lat="42.90023" lon="0.20434">
        <ele>1901.14</ele>
        <time>2019-07-19T09:22:34Z</time>
      </trkpt>
      <trkpt lat="42.90015" lon="0.20433">
        <ele>1903.07</ele>
        <time>2019-07-19T09:22:45Z</time>
      </trkpt>
      <trkpt lat="42.90011" lon="0.20432">
        <ele>1904.51</ele>
        <time>2019-07-19T09:22:53Z</time>
      </trkpt>
      <trkpt lat="42.90009" lon="0.20432">
        <ele>1905.47</ele>
        <time>2019-07-19T09:22:55Z</time>
      </trkpt>
      <trkpt lat="42.90001" lon="0.20435">
        <ele>1907.39</ele>
        <time>2019-07-19T09:23:05Z</time>
      </trkpt>
      <trkpt lat="42.89995" lon="0.20436">
        <ele>1908.83</ele>
        <time>2019-07-19T09:23:14Z</time>
      </trkpt>
      <trkpt lat="42.89994" lon="0.20434">
        <ele>1909.32</ele>
        <time>2019-07-19T09:23:25Z</time>
      </trkpt>
      <trkpt lat="42.89994" lon="0.20432">
        <ele>1908.35</ele>
        <time>2019-07-19T09:23:33Z</time>
      </trkpt>
      <trkpt lat="42.89995" lon="0.20434">
        <ele>1908.35</ele>
        <time>2019-07-19T09:24:09Z</time>
      </trkpt>
      <trkpt lat="42.89995" lon="0.20435">
        <ele>1908.83</ele>
        <time>2019-07-19T09:24:43Z</time>
      </trkpt>
      <trkpt lat="42.89995" lon="0.20435">
        <ele>1908.83</ele>
        <time>2019-07-19T09:25:12Z</time>
      </trkpt>
      <trkpt lat="42.89995" lon="0.20435">
        <ele>1909.32</ele>
        <time>2019-07-19T09:25:42Z</time>
      </trkpt>
      <trkpt lat="42.89994" lon="0.20435">
        <ele>1909.32</ele>
        <time>2019-07-19T09:26:12Z</time>
      </trkpt>
      <trkpt lat="42.89993" lon="0.20436">
        <ele>1909.32</ele>
        <time>2019-07-19T09:26:36Z</time>
      </trkpt>
      <trkpt lat="42.89993" lon="0.20436">
        <ele>1909.8</ele>
        <time>2019-07-19T09:26:57Z</time>
      </trkpt>
      <trkpt lat="42.89993" lon="0.20435">
        <ele>1909.8</ele>
        <time>2019-07-19T09:27:28Z</time>
      </trkpt>
      <trkpt lat="42.89993" lon="0.20436">
        <ele>1909.8</ele>
        <time>2019-07-19T09:28:00Z</time>
      </trkpt>
      <trkpt lat="42.89993" lon="0.20436">
        <ele>1910.28</ele>
        <time>2019-07-19T09:28:35Z</time>
      </trkpt>
      <trkpt lat="42.89993" lon="0.20436">
        <ele>1910.28</ele>
        <time>2019-07-19T09:29:07Z</time>
      </trkpt>
      <trkpt lat="42.89993" lon="0.20436">
        <ele>1910.28</ele>
        <time>2019-07-19T09:29:36Z</time>
      </trkpt>
      <trkpt lat="42.89993" lon="0.20436">
        <ele>1910.76</ele>
        <time>2019-07-19T09:30:04Z</time>
      </trkpt>
      <trkpt lat="42.89993" lon="0.20436">
        <ele>1910.76</ele>
        <time>2019-07-19T09:30:40Z</time>
      </trkpt>
      <trkpt lat="42.89993" lon="0.20435">
        <ele>1910.76</ele>
        <time>2019-07-19T09:31:02Z</time>
      </trkpt>
      <trkpt lat="42.89994" lon="0.20435">
        <ele>1911.24</ele>
        <time>2019-07-19T09:31:32Z</time>
      </trkpt>
      <trkpt lat="42.89994" lon="0.20435">
        <ele>1911.24</ele>
        <time>2019-07-19T09:32:00Z</time>
      </trkpt>
      <trkpt lat="42.89994" lon="0.20435">
        <ele>1911.24</ele>
        <time>2019-07-19T09:32:33Z</time>
      </trkpt>
      <trkpt lat="42.89994" lon="0.20435">
        <ele>1911.24</ele>
        <time>2019-07-19T09:33:09Z</time>
      </trkpt>
      <trkpt lat="42.89994" lon="0.20435">
        <ele>1911.24</ele>
        <time>2019-07-19T09:33:43Z</time>
      </trkpt>
      <trkpt lat="42.89995" lon="0.20435">
        <ele>1911.72</ele>
        <time>2019-07-19T09:34:17Z</time>
      </trkpt>
      <trkpt lat="42.89995" lon="0.20435">
        <ele>1911.72</ele>
        <time>2019-07-19T09:34:50Z</time>
      </trkpt>
      <trkpt lat="42.89995" lon="0.20434">
        <ele>1911.72</ele>
        <time>2019-07-19T09:35:23Z</time>
      </trkpt>
      <trkpt lat="42.89995" lon="0.20435">
        <ele>1912.2</ele>
        <time>2019-07-19T09:35:45Z</time>
      </trkpt>
      <trkpt lat="42.89995" lon="0.20436">
        <ele>1912.2</ele>
        <time>2019-07-19T09:36:20Z</time>
      </trkpt>
      <trkpt lat="42.89995" lon="0.20435">
        <ele>1912.2</ele>
        <time>2019-07-19T09:36:53Z</time>
      </trkpt>
      <trkpt lat="42.89996" lon="0.20435">
        <ele>1912.68</ele>
        <time>2019-07-19T09:37:34Z</time>
      </trkpt>
      <trkpt lat="42.89996" lon="0.20436">
        <ele>1912.68</ele>
        <time>2019-07-19T09:38:15Z</time>
      </trkpt>
      <trkpt lat="42.89996" lon="0.20436">
        <ele>1913.16</ele>
        <time>2019-07-19T09:38:58Z</time>
      </trkpt>
      <trkpt lat="42.89996" lon="0.20436">
        <ele>1913.16</ele>
        <time>2019-07-19T09:39:36Z</time>
      </trkpt>
      <trkpt lat="42.89996" lon="0.20438">
        <ele>1913.64</ele>
        <time>2019-07-19T09:40:15Z</time>
      </trkpt>
      <trkpt lat="42.89995" lon="0.20438">
        <ele>1913.64</ele>
        <time>2019-07-19T09:40:57Z</time>
      </trkpt>
      <trkpt lat="42.89995" lon="0.20438">
        <ele>1913.64</ele>
        <time>2019-07-19T09:41:40Z</time>
      </trkpt>
      <trkpt lat="42.89996" lon="0.20436">
        <ele>1914.12</ele>
        <time>2019-07-19T09:42:18Z</time>
      </trkpt>
      <trkpt lat="42.89997" lon="0.20435">
        <ele>1914.12</ele>
        <time>2019-07-19T09:42:56Z</time>
      </trkpt>
      <trkpt lat="42.89997" lon="0.20436">
        <ele>1914.12</ele>
        <time>2019-07-19T09:43:40Z</time>
      </trkpt>
      <trkpt lat="42.89997" lon="0.20435">
        <ele>1914.6</ele>
        <time>2019-07-19T09:44:21Z</time>
      </trkpt>
      <trkpt lat="42.89996" lon="0.20435">
        <ele>1914.6</ele>
        <time>2019-07-19T09:45:01Z</time>
      </trkpt>
      <trkpt lat="42.89996" lon="0.20435">
        <ele>1915.08</ele>
        <time>2019-07-19T09:45:39Z</time>
      </trkpt>
      <trkpt lat="42.89996" lon="0.20436">
        <ele>1915.08</ele>
        <time>2019-07-19T09:46:16Z</time>
      </trkpt>
      <trkpt lat="42.89996" lon="0.20436">
        <ele>1915.56</ele>
        <time>2019-07-19T09:46:57Z</time>
      </trkpt>
      <trkpt lat="42.89996" lon="0.20437">
        <ele>1915.56</ele>
        <time>2019-07-19T09:47:32Z</time>
      </trkpt>
      <trkpt lat="42.89996" lon="0.20436">
        <ele>1916.04</ele>
        <time>2019-07-19T09:48:09Z</time>
      </trkpt>
      <trkpt lat="42.89997" lon="0.20436">
        <ele>1916.04</ele>
        <time>2019-07-19T09:48:20Z</time>
      </trkpt>
      <trkpt lat="42.89995" lon="0.20435">
        <ele>1916.53</ele>
        <time>2019-07-19T09:48:23Z</time>
      </trkpt>
      <trkpt lat="42.89993" lon="0.20429">
        <ele>1917.97</ele>
        <time>2019-07-19T09:48:32Z</time>
      </trkpt>
      <trkpt lat="42.89991" lon="0.20426">
        <ele>1918.45</ele>
        <time>2019-07-19T09:48:35Z</time>
      </trkpt>
      <trkpt lat="42.89986" lon="0.20413">
        <ele>1920.85</ele>
        <time>2019-07-19T09:48:48Z</time>
      </trkpt>
      <trkpt lat="42.89985" lon="0.2041">
        <ele>1921.33</ele>
        <time>2019-07-19T09:48:51Z</time>
      </trkpt>
      <trkpt lat="42.8998" lon="0.20402">
        <ele>1923.25</ele>
        <time>2019-07-19T09:49:04Z</time>
      </trkpt>
      <trkpt lat="42.89978" lon="0.204">
        <ele>1923.74</ele>
        <time>2019-07-19T09:49:07Z</time>
      </trkpt>
      <trkpt lat="42.89974" lon="0.20393">
        <ele>1924.7</ele>
        <time>2019-07-19T09:49:14Z</time>
      </trkpt>
      <trkpt lat="42.89971" lon="0.20388">
        <ele>1925.66</ele>
        <time>2019-07-19T09:49:19Z</time>
      </trkpt>
      <trkpt lat="42.89967" lon="0.20376">
        <ele>1927.1</ele>
        <time>2019-07-19T09:49:31Z</time>
      </trkpt>
      <trkpt lat="42.89966" lon="0.20372">
        <ele>1928.06</ele>
        <time>2019-07-19T09:49:35Z</time>
      </trkpt>
      <trkpt lat="42.89962" lon="0.20362">
        <ele>1929.98</ele>
        <time>2019-07-19T09:49:47Z</time>
      </trkpt>
      <trkpt lat="42.89958" lon="0.2035">
        <ele>1931.91</ele>
        <time>2019-07-19T09:49:57Z</time>
      </trkpt>
      <trkpt lat="42.89957" lon="0.20348">
        <ele>1931.91</ele>
        <time>2019-07-19T09:50:00Z</time>
      </trkpt>
      <trkpt lat="42.89957" lon="0.20345">
        <ele>1932.39</ele>
        <time>2019-07-19T09:50:02Z</time>
      </trkpt>
      <trkpt lat="42.89954" lon="0.20336">
        <ele>1933.83</ele>
        <time>2019-07-19T09:50:12Z</time>
      </trkpt>
      <trkpt lat="42.89952" lon="0.20326">
        <ele>1935.75</ele>
        <time>2019-07-19T09:50:22Z</time>
      </trkpt>
      <trkpt lat="42.89951" lon="0.20317">
        <ele>1937.19</ele>
        <time>2019-07-19T09:50:31Z</time>
      </trkpt>
      <trkpt lat="42.89949" lon="0.20307">
        <ele>1938.64</ele>
        <time>2019-07-19T09:50:40Z</time>
      </trkpt>
      <trkpt lat="42.89946" lon="0.20299">
        <ele>1939.12</ele>
        <time>2019-07-19T09:50:48Z</time>
      </trkpt>
      <trkpt lat="42.89945" lon="0.20288">
        <ele>1941.04</ele>
        <time>2019-07-19T09:51:00Z</time>
      </trkpt>
      <trkpt lat="42.89944" lon="0.20286">
        <ele>1942</ele>
        <time>2019-07-19T09:51:02Z</time>
      </trkpt>
      <trkpt lat="42.89941" lon="0.20279">
        <ele>1942.48</ele>
        <time>2019-07-19T09:51:08Z</time>
      </trkpt>
      <trkpt lat="42.89937" lon="0.2027">
        <ele>1942.48</ele>
        <time>2019-07-19T09:51:15Z</time>
      </trkpt>
      <trkpt lat="42.89935" lon="0.20269">
        <ele>1942.48</ele>
        <time>2019-07-19T09:51:17Z</time>
      </trkpt>
      <trkpt lat="42.89926" lon="0.20265">
        <ele>1942.96</ele>
        <time>2019-07-19T09:51:27Z</time>
      </trkpt>
      <trkpt lat="42.89924" lon="0.20264">
        <ele>1942.96</ele>
        <time>2019-07-19T09:51:29Z</time>
      </trkpt>
      <trkpt lat="42.89922" lon="0.20262">
        <ele>1942.96</ele>
        <time>2019-07-19T09:51:31Z</time>
      </trkpt>
      <trkpt lat="42.8992" lon="0.2026">
        <ele>1942.96</ele>
        <time>2019-07-19T09:51:33Z</time>
      </trkpt>
      <trkpt lat="42.89916" lon="0.20258">
        <ele>1943.44</ele>
        <time>2019-07-19T09:51:37Z</time>
      </trkpt>
      <trkpt lat="42.89912" lon="0.20253">
        <ele>1944.4</ele>
        <time>2019-07-19T09:51:44Z</time>
      </trkpt>
      <trkpt lat="42.89906" lon="0.20246">
        <ele>1945.36</ele>
        <time>2019-07-19T09:51:51Z</time>
      </trkpt>
      <trkpt lat="42.899" lon="0.20236">
        <ele>1945.85</ele>
        <time>2019-07-19T09:52:00Z</time>
      </trkpt>
      <trkpt lat="42.89891" lon="0.20229">
        <ele>1945.85</ele>
        <time>2019-07-19T09:52:12Z</time>
      </trkpt>
      <trkpt lat="42.8989" lon="0.20227">
        <ele>1945.85</ele>
        <time>2019-07-19T09:52:13Z</time>
      </trkpt>
      <trkpt lat="42.89885" lon="0.20221">
        <ele>1946.33</ele>
        <time>2019-07-19T09:52:19Z</time>
      </trkpt>
      <trkpt lat="42.89883" lon="0.20214">
        <ele>1946.81</ele>
        <time>2019-07-19T09:52:24Z</time>
      </trkpt>
      <trkpt lat="42.89881" lon="0.2021">
        <ele>1947.29</ele>
        <time>2019-07-19T09:52:27Z</time>
      </trkpt>
      <trkpt lat="42.89877" lon="0.20208">
        <ele>1947.29</ele>
        <time>2019-07-19T09:52:32Z</time>
      </trkpt>
      <trkpt lat="42.89875" lon="0.20206">
        <ele>1947.29</ele>
        <time>2019-07-19T09:52:34Z</time>
      </trkpt>
      <trkpt lat="42.8987" lon="0.20201">
        <ele>1948.25</ele>
        <time>2019-07-19T09:52:40Z</time>
      </trkpt>
      <trkpt lat="42.89868" lon="0.20197">
        <ele>1948.73</ele>
        <time>2019-07-19T09:52:43Z</time>
      </trkpt>
      <trkpt lat="42.89867" lon="0.20195">
        <ele>1949.21</ele>
        <time>2019-07-19T09:52:45Z</time>
      </trkpt>
      <trkpt lat="42.89865" lon="0.20193">
        <ele>1949.21</ele>
        <time>2019-07-19T09:52:47Z</time>
      </trkpt>
      <trkpt lat="42.89865" lon="0.20189">
        <ele>1949.69</ele>
        <time>2019-07-19T09:52:50Z</time>
      </trkpt>
      <trkpt lat="42.89859" lon="0.20179">
        <ele>1949.69</ele>
        <time>2019-07-19T09:52:58Z</time>
      </trkpt>
      <trkpt lat="42.89856" lon="0.2016">
        <ele>1950.17</ele>
        <time>2019-07-19T09:53:12Z</time>
      </trkpt>
      <trkpt lat="42.89856" lon="0.20159">
        <ele>1950.65</ele>
        <time>2019-07-19T09:53:13Z</time>
      </trkpt>
      <trkpt lat="42.89853" lon="0.20149">
        <ele>1952.09</ele>
        <time>2019-07-19T09:53:21Z</time>
      </trkpt>
      <trkpt lat="42.89855" lon="0.20134">
        <ele>1954.5</ele>
        <time>2019-07-19T09:53:35Z</time>
      </trkpt>
      <trkpt lat="42.89855" lon="0.20133">
        <ele>1954.98</ele>
        <time>2019-07-19T09:53:36Z</time>
      </trkpt>
      <trkpt lat="42.89858" lon="0.20124">
        <ele>1956.9</ele>
        <time>2019-07-19T09:53:47Z</time>
      </trkpt>
      <trkpt lat="42.89862" lon="0.20118">
        <ele>1958.34</ele>
        <time>2019-07-19T09:53:55Z</time>
      </trkpt>
      <trkpt lat="42.89866" lon="0.2011">
        <ele>1960.27</ele>
        <time>2019-07-19T09:54:05Z</time>
      </trkpt>
      <trkpt lat="42.8987" lon="0.20103">
        <ele>1962.19</ele>
        <time>2019-07-19T09:54:15Z</time>
      </trkpt>
      <trkpt lat="42.89875" lon="0.20095">
        <ele>1964.11</ele>
        <time>2019-07-19T09:54:24Z</time>
      </trkpt>
      <trkpt lat="42.89873" lon="0.20088">
        <ele>1965.55</ele>
        <time>2019-07-19T09:54:33Z</time>
      </trkpt>
      <trkpt lat="42.89874" lon="0.2008">
        <ele>1967.48</ele>
        <time>2019-07-19T09:54:43Z</time>
      </trkpt>
      <trkpt lat="42.89877" lon="0.20071">
        <ele>1969.4</ele>
        <time>2019-07-19T09:54:53Z</time>
      </trkpt>
      <trkpt lat="42.89877" lon="0.20064">
        <ele>1971.32</ele>
        <time>2019-07-19T09:55:04Z</time>
      </trkpt>
      <trkpt lat="42.89877" lon="0.20064">
        <ele>1971.32</ele>
        <time>2019-07-19T09:55:05Z</time>
      </trkpt>
      <trkpt lat="42.8988" lon="0.2006">
        <ele>1973.72</ele>
        <time>2019-07-19T09:55:16Z</time>
      </trkpt>
      <trkpt lat="42.89881" lon="0.20054">
        <ele>1975.17</ele>
        <time>2019-07-19T09:55:26Z</time>
      </trkpt>
      <trkpt lat="42.89882" lon="0.20046">
        <ele>1978.05</ele>
        <time>2019-07-19T09:55:39Z</time>
      </trkpt>
      <trkpt lat="42.89881" lon="0.2004">
        <ele>1980.45</ele>
        <time>2019-07-19T09:55:51Z</time>
      </trkpt>
      <trkpt lat="42.89881" lon="0.20041">
        <ele>1980.45</ele>
        <time>2019-07-19T09:55:53Z</time>
      </trkpt>
      <trkpt lat="42.89879" lon="0.20043">
        <ele>1980.93</ele>
        <time>2019-07-19T09:55:56Z</time>
      </trkpt>
      <trkpt lat="42.89873" lon="0.20048">
        <ele>1982.86</ele>
        <time>2019-07-19T09:56:04Z</time>
      </trkpt>
      <trkpt lat="42.89869" lon="0.2005">
        <ele>1982.86</ele>
        <time>2019-07-19T09:56:08Z</time>
      </trkpt>
      <trkpt lat="42.89866" lon="0.20056">
        <ele>1982.38</ele>
        <time>2019-07-19T09:56:12Z</time>
      </trkpt>
      <trkpt lat="42.89862" lon="0.20067">
        <ele>1979.49</ele>
        <time>2019-07-19T09:56:23Z</time>
      </trkpt>
      <trkpt lat="42.89855" lon="0.20068">
        <ele>1978.53</ele>
        <time>2019-07-19T09:56:28Z</time>
      </trkpt>
      <trkpt lat="42.89841" lon="0.20061">
        <ele>1980.93</ele>
        <time>2019-07-19T09:56:42Z</time>
      </trkpt>
      <trkpt lat="42.89833" lon="0.20058">
        <ele>1983.34</ele>
        <time>2019-07-19T09:56:53Z</time>
      </trkpt>
      <trkpt lat="42.89826" lon="0.20052">
        <ele>1986.22</ele>
        <time>2019-07-19T09:57:04Z</time>
      </trkpt>
      <trkpt lat="42.89823" lon="0.20052">
        <ele>1986.7</ele>
        <time>2019-07-19T09:57:07Z</time>
      </trkpt>
      <trkpt lat="42.89819" lon="0.20052">
        <ele>1987.66</ele>
        <time>2019-07-19T09:57:12Z</time>
      </trkpt>
      <trkpt lat="42.89817" lon="0.20052">
        <ele>1988.14</ele>
        <time>2019-07-19T09:57:14Z</time>
      </trkpt>
      <trkpt lat="42.89815" lon="0.2005">
        <ele>1989.1</ele>
        <time>2019-07-19T09:57:17Z</time>
      </trkpt>
      <trkpt lat="42.89812" lon="0.2005">
        <ele>1989.59</ele>
        <time>2019-07-19T09:57:20Z</time>
      </trkpt>
      <trkpt lat="42.89807" lon="0.20047">
        <ele>1990.55</ele>
        <time>2019-07-19T09:57:25Z</time>
      </trkpt>
      <trkpt lat="42.89805" lon="0.20046">
        <ele>1991.51</ele>
        <time>2019-07-19T09:57:31Z</time>
      </trkpt>
      <trkpt lat="42.89801" lon="0.20047">
        <ele>1991.51</ele>
        <time>2019-07-19T09:57:35Z</time>
      </trkpt>
      <trkpt lat="42.89799" lon="0.20046">
        <ele>1991.99</ele>
        <time>2019-07-19T09:57:37Z</time>
      </trkpt>
      <trkpt lat="42.89797" lon="0.20046">
        <ele>1992.47</ele>
        <time>2019-07-19T09:57:39Z</time>
      </trkpt>
      <trkpt lat="42.89795" lon="0.20045">
        <ele>1992.95</ele>
        <time>2019-07-19T09:57:41Z</time>
      </trkpt>
      <trkpt lat="42.89789" lon="0.20042">
        <ele>1993.43</ele>
        <time>2019-07-19T09:57:46Z</time>
      </trkpt>
      <trkpt lat="42.8978" lon="0.20033">
        <ele>1996.32</ele>
        <time>2019-07-19T09:57:59Z</time>
      </trkpt>
      <trkpt lat="42.89779" lon="0.20032">
        <ele>1996.32</ele>
        <time>2019-07-19T09:58:01Z</time>
      </trkpt>
      <trkpt lat="42.89778" lon="0.20032">
        <ele>1997.28</ele>
        <time>2019-07-19T09:58:03Z</time>
      </trkpt>
      <trkpt lat="42.89768" lon="0.20026">
        <ele>2000.16</ele>
        <time>2019-07-19T09:58:16Z</time>
      </trkpt>
      <trkpt lat="42.89763" lon="0.20022">
        <ele>2002.08</ele>
        <time>2019-07-19T09:58:26Z</time>
      </trkpt>
      <trkpt lat="42.89758" lon="0.20017">
        <ele>2004.97</ele>
        <time>2019-07-19T09:58:37Z</time>
      </trkpt>
      <trkpt lat="42.89754" lon="0.20015">
        <ele>2006.41</ele>
        <time>2019-07-19T09:58:45Z</time>
      </trkpt>
      <trkpt lat="42.89754" lon="0.20012">
        <ele>2006.89</ele>
        <time>2019-07-19T09:58:48Z</time>
      </trkpt>
      <trkpt lat="42.89751" lon="0.20009">
        <ele>2008.33</ele>
        <time>2019-07-19T09:58:53Z</time>
      </trkpt>
      <trkpt lat="42.89748" lon="0.20008">
        <ele>2009.29</ele>
        <time>2019-07-19T09:58:58Z</time>
      </trkpt>
      <trkpt lat="42.89745" lon="0.20007">
        <ele>2009.29</ele>
        <time>2019-07-19T09:59:01Z</time>
      </trkpt>
      <trkpt lat="42.89739" lon="0.20007">
        <ele>2009.77</ele>
        <time>2019-07-19T09:59:06Z</time>
      </trkpt>
      <trkpt lat="42.89737" lon="0.20005">
        <ele>2009.77</ele>
        <time>2019-07-19T09:59:08Z</time>
      </trkpt>
      <trkpt lat="42.89735" lon="0.20003">
        <ele>2009.77</ele>
        <time>2019-07-19T09:59:10Z</time>
      </trkpt>
      <trkpt lat="42.89733" lon="0.20004">
        <ele>2009.77</ele>
        <time>2019-07-19T09:59:12Z</time>
      </trkpt>
      <trkpt lat="42.89727" lon="0.20011">
        <ele>2009.77</ele>
        <time>2019-07-19T09:59:18Z</time>
      </trkpt>
      <trkpt lat="42.89721" lon="0.20014">
        <ele>2009.77</ele>
        <time>2019-07-19T09:59:23Z</time>
      </trkpt>
      <trkpt lat="42.89719" lon="0.20015">
        <ele>2009.29</ele>
        <time>2019-07-19T09:59:25Z</time>
      </trkpt>
      <trkpt lat="42.89711" lon="0.20018">
        <ele>2011.22</ele>
        <time>2019-07-19T09:59:33Z</time>
      </trkpt>
      <trkpt lat="42.89707" lon="0.20019">
        <ele>2011.7</ele>
        <time>2019-07-19T09:59:37Z</time>
      </trkpt>
      <trkpt lat="42.89705" lon="0.20019">
        <ele>2011.7</ele>
        <time>2019-07-19T09:59:39Z</time>
      </trkpt>
      <trkpt lat="42.89702" lon="0.2002">
        <ele>2011.7</ele>
        <time>2019-07-19T09:59:42Z</time>
      </trkpt>
      <trkpt lat="42.89699" lon="0.20022">
        <ele>2012.66</ele>
        <time>2019-07-19T09:59:46Z</time>
      </trkpt>
      <trkpt lat="42.89697" lon="0.20024">
        <ele>2012.66</ele>
        <time>2019-07-19T09:59:49Z</time>
      </trkpt>
      <trkpt lat="42.89692" lon="0.20027">
        <ele>2013.62</ele>
        <time>2019-07-19T09:59:54Z</time>
      </trkpt>
      <trkpt lat="42.89689" lon="0.20027">
        <ele>2013.62</ele>
        <time>2019-07-19T09:59:56Z</time>
      </trkpt>
      <trkpt lat="42.89682" lon="0.20031">
        <ele>2015.06</ele>
        <time>2019-07-19T10:00:06Z</time>
      </trkpt>
      <trkpt lat="42.89671" lon="0.20042">
        <ele>2015.06</ele>
        <time>2019-07-19T10:00:17Z</time>
      </trkpt>
      <trkpt lat="42.89667" lon="0.20043">
        <ele>2015.06</ele>
        <time>2019-07-19T10:00:20Z</time>
      </trkpt>
      <trkpt lat="42.89664" lon="0.2004">
        <ele>2015.54</ele>
        <time>2019-07-19T10:00:24Z</time>
      </trkpt>
      <trkpt lat="42.89664" lon="0.20035">
        <ele>2016.5</ele>
        <time>2019-07-19T10:00:29Z</time>
      </trkpt>
      <trkpt lat="42.89659" lon="0.20028">
        <ele>2018.91</ele>
        <time>2019-07-19T10:00:40Z</time>
      </trkpt>
      <trkpt lat="42.89655" lon="0.20013">
        <ele>2020.83</ele>
        <time>2019-07-19T10:00:52Z</time>
      </trkpt>
      <trkpt lat="42.89654" lon="0.20012">
        <ele>2021.31</ele>
        <time>2019-07-19T10:00:53Z</time>
      </trkpt>
      <trkpt lat="42.89655" lon="0.20001">
        <ele>2023.71</ele>
        <time>2019-07-19T10:01:04Z</time>
      </trkpt>
      <trkpt lat="42.89657" lon="0.19997">
        <ele>2026.12</ele>
        <time>2019-07-19T10:01:14Z</time>
      </trkpt>
      <trkpt lat="42.89659" lon="0.19998">
        <ele>2026.12</ele>
        <time>2019-07-19T10:01:20Z</time>
      </trkpt>
      <trkpt lat="42.89661" lon="0.19998">
        <ele>2027.08</ele>
        <time>2019-07-19T10:01:23Z</time>
      </trkpt>
      <trkpt lat="42.89672" lon="0.19998">
        <ele>2026.6</ele>
        <time>2019-07-19T10:01:34Z</time>
      </trkpt>
      <trkpt lat="42.89673" lon="0.19999">
        <ele>2026.6</ele>
        <time>2019-07-19T10:01:36Z</time>
      </trkpt>
      <trkpt lat="42.89675" lon="0.20001">
        <ele>2025.64</ele>
        <time>2019-07-19T10:01:48Z</time>
      </trkpt>
      <trkpt lat="42.89674" lon="0.20001">
        <ele>2025.64</ele>
        <time>2019-07-19T10:02:09Z</time>
      </trkpt>
      <trkpt lat="42.89673" lon="0.20001">
        <ele>2025.64</ele>
        <time>2019-07-19T10:02:32Z</time>
      </trkpt>
      <trkpt lat="42.89673" lon="0.20001">
        <ele>2026.12</ele>
        <time>2019-07-19T10:02:56Z</time>
      </trkpt>
      <trkpt lat="42.89673" lon="0.20001">
        <ele>2026.12</ele>
        <time>2019-07-19T10:03:15Z</time>
      </trkpt>
      <trkpt lat="42.8967" lon="0.19998">
        <ele>2027.08</ele>
        <time>2019-07-19T10:03:25Z</time>
      </trkpt>
      <trkpt lat="42.89663" lon="0.19993">
        <ele>2027.56</ele>
        <time>2019-07-19T10:03:35Z</time>
      </trkpt>
      <trkpt lat="42.89661" lon="0.19992">
        <ele>2027.56</ele>
        <time>2019-07-19T10:03:37Z</time>
      </trkpt>
      <trkpt lat="42.89655" lon="0.19993">
        <ele>2027.56</ele>
        <time>2019-07-19T10:03:49Z</time>
      </trkpt>
      <trkpt lat="42.89655" lon="0.19995">
        <ele>2027.56</ele>
        <time>2019-07-19T10:04:02Z</time>
      </trkpt>
      <trkpt lat="42.89655" lon="0.19993">
        <ele>2028.04</ele>
        <time>2019-07-19T10:04:15Z</time>
      </trkpt>
      <trkpt lat="42.89655" lon="0.19992">
        <ele>2028.04</ele>
        <time>2019-07-19T10:04:30Z</time>
      </trkpt>
      <trkpt lat="42.89654" lon="0.19992">
        <ele>2028.04</ele>
        <time>2019-07-19T10:04:55Z</time>
      </trkpt>
      <trkpt lat="42.89654" lon="0.19991">
        <ele>2028.04</ele>
        <time>2019-07-19T10:05:12Z</time>
      </trkpt>
      <trkpt lat="42.89655" lon="0.19992">
        <ele>2028.04</ele>
        <time>2019-07-19T10:05:32Z</time>
      </trkpt>
      <trkpt lat="42.89655" lon="0.19991">
        <ele>2028.52</ele>
        <time>2019-07-19T10:05:59Z</time>
      </trkpt>
      <trkpt lat="42.89655" lon="0.1999">
        <ele>2028.52</ele>
        <time>2019-07-19T10:06:10Z</time>
      </trkpt>
      <trkpt lat="42.89651" lon="0.19984">
        <ele>2028.52</ele>
        <time>2019-07-19T10:06:15Z</time>
      </trkpt>
      <trkpt lat="42.89647" lon="0.19974">
        <ele>2028.04</ele>
        <time>2019-07-19T10:06:23Z</time>
      </trkpt>
      <trkpt lat="42.89646" lon="0.19971">
        <ele>2028.52</ele>
        <time>2019-07-19T10:06:25Z</time>
      </trkpt>
      <trkpt lat="42.89644" lon="0.19956">
        <ele>2028.52</ele>
        <time>2019-07-19T10:06:34Z</time>
      </trkpt>
      <trkpt lat="42.89641" lon="0.19942">
        <ele>2029.96</ele>
        <time>2019-07-19T10:06:46Z</time>
      </trkpt>
      <trkpt lat="42.89632" lon="0.19931">
        <ele>2029</ele>
        <time>2019-07-19T10:06:58Z</time>
      </trkpt>
      <trkpt lat="42.89631" lon="0.19929">
        <ele>2028.52</ele>
        <time>2019-07-19T10:07:00Z</time>
      </trkpt>
      <trkpt lat="42.8963" lon="0.19926">
        <ele>2028.52</ele>
        <time>2019-07-19T10:07:03Z</time>
      </trkpt>
      <trkpt lat="42.89626" lon="0.19916">
        <ele>2029</ele>
        <time>2019-07-19T10:07:12Z</time>
      </trkpt>
      <trkpt lat="42.89625" lon="0.19906">
        <ele>2029</ele>
        <time>2019-07-19T10:07:19Z</time>
      </trkpt>
      <trkpt lat="42.89624" lon="0.19904">
        <ele>2029</ele>
        <time>2019-07-19T10:07:21Z</time>
      </trkpt>
      <trkpt lat="42.89621" lon="0.19895">
        <ele>2029</ele>
        <time>2019-07-19T10:07:30Z</time>
      </trkpt>
      <trkpt lat="42.89616" lon="0.19886">
        <ele>2028.52</ele>
        <time>2019-07-19T10:07:40Z</time>
      </trkpt>
      <trkpt lat="42.89614" lon="0.19883">
        <ele>2028.52</ele>
        <time>2019-07-19T10:07:44Z</time>
      </trkpt>
      <trkpt lat="42.8961" lon="0.19878">
        <ele>2028.52</ele>
        <time>2019-07-19T10:07:49Z</time>
      </trkpt>
      <trkpt lat="42.89608" lon="0.19874">
        <ele>2028.04</ele>
        <time>2019-07-19T10:07:54Z</time>
      </trkpt>
      <trkpt lat="42.89601" lon="0.19866">
        <ele>2028.52</ele>
        <time>2019-07-19T10:08:04Z</time>
      </trkpt>
      <trkpt lat="42.89598" lon="0.19862">
        <ele>2028.52</ele>
        <time>2019-07-19T10:08:09Z</time>
      </trkpt>
      <trkpt lat="42.89597" lon="0.19861">
        <ele>2028.52</ele>
        <time>2019-07-19T10:08:11Z</time>
      </trkpt>
      <trkpt lat="42.89593" lon="0.19856">
        <ele>2029.96</ele>
        <time>2019-07-19T10:08:20Z</time>
      </trkpt>
      <trkpt lat="42.89589" lon="0.19854">
        <ele>2029</ele>
        <time>2019-07-19T10:08:25Z</time>
      </trkpt>
      <trkpt lat="42.89582" lon="0.19854">
        <ele>2029.48</ele>
        <time>2019-07-19T10:08:34Z</time>
      </trkpt>
      <trkpt lat="42.89575" lon="0.19854">
        <ele>2029.48</ele>
        <time>2019-07-19T10:08:46Z</time>
      </trkpt>
      <trkpt lat="42.89574" lon="0.19854">
        <ele>2029.48</ele>
        <time>2019-07-19T10:08:47Z</time>
      </trkpt>
      <trkpt lat="42.89568" lon="0.19854">
        <ele>2029</ele>
        <time>2019-07-19T10:08:53Z</time>
      </trkpt>
      <trkpt lat="42.89566" lon="0.19853">
        <ele>2029.48</ele>
        <time>2019-07-19T10:08:55Z</time>
      </trkpt>
      <trkpt lat="42.89564" lon="0.19849">
        <ele>2029</ele>
        <time>2019-07-19T10:08:58Z</time>
      </trkpt>
      <trkpt lat="42.89556" lon="0.19847">
        <ele>2029</ele>
        <time>2019-07-19T10:09:07Z</time>
      </trkpt>
      <trkpt lat="42.8955" lon="0.19844">
        <ele>2029.48</ele>
        <time>2019-07-19T10:09:15Z</time>
      </trkpt>
      <trkpt lat="42.89547" lon="0.1984">
        <ele>2029.48</ele>
        <time>2019-07-19T10:09:20Z</time>
      </trkpt>
      <trkpt lat="42.89543" lon="0.19834">
        <ele>2029</ele>
        <time>2019-07-19T10:09:28Z</time>
      </trkpt>
      <trkpt lat="42.89537" lon="0.19831">
        <ele>2028.04</ele>
        <time>2019-07-19T10:09:37Z</time>
      </trkpt>
      <trkpt lat="42.8953" lon="0.1983">
        <ele>2027.56</ele>
        <time>2019-07-19T10:09:46Z</time>
      </trkpt>
      <trkpt lat="42.89529" lon="0.19827">
        <ele>2028.04</ele>
        <time>2019-07-19T10:09:49Z</time>
      </trkpt>
      <trkpt lat="42.89523" lon="0.19821">
        <ele>2029.96</ele>
        <time>2019-07-19T10:10:00Z</time>
      </trkpt>
      <trkpt lat="42.89521" lon="0.19821">
        <ele>2029.96</ele>
        <time>2019-07-19T10:10:07Z</time>
      </trkpt>
      <trkpt lat="42.89516" lon="0.19819">
        <ele>2029.48</ele>
        <time>2019-07-19T10:10:12Z</time>
      </trkpt>
      <trkpt lat="42.89512" lon="0.19817">
        <ele>2029</ele>
        <time>2019-07-19T10:10:16Z</time>
      </trkpt>
      <trkpt lat="42.89505" lon="0.19811">
        <ele>2029.96</ele>
        <time>2019-07-19T10:10:26Z</time>
      </trkpt>
      <trkpt lat="42.895" lon="0.19806">
        <ele>2030.92</ele>
        <time>2019-07-19T10:10:32Z</time>
      </trkpt>
      <trkpt lat="42.89498" lon="0.19803">
        <ele>2030.92</ele>
        <time>2019-07-19T10:10:36Z</time>
      </trkpt>
      <trkpt lat="42.89494" lon="0.198">
        <ele>2029.96</ele>
        <time>2019-07-19T10:10:40Z</time>
      </trkpt>
      <trkpt lat="42.8949" lon="0.19791">
        <ele>2029.48</ele>
        <time>2019-07-19T10:10:47Z</time>
      </trkpt>
      <trkpt lat="42.89488" lon="0.19784">
        <ele>2029.96</ele>
        <time>2019-07-19T10:10:52Z</time>
      </trkpt>
      <trkpt lat="42.89486" lon="0.19782">
        <ele>2030.44</ele>
        <time>2019-07-19T10:10:54Z</time>
      </trkpt>
      <trkpt lat="42.89482" lon="0.19781">
        <ele>2030.44</ele>
        <time>2019-07-19T10:10:57Z</time>
      </trkpt>
      <trkpt lat="42.8948" lon="0.19781">
        <ele>2029.96</ele>
        <time>2019-07-19T10:10:59Z</time>
      </trkpt>
      <trkpt lat="42.89477" lon="0.19779">
        <ele>2029.48</ele>
        <time>2019-07-19T10:11:01Z</time>
      </trkpt>
      <trkpt lat="42.89469" lon="0.19765">
        <ele>2029.48</ele>
        <time>2019-07-19T10:11:13Z</time>
      </trkpt>
      <trkpt lat="42.89459" lon="0.19762">
        <ele>2029.48</ele>
        <time>2019-07-19T10:11:23Z</time>
      </trkpt>
      <trkpt lat="42.89454" lon="0.19756">
        <ele>2030.92</ele>
        <time>2019-07-19T10:11:34Z</time>
      </trkpt>
      <trkpt lat="42.89452" lon="0.19752">
        <ele>2031.4</ele>
        <time>2019-07-19T10:11:38Z</time>
      </trkpt>
      <trkpt lat="42.89449" lon="0.19747">
        <ele>2032.36</ele>
        <time>2019-07-19T10:11:44Z</time>
      </trkpt>
      <trkpt lat="42.89446" lon="0.19744">
        <ele>2032.36</ele>
        <time>2019-07-19T10:11:47Z</time>
      </trkpt>
      <trkpt lat="42.8944" lon="0.19734">
        <ele>2033.81</ele>
        <time>2019-07-19T10:11:58Z</time>
      </trkpt>
      <trkpt lat="42.89437" lon="0.19725">
        <ele>2034.77</ele>
        <time>2019-07-19T10:12:07Z</time>
      </trkpt>
      <trkpt lat="42.89436" lon="0.19725">
        <ele>2035.25</ele>
        <time>2019-07-19T10:12:08Z</time>
      </trkpt>
      <trkpt lat="42.89433" lon="0.19722">
        <ele>2035.25</ele>
        <time>2019-07-19T10:12:12Z</time>
      </trkpt>
      <trkpt lat="42.89428" lon="0.1972">
        <ele>2034.77</ele>
        <time>2019-07-19T10:12:16Z</time>
      </trkpt>
      <trkpt lat="42.89421" lon="0.19718">
        <ele>2035.73</ele>
        <time>2019-07-19T10:12:22Z</time>
      </trkpt>
      <trkpt lat="42.8942" lon="0.19717">
        <ele>2035.73</ele>
        <time>2019-07-19T10:12:24Z</time>
      </trkpt>
      <trkpt lat="42.89418" lon="0.19715">
        <ele>2036.21</ele>
        <time>2019-07-19T10:12:26Z</time>
      </trkpt>
      <trkpt lat="42.89416" lon="0.19709">
        <ele>2037.65</ele>
        <time>2019-07-19T10:12:33Z</time>
      </trkpt>
      <trkpt lat="42.8941" lon="0.19708">
        <ele>2038.13</ele>
        <time>2019-07-19T10:12:38Z</time>
      </trkpt>
      <trkpt lat="42.89409" lon="0.19703">
        <ele>2039.57</ele>
        <time>2019-07-19T10:12:44Z</time>
      </trkpt>
      <trkpt lat="42.89408" lon="0.19702">
        <ele>2040.05</ele>
        <time>2019-07-19T10:12:46Z</time>
      </trkpt>
      <trkpt lat="42.89404" lon="0.19705">
        <ele>2040.05</ele>
        <time>2019-07-19T10:12:51Z</time>
      </trkpt>
      <trkpt lat="42.89401" lon="0.19708">
        <ele>2040.05</ele>
        <time>2019-07-19T10:13:01Z</time>
      </trkpt>
      <trkpt lat="42.89399" lon="0.1971">
        <ele>2040.05</ele>
        <time>2019-07-19T10:13:03Z</time>
      </trkpt>
      <trkpt lat="42.89397" lon="0.19711">
        <ele>2040.05</ele>
        <time>2019-07-19T10:13:05Z</time>
      </trkpt>
      <trkpt lat="42.89396" lon="0.19715">
        <ele>2040.05</ele>
        <time>2019-07-19T10:13:07Z</time>
      </trkpt>
      <trkpt lat="42.89392" lon="0.19718">
        <ele>2041.02</ele>
        <time>2019-07-19T10:13:12Z</time>
      </trkpt>
      <trkpt lat="42.89389" lon="0.19721">
        <ele>2041.98</ele>
        <time>2019-07-19T10:13:16Z</time>
      </trkpt>
      <trkpt lat="42.89386" lon="0.1972">
        <ele>2042.46</ele>
        <time>2019-07-19T10:13:19Z</time>
      </trkpt>
      <trkpt lat="42.8938" lon="0.19721">
        <ele>2044.38</ele>
        <time>2019-07-19T10:13:29Z</time>
      </trkpt>
      <trkpt lat="42.89377" lon="0.19723">
        <ele>2044.38</ele>
        <time>2019-07-19T10:13:32Z</time>
      </trkpt>
      <trkpt lat="42.89372" lon="0.19724">
        <ele>2043.9</ele>
        <time>2019-07-19T10:13:37Z</time>
      </trkpt>
      <trkpt lat="42.89371" lon="0.19724">
        <ele>2043.9</ele>
        <time>2019-07-19T10:13:38Z</time>
      </trkpt>
      <trkpt lat="42.89363" lon="0.19731">
        <ele>2043.9</ele>
        <time>2019-07-19T10:13:47Z</time>
      </trkpt>
      <trkpt lat="42.89361" lon="0.19732">
        <ele>2043.9</ele>
        <time>2019-07-19T10:13:49Z</time>
      </trkpt>
      <trkpt lat="42.89352" lon="0.19736">
        <ele>2043.42</ele>
        <time>2019-07-19T10:13:58Z</time>
      </trkpt>
      <trkpt lat="42.89346" lon="0.19735">
        <ele>2043.9</ele>
        <time>2019-07-19T10:14:03Z</time>
      </trkpt>
      <trkpt lat="42.89342" lon="0.19736">
        <ele>2044.38</ele>
        <time>2019-07-19T10:14:06Z</time>
      </trkpt>
      <trkpt lat="42.8934" lon="0.19736">
        <ele>2044.86</ele>
        <time>2019-07-19T10:14:08Z</time>
      </trkpt>
      <trkpt lat="42.8933" lon="0.19736">
        <ele>2046.78</ele>
        <time>2019-07-19T10:14:20Z</time>
      </trkpt>
      <trkpt lat="42.89329" lon="0.19739">
        <ele>2047.75</ele>
        <time>2019-07-19T10:14:23Z</time>
      </trkpt>
      <trkpt lat="42.89328" lon="0.19749">
        <ele>2049.19</ele>
        <time>2019-07-19T10:14:31Z</time>
      </trkpt>
      <trkpt lat="42.89323" lon="0.19747">
        <ele>2052.07</ele>
        <time>2019-07-19T10:14:42Z</time>
      </trkpt>
      <trkpt lat="42.89321" lon="0.19746">
        <ele>2053.99</ele>
        <time>2019-07-19T10:14:51Z</time>
      </trkpt>
      <trkpt lat="42.89317" lon="0.19743">
        <ele>2054.96</ele>
        <time>2019-07-19T10:15:02Z</time>
      </trkpt>
      <trkpt lat="42.89314" lon="0.19741">
        <ele>2055.92</ele>
        <time>2019-07-19T10:15:11Z</time>
      </trkpt>
      <trkpt lat="42.89309" lon="0.19737">
        <ele>2057.36</ele>
        <time>2019-07-19T10:15:18Z</time>
      </trkpt>
      <trkpt lat="42.89306" lon="0.19736">
        <ele>2058.32</ele>
        <time>2019-07-19T10:15:20Z</time>
      </trkpt>
      <trkpt lat="42.89295" lon="0.19737">
        <ele>2059.76</ele>
        <time>2019-07-19T10:15:31Z</time>
      </trkpt>
      <trkpt lat="42.89292" lon="0.19743">
        <ele>2061.68</ele>
        <time>2019-07-19T10:15:40Z</time>
      </trkpt>
      <trkpt lat="42.89291" lon="0.19744">
        <ele>2061.68</ele>
        <time>2019-07-19T10:15:41Z</time>
      </trkpt>
      <trkpt lat="42.89287" lon="0.19745">
        <ele>2062.17</ele>
        <time>2019-07-19T10:15:46Z</time>
      </trkpt>
      <trkpt lat="42.89283" lon="0.19748">
        <ele>2062.17</ele>
        <time>2019-07-19T10:15:51Z</time>
      </trkpt>
      <trkpt lat="42.89279" lon="0.19769">
        <ele>2062.65</ele>
        <time>2019-07-19T10:16:04Z</time>
      </trkpt>
      <trkpt lat="42.89278" lon="0.19769">
        <ele>2062.65</ele>
        <time>2019-07-19T10:16:18Z</time>
      </trkpt>
      <trkpt lat="42.89277" lon="0.1977">
        <ele>2062.65</ele>
        <time>2019-07-19T10:16:20Z</time>
      </trkpt>
      <trkpt lat="42.89275" lon="0.19776">
        <ele>2062.65</ele>
        <time>2019-07-19T10:16:25Z</time>
      </trkpt>
      <trkpt lat="42.89265" lon="0.19778">
        <ele>2064.09</ele>
        <time>2019-07-19T10:16:37Z</time>
      </trkpt>
      <trkpt lat="42.89263" lon="0.19779">
        <ele>2064.09</ele>
        <time>2019-07-19T10:16:40Z</time>
      </trkpt>
      <trkpt lat="42.89255" lon="0.19785">
        <ele>2065.53</ele>
        <time>2019-07-19T10:16:50Z</time>
      </trkpt>
      <trkpt lat="42.89251" lon="0.19793">
        <ele>2065.53</ele>
        <time>2019-07-19T10:16:55Z</time>
      </trkpt>
      <trkpt lat="42.89248" lon="0.198">
        <ele>2065.53</ele>
        <time>2019-07-19T10:16:59Z</time>
      </trkpt>
      <trkpt lat="42.89246" lon="0.19807">
        <ele>2065.53</ele>
        <time>2019-07-19T10:17:03Z</time>
      </trkpt>
      <trkpt lat="42.89243" lon="0.19818">
        <ele>2066.01</ele>
        <time>2019-07-19T10:17:09Z</time>
      </trkpt>
      <trkpt lat="42.89236" lon="0.19834">
        <ele>2067.93</ele>
        <time>2019-07-19T10:17:21Z</time>
      </trkpt>
      <trkpt lat="42.89237" lon="0.19841">
        <ele>2068.89</ele>
        <time>2019-07-19T10:17:26Z</time>
      </trkpt>
      <trkpt lat="42.89247" lon="0.19848">
        <ele>2069.86</ele>
        <time>2019-07-19T10:17:36Z</time>
      </trkpt>
      <trkpt lat="42.8925" lon="0.19842">
        <ele>2069.86</ele>
        <time>2019-07-19T10:17:47Z</time>
      </trkpt>
      <trkpt lat="42.89252" lon="0.19841">
        <ele>2069.86</ele>
        <time>2019-07-19T10:18:01Z</time>
      </trkpt>
      <trkpt lat="42.89252" lon="0.19842">
        <ele>2069.86</ele>
        <time>2019-07-19T10:18:02Z</time>
      </trkpt>
      <trkpt lat="42.8925" lon="0.19858">
        <ele>2070.34</ele>
        <time>2019-07-19T10:18:14Z</time>
      </trkpt>
      <trkpt lat="42.89251" lon="0.19862">
        <ele>2070.82</ele>
        <time>2019-07-19T10:18:17Z</time>
      </trkpt>
      <trkpt lat="42.89256" lon="0.19869">
        <ele>2071.78</ele>
        <time>2019-07-19T10:18:24Z</time>
      </trkpt>
      <trkpt lat="42.8926" lon="0.19872">
        <ele>2072.74</ele>
        <time>2019-07-19T10:18:28Z</time>
      </trkpt>
      <trkpt lat="42.89264" lon="0.19879">
        <ele>2074.66</ele>
        <time>2019-07-19T10:18:36Z</time>
      </trkpt>
      <trkpt lat="42.89266" lon="0.19881">
        <ele>2074.66</ele>
        <time>2019-07-19T10:18:38Z</time>
      </trkpt>
      <trkpt lat="42.89265" lon="0.19883">
        <ele>2075.14</ele>
        <time>2019-07-19T10:18:48Z</time>
      </trkpt>
      <trkpt lat="42.89265" lon="0.19883">
        <ele>2075.14</ele>
        <time>2019-07-19T10:18:50Z</time>
      </trkpt>
      <trkpt lat="42.89269" lon="0.19887">
        <ele>2074.66</ele>
        <time>2019-07-19T10:18:55Z</time>
      </trkpt>
      <trkpt lat="42.8928" lon="0.19908">
        <ele>2075.14</ele>
        <time>2019-07-19T10:19:08Z</time>
      </trkpt>
      <trkpt lat="42.89281" lon="0.19912">
        <ele>2075.14</ele>
        <time>2019-07-19T10:19:10Z</time>
      </trkpt>
      <trkpt lat="42.89284" lon="0.19917">
        <ele>2075.14</ele>
        <time>2019-07-19T10:19:14Z</time>
      </trkpt>
      <trkpt lat="42.89282" lon="0.19925">
        <ele>2077.55</ele>
        <time>2019-07-19T10:19:26Z</time>
      </trkpt>
      <trkpt lat="42.89283" lon="0.19934">
        <ele>2078.99</ele>
        <time>2019-07-19T10:19:37Z</time>
      </trkpt>
      <trkpt lat="42.89278" lon="0.19939">
        <ele>2080.91</ele>
        <time>2019-07-19T10:19:47Z</time>
      </trkpt>
      <trkpt lat="42.89276" lon="0.19944">
        <ele>2082.35</ele>
        <time>2019-07-19T10:19:56Z</time>
      </trkpt>
      <trkpt lat="42.89276" lon="0.19947">
        <ele>2082.83</ele>
        <time>2019-07-19T10:19:59Z</time>
      </trkpt>
      <trkpt lat="42.8928" lon="0.1995">
        <ele>2084.76</ele>
        <time>2019-07-19T10:20:09Z</time>
      </trkpt>
      <trkpt lat="42.89283" lon="0.19956">
        <ele>2085.72</ele>
        <time>2019-07-19T10:20:18Z</time>
      </trkpt>
      <trkpt lat="42.89284" lon="0.19956">
        <ele>2085.72</ele>
        <time>2019-07-19T10:20:19Z</time>
      </trkpt>
      <trkpt lat="42.89286" lon="0.19958">
        <ele>2086.2</ele>
        <time>2019-07-19T10:20:22Z</time>
      </trkpt>
      <trkpt lat="42.89288" lon="0.19962">
        <ele>2086.2</ele>
        <time>2019-07-19T10:20:25Z</time>
      </trkpt>
      <trkpt lat="42.8929" lon="0.19974">
        <ele>2086.68</ele>
        <time>2019-07-19T10:20:34Z</time>
      </trkpt>
      <trkpt lat="42.89292" lon="0.19979">
        <ele>2087.16</ele>
        <time>2019-07-19T10:20:38Z</time>
      </trkpt>
      <trkpt lat="42.89297" lon="0.19984">
        <ele>2087.64</ele>
        <time>2019-07-19T10:20:42Z</time>
      </trkpt>
      <trkpt lat="42.893" lon="0.19989">
        <ele>2088.12</ele>
        <time>2019-07-19T10:20:47Z</time>
      </trkpt>
      <trkpt lat="42.89299" lon="0.19992">
        <ele>2088.6</ele>
        <time>2019-07-19T10:20:49Z</time>
      </trkpt>
      <trkpt lat="42.89299" lon="0.19995">
        <ele>2089.08</ele>
        <time>2019-07-19T10:20:52Z</time>
      </trkpt>
      <trkpt lat="42.89294" lon="0.2">
        <ele>2091.49</ele>
        <time>2019-07-19T10:21:05Z</time>
      </trkpt>
      <trkpt lat="42.89289" lon="0.20003">
        <ele>2093.41</ele>
        <time>2019-07-19T10:21:14Z</time>
      </trkpt>
      <trkpt lat="42.89285" lon="0.20011">
        <ele>2096.29</ele>
        <time>2019-07-19T10:21:27Z</time>
      </trkpt>
      <trkpt lat="42.89285" lon="0.20014">
        <ele>2098.21</ele>
        <time>2019-07-19T10:21:38Z</time>
      </trkpt>
      <trkpt lat="42.89286" lon="0.20017">
        <ele>2100.14</ele>
        <time>2019-07-19T10:21:48Z</time>
      </trkpt>
      <trkpt lat="42.89287" lon="0.20018">
        <ele>2100.14</ele>
        <time>2019-07-19T10:21:49Z</time>
      </trkpt>
      <trkpt lat="42.89286" lon="0.20021">
        <ele>2103.02</ele>
        <time>2019-07-19T10:22:00Z</time>
      </trkpt>
      <trkpt lat="42.89281" lon="0.20019">
        <ele>2104.94</ele>
        <time>2019-07-19T10:22:12Z</time>
      </trkpt>
      <trkpt lat="42.89275" lon="0.20022">
        <ele>2106.39</ele>
        <time>2019-07-19T10:22:27Z</time>
      </trkpt>
      <trkpt lat="42.89275" lon="0.20021">
        <ele>2106.39</ele>
        <time>2019-07-19T10:22:51Z</time>
      </trkpt>
      <trkpt lat="42.89274" lon="0.20024">
        <ele>2106.87</ele>
        <time>2019-07-19T10:23:19Z</time>
      </trkpt>
      <trkpt lat="42.89275" lon="0.20031">
        <ele>2108.31</ele>
        <time>2019-07-19T10:23:29Z</time>
      </trkpt>
      <trkpt lat="42.89276" lon="0.20034">
        <ele>2109.27</ele>
        <time>2019-07-19T10:23:35Z</time>
      </trkpt>
      <trkpt lat="42.89277" lon="0.20038">
        <ele>2109.75</ele>
        <time>2019-07-19T10:23:39Z</time>
      </trkpt>
      <trkpt lat="42.89275" lon="0.2005">
        <ele>2112.63</ele>
        <time>2019-07-19T10:23:51Z</time>
      </trkpt>
      <trkpt lat="42.89273" lon="0.20065">
        <ele>2114.56</ele>
        <time>2019-07-19T10:24:05Z</time>
      </trkpt>
      <trkpt lat="42.89269" lon="0.20067">
        <ele>2116</ele>
        <time>2019-07-19T10:24:12Z</time>
      </trkpt>
      <trkpt lat="42.89267" lon="0.20067">
        <ele>2116</ele>
        <time>2019-07-19T10:24:14Z</time>
      </trkpt>
      <trkpt lat="42.89264" lon="0.20067">
        <ele>2116</ele>
        <time>2019-07-19T10:24:17Z</time>
      </trkpt>
      <trkpt lat="42.89261" lon="0.2007">
        <ele>2115.52</ele>
        <time>2019-07-19T10:24:20Z</time>
      </trkpt>
      <trkpt lat="42.89259" lon="0.20076">
        <ele>2115.52</ele>
        <time>2019-07-19T10:24:24Z</time>
      </trkpt>
      <trkpt lat="42.89255" lon="0.20087">
        <ele>2116.48</ele>
        <time>2019-07-19T10:24:33Z</time>
      </trkpt>
      <trkpt lat="42.89253" lon="0.20087">
        <ele>2116</ele>
        <time>2019-07-19T10:24:35Z</time>
      </trkpt>
      <trkpt lat="42.89247" lon="0.20081">
        <ele>2116</ele>
        <time>2019-07-19T10:24:41Z</time>
      </trkpt>
      <trkpt lat="42.89245" lon="0.2008">
        <ele>2116</ele>
        <time>2019-07-19T10:24:43Z</time>
      </trkpt>
      <trkpt lat="42.89243" lon="0.20082">
        <ele>2115.52</ele>
        <time>2019-07-19T10:24:45Z</time>
      </trkpt>
      <trkpt lat="42.89238" lon="0.20081">
        <ele>2116</ele>
        <time>2019-07-19T10:24:50Z</time>
      </trkpt>
      <trkpt lat="42.89236" lon="0.20083">
        <ele>2116.48</ele>
        <time>2019-07-19T10:24:53Z</time>
      </trkpt>
      <trkpt lat="42.89234" lon="0.20082">
        <ele>2116.48</ele>
        <time>2019-07-19T10:24:55Z</time>
      </trkpt>
      <trkpt lat="42.89231" lon="0.2008">
        <ele>2116.48</ele>
        <time>2019-07-19T10:24:58Z</time>
      </trkpt>
      <trkpt lat="42.89227" lon="0.20079">
        <ele>2116.48</ele>
        <time>2019-07-19T10:25:01Z</time>
      </trkpt>
      <trkpt lat="42.89217" lon="0.20086">
        <ele>2115.52</ele>
        <time>2019-07-19T10:25:13Z</time>
      </trkpt>
      <trkpt lat="42.89209" lon="0.20091">
        <ele>2115.52</ele>
        <time>2019-07-19T10:25:23Z</time>
      </trkpt>
      <trkpt lat="42.89205" lon="0.20095">
        <ele>2115.52</ele>
        <time>2019-07-19T10:25:28Z</time>
      </trkpt>
      <trkpt lat="42.892" lon="0.20095">
        <ele>2114.56</ele>
        <time>2019-07-19T10:25:33Z</time>
      </trkpt>
      <trkpt lat="42.89195" lon="0.20095">
        <ele>2114.56</ele>
        <time>2019-07-19T10:25:37Z</time>
      </trkpt>
      <trkpt lat="42.89188" lon="0.20095">
        <ele>2115.04</ele>
        <time>2019-07-19T10:25:42Z</time>
      </trkpt>
      <trkpt lat="42.89176" lon="0.20092">
        <ele>2116.96</ele>
        <time>2019-07-19T10:25:56Z</time>
      </trkpt>
      <trkpt lat="42.89171" lon="0.20089">
        <ele>2118.4</ele>
        <time>2019-07-19T10:26:03Z</time>
      </trkpt>
      <trkpt lat="42.89169" lon="0.20089">
        <ele>2119.36</ele>
        <time>2019-07-19T10:26:07Z</time>
      </trkpt>
      <trkpt lat="42.89168" lon="0.2009">
        <ele>2119.84</ele>
        <time>2019-07-19T10:26:11Z</time>
      </trkpt>
      <trkpt lat="42.89165" lon="0.20089">
        <ele>2121.29</ele>
        <time>2019-07-19T10:26:21Z</time>
      </trkpt>
      <trkpt lat="42.89159" lon="0.20085">
        <ele>2123.21</ele>
        <time>2019-07-19T10:26:31Z</time>
      </trkpt>
      <trkpt lat="42.89152" lon="0.2008">
        <ele>2125.61</ele>
        <time>2019-07-19T10:26:42Z</time>
      </trkpt>
      <trkpt lat="42.89147" lon="0.20079">
        <ele>2128.02</ele>
        <time>2019-07-19T10:26:52Z</time>
      </trkpt>
      <trkpt lat="42.89143" lon="0.20082">
        <ele>2129.46</ele>
        <time>2019-07-19T10:27:01Z</time>
      </trkpt>
      <trkpt lat="42.89136" lon="0.20082">
        <ele>2131.86</ele>
        <time>2019-07-19T10:27:13Z</time>
      </trkpt>
      <trkpt lat="42.89135" lon="0.20082">
        <ele>2131.86</ele>
        <time>2019-07-19T10:27:14Z</time>
      </trkpt>
      <trkpt lat="42.8913" lon="0.2008">
        <ele>2131.38</ele>
        <time>2019-07-19T10:27:20Z</time>
      </trkpt>
      <trkpt lat="42.89129" lon="0.20077">
        <ele>2130.42</ele>
        <time>2019-07-19T10:27:31Z</time>
      </trkpt>
      <trkpt lat="42.89129" lon="0.20077">
        <ele>2129.94</ele>
        <time>2019-07-19T10:27:34Z</time>
      </trkpt>
      <trkpt lat="42.89126" lon="0.20076">
        <ele>2129.94</ele>
        <time>2019-07-19T10:27:37Z</time>
      </trkpt>
      <trkpt lat="42.89123" lon="0.20076">
        <ele>2129.46</ele>
        <time>2019-07-19T10:27:40Z</time>
      </trkpt>
      <trkpt lat="42.89112" lon="0.20071">
        <ele>2126.09</ele>
        <time>2019-07-19T10:27:52Z</time>
      </trkpt>
      <trkpt lat="42.89113" lon="0.20071">
        <ele>2125.61</ele>
        <time>2019-07-19T10:28:07Z</time>
      </trkpt>
      <trkpt lat="42.89115" lon="0.20072">
        <ele>2126.57</ele>
        <time>2019-07-19T10:28:09Z</time>
      </trkpt>
      <trkpt lat="42.89119" lon="0.20075">
        <ele>2128.02</ele>
        <time>2019-07-19T10:28:14Z</time>
      </trkpt>
      <trkpt lat="42.89125" lon="0.20078">
        <ele>2129.46</ele>
        <time>2019-07-19T10:28:21Z</time>
      </trkpt>
      <trkpt lat="42.8913" lon="0.2008">
        <ele>2130.9</ele>
        <time>2019-07-19T10:28:28Z</time>
      </trkpt>
      <trkpt lat="42.89134" lon="0.2008">
        <ele>2130.9</ele>
        <time>2019-07-19T10:28:31Z</time>
      </trkpt>
      <trkpt lat="42.89136" lon="0.20084">
        <ele>2131.86</ele>
        <time>2019-07-19T10:28:41Z</time>
      </trkpt>
      <trkpt lat="42.89136" lon="0.20087">
        <ele>2132.34</ele>
        <time>2019-07-19T10:28:54Z</time>
      </trkpt>
      <trkpt lat="42.89136" lon="0.20089">
        <ele>2133.3</ele>
        <time>2019-07-19T10:29:13Z</time>
      </trkpt>
      <trkpt lat="42.89136" lon="0.2009">
        <ele>2133.78</ele>
        <time>2019-07-19T10:29:25Z</time>
      </trkpt>
      <trkpt lat="42.89135" lon="0.2009">
        <ele>2133.78</ele>
        <time>2019-07-19T10:29:42Z</time>
      </trkpt>
      <trkpt lat="42.89135" lon="0.2009">
        <ele>2134.26</ele>
        <time>2019-07-19T10:30:09Z</time>
      </trkpt>
      <trkpt lat="42.89135" lon="0.2009">
        <ele>2134.74</ele>
        <time>2019-07-19T10:30:34Z</time>
      </trkpt>
      <trkpt lat="42.89135" lon="0.2009">
        <ele>2134.74</ele>
        <time>2019-07-19T10:30:54Z</time>
      </trkpt>
      <trkpt lat="42.89135" lon="0.2009">
        <ele>2134.74</ele>
        <time>2019-07-19T10:31:13Z</time>
      </trkpt>
      <trkpt lat="42.89134" lon="0.20088">
        <ele>2134.26</ele>
        <time>2019-07-19T10:31:29Z</time>
      </trkpt>
      <trkpt lat="42.89136" lon="0.20085">
        <ele>2133.78</ele>
        <time>2019-07-19T10:31:38Z</time>
      </trkpt>
      <trkpt lat="42.89133" lon="0.2008">
        <ele>2133.78</ele>
        <time>2019-07-19T10:31:55Z</time>
      </trkpt>
      <trkpt lat="42.89133" lon="0.20079">
        <ele>2133.3</ele>
        <time>2019-07-19T10:31:59Z</time>
      </trkpt>
      <trkpt lat="42.89132" lon="0.20078">
        <ele>2132.82</ele>
        <time>2019-07-19T10:32:05Z</time>
      </trkpt>
      <trkpt lat="42.8913" lon="0.20077">
        <ele>2132.34</ele>
        <time>2019-07-19T10:32:15Z</time>
      </trkpt>
      <trkpt lat="42.89133" lon="0.20083">
        <ele>2133.3</ele>
        <time>2019-07-19T10:32:31Z</time>
      </trkpt>
      <trkpt lat="42.89133" lon="0.20083">
        <ele>2133.3</ele>
        <time>2019-07-19T10:32:32Z</time>
      </trkpt>
      <trkpt lat="42.89134" lon="0.20089">
        <ele>2134.74</ele>
        <time>2019-07-19T10:32:43Z</time>
      </trkpt>
      <trkpt lat="42.89134" lon="0.20089">
        <ele>2135.71</ele>
        <time>2019-07-19T10:32:53Z</time>
      </trkpt>
      <trkpt lat="42.89133" lon="0.20089">
        <ele>2135.71</ele>
        <time>2019-07-19T10:33:15Z</time>
      </trkpt>
      <trkpt lat="42.89134" lon="0.20088">
        <ele>2136.19</ele>
        <time>2019-07-19T10:33:37Z</time>
      </trkpt>
      <trkpt lat="42.89134" lon="0.20088">
        <ele>2136.19</ele>
        <time>2019-07-19T10:33:53Z</time>
      </trkpt>
      <trkpt lat="42.89133" lon="0.20088">
        <ele>2136.19</ele>
        <time>2019-07-19T10:34:13Z</time>
      </trkpt>
      <trkpt lat="42.89133" lon="0.20087">
        <ele>2136.67</ele>
        <time>2019-07-19T10:34:40Z</time>
      </trkpt>
      <trkpt lat="42.89133" lon="0.2009">
        <ele>2137.15</ele>
        <time>2019-07-19T10:34:54Z</time>
      </trkpt>
      <trkpt lat="42.89133" lon="0.20094">
        <ele>2137.15</ele>
        <time>2019-07-19T10:34:56Z</time>
      </trkpt>
      <trkpt lat="42.89131" lon="0.201">
        <ele>2138.59</ele>
        <time>2019-07-19T10:35:03Z</time>
      </trkpt>
      <trkpt lat="42.89127" lon="0.20103">
        <ele>2139.55</ele>
        <time>2019-07-19T10:35:10Z</time>
      </trkpt>
      <trkpt lat="42.89124" lon="0.20104">
        <ele>2140.03</ele>
        <time>2019-07-19T10:35:13Z</time>
      </trkpt>
      <trkpt lat="42.89116" lon="0.20109">
        <ele>2142.92</ele>
        <time>2019-07-19T10:35:26Z</time>
      </trkpt>
      <trkpt lat="42.89114" lon="0.2011">
        <ele>2143.4</ele>
        <time>2019-07-19T10:35:29Z</time>
      </trkpt>
      <trkpt lat="42.89114" lon="0.20112">
        <ele>2143.88</ele>
        <time>2019-07-19T10:35:31Z</time>
      </trkpt>
      <trkpt lat="42.89114" lon="0.20121">
        <ele>2144.84</ele>
        <time>2019-07-19T10:35:40Z</time>
      </trkpt>
      <trkpt lat="42.89112" lon="0.20126">
        <ele>2147.24</ele>
        <time>2019-07-19T10:35:51Z</time>
      </trkpt>
      <trkpt lat="42.89106" lon="0.20129">
        <ele>2148.2</ele>
        <time>2019-07-19T10:35:59Z</time>
      </trkpt>
      <trkpt lat="42.89103" lon="0.20134">
        <ele>2148.2</ele>
        <time>2019-07-19T10:36:05Z</time>
      </trkpt>
      <trkpt lat="42.891" lon="0.20138">
        <ele>2149.16</ele>
        <time>2019-07-19T10:36:09Z</time>
      </trkpt>
      <trkpt lat="42.89097" lon="0.20145">
        <ele>2149.16</ele>
        <time>2019-07-19T10:36:16Z</time>
      </trkpt>
      <trkpt lat="42.89092" lon="0.20152">
        <ele>2149.16</ele>
        <time>2019-07-19T10:36:27Z</time>
      </trkpt>
      <trkpt lat="42.89091" lon="0.20153">
        <ele>2148.68</ele>
        <time>2019-07-19T10:36:29Z</time>
      </trkpt>
      <trkpt lat="42.89084" lon="0.20157">
        <ele>2149.16</ele>
        <time>2019-07-19T10:36:40Z</time>
      </trkpt>
      <trkpt lat="42.89083" lon="0.20157">
        <ele>2149.16</ele>
        <time>2019-07-19T10:36:41Z</time>
      </trkpt>
      <trkpt lat="42.89082" lon="0.20155">
        <ele>2148.2</ele>
        <time>2019-07-19T10:36:43Z</time>
      </trkpt>
      <trkpt lat="42.89075" lon="0.20162">
        <ele>2146.28</ele>
        <time>2019-07-19T10:36:56Z</time>
      </trkpt>
      <trkpt lat="42.89074" lon="0.20172">
        <ele>2145.32</ele>
        <time>2019-07-19T10:37:06Z</time>
      </trkpt>
      <trkpt lat="42.8907" lon="0.20186">
        <ele>2143.4</ele>
        <time>2019-07-19T10:37:18Z</time>
      </trkpt>
      <trkpt lat="42.89069" lon="0.20189">
        <ele>2142.92</ele>
        <time>2019-07-19T10:37:20Z</time>
      </trkpt>
      <trkpt lat="42.89065" lon="0.20196">
        <ele>2144.84</ele>
        <time>2019-07-19T10:37:31Z</time>
      </trkpt>
      <trkpt lat="42.89061" lon="0.20206">
        <ele>2146.28</ele>
        <time>2019-07-19T10:37:42Z</time>
      </trkpt>
      <trkpt lat="42.89059" lon="0.20206">
        <ele>2147.24</ele>
        <time>2019-07-19T10:37:49Z</time>
      </trkpt>
      <trkpt lat="42.89056" lon="0.20206">
        <ele>2147.24</ele>
        <time>2019-07-19T10:37:51Z</time>
      </trkpt>
      <trkpt lat="42.89052" lon="0.20209">
        <ele>2147.24</ele>
        <time>2019-07-19T10:37:55Z</time>
      </trkpt>
      <trkpt lat="42.89046" lon="0.20218">
        <ele>2147.72</ele>
        <time>2019-07-19T10:38:05Z</time>
      </trkpt>
      <trkpt lat="42.89043" lon="0.20227">
        <ele>2146.76</ele>
        <time>2019-07-19T10:38:13Z</time>
      </trkpt>
      <trkpt lat="42.8904" lon="0.2023">
        <ele>2145.8</ele>
        <time>2019-07-19T10:38:18Z</time>
      </trkpt>
      <trkpt lat="42.89038" lon="0.20238">
        <ele>2144.36</ele>
        <time>2019-07-19T10:38:30Z</time>
      </trkpt>
      <trkpt lat="42.89037" lon="0.2024">
        <ele>2143.88</ele>
        <time>2019-07-19T10:38:32Z</time>
      </trkpt>
      <trkpt lat="42.89029" lon="0.20249">
        <ele>2142.44</ele>
        <time>2019-07-19T10:38:44Z</time>
      </trkpt>
      <trkpt lat="42.89026" lon="0.20255">
        <ele>2140.99</ele>
        <time>2019-07-19T10:38:51Z</time>
      </trkpt>
      <trkpt lat="42.89021" lon="0.20257">
        <ele>2140.51</ele>
        <time>2019-07-19T10:39:00Z</time>
      </trkpt>
      <trkpt lat="42.8902" lon="0.20258">
        <ele>2140.99</ele>
        <time>2019-07-19T10:39:14Z</time>
      </trkpt>
      <trkpt lat="42.89018" lon="0.20257">
        <ele>2140.03</ele>
        <time>2019-07-19T10:39:25Z</time>
      </trkpt>
      <trkpt lat="42.89012" lon="0.20262">
        <ele>2138.59</ele>
        <time>2019-07-19T10:39:32Z</time>
      </trkpt>
      <trkpt lat="42.89008" lon="0.20265">
        <ele>2137.15</ele>
        <time>2019-07-19T10:39:38Z</time>
      </trkpt>
      <trkpt lat="42.89003" lon="0.20268">
        <ele>2135.23</ele>
        <time>2019-07-19T10:39:46Z</time>
      </trkpt>
      <trkpt lat="42.88998" lon="0.20277">
        <ele>2134.74</ele>
        <time>2019-07-19T10:39:54Z</time>
      </trkpt>
      <trkpt lat="42.88997" lon="0.20279">
        <ele>2134.26</ele>
        <time>2019-07-19T10:39:56Z</time>
      </trkpt>
      <trkpt lat="42.88995" lon="0.20281">
        <ele>2134.26</ele>
        <time>2019-07-19T10:39:58Z</time>
      </trkpt>
      <trkpt lat="42.88993" lon="0.20289">
        <ele>2133.78</ele>
        <time>2019-07-19T10:40:05Z</time>
      </trkpt>
      <trkpt lat="42.88987" lon="0.203">
        <ele>2133.3</ele>
        <time>2019-07-19T10:40:14Z</time>
      </trkpt>
      <trkpt lat="42.88985" lon="0.20303">
        <ele>2133.3</ele>
        <time>2019-07-19T10:40:17Z</time>
      </trkpt>
      <trkpt lat="42.8898" lon="0.20311">
        <ele>2132.34</ele>
        <time>2019-07-19T10:40:29Z</time>
      </trkpt>
      <trkpt lat="42.88979" lon="0.20312">
        <ele>2131.86</ele>
        <time>2019-07-19T10:40:45Z</time>
      </trkpt>
      <trkpt lat="42.88979" lon="0.20313">
        <ele>2132.34</ele>
        <time>2019-07-19T10:41:05Z</time>
      </trkpt>
      <trkpt lat="42.88979" lon="0.20314">
        <ele>2131.86</ele>
        <time>2019-07-19T10:41:19Z</time>
      </trkpt>
      <trkpt lat="42.88979" lon="0.20314">
        <ele>2132.34</ele>
        <time>2019-07-19T10:41:46Z</time>
      </trkpt>
      <trkpt lat="42.88979" lon="0.20313">
        <ele>2132.34</ele>
        <time>2019-07-19T10:41:58Z</time>
      </trkpt>
      <trkpt lat="42.88978" lon="0.20311">
        <ele>2132.34</ele>
        <time>2019-07-19T10:42:17Z</time>
      </trkpt>
      <trkpt lat="42.88978" lon="0.20312">
        <ele>2132.34</ele>
        <time>2019-07-19T10:42:29Z</time>
      </trkpt>
      <trkpt lat="42.88978" lon="0.20313">
        <ele>2132.34</ele>
        <time>2019-07-19T10:42:46Z</time>
      </trkpt>
      <trkpt lat="42.88978" lon="0.20313">
        <ele>2132.82</ele>
        <time>2019-07-19T10:43:11Z</time>
      </trkpt>
      <trkpt lat="42.88978" lon="0.20314">
        <ele>2132.82</ele>
        <time>2019-07-19T10:43:32Z</time>
      </trkpt>
      <trkpt lat="42.88977" lon="0.20316">
        <ele>2131.38</ele>
        <time>2019-07-19T10:43:43Z</time>
      </trkpt>
      <trkpt lat="42.88975" lon="0.20322">
        <ele>2129.94</ele>
        <time>2019-07-19T10:43:51Z</time>
      </trkpt>
      <trkpt lat="42.88972" lon="0.20332">
        <ele>2128.02</ele>
        <time>2019-07-19T10:44:02Z</time>
      </trkpt>
      <trkpt lat="42.88969" lon="0.20336">
        <ele>2125.61</ele>
        <time>2019-07-19T10:44:17Z</time>
      </trkpt>
      <trkpt lat="42.88969" lon="0.20339">
        <ele>2125.61</ele>
        <time>2019-07-19T10:44:19Z</time>
      </trkpt>
      <trkpt lat="42.88968" lon="0.20342">
        <ele>2125.13</ele>
        <time>2019-07-19T10:44:21Z</time>
      </trkpt>
      <trkpt lat="42.88963" lon="0.2035">
        <ele>2123.69</ele>
        <time>2019-07-19T10:44:31Z</time>
      </trkpt>
      <trkpt lat="42.88961" lon="0.20352">
        <ele>2123.21</ele>
        <time>2019-07-19T10:44:34Z</time>
      </trkpt>
      <trkpt lat="42.88955" lon="0.20362">
        <ele>2121.77</ele>
        <time>2019-07-19T10:44:45Z</time>
      </trkpt>
      <trkpt lat="42.88953" lon="0.20368">
        <ele>2120.81</ele>
        <time>2019-07-19T10:44:54Z</time>
      </trkpt>
      <trkpt lat="42.88946" lon="0.20372">
        <ele>2118.4</ele>
        <time>2019-07-19T10:45:05Z</time>
      </trkpt>
      <trkpt lat="42.88941" lon="0.20382">
        <ele>2116.48</ele>
        <time>2019-07-19T10:45:16Z</time>
      </trkpt>
      <trkpt lat="42.88937" lon="0.20388">
        <ele>2114.56</ele>
        <time>2019-07-19T10:45:27Z</time>
      </trkpt>
      <trkpt lat="42.88935" lon="0.20384">
        <ele>2112.63</ele>
        <time>2019-07-19T10:45:37Z</time>
      </trkpt>
      <trkpt lat="42.88931" lon="0.20384">
        <ele>2110.71</ele>
        <time>2019-07-19T10:45:48Z</time>
      </trkpt>
      <trkpt lat="42.88927" lon="0.20388">
        <ele>2110.23</ele>
        <time>2019-07-19T10:46:02Z</time>
      </trkpt>
      <trkpt lat="42.88924" lon="0.20396">
        <ele>2110.23</ele>
        <time>2019-07-19T10:46:10Z</time>
      </trkpt>
      <trkpt lat="42.88919" lon="0.20405">
        <ele>2109.27</ele>
        <time>2019-07-19T10:46:20Z</time>
      </trkpt>
      <trkpt lat="42.88918" lon="0.20412">
        <ele>2109.75</ele>
        <time>2019-07-19T10:46:25Z</time>
      </trkpt>
      <trkpt lat="42.88911" lon="0.20421">
        <ele>2111.19</ele>
        <time>2019-07-19T10:46:35Z</time>
      </trkpt>
      <trkpt lat="42.88906" lon="0.20424">
        <ele>2112.15</ele>
        <time>2019-07-19T10:46:42Z</time>
      </trkpt>
      <trkpt lat="42.88902" lon="0.20439">
        <ele>2112.15</ele>
        <time>2019-07-19T10:46:53Z</time>
      </trkpt>
      <trkpt lat="42.88901" lon="0.20444">
        <ele>2111.19</ele>
        <time>2019-07-19T10:47:00Z</time>
      </trkpt>
      <trkpt lat="42.88901" lon="0.20454">
        <ele>2111.67</ele>
        <time>2019-07-19T10:47:09Z</time>
      </trkpt>
      <trkpt lat="42.88898" lon="0.20467">
        <ele>2111.19</ele>
        <time>2019-07-19T10:47:20Z</time>
      </trkpt>
      <trkpt lat="42.88895" lon="0.20471">
        <ele>2111.19</ele>
        <time>2019-07-19T10:47:30Z</time>
      </trkpt>
      <trkpt lat="42.88896" lon="0.20476">
        <ele>2111.67</ele>
        <time>2019-07-19T10:47:36Z</time>
      </trkpt>
      <trkpt lat="42.88894" lon="0.20484">
        <ele>2113.6</ele>
        <time>2019-07-19T10:47:47Z</time>
      </trkpt>
      <trkpt lat="42.88894" lon="0.20484">
        <ele>2113.6</ele>
        <time>2019-07-19T10:47:48Z</time>
      </trkpt>
      <trkpt lat="42.88889" lon="0.20495">
        <ele>2115.52</ele>
        <time>2019-07-19T10:48:01Z</time>
      </trkpt>
      <trkpt lat="42.88889" lon="0.20496">
        <ele>2115.52</ele>
        <time>2019-07-19T10:48:02Z</time>
      </trkpt>
      <trkpt lat="42.88882" lon="0.20508">
        <ele>2117.44</ele>
        <time>2019-07-19T10:48:16Z</time>
      </trkpt>
      <trkpt lat="42.88876" lon="0.20511">
        <ele>2117.44</ele>
        <time>2019-07-19T10:48:27Z</time>
      </trkpt>
      <trkpt lat="42.8887" lon="0.20508">
        <ele>2118.4</ele>
        <time>2019-07-19T10:48:33Z</time>
      </trkpt>
      <trkpt lat="42.88862" lon="0.20501">
        <ele>2118.4</ele>
        <time>2019-07-19T10:48:44Z</time>
      </trkpt>
      <trkpt lat="42.88854" lon="0.20501">
        <ele>2118.88</ele>
        <time>2019-07-19T10:48:51Z</time>
      </trkpt>
      <trkpt lat="42.88848" lon="0.20504">
        <ele>2118.88</ele>
        <time>2019-07-19T10:48:58Z</time>
      </trkpt>
      <trkpt lat="42.88843" lon="0.20502">
        <ele>2118.88</ele>
        <time>2019-07-19T10:49:03Z</time>
      </trkpt>
      <trkpt lat="42.88838" lon="0.20504">
        <ele>2118.4</ele>
        <time>2019-07-19T10:49:07Z</time>
      </trkpt>
      <trkpt lat="42.88834" lon="0.20505">
        <ele>2117.92</ele>
        <time>2019-07-19T10:49:12Z</time>
      </trkpt>
      <trkpt lat="42.88831" lon="0.20514">
        <ele>2118.88</ele>
        <time>2019-07-19T10:49:18Z</time>
      </trkpt>
      <trkpt lat="42.88828" lon="0.20512">
        <ele>2118.4</ele>
        <time>2019-07-19T10:49:21Z</time>
      </trkpt>
      <trkpt lat="42.88822" lon="0.20512">
        <ele>2117.44</ele>
        <time>2019-07-19T10:49:27Z</time>
      </trkpt>
      <trkpt lat="42.88821" lon="0.2051">
        <ele>2117.44</ele>
        <time>2019-07-19T10:49:29Z</time>
      </trkpt>
      <trkpt lat="42.88816" lon="0.20506">
        <ele>2116.48</ele>
        <time>2019-07-19T10:49:34Z</time>
      </trkpt>
      <trkpt lat="42.88807" lon="0.20505">
        <ele>2116.48</ele>
        <time>2019-07-19T10:49:44Z</time>
      </trkpt>
      <trkpt lat="42.88796" lon="0.2051">
        <ele>2117.44</ele>
        <time>2019-07-19T10:49:55Z</time>
      </trkpt>
      <trkpt lat="42.88788" lon="0.20509">
        <ele>2116.48</ele>
        <time>2019-07-19T10:50:06Z</time>
      </trkpt>
      <trkpt lat="42.88785" lon="0.2051">
        <ele>2116</ele>
        <time>2019-07-19T10:50:10Z</time>
      </trkpt>
      <trkpt lat="42.88783" lon="0.20512">
        <ele>2115.52</ele>
        <time>2019-07-19T10:50:12Z</time>
      </trkpt>
      <trkpt lat="42.88773" lon="0.20516">
        <ele>2118.4</ele>
        <time>2019-07-19T10:50:24Z</time>
      </trkpt>
      <trkpt lat="42.88769" lon="0.2052">
        <ele>2118.88</ele>
        <time>2019-07-19T10:50:33Z</time>
      </trkpt>
      <trkpt lat="42.88766" lon="0.20518">
        <ele>2119.36</ele>
        <time>2019-07-19T10:50:37Z</time>
      </trkpt>
      <trkpt lat="42.88763" lon="0.20517">
        <ele>2120.32</ele>
        <time>2019-07-19T10:50:42Z</time>
      </trkpt>
      <trkpt lat="42.88757" lon="0.20521">
        <ele>2120.81</ele>
        <time>2019-07-19T10:50:55Z</time>
      </trkpt>
      <trkpt lat="42.88754" lon="0.20522">
        <ele>2120.32</ele>
        <time>2019-07-19T10:51:01Z</time>
      </trkpt>
      <trkpt lat="42.88748" lon="0.20526">
        <ele>2120.81</ele>
        <time>2019-07-19T10:51:10Z</time>
      </trkpt>
      <trkpt lat="42.8874" lon="0.20531">
        <ele>2120.32</ele>
        <time>2019-07-19T10:51:21Z</time>
      </trkpt>
      <trkpt lat="42.88736" lon="0.20535">
        <ele>2119.36</ele>
        <time>2019-07-19T10:51:26Z</time>
      </trkpt>
      <trkpt lat="42.88729" lon="0.20536">
        <ele>2117.92</ele>
        <time>2019-07-19T10:51:37Z</time>
      </trkpt>
      <trkpt lat="42.88727" lon="0.20535">
        <ele>2118.4</ele>
        <time>2019-07-19T10:51:50Z</time>
      </trkpt>
      <trkpt lat="42.88727" lon="0.20535">
        <ele>2118.4</ele>
        <time>2019-07-19T10:52:07Z</time>
      </trkpt>
      <trkpt lat="42.88724" lon="0.20535">
        <ele>2117.92</ele>
        <time>2019-07-19T10:52:12Z</time>
      </trkpt>
      <trkpt lat="42.88721" lon="0.20536">
        <ele>2116.96</ele>
        <time>2019-07-19T10:52:16Z</time>
      </trkpt>
      <trkpt lat="42.88717" lon="0.20537">
        <ele>2115.52</ele>
        <time>2019-07-19T10:52:27Z</time>
      </trkpt>
      <trkpt lat="42.88713" lon="0.20537">
        <ele>2114.08</ele>
        <time>2019-07-19T10:52:37Z</time>
      </trkpt>
      <trkpt lat="42.88709" lon="0.20535">
        <ele>2112.15</ele>
        <time>2019-07-19T10:52:48Z</time>
      </trkpt>
      <trkpt lat="42.88706" lon="0.20533">
        <ele>2112.63</ele>
        <time>2019-07-19T10:52:53Z</time>
      </trkpt>
      <trkpt lat="42.88698" lon="0.20536">
        <ele>2112.15</ele>
        <time>2019-07-19T10:53:03Z</time>
      </trkpt>
      <trkpt lat="42.88692" lon="0.20536">
        <ele>2110.71</ele>
        <time>2019-07-19T10:53:13Z</time>
      </trkpt>
      <trkpt lat="42.88689" lon="0.20536">
        <ele>2110.71</ele>
        <time>2019-07-19T10:53:16Z</time>
      </trkpt>
      <trkpt lat="42.88683" lon="0.2054">
        <ele>2111.19</ele>
        <time>2019-07-19T10:53:23Z</time>
      </trkpt>
      <trkpt lat="42.88677" lon="0.20542">
        <ele>2109.75</ele>
        <time>2019-07-19T10:53:32Z</time>
      </trkpt>
      <trkpt lat="42.88672" lon="0.20541">
        <ele>2108.79</ele>
        <time>2019-07-19T10:53:37Z</time>
      </trkpt>
      <trkpt lat="42.88663" lon="0.20547">
        <ele>2108.79</ele>
        <time>2019-07-19T10:53:49Z</time>
      </trkpt>
      <trkpt lat="42.88659" lon="0.2055">
        <ele>2109.75</ele>
        <time>2019-07-19T10:53:58Z</time>
      </trkpt>
      <trkpt lat="42.88657" lon="0.20551">
        <ele>2109.75</ele>
        <time>2019-07-19T10:54:02Z</time>
      </trkpt>
      <trkpt lat="42.88654" lon="0.20558">
        <ele>2110.71</ele>
        <time>2019-07-19T10:54:11Z</time>
      </trkpt>
      <trkpt lat="42.88654" lon="0.20558">
        <ele>2110.71</ele>
        <time>2019-07-19T10:54:12Z</time>
      </trkpt>
      <trkpt lat="42.88652" lon="0.20565">
        <ele>2111.67</ele>
        <time>2019-07-19T10:54:19Z</time>
      </trkpt>
      <trkpt lat="42.88647" lon="0.20573">
        <ele>2111.67</ele>
        <time>2019-07-19T10:54:29Z</time>
      </trkpt>
      <trkpt lat="42.88645" lon="0.20574">
        <ele>2111.67</ele>
        <time>2019-07-19T10:54:43Z</time>
      </trkpt>
      <trkpt lat="42.88642" lon="0.20578">
        <ele>2111.19</ele>
        <time>2019-07-19T10:54:53Z</time>
      </trkpt>
      <trkpt lat="42.88634" lon="0.20588">
        <ele>2111.67</ele>
        <time>2019-07-19T10:55:05Z</time>
      </trkpt>
      <trkpt lat="42.88632" lon="0.2059">
        <ele>2112.15</ele>
        <time>2019-07-19T10:55:21Z</time>
      </trkpt>
      <trkpt lat="42.88629" lon="0.20598">
        <ele>2113.12</ele>
        <time>2019-07-19T10:55:28Z</time>
      </trkpt>
      <trkpt lat="42.88627" lon="0.20601">
        <ele>2114.08</ele>
        <time>2019-07-19T10:55:32Z</time>
      </trkpt>
      <trkpt lat="42.88625" lon="0.20604">
        <ele>2114.08</ele>
        <time>2019-07-19T10:55:35Z</time>
      </trkpt>
      <trkpt lat="42.88623" lon="0.20615">
        <ele>2115.52</ele>
        <time>2019-07-19T10:55:45Z</time>
      </trkpt>
      <trkpt lat="42.88622" lon="0.20617">
        <ele>2115.04</ele>
        <time>2019-07-19T10:55:47Z</time>
      </trkpt>
      <trkpt lat="42.88617" lon="0.20624">
        <ele>2115.52</ele>
        <time>2019-07-19T10:55:56Z</time>
      </trkpt>
      <trkpt lat="42.88612" lon="0.20629">
        <ele>2113.6</ele>
        <time>2019-07-19T10:56:04Z</time>
      </trkpt>
      <trkpt lat="42.88605" lon="0.20635">
        <ele>2112.63</ele>
        <time>2019-07-19T10:56:15Z</time>
      </trkpt>
      <trkpt lat="42.88597" lon="0.20634">
        <ele>2110.23</ele>
        <time>2019-07-19T10:56:27Z</time>
      </trkpt>
      <trkpt lat="42.88592" lon="0.20636">
        <ele>2109.27</ele>
        <time>2019-07-19T10:56:36Z</time>
      </trkpt>
      <trkpt lat="42.88585" lon="0.20637">
        <ele>2108.79</ele>
        <time>2019-07-19T10:56:45Z</time>
      </trkpt>
      <trkpt lat="42.88581" lon="0.20638">
        <ele>2108.79</ele>
        <time>2019-07-19T10:56:51Z</time>
      </trkpt>
      <trkpt lat="42.88577" lon="0.20639">
        <ele>2109.27</ele>
        <time>2019-07-19T10:56:58Z</time>
      </trkpt>
      <trkpt lat="42.88572" lon="0.2064">
        <ele>2109.27</ele>
        <time>2019-07-19T10:57:08Z</time>
      </trkpt>
      <trkpt lat="42.88572" lon="0.20641">
        <ele>2109.27</ele>
        <time>2019-07-19T10:57:13Z</time>
      </trkpt>
      <trkpt lat="42.88571" lon="0.20648">
        <ele>2110.71</ele>
        <time>2019-07-19T10:57:23Z</time>
      </trkpt>
      <trkpt lat="42.8857" lon="0.20649">
        <ele>2111.19</ele>
        <time>2019-07-19T10:57:25Z</time>
      </trkpt>
      <trkpt lat="42.88568" lon="0.2065">
        <ele>2111.19</ele>
        <time>2019-07-19T10:57:28Z</time>
      </trkpt>
      <trkpt lat="42.88566" lon="0.20652">
        <ele>2111.19</ele>
        <time>2019-07-19T10:57:31Z</time>
      </trkpt>
      <trkpt lat="42.88557" lon="0.20653">
        <ele>2112.15</ele>
        <time>2019-07-19T10:57:41Z</time>
      </trkpt>
      <trkpt lat="42.88552" lon="0.20653">
        <ele>2112.63</ele>
        <time>2019-07-19T10:57:45Z</time>
      </trkpt>
      <trkpt lat="42.88537" lon="0.20653">
        <ele>2112.63</ele>
        <time>2019-07-19T10:57:56Z</time>
      </trkpt>
      <trkpt lat="42.88529" lon="0.20646">
        <ele>2113.12</ele>
        <time>2019-07-19T10:58:05Z</time>
      </trkpt>
      <trkpt lat="42.88529" lon="0.20644">
        <ele>2113.12</ele>
        <time>2019-07-19T10:58:07Z</time>
      </trkpt>
      <trkpt lat="42.88528" lon="0.20642">
        <ele>2113.12</ele>
        <time>2019-07-19T10:58:09Z</time>
      </trkpt>
      <trkpt lat="42.88527" lon="0.20638">
        <ele>2112.63</ele>
        <time>2019-07-19T10:58:12Z</time>
      </trkpt>
      <trkpt lat="42.88525" lon="0.20635">
        <ele>2112.63</ele>
        <time>2019-07-19T10:58:15Z</time>
      </trkpt>
      <trkpt lat="42.88522" lon="0.20628">
        <ele>2113.6</ele>
        <time>2019-07-19T10:58:26Z</time>
      </trkpt>
      <trkpt lat="42.88521" lon="0.20628">
        <ele>2113.12</ele>
        <time>2019-07-19T10:58:27Z</time>
      </trkpt>
      <trkpt lat="42.88515" lon="0.20624">
        <ele>2113.12</ele>
        <time>2019-07-19T10:58:38Z</time>
      </trkpt>
      <trkpt lat="42.88513" lon="0.20623">
        <ele>2113.6</ele>
        <time>2019-07-19T10:58:53Z</time>
      </trkpt>
      <trkpt lat="42.88519" lon="0.20624">
        <ele>2113.12</ele>
        <time>2019-07-19T10:59:06Z</time>
      </trkpt>
      <trkpt lat="42.88528" lon="0.20627">
        <ele>2113.12</ele>
        <time>2019-07-19T10:59:18Z</time>
      </trkpt>
      <trkpt lat="42.88527" lon="0.20625">
        <ele>2113.6</ele>
        <time>2019-07-19T10:59:25Z</time>
      </trkpt>
      <trkpt lat="42.88527" lon="0.20614">
        <ele>2114.08</ele>
        <time>2019-07-19T10:59:37Z</time>
      </trkpt>
      <trkpt lat="42.88529" lon="0.20608">
        <ele>2114.56</ele>
        <time>2019-07-19T10:59:46Z</time>
      </trkpt>
      <trkpt lat="42.88529" lon="0.20606">
        <ele>2115.04</ele>
        <time>2019-07-19T10:59:55Z</time>
      </trkpt>
      <trkpt lat="42.88537" lon="0.20596">
        <ele>2116.96</ele>
        <time>2019-07-19T11:00:08Z</time>
      </trkpt>
      <trkpt lat="42.88538" lon="0.20594">
        <ele>2117.44</ele>
        <time>2019-07-19T11:00:10Z</time>
      </trkpt>
      <trkpt lat="42.88544" lon="0.20595">
        <ele>2117.92</ele>
        <time>2019-07-19T11:00:22Z</time>
      </trkpt>
      <trkpt lat="42.88548" lon="0.20598">
        <ele>2118.4</ele>
        <time>2019-07-19T11:00:39Z</time>
      </trkpt>
      <trkpt lat="42.88553" lon="0.20599">
        <ele>2116</ele>
        <time>2019-07-19T11:00:51Z</time>
      </trkpt>
      <trkpt lat="42.88554" lon="0.20594">
        <ele>2116.48</ele>
        <time>2019-07-19T11:01:02Z</time>
      </trkpt>
      <trkpt lat="42.88554" lon="0.20593">
        <ele>2116.48</ele>
        <time>2019-07-19T11:01:03Z</time>
      </trkpt>
      <trkpt lat="42.88552" lon="0.20588">
        <ele>2117.44</ele>
        <time>2019-07-19T11:01:09Z</time>
      </trkpt>
      <trkpt lat="42.88552" lon="0.20584">
        <ele>2118.4</ele>
        <time>2019-07-19T11:01:14Z</time>
      </trkpt>
      <trkpt lat="42.8855" lon="0.20576">
        <ele>2118.88</ele>
        <time>2019-07-19T11:01:24Z</time>
      </trkpt>
      <trkpt lat="42.88552" lon="0.20571">
        <ele>2118.4</ele>
        <time>2019-07-19T11:01:32Z</time>
      </trkpt>
      <trkpt lat="42.88554" lon="0.20565">
        <ele>2117.44</ele>
        <time>2019-07-19T11:01:44Z</time>
      </trkpt>
      <trkpt lat="42.88557" lon="0.20559">
        <ele>2115.52</ele>
        <time>2019-07-19T11:01:53Z</time>
      </trkpt>
      <trkpt lat="42.88559" lon="0.20555">
        <ele>2115.04</ele>
        <time>2019-07-19T11:01:59Z</time>
      </trkpt>
      <trkpt lat="42.8856" lon="0.20547">
        <ele>2113.6</ele>
        <time>2019-07-19T11:02:07Z</time>
      </trkpt>
      <trkpt lat="42.88567" lon="0.20543">
        <ele>2112.63</ele>
        <time>2019-07-19T11:02:16Z</time>
      </trkpt>
      <trkpt lat="42.8857" lon="0.20542">
        <ele>2112.63</ele>
        <time>2019-07-19T11:02:18Z</time>
      </trkpt>
      <trkpt lat="42.88583" lon="0.20534">
        <ele>2110.71</ele>
        <time>2019-07-19T11:02:34Z</time>
      </trkpt>
      <trkpt lat="42.88585" lon="0.20531">
        <ele>2110.23</ele>
        <time>2019-07-19T11:02:37Z</time>
      </trkpt>
      <trkpt lat="42.88586" lon="0.20529">
        <ele>2109.75</ele>
        <time>2019-07-19T11:02:40Z</time>
      </trkpt>
      <trkpt lat="42.8859" lon="0.20524">
        <ele>2109.27</ele>
        <time>2019-07-19T11:02:46Z</time>
      </trkpt>
      <trkpt lat="42.88599" lon="0.20529">
        <ele>2109.27</ele>
        <time>2019-07-19T11:02:57Z</time>
      </trkpt>
      <trkpt lat="42.886" lon="0.20533">
        <ele>2109.27</ele>
        <time>2019-07-19T11:03:21Z</time>
      </trkpt>
      <trkpt lat="42.886" lon="0.20533">
        <ele>2108.79</ele>
        <time>2019-07-19T11:03:36Z</time>
      </trkpt>
      <trkpt lat="42.88597" lon="0.20532">
        <ele>2109.27</ele>
        <time>2019-07-19T11:03:53Z</time>
      </trkpt>
      <trkpt lat="42.88598" lon="0.20531">
        <ele>2109.27</ele>
        <time>2019-07-19T11:04:16Z</time>
      </trkpt>
      <trkpt lat="42.88601" lon="0.20531">
        <ele>2109.27</ele>
        <time>2019-07-19T11:04:32Z</time>
      </trkpt>
      <trkpt lat="42.88604" lon="0.20528">
        <ele>2108.79</ele>
        <time>2019-07-19T11:04:45Z</time>
      </trkpt>
      <trkpt lat="42.88603" lon="0.20529">
        <ele>2108.31</ele>
        <time>2019-07-19T11:05:01Z</time>
      </trkpt>
      <trkpt lat="42.88603" lon="0.20529">
        <ele>2108.31</ele>
        <time>2019-07-19T11:05:16Z</time>
      </trkpt>
      <trkpt lat="42.88602" lon="0.20529">
        <ele>2108.31</ele>
        <time>2019-07-19T11:05:49Z</time>
      </trkpt>
      <trkpt lat="42.88602" lon="0.20529">
        <ele>2108.31</ele>
        <time>2019-07-19T11:06:05Z</time>
      </trkpt>
      <trkpt lat="42.88602" lon="0.2053">
        <ele>2108.31</ele>
        <time>2019-07-19T11:06:30Z</time>
      </trkpt>
      <trkpt lat="42.88602" lon="0.20529">
        <ele>2108.31</ele>
        <time>2019-07-19T11:06:47Z</time>
      </trkpt>
      <trkpt lat="42.88601" lon="0.20528">
        <ele>2109.27</ele>
        <time>2019-07-19T11:06:58Z</time>
      </trkpt>
      <trkpt lat="42.88601" lon="0.20528">
        <ele>2108.79</ele>
        <time>2019-07-19T11:07:02Z</time>
      </trkpt>
      <trkpt lat="42.88602" lon="0.20527">
        <ele>2107.35</ele>
        <time>2019-07-19T11:07:18Z</time>
      </trkpt>
      <trkpt lat="42.88601" lon="0.20527">
        <ele>2107.83</ele>
        <time>2019-07-19T11:07:53Z</time>
      </trkpt>
      <trkpt lat="42.88602" lon="0.20527">
        <ele>2107.83</ele>
        <time>2019-07-19T11:08:24Z</time>
      </trkpt>
      <trkpt lat="42.88602" lon="0.20527">
        <ele>2108.31</ele>
        <time>2019-07-19T11:08:57Z</time>
      </trkpt>
      <trkpt lat="42.88602" lon="0.20527">
        <ele>2108.31</ele>
        <time>2019-07-19T11:09:31Z</time>
      </trkpt>
      <trkpt lat="42.88602" lon="0.20526">
        <ele>2108.31</ele>
        <time>2019-07-19T11:10:01Z</time>
      </trkpt>
      <trkpt lat="42.88602" lon="0.20526">
        <ele>2108.31</ele>
        <time>2019-07-19T11:10:38Z</time>
      </trkpt>
      <trkpt lat="42.88602" lon="0.20526">
        <ele>2108.79</ele>
        <time>2019-07-19T11:11:13Z</time>
      </trkpt>
      <trkpt lat="42.88602" lon="0.20526">
        <ele>2109.27</ele>
        <time>2019-07-19T11:11:46Z</time>
      </trkpt>
      <trkpt lat="42.88603" lon="0.20526">
        <ele>2109.27</ele>
        <time>2019-07-19T11:12:20Z</time>
      </trkpt>
      <trkpt lat="42.88602" lon="0.20526">
        <ele>2109.27</ele>
        <time>2019-07-19T11:12:56Z</time>
      </trkpt>
      <trkpt lat="42.88602" lon="0.20527">
        <ele>2109.75</ele>
        <time>2019-07-19T11:13:36Z</time>
      </trkpt>
      <trkpt lat="42.88602" lon="0.20526">
        <ele>2109.75</ele>
        <time>2019-07-19T11:14:12Z</time>
      </trkpt>
      <trkpt lat="42.88602" lon="0.20526">
        <ele>2109.75</ele>
        <time>2019-07-19T11:14:47Z</time>
      </trkpt>
      <trkpt lat="42.88602" lon="0.20525">
        <ele>2109.75</ele>
        <time>2019-07-19T11:15:25Z</time>
      </trkpt>
      <trkpt lat="42.88602" lon="0.20525">
        <ele>2110.23</ele>
        <time>2019-07-19T11:16:00Z</time>
      </trkpt>
      <trkpt lat="42.88601" lon="0.20525">
        <ele>2109.75</ele>
        <time>2019-07-19T11:16:35Z</time>
      </trkpt>
      <trkpt lat="42.88601" lon="0.20524">
        <ele>2109.75</ele>
        <time>2019-07-19T11:17:12Z</time>
      </trkpt>
      <trkpt lat="42.88602" lon="0.20524">
        <ele>2110.23</ele>
        <time>2019-07-19T11:17:46Z</time>
      </trkpt>
      <trkpt lat="42.88601" lon="0.20524">
        <ele>2110.23</ele>
        <time>2019-07-19T11:18:17Z</time>
      </trkpt>
      <trkpt lat="42.88601" lon="0.20524">
        <ele>2110.71</ele>
        <time>2019-07-19T11:18:47Z</time>
      </trkpt>
      <trkpt lat="42.88601" lon="0.20524">
        <ele>2110.71</ele>
        <time>2019-07-19T11:19:22Z</time>
      </trkpt>
      <trkpt lat="42.88601" lon="0.20524">
        <ele>2110.71</ele>
        <time>2019-07-19T11:19:54Z</time>
      </trkpt>
      <trkpt lat="42.88601" lon="0.20524">
        <ele>2110.71</ele>
        <time>2019-07-19T11:20:29Z</time>
      </trkpt>
      <trkpt lat="42.88601" lon="0.20524">
        <ele>2110.71</ele>
        <time>2019-07-19T11:21:02Z</time>
      </trkpt>
      <trkpt lat="42.88601" lon="0.20524">
        <ele>2110.71</ele>
        <time>2019-07-19T11:21:35Z</time>
      </trkpt>
      <trkpt lat="42.88602" lon="0.20525">
        <ele>2110.71</ele>
        <time>2019-07-19T11:22:02Z</time>
      </trkpt>
      <trkpt lat="42.88602" lon="0.20525">
        <ele>2110.71</ele>
        <time>2019-07-19T11:22:29Z</time>
      </trkpt>
      <trkpt lat="42.88602" lon="0.20525">
        <ele>2110.71</ele>
        <time>2019-07-19T11:23:01Z</time>
      </trkpt>
      <trkpt lat="42.88603" lon="0.20526">
        <ele>2110.71</ele>
        <time>2019-07-19T11:23:36Z</time>
      </trkpt>
      <trkpt lat="42.88603" lon="0.20526">
        <ele>2110.71</ele>
        <time>2019-07-19T11:24:12Z</time>
      </trkpt>
      <trkpt lat="42.88602" lon="0.20526">
        <ele>2110.71</ele>
        <time>2019-07-19T11:24:48Z</time>
      </trkpt>
      <trkpt lat="42.88603" lon="0.20526">
        <ele>2108.79</ele>
        <time>2019-07-19T11:25:17Z</time>
      </trkpt>
      <trkpt lat="42.88603" lon="0.20526">
        <ele>2111.19</ele>
        <time>2019-07-19T11:25:20Z</time>
      </trkpt>
      <trkpt lat="42.88603" lon="0.20526">
        <ele>2111.19</ele>
        <time>2019-07-19T11:25:45Z</time>
      </trkpt>
      <trkpt lat="42.88603" lon="0.20526">
        <ele>2111.19</ele>
        <time>2019-07-19T11:26:19Z</time>
      </trkpt>
      <trkpt lat="42.88603" lon="0.20526">
        <ele>2111.19</ele>
        <time>2019-07-19T11:26:47Z</time>
      </trkpt>
      <trkpt lat="42.88603" lon="0.20527">
        <ele>2105.91</ele>
        <time>2019-07-19T11:27:12Z</time>
      </trkpt>
      <trkpt lat="42.88603" lon="0.20527">
        <ele>2108.79</ele>
        <time>2019-07-19T11:27:13Z</time>
      </trkpt>
      <trkpt lat="42.88603" lon="0.20527">
        <ele>2111.19</ele>
        <time>2019-07-19T11:27:15Z</time>
      </trkpt>
      <trkpt lat="42.88603" lon="0.20527">
        <ele>2116</ele>
        <time>2019-07-19T11:27:44Z</time>
      </trkpt>
      <trkpt lat="42.88603" lon="0.20527">
        <ele>2111.67</ele>
        <time>2019-07-19T11:27:45Z</time>
      </trkpt>
      <trkpt lat="42.88603" lon="0.20527">
        <ele>2111.67</ele>
        <time>2019-07-19T11:28:06Z</time>
      </trkpt>
      <trkpt lat="42.88602" lon="0.20526">
        <ele>2111.19</ele>
        <time>2019-07-19T11:28:26Z</time>
      </trkpt>
      <trkpt lat="42.88603" lon="0.20527">
        <ele>2111.67</ele>
        <time>2019-07-19T11:28:54Z</time>
      </trkpt>
      <trkpt lat="42.88603" lon="0.20527">
        <ele>2111.67</ele>
        <time>2019-07-19T11:29:03Z</time>
      </trkpt>
      <trkpt lat="42.88605" lon="0.20526">
        <ele>2112.15</ele>
        <time>2019-07-19T11:29:13Z</time>
      </trkpt>
      <trkpt lat="42.88606" lon="0.20526">
        <ele>2112.15</ele>
        <time>2019-07-19T11:29:22Z</time>
      </trkpt>
      <trkpt lat="42.88605" lon="0.20527">
        <ele>2113.12</ele>
        <time>2019-07-19T11:29:32Z</time>
      </trkpt>
      <trkpt lat="42.88605" lon="0.20528">
        <ele>2113.12</ele>
        <time>2019-07-19T11:29:49Z</time>
      </trkpt>
      <trkpt lat="42.88605" lon="0.20528">
        <ele>2113.12</ele>
        <time>2019-07-19T11:29:50Z</time>
      </trkpt>
      <trkpt lat="42.88602" lon="0.20527">
        <ele>2113.12</ele>
        <time>2019-07-19T11:30:01Z</time>
      </trkpt>
      <trkpt lat="42.88602" lon="0.20526">
        <ele>2113.6</ele>
        <time>2019-07-19T11:30:02Z</time>
      </trkpt>
      <trkpt lat="42.88602" lon="0.20524">
        <ele>2112.15</ele>
        <time>2019-07-19T11:30:11Z</time>
      </trkpt>
      <trkpt lat="42.88603" lon="0.20523">
        <ele>2112.15</ele>
        <time>2019-07-19T11:30:24Z</time>
      </trkpt>
      <trkpt lat="42.88603" lon="0.20524">
        <ele>2112.15</ele>
        <time>2019-07-19T11:30:27Z</time>
      </trkpt>
      <trkpt lat="42.88604" lon="0.20525">
        <ele>2111.19</ele>
        <time>2019-07-19T11:30:38Z</time>
      </trkpt>
      <trkpt lat="42.88604" lon="0.20526">
        <ele>2111.19</ele>
        <time>2019-07-19T11:31:06Z</time>
      </trkpt>
      <trkpt lat="42.88604" lon="0.20526">
        <ele>2112.15</ele>
        <time>2019-07-19T11:31:30Z</time>
      </trkpt>
      <trkpt lat="42.88603" lon="0.20526">
        <ele>2111.67</ele>
        <time>2019-07-19T11:31:33Z</time>
      </trkpt>
      <trkpt lat="42.886" lon="0.20526">
        <ele>2112.63</ele>
        <time>2019-07-19T11:31:36Z</time>
      </trkpt>
      <trkpt lat="42.88598" lon="0.20528">
        <ele>2113.12</ele>
        <time>2019-07-19T11:31:43Z</time>
      </trkpt>
      <trkpt lat="42.88596" lon="0.20528">
        <ele>2113.12</ele>
        <time>2019-07-19T11:31:45Z</time>
      </trkpt>
      <trkpt lat="42.88593" lon="0.20527">
        <ele>2113.12</ele>
        <time>2019-07-19T11:31:50Z</time>
      </trkpt>
      <trkpt lat="42.88586" lon="0.20525">
        <ele>2115.04</ele>
        <time>2019-07-19T11:31:57Z</time>
      </trkpt>
      <trkpt lat="42.88579" lon="0.20533">
        <ele>2116</ele>
        <time>2019-07-19T11:32:07Z</time>
      </trkpt>
      <trkpt lat="42.88579" lon="0.20533">
        <ele>2114.08</ele>
        <time>2019-07-19T11:32:08Z</time>
      </trkpt>
      <trkpt lat="42.88578" lon="0.20539">
        <ele>2117.92</ele>
        <time>2019-07-19T11:32:13Z</time>
      </trkpt>
      <trkpt lat="42.88578" lon="0.2054">
        <ele>2116.48</ele>
        <time>2019-07-19T11:32:14Z</time>
      </trkpt>
      <trkpt lat="42.88577" lon="0.20541">
        <ele>2115.52</ele>
        <time>2019-07-19T11:32:15Z</time>
      </trkpt>
      <trkpt lat="42.8857" lon="0.20548">
        <ele>2116.96</ele>
        <time>2019-07-19T11:32:23Z</time>
      </trkpt>
      <trkpt lat="42.88562" lon="0.20552">
        <ele>2115.04</ele>
        <time>2019-07-19T11:32:30Z</time>
      </trkpt>
      <trkpt lat="42.88558" lon="0.20554">
        <ele>2115.04</ele>
        <time>2019-07-19T11:32:33Z</time>
      </trkpt>
      <trkpt lat="42.88557" lon="0.20553">
        <ele>2119.36</ele>
        <time>2019-07-19T11:32:34Z</time>
      </trkpt>
      <trkpt lat="42.88557" lon="0.20553">
        <ele>2117.92</ele>
        <time>2019-07-19T11:32:35Z</time>
      </trkpt>
      <trkpt lat="42.88555" lon="0.20549">
        <ele>2118.88</ele>
        <time>2019-07-19T11:32:38Z</time>
      </trkpt>
      <trkpt lat="42.88552" lon="0.20549">
        <ele>2117.44</ele>
        <time>2019-07-19T11:32:41Z</time>
      </trkpt>
      <trkpt lat="42.88548" lon="0.20549">
        <ele>2119.36</ele>
        <time>2019-07-19T11:32:45Z</time>
      </trkpt>
      <trkpt lat="42.88543" lon="0.2055">
        <ele>2121.29</ele>
        <time>2019-07-19T11:32:51Z</time>
      </trkpt>
      <trkpt lat="42.88541" lon="0.20551">
        <ele>2122.25</ele>
        <time>2019-07-19T11:32:56Z</time>
      </trkpt>
      <trkpt lat="42.88537" lon="0.20554">
        <ele>2123.69</ele>
        <time>2019-07-19T11:33:02Z</time>
      </trkpt>
      <trkpt lat="42.88531" lon="0.20561">
        <ele>2124.65</ele>
        <time>2019-07-19T11:33:15Z</time>
      </trkpt>
      <trkpt lat="42.88524" lon="0.20566">
        <ele>2122.73</ele>
        <time>2019-07-19T11:33:28Z</time>
      </trkpt>
      <trkpt lat="42.88521" lon="0.20566">
        <ele>2123.21</ele>
        <time>2019-07-19T11:33:38Z</time>
      </trkpt>
      <trkpt lat="42.88518" lon="0.20561">
        <ele>2123.21</ele>
        <time>2019-07-19T11:33:44Z</time>
      </trkpt>
      <trkpt lat="42.88513" lon="0.20553">
        <ele>2124.65</ele>
        <time>2019-07-19T11:33:52Z</time>
      </trkpt>
      <trkpt lat="42.88508" lon="0.20554">
        <ele>2122.73</ele>
        <time>2019-07-19T11:34:00Z</time>
      </trkpt>
      <trkpt lat="42.88502" lon="0.20556">
        <ele>2122.73</ele>
        <time>2019-07-19T11:34:05Z</time>
      </trkpt>
      <trkpt lat="42.88496" lon="0.20554">
        <ele>2123.21</ele>
        <time>2019-07-19T11:34:09Z</time>
      </trkpt>
      <trkpt lat="42.88493" lon="0.20546">
        <ele>2125.61</ele>
        <time>2019-07-19T11:34:13Z</time>
      </trkpt>
      <trkpt lat="42.88493" lon="0.20545">
        <ele>2122.25</ele>
        <time>2019-07-19T11:34:14Z</time>
      </trkpt>
      <trkpt lat="42.88485" lon="0.20532">
        <ele>2122.73</ele>
        <time>2019-07-19T11:34:24Z</time>
      </trkpt>
      <trkpt lat="42.88476" lon="0.2053">
        <ele>2125.61</ele>
        <time>2019-07-19T11:34:36Z</time>
      </trkpt>
      <trkpt lat="42.88476" lon="0.20524">
        <ele>2123.21</ele>
        <time>2019-07-19T11:34:42Z</time>
      </trkpt>
      <trkpt lat="42.88474" lon="0.2052">
        <ele>2124.65</ele>
        <time>2019-07-19T11:34:49Z</time>
      </trkpt>
      <trkpt lat="42.88474" lon="0.2052">
        <ele>2130.9</ele>
        <time>2019-07-19T11:34:50Z</time>
      </trkpt>
      <trkpt lat="42.88473" lon="0.20522">
        <ele>2128.5</ele>
        <time>2019-07-19T11:34:53Z</time>
      </trkpt>
      <trkpt lat="42.88464" lon="0.20518">
        <ele>2131.38</ele>
        <time>2019-07-19T11:35:05Z</time>
      </trkpt>
      <trkpt lat="42.88464" lon="0.20513">
        <ele>2132.34</ele>
        <time>2019-07-19T11:35:10Z</time>
      </trkpt>
      <trkpt lat="42.88467" lon="0.205">
        <ele>2132.34</ele>
        <time>2019-07-19T11:35:22Z</time>
      </trkpt>
      <trkpt lat="42.88467" lon="0.20498">
        <ele>2136.19</ele>
        <time>2019-07-19T11:35:23Z</time>
      </trkpt>
      <trkpt lat="42.88468" lon="0.20497">
        <ele>2134.26</ele>
        <time>2019-07-19T11:35:25Z</time>
      </trkpt>
      <trkpt lat="42.88471" lon="0.20492">
        <ele>2137.63</ele>
        <time>2019-07-19T11:35:29Z</time>
      </trkpt>
      <trkpt lat="42.88472" lon="0.20487">
        <ele>2135.71</ele>
        <time>2019-07-19T11:35:33Z</time>
      </trkpt>
      <trkpt lat="42.88473" lon="0.20481">
        <ele>2139.07</ele>
        <time>2019-07-19T11:35:43Z</time>
      </trkpt>
      <trkpt lat="42.88473" lon="0.20483">
        <ele>2137.15</ele>
        <time>2019-07-19T11:35:46Z</time>
      </trkpt>
      <trkpt lat="42.88469" lon="0.20481">
        <ele>2139.55</ele>
        <time>2019-07-19T11:35:53Z</time>
      </trkpt>
      <trkpt lat="42.88463" lon="0.20481">
        <ele>2140.03</ele>
        <time>2019-07-19T11:35:59Z</time>
      </trkpt>
      <trkpt lat="42.88457" lon="0.20481">
        <ele>2141.95</ele>
        <time>2019-07-19T11:36:08Z</time>
      </trkpt>
      <trkpt lat="42.8845" lon="0.20476">
        <ele>2144.84</ele>
        <time>2019-07-19T11:36:22Z</time>
      </trkpt>
      <trkpt lat="42.88447" lon="0.20474">
        <ele>2146.76</ele>
        <time>2019-07-19T11:36:28Z</time>
      </trkpt>
      <trkpt lat="42.88447" lon="0.20474">
        <ele>2146.28</ele>
        <time>2019-07-19T11:36:31Z</time>
      </trkpt>
      <trkpt lat="42.88441" lon="0.20475">
        <ele>2149.16</ele>
        <time>2019-07-19T11:36:41Z</time>
      </trkpt>
      <trkpt lat="42.88438" lon="0.20468">
        <ele>2151.09</ele>
        <time>2019-07-19T11:36:52Z</time>
      </trkpt>
      <trkpt lat="42.88437" lon="0.20468">
        <ele>2151.57</ele>
        <time>2019-07-19T11:36:54Z</time>
      </trkpt>
      <trkpt lat="42.88438" lon="0.20466">
        <ele>2153.97</ele>
        <time>2019-07-19T11:36:56Z</time>
      </trkpt>
      <trkpt lat="42.88444" lon="0.20458">
        <ele>2154.45</ele>
        <time>2019-07-19T11:37:05Z</time>
      </trkpt>
      <trkpt lat="42.88448" lon="0.20451">
        <ele>2158.3</ele>
        <time>2019-07-19T11:37:16Z</time>
      </trkpt>
      <trkpt lat="42.88449" lon="0.20446">
        <ele>2160.22</ele>
        <time>2019-07-19T11:37:24Z</time>
      </trkpt>
      <trkpt lat="42.88446" lon="0.20445">
        <ele>2159.26</ele>
        <time>2019-07-19T11:37:27Z</time>
      </trkpt>
      <trkpt lat="42.88437" lon="0.20442">
        <ele>2160.7</ele>
        <time>2019-07-19T11:37:38Z</time>
      </trkpt>
      <trkpt lat="42.88435" lon="0.20439">
        <ele>2160.7</ele>
        <time>2019-07-19T11:37:42Z</time>
      </trkpt>
      <trkpt lat="42.8843" lon="0.20437">
        <ele>2162.14</ele>
        <time>2019-07-19T11:37:48Z</time>
      </trkpt>
      <trkpt lat="42.88428" lon="0.20441">
        <ele>2163.1</ele>
        <time>2019-07-19T11:37:52Z</time>
      </trkpt>
      <trkpt lat="42.88426" lon="0.2044">
        <ele>2163.1</ele>
        <time>2019-07-19T11:37:54Z</time>
      </trkpt>
      <trkpt lat="42.88421" lon="0.20436">
        <ele>2165.51</ele>
        <time>2019-07-19T11:38:00Z</time>
      </trkpt>
      <trkpt lat="42.88415" lon="0.20433">
        <ele>2167.43</ele>
        <time>2019-07-19T11:38:12Z</time>
      </trkpt>
      <trkpt lat="42.88415" lon="0.20427">
        <ele>2168.39</ele>
        <time>2019-07-19T11:38:18Z</time>
      </trkpt>
      <trkpt lat="42.88415" lon="0.20423">
        <ele>2169.83</ele>
        <time>2019-07-19T11:38:29Z</time>
      </trkpt>
      <trkpt lat="42.88414" lon="0.20422">
        <ele>2170.79</ele>
        <time>2019-07-19T11:38:30Z</time>
      </trkpt>
      <trkpt lat="42.88409" lon="0.20426">
        <ele>2174.16</ele>
        <time>2019-07-19T11:38:42Z</time>
      </trkpt>
      <trkpt lat="42.88404" lon="0.20435">
        <ele>2172.24</ele>
        <time>2019-07-19T11:38:53Z</time>
      </trkpt>
      <trkpt lat="42.88401" lon="0.20441">
        <ele>2170.79</ele>
        <time>2019-07-19T11:38:57Z</time>
      </trkpt>
      <trkpt lat="42.88399" lon="0.20444">
        <ele>2171.76</ele>
        <time>2019-07-19T11:38:59Z</time>
      </trkpt>
      <trkpt lat="42.88396" lon="0.20448">
        <ele>2174.16</ele>
        <time>2019-07-19T11:39:03Z</time>
      </trkpt>
      <trkpt lat="42.88387" lon="0.20464">
        <ele>2173.2</ele>
        <time>2019-07-19T11:39:15Z</time>
      </trkpt>
      <trkpt lat="42.88386" lon="0.20466">
        <ele>2173.2</ele>
        <time>2019-07-19T11:39:17Z</time>
      </trkpt>
      <trkpt lat="42.88384" lon="0.20472">
        <ele>2173.2</ele>
        <time>2019-07-19T11:39:21Z</time>
      </trkpt>
      <trkpt lat="42.88385" lon="0.20477">
        <ele>2173.68</ele>
        <time>2019-07-19T11:39:24Z</time>
      </trkpt>
      <trkpt lat="42.88386" lon="0.20484">
        <ele>2171.27</ele>
        <time>2019-07-19T11:39:28Z</time>
      </trkpt>
      <trkpt lat="42.88385" lon="0.2049">
        <ele>2170.79</ele>
        <time>2019-07-19T11:39:33Z</time>
      </trkpt>
      <trkpt lat="42.88383" lon="0.20497">
        <ele>2171.76</ele>
        <time>2019-07-19T11:39:37Z</time>
      </trkpt>
      <trkpt lat="42.88382" lon="0.20498">
        <ele>2174.64</ele>
        <time>2019-07-19T11:39:38Z</time>
      </trkpt>
      <trkpt lat="42.88379" lon="0.205">
        <ele>2172.72</ele>
        <time>2019-07-19T11:39:40Z</time>
      </trkpt>
      <trkpt lat="42.88376" lon="0.20501">
        <ele>2174.16</ele>
        <time>2019-07-19T11:39:43Z</time>
      </trkpt>
      <trkpt lat="42.88372" lon="0.205">
        <ele>2175.12</ele>
        <time>2019-07-19T11:39:51Z</time>
      </trkpt>
      <trkpt lat="42.88367" lon="0.20503">
        <ele>2177.04</ele>
        <time>2019-07-19T11:39:55Z</time>
      </trkpt>
      <trkpt lat="42.88363" lon="0.20509">
        <ele>2177.04</ele>
        <time>2019-07-19T11:39:59Z</time>
      </trkpt>
      <trkpt lat="42.88358" lon="0.20509">
        <ele>2180.41</ele>
        <time>2019-07-19T11:40:05Z</time>
      </trkpt>
      <trkpt lat="42.88358" lon="0.20509">
        <ele>2177.52</ele>
        <time>2019-07-19T11:40:06Z</time>
      </trkpt>
      <trkpt lat="42.88358" lon="0.20509">
        <ele>2181.37</ele>
        <time>2019-07-19T11:40:07Z</time>
      </trkpt>
      <trkpt lat="42.88358" lon="0.20509">
        <ele>2178.97</ele>
        <time>2019-07-19T11:40:09Z</time>
      </trkpt>
      <trkpt lat="42.88356" lon="0.2051">
        <ele>2181.37</ele>
        <time>2019-07-19T11:40:14Z</time>
      </trkpt>
      <trkpt lat="42.88349" lon="0.20511">
        <ele>2182.33</ele>
        <time>2019-07-19T11:40:25Z</time>
      </trkpt>
      <trkpt lat="42.88345" lon="0.20514">
        <ele>2184.73</ele>
        <time>2019-07-19T11:40:30Z</time>
      </trkpt>
      <trkpt lat="42.8834" lon="0.20515">
        <ele>2188.1</ele>
        <time>2019-07-19T11:40:34Z</time>
      </trkpt>
      <trkpt lat="42.88339" lon="0.20515">
        <ele>2185.21</ele>
        <time>2019-07-19T11:40:35Z</time>
      </trkpt>
      <trkpt lat="42.88338" lon="0.20515">
        <ele>2181.85</ele>
        <time>2019-07-19T11:40:39Z</time>
      </trkpt>
      <trkpt lat="42.88338" lon="0.20515">
        <ele>2189.06</ele>
        <time>2019-07-19T11:40:40Z</time>
      </trkpt>
      <trkpt lat="42.88338" lon="0.20515">
        <ele>2184.73</ele>
        <time>2019-07-19T11:40:41Z</time>
      </trkpt>
      <trkpt lat="42.88335" lon="0.20513">
        <ele>2188.1</ele>
        <time>2019-07-19T11:40:51Z</time>
      </trkpt>
      <trkpt lat="42.88335" lon="0.20513">
        <ele>2188.1</ele>
        <time>2019-07-19T11:40:52Z</time>
      </trkpt>
      <trkpt lat="42.88328" lon="0.20515">
        <ele>2189.54</ele>
        <time>2019-07-19T11:41:00Z</time>
      </trkpt>
      <trkpt lat="42.88308" lon="0.20516">
        <ele>2190.5</ele>
        <time>2019-07-19T11:41:15Z</time>
      </trkpt>
      <trkpt lat="42.88306" lon="0.20516">
        <ele>2190.98</ele>
        <time>2019-07-19T11:41:17Z</time>
      </trkpt>
      <trkpt lat="42.883" lon="0.20515">
        <ele>2193.87</ele>
        <time>2019-07-19T11:41:21Z</time>
      </trkpt>
      <trkpt lat="42.88287" lon="0.20519">
        <ele>2191.94</ele>
        <time>2019-07-19T11:41:32Z</time>
      </trkpt>
      <trkpt lat="42.88276" lon="0.20523">
        <ele>2193.39</ele>
        <time>2019-07-19T11:41:41Z</time>
      </trkpt>
      <trkpt lat="42.88272" lon="0.2052">
        <ele>2191.46</ele>
        <time>2019-07-19T11:41:45Z</time>
      </trkpt>
      <trkpt lat="42.88265" lon="0.20526">
        <ele>2193.39</ele>
        <time>2019-07-19T11:41:53Z</time>
      </trkpt>
      <trkpt lat="42.88263" lon="0.20527">
        <ele>2193.39</ele>
        <time>2019-07-19T11:41:55Z</time>
      </trkpt>
      <trkpt lat="42.88251" lon="0.20535">
        <ele>2192.9</ele>
        <time>2019-07-19T11:42:07Z</time>
      </trkpt>
      <trkpt lat="42.88245" lon="0.20532">
        <ele>2196.75</ele>
        <time>2019-07-19T11:42:15Z</time>
      </trkpt>
      <trkpt lat="42.88242" lon="0.2053">
        <ele>2197.23</ele>
        <time>2019-07-19T11:42:20Z</time>
      </trkpt>
      <trkpt lat="42.88239" lon="0.20528">
        <ele>2198.19</ele>
        <time>2019-07-19T11:42:24Z</time>
      </trkpt>
      <trkpt lat="42.88234" lon="0.20525">
        <ele>2198.67</ele>
        <time>2019-07-19T11:42:30Z</time>
      </trkpt>
      <trkpt lat="42.88223" lon="0.20524">
        <ele>2202.04</ele>
        <time>2019-07-19T11:42:44Z</time>
      </trkpt>
      <trkpt lat="42.88221" lon="0.20523">
        <ele>2202.04</ele>
        <time>2019-07-19T11:42:46Z</time>
      </trkpt>
      <trkpt lat="42.88212" lon="0.20525">
        <ele>2204.44</ele>
        <time>2019-07-19T11:42:59Z</time>
      </trkpt>
      <trkpt lat="42.88212" lon="0.20536">
        <ele>2203.96</ele>
        <time>2019-07-19T11:43:08Z</time>
      </trkpt>
      <trkpt lat="42.88212" lon="0.20541">
        <ele>2205.4</ele>
        <time>2019-07-19T11:43:13Z</time>
      </trkpt>
      <trkpt lat="42.88204" lon="0.20551">
        <ele>2206.36</ele>
        <time>2019-07-19T11:43:23Z</time>
      </trkpt>
      <trkpt lat="42.88203" lon="0.20552">
        <ele>2205.88</ele>
        <time>2019-07-19T11:43:25Z</time>
      </trkpt>
      <trkpt lat="42.88201" lon="0.20553">
        <ele>2206.84</ele>
        <time>2019-07-19T11:43:27Z</time>
      </trkpt>
      <trkpt lat="42.88198" lon="0.20556">
        <ele>2207.32</ele>
        <time>2019-07-19T11:43:30Z</time>
      </trkpt>
      <trkpt lat="42.88193" lon="0.20564">
        <ele>2206.84</ele>
        <time>2019-07-19T11:43:39Z</time>
      </trkpt>
      <trkpt lat="42.88189" lon="0.2057">
        <ele>2207.81</ele>
        <time>2019-07-19T11:43:44Z</time>
      </trkpt>
      <trkpt lat="42.88172" lon="0.20577">
        <ele>2207.32</ele>
        <time>2019-07-19T11:43:57Z</time>
      </trkpt>
      <trkpt lat="42.88169" lon="0.20576">
        <ele>2209.25</ele>
        <time>2019-07-19T11:44:00Z</time>
      </trkpt>
      <trkpt lat="42.88164" lon="0.20576">
        <ele>2210.21</ele>
        <time>2019-07-19T11:44:06Z</time>
      </trkpt>
      <trkpt lat="42.88153" lon="0.20562">
        <ele>2211.65</ele>
        <time>2019-07-19T11:44:19Z</time>
      </trkpt>
      <trkpt lat="42.88151" lon="0.20561">
        <ele>2212.61</ele>
        <time>2019-07-19T11:44:21Z</time>
      </trkpt>
      <trkpt lat="42.88148" lon="0.2056">
        <ele>2212.13</ele>
        <time>2019-07-19T11:44:23Z</time>
      </trkpt>
      <trkpt lat="42.88145" lon="0.20556">
        <ele>2212.61</ele>
        <time>2019-07-19T11:44:27Z</time>
      </trkpt>
      <trkpt lat="42.88138" lon="0.20543">
        <ele>2212.13</ele>
        <time>2019-07-19T11:44:39Z</time>
      </trkpt>
      <trkpt lat="42.88136" lon="0.20544">
        <ele>2214.05</ele>
        <time>2019-07-19T11:44:57Z</time>
      </trkpt>
      <trkpt lat="42.88135" lon="0.20544">
        <ele>2213.09</ele>
        <time>2019-07-19T11:44:59Z</time>
      </trkpt>
      <trkpt lat="42.88129" lon="0.20544">
        <ele>2211.65</ele>
        <time>2019-07-19T11:45:05Z</time>
      </trkpt>
      <trkpt lat="42.88116" lon="0.20542">
        <ele>2212.13</ele>
        <time>2019-07-19T11:45:15Z</time>
      </trkpt>
      <trkpt lat="42.88111" lon="0.20549">
        <ele>2212.61</ele>
        <time>2019-07-19T11:45:22Z</time>
      </trkpt>
      <trkpt lat="42.88108" lon="0.20557">
        <ele>2214.05</ele>
        <time>2019-07-19T11:45:27Z</time>
      </trkpt>
      <trkpt lat="42.88103" lon="0.20559">
        <ele>2214.05</ele>
        <time>2019-07-19T11:45:32Z</time>
      </trkpt>
      <trkpt lat="42.881" lon="0.2056">
        <ele>2216.94</ele>
        <time>2019-07-19T11:45:35Z</time>
      </trkpt>
      <trkpt lat="42.88099" lon="0.20562">
        <ele>2212.13</ele>
        <time>2019-07-19T11:45:37Z</time>
      </trkpt>
      <trkpt lat="42.88099" lon="0.20562">
        <ele>2217.42</ele>
        <time>2019-07-19T11:45:38Z</time>
      </trkpt>
      <trkpt lat="42.88098" lon="0.20563">
        <ele>2215.5</ele>
        <time>2019-07-19T11:45:39Z</time>
      </trkpt>
      <trkpt lat="42.88097" lon="0.20566">
        <ele>2214.53</ele>
        <time>2019-07-19T11:45:41Z</time>
      </trkpt>
      <trkpt lat="42.88096" lon="0.20569">
        <ele>2216.46</ele>
        <time>2019-07-19T11:45:44Z</time>
      </trkpt>
      <trkpt lat="42.8809" lon="0.20571">
        <ele>2219.34</ele>
        <time>2019-07-19T11:45:50Z</time>
      </trkpt>
      <trkpt lat="42.88086" lon="0.20573">
        <ele>2219.82</ele>
        <time>2019-07-19T11:45:57Z</time>
      </trkpt>
      <trkpt lat="42.88078" lon="0.20573">
        <ele>2222.71</ele>
        <time>2019-07-19T11:46:07Z</time>
      </trkpt>
      <trkpt lat="42.88075" lon="0.20572">
        <ele>2220.78</ele>
        <time>2019-07-19T11:46:09Z</time>
      </trkpt>
      <trkpt lat="42.88063" lon="0.20566">
        <ele>2221.74</ele>
        <time>2019-07-19T11:46:21Z</time>
      </trkpt>
      <trkpt lat="42.88058" lon="0.20565">
        <ele>2221.26</ele>
        <time>2019-07-19T11:46:26Z</time>
      </trkpt>
      <trkpt lat="42.88055" lon="0.20564">
        <ele>2222.71</ele>
        <time>2019-07-19T11:46:28Z</time>
      </trkpt>
      <trkpt lat="42.88054" lon="0.20564">
        <ele>2222.71</ele>
        <time>2019-07-19T11:46:29Z</time>
      </trkpt>
      <trkpt lat="42.88049" lon="0.20565">
        <ele>2221.74</ele>
        <time>2019-07-19T11:46:33Z</time>
      </trkpt>
      <trkpt lat="42.88047" lon="0.20567">
        <ele>2222.71</ele>
        <time>2019-07-19T11:46:36Z</time>
      </trkpt>
      <trkpt lat="42.88043" lon="0.20567">
        <ele>2222.71</ele>
        <time>2019-07-19T11:46:41Z</time>
      </trkpt>
      <trkpt lat="42.88038" lon="0.20569">
        <ele>2225.11</ele>
        <time>2019-07-19T11:46:45Z</time>
      </trkpt>
      <trkpt lat="42.88035" lon="0.20571">
        <ele>2223.67</ele>
        <time>2019-07-19T11:46:48Z</time>
      </trkpt>
      <trkpt lat="42.8803" lon="0.20573">
        <ele>2224.15</ele>
        <time>2019-07-19T11:46:53Z</time>
      </trkpt>
      <trkpt lat="42.88019" lon="0.20581">
        <ele>2223.19</ele>
        <time>2019-07-19T11:47:02Z</time>
      </trkpt>
      <trkpt lat="42.88017" lon="0.20579">
        <ele>2223.67</ele>
        <time>2019-07-19T11:47:04Z</time>
      </trkpt>
      <trkpt lat="42.88015" lon="0.20577">
        <ele>2223.67</ele>
        <time>2019-07-19T11:47:06Z</time>
      </trkpt>
      <trkpt lat="42.88007" lon="0.20569">
        <ele>2224.63</ele>
        <time>2019-07-19T11:47:16Z</time>
      </trkpt>
      <trkpt lat="42.88005" lon="0.20567">
        <ele>2225.59</ele>
        <time>2019-07-19T11:47:19Z</time>
      </trkpt>
      <trkpt lat="42.88003" lon="0.20568">
        <ele>2226.07</ele>
        <time>2019-07-19T11:47:21Z</time>
      </trkpt>
      <trkpt lat="42.87995" lon="0.2057">
        <ele>2227.99</ele>
        <time>2019-07-19T11:47:32Z</time>
      </trkpt>
      <trkpt lat="42.87995" lon="0.20571">
        <ele>2227.99</ele>
        <time>2019-07-19T11:47:33Z</time>
      </trkpt>
      <trkpt lat="42.87991" lon="0.2057">
        <ele>2227.99</ele>
        <time>2019-07-19T11:47:36Z</time>
      </trkpt>
      <trkpt lat="42.8798" lon="0.20572">
        <ele>2226.55</ele>
        <time>2019-07-19T11:47:46Z</time>
      </trkpt>
      <trkpt lat="42.8798" lon="0.20572">
        <ele>2230.4</ele>
        <time>2019-07-19T11:47:47Z</time>
      </trkpt>
      <trkpt lat="42.87971" lon="0.20565">
        <ele>2228.47</ele>
        <time>2019-07-19T11:47:55Z</time>
      </trkpt>
      <trkpt lat="42.8797" lon="0.20562">
        <ele>2227.51</ele>
        <time>2019-07-19T11:47:57Z</time>
      </trkpt>
      <trkpt lat="42.87969" lon="0.20557">
        <ele>2227.03</ele>
        <time>2019-07-19T11:48:00Z</time>
      </trkpt>
      <trkpt lat="42.87968" lon="0.20547">
        <ele>2226.55</ele>
        <time>2019-07-19T11:48:05Z</time>
      </trkpt>
      <trkpt lat="42.8796" lon="0.20531">
        <ele>2226.55</ele>
        <time>2019-07-19T11:48:17Z</time>
      </trkpt>
      <trkpt lat="42.87956" lon="0.20521">
        <ele>2229.43</ele>
        <time>2019-07-19T11:48:23Z</time>
      </trkpt>
      <trkpt lat="42.87954" lon="0.20517">
        <ele>2229.43</ele>
        <time>2019-07-19T11:48:28Z</time>
      </trkpt>
      <trkpt lat="42.87953" lon="0.2051">
        <ele>2230.4</ele>
        <time>2019-07-19T11:48:35Z</time>
      </trkpt>
      <trkpt lat="42.87949" lon="0.20504">
        <ele>2231.84</ele>
        <time>2019-07-19T11:48:46Z</time>
      </trkpt>
      <trkpt lat="42.87946" lon="0.20501">
        <ele>2231.36</ele>
        <time>2019-07-19T11:48:53Z</time>
      </trkpt>
      <trkpt lat="42.87943" lon="0.20496">
        <ele>2234.24</ele>
        <time>2019-07-19T11:48:56Z</time>
      </trkpt>
      <trkpt lat="42.87943" lon="0.20494">
        <ele>2231.84</ele>
        <time>2019-07-19T11:48:58Z</time>
      </trkpt>
      <trkpt lat="42.87941" lon="0.20485">
        <ele>2231.84</ele>
        <time>2019-07-19T11:49:06Z</time>
      </trkpt>
      <trkpt lat="42.87939" lon="0.20477">
        <ele>2235.68</ele>
        <time>2019-07-19T11:49:17Z</time>
      </trkpt>
      <trkpt lat="42.87939" lon="0.20472">
        <ele>2237.61</ele>
        <time>2019-07-19T11:49:22Z</time>
      </trkpt>
      <trkpt lat="42.87938" lon="0.20469">
        <ele>2236.16</ele>
        <time>2019-07-19T11:49:25Z</time>
      </trkpt>
      <trkpt lat="42.87937" lon="0.20465">
        <ele>2237.61</ele>
        <time>2019-07-19T11:49:28Z</time>
      </trkpt>
      <trkpt lat="42.87935" lon="0.20462">
        <ele>2238.57</ele>
        <time>2019-07-19T11:49:31Z</time>
      </trkpt>
      <trkpt lat="42.87935" lon="0.2046">
        <ele>2240.49</ele>
        <time>2019-07-19T11:49:34Z</time>
      </trkpt>
      <trkpt lat="42.87935" lon="0.20451">
        <ele>2240.97</ele>
        <time>2019-07-19T11:49:41Z</time>
      </trkpt>
      <trkpt lat="42.87934" lon="0.20449">
        <ele>2240.97</ele>
        <time>2019-07-19T11:49:43Z</time>
      </trkpt>
      <trkpt lat="42.87932" lon="0.20434">
        <ele>2241.93</ele>
        <time>2019-07-19T11:49:53Z</time>
      </trkpt>
      <trkpt lat="42.87929" lon="0.20428">
        <ele>2243.37</ele>
        <time>2019-07-19T11:49:59Z</time>
      </trkpt>
      <trkpt lat="42.87927" lon="0.20428">
        <ele>2243.85</ele>
        <time>2019-07-19T11:50:01Z</time>
      </trkpt>
      <trkpt lat="42.87925" lon="0.20428">
        <ele>2245.3</ele>
        <time>2019-07-19T11:50:06Z</time>
      </trkpt>
      <trkpt lat="42.87923" lon="0.20422">
        <ele>2244.33</ele>
        <time>2019-07-19T11:50:12Z</time>
      </trkpt>
      <trkpt lat="42.87921" lon="0.20417">
        <ele>2245.78</ele>
        <time>2019-07-19T11:50:18Z</time>
      </trkpt>
      <trkpt lat="42.87919" lon="0.20418">
        <ele>2247.22</ele>
        <time>2019-07-19T11:50:24Z</time>
      </trkpt>
      <trkpt lat="42.87915" lon="0.20423">
        <ele>2249.14</ele>
        <time>2019-07-19T11:50:31Z</time>
      </trkpt>
      <trkpt lat="42.87912" lon="0.20415">
        <ele>2252.51</ele>
        <time>2019-07-19T11:50:41Z</time>
      </trkpt>
      <trkpt lat="42.87912" lon="0.20412">
        <ele>2251.54</ele>
        <time>2019-07-19T11:50:43Z</time>
      </trkpt>
      <trkpt lat="42.87915" lon="0.20406">
        <ele>2251.06</ele>
        <time>2019-07-19T11:50:47Z</time>
      </trkpt>
      <trkpt lat="42.87911" lon="0.20403">
        <ele>2253.47</ele>
        <time>2019-07-19T11:50:59Z</time>
      </trkpt>
      <trkpt lat="42.87905" lon="0.2041">
        <ele>2253.95</ele>
        <time>2019-07-19T11:51:09Z</time>
      </trkpt>
      <trkpt lat="42.87903" lon="0.2041">
        <ele>2255.39</ele>
        <time>2019-07-19T11:51:11Z</time>
      </trkpt>
      <trkpt lat="42.87897" lon="0.20409">
        <ele>2256.83</ele>
        <time>2019-07-19T11:51:20Z</time>
      </trkpt>
      <trkpt lat="42.87893" lon="0.20402">
        <ele>2256.83</ele>
        <time>2019-07-19T11:51:27Z</time>
      </trkpt>
      <trkpt lat="42.8789" lon="0.20401">
        <ele>2257.79</ele>
        <time>2019-07-19T11:51:30Z</time>
      </trkpt>
      <trkpt lat="42.87886" lon="0.20399">
        <ele>2258.27</ele>
        <time>2019-07-19T11:51:34Z</time>
      </trkpt>
      <trkpt lat="42.87882" lon="0.20399">
        <ele>2257.79</ele>
        <time>2019-07-19T11:51:37Z</time>
      </trkpt>
      <trkpt lat="42.87879" lon="0.20402">
        <ele>2259.24</ele>
        <time>2019-07-19T11:51:41Z</time>
      </trkpt>
      <trkpt lat="42.87873" lon="0.20403">
        <ele>2258.27</ele>
        <time>2019-07-19T11:51:45Z</time>
      </trkpt>
      <trkpt lat="42.8786" lon="0.2041">
        <ele>2259.24</ele>
        <time>2019-07-19T11:51:58Z</time>
      </trkpt>
      <trkpt lat="42.87853" lon="0.20418">
        <ele>2259.72</ele>
        <time>2019-07-19T11:52:05Z</time>
      </trkpt>
      <trkpt lat="42.87847" lon="0.20428">
        <ele>2261.16</ele>
        <time>2019-07-19T11:52:13Z</time>
      </trkpt>
      <trkpt lat="42.87845" lon="0.2043">
        <ele>2260.68</ele>
        <time>2019-07-19T11:52:15Z</time>
      </trkpt>
      <trkpt lat="42.87837" lon="0.20444">
        <ele>2264.52</ele>
        <time>2019-07-19T11:52:28Z</time>
      </trkpt>
      <trkpt lat="42.87835" lon="0.20446">
        <ele>2261.64</ele>
        <time>2019-07-19T11:52:30Z</time>
      </trkpt>
      <trkpt lat="42.87834" lon="0.20447">
        <ele>2265</ele>
        <time>2019-07-19T11:52:32Z</time>
      </trkpt>
      <trkpt lat="42.87824" lon="0.20445">
        <ele>2268.37</ele>
        <time>2019-07-19T11:52:43Z</time>
      </trkpt>
      <trkpt lat="42.8782" lon="0.20445">
        <ele>2268.37</ele>
        <time>2019-07-19T11:52:50Z</time>
      </trkpt>
      <trkpt lat="42.87816" lon="0.20449">
        <ele>2270.77</ele>
        <time>2019-07-19T11:53:03Z</time>
      </trkpt>
      <trkpt lat="42.87813" lon="0.20454">
        <ele>2274.14</ele>
        <time>2019-07-19T11:53:13Z</time>
      </trkpt>
      <trkpt lat="42.87805" lon="0.2046">
        <ele>2276.06</ele>
        <time>2019-07-19T11:53:26Z</time>
      </trkpt>
      <trkpt lat="42.87799" lon="0.20462">
        <ele>2276.54</ele>
        <time>2019-07-19T11:53:33Z</time>
      </trkpt>
      <trkpt lat="42.87784" lon="0.20465">
        <ele>2275.58</ele>
        <time>2019-07-19T11:53:44Z</time>
      </trkpt>
      <trkpt lat="42.87774" lon="0.20472">
        <ele>2277.02</ele>
        <time>2019-07-19T11:53:52Z</time>
      </trkpt>
      <trkpt lat="42.87771" lon="0.20477">
        <ele>2277.02</ele>
        <time>2019-07-19T11:53:58Z</time>
      </trkpt>
      <trkpt lat="42.87765" lon="0.20483">
        <ele>2280.38</ele>
        <time>2019-07-19T11:54:07Z</time>
      </trkpt>
      <trkpt lat="42.87762" lon="0.20487">
        <ele>2278.94</ele>
        <time>2019-07-19T11:54:10Z</time>
      </trkpt>
      <trkpt lat="42.87755" lon="0.20496">
        <ele>2281.83</ele>
        <time>2019-07-19T11:54:18Z</time>
      </trkpt>
      <trkpt lat="42.87752" lon="0.20499">
        <ele>2281.35</ele>
        <time>2019-07-19T11:54:22Z</time>
      </trkpt>
      <trkpt lat="42.87743" lon="0.20506">
        <ele>2284.23</ele>
        <time>2019-07-19T11:54:32Z</time>
      </trkpt>
      <trkpt lat="42.87739" lon="0.2051">
        <ele>2285.67</ele>
        <time>2019-07-19T11:54:38Z</time>
      </trkpt>
      <trkpt lat="42.87735" lon="0.20512">
        <ele>2286.15</ele>
        <time>2019-07-19T11:54:41Z</time>
      </trkpt>
      <trkpt lat="42.8773" lon="0.20514">
        <ele>2286.63</ele>
        <time>2019-07-19T11:54:45Z</time>
      </trkpt>
      <trkpt lat="42.87724" lon="0.20518">
        <ele>2289.04</ele>
        <time>2019-07-19T11:54:57Z</time>
      </trkpt>
      <trkpt lat="42.87719" lon="0.20522">
        <ele>2290</ele>
        <time>2019-07-19T11:55:03Z</time>
      </trkpt>
      <trkpt lat="42.87714" lon="0.20526">
        <ele>2290</ele>
        <time>2019-07-19T11:55:10Z</time>
      </trkpt>
      <trkpt lat="42.8771" lon="0.20534">
        <ele>2292.4</ele>
        <time>2019-07-19T11:55:19Z</time>
      </trkpt>
      <trkpt lat="42.87702" lon="0.2054">
        <ele>2294.32</ele>
        <time>2019-07-19T11:55:34Z</time>
      </trkpt>
      <trkpt lat="42.87696" lon="0.20546">
        <ele>2298.65</ele>
        <time>2019-07-19T11:55:47Z</time>
      </trkpt>
      <trkpt lat="42.87693" lon="0.20548">
        <ele>2298.65</ele>
        <time>2019-07-19T11:55:54Z</time>
      </trkpt>
      <trkpt lat="42.8769" lon="0.20554">
        <ele>2299.61</ele>
        <time>2019-07-19T11:56:07Z</time>
      </trkpt>
      <trkpt lat="42.87689" lon="0.20555">
        <ele>2304.9</ele>
        <time>2019-07-19T11:56:09Z</time>
      </trkpt>
      <trkpt lat="42.87689" lon="0.20556">
        <ele>2302.98</ele>
        <time>2019-07-19T11:56:10Z</time>
      </trkpt>
      <trkpt lat="42.87684" lon="0.20562">
        <ele>2305.38</ele>
        <time>2019-07-19T11:56:24Z</time>
      </trkpt>
      <trkpt lat="42.8768" lon="0.20569">
        <ele>2306.34</ele>
        <time>2019-07-19T11:56:31Z</time>
      </trkpt>
      <trkpt lat="42.8767" lon="0.20572">
        <ele>2301.05</ele>
        <time>2019-07-19T11:56:40Z</time>
      </trkpt>
      <trkpt lat="42.87669" lon="0.20572">
        <ele>2310.67</ele>
        <time>2019-07-19T11:56:41Z</time>
      </trkpt>
      <trkpt lat="42.87669" lon="0.20573">
        <ele>2307.3</ele>
        <time>2019-07-19T11:56:42Z</time>
      </trkpt>
      <trkpt lat="42.87666" lon="0.20575">
        <ele>2307.3</ele>
        <time>2019-07-19T11:56:46Z</time>
      </trkpt>
      <trkpt lat="42.87656" lon="0.20578">
        <ele>2308.74</ele>
        <time>2019-07-19T11:56:59Z</time>
      </trkpt>
      <trkpt lat="42.87655" lon="0.20578">
        <ele>2309.22</ele>
        <time>2019-07-19T11:57:01Z</time>
      </trkpt>
      <trkpt lat="42.8765" lon="0.20582">
        <ele>2311.15</ele>
        <time>2019-07-19T11:57:10Z</time>
      </trkpt>
      <trkpt lat="42.87647" lon="0.20585">
        <ele>2311.15</ele>
        <time>2019-07-19T11:57:14Z</time>
      </trkpt>
      <trkpt lat="42.87633" lon="0.2059">
        <ele>2312.11</ele>
        <time>2019-07-19T11:57:30Z</time>
      </trkpt>
      <trkpt lat="42.87625" lon="0.20594">
        <ele>2313.55</ele>
        <time>2019-07-19T11:57:43Z</time>
      </trkpt>
      <trkpt lat="42.87622" lon="0.20595">
        <ele>2314.99</ele>
        <time>2019-07-19T11:57:46Z</time>
      </trkpt>
      <trkpt lat="42.87617" lon="0.20597">
        <ele>2314.99</ele>
        <time>2019-07-19T11:57:51Z</time>
      </trkpt>
      <trkpt lat="42.87614" lon="0.20597">
        <ele>2315.47</ele>
        <time>2019-07-19T11:57:54Z</time>
      </trkpt>
      <trkpt lat="42.87608" lon="0.20599">
        <ele>2315.95</ele>
        <time>2019-07-19T11:57:58Z</time>
      </trkpt>
      <trkpt lat="42.87606" lon="0.206">
        <ele>2316.91</ele>
        <time>2019-07-19T11:58:00Z</time>
      </trkpt>
      <trkpt lat="42.87604" lon="0.206">
        <ele>2316.91</ele>
        <time>2019-07-19T11:58:02Z</time>
      </trkpt>
      <trkpt lat="42.87597" lon="0.20595">
        <ele>2317.88</ele>
        <time>2019-07-19T11:58:09Z</time>
      </trkpt>
      <trkpt lat="42.87595" lon="0.20593">
        <ele>2318.36</ele>
        <time>2019-07-19T11:58:12Z</time>
      </trkpt>
      <trkpt lat="42.87597" lon="0.20579">
        <ele>2320.76</ele>
        <time>2019-07-19T11:58:20Z</time>
      </trkpt>
      <trkpt lat="42.8759" lon="0.20576">
        <ele>2323.16</ele>
        <time>2019-07-19T11:58:30Z</time>
      </trkpt>
      <trkpt lat="42.87587" lon="0.20573">
        <ele>2323.16</ele>
        <time>2019-07-19T11:58:34Z</time>
      </trkpt>
      <trkpt lat="42.87583" lon="0.20568">
        <ele>2323.16</ele>
        <time>2019-07-19T11:58:41Z</time>
      </trkpt>
      <trkpt lat="42.8758" lon="0.20563">
        <ele>2325.09</ele>
        <time>2019-07-19T11:58:51Z</time>
      </trkpt>
      <trkpt lat="42.87575" lon="0.20559">
        <ele>2325.57</ele>
        <time>2019-07-19T11:58:57Z</time>
      </trkpt>
      <trkpt lat="42.87563" lon="0.20549">
        <ele>2325.09</ele>
        <time>2019-07-19T11:59:09Z</time>
      </trkpt>
      <trkpt lat="42.87554" lon="0.20543">
        <ele>2325.09</ele>
        <time>2019-07-19T11:59:17Z</time>
      </trkpt>
      <trkpt lat="42.87539" lon="0.20545">
        <ele>2325.57</ele>
        <time>2019-07-19T11:59:29Z</time>
      </trkpt>
      <trkpt lat="42.8754" lon="0.20546">
        <ele>2325.57</ele>
        <time>2019-07-19T11:59:40Z</time>
      </trkpt>
      <trkpt lat="42.87539" lon="0.20545">
        <ele>2326.05</ele>
        <time>2019-07-19T12:00:04Z</time>
      </trkpt>
      <trkpt lat="42.87535" lon="0.20549">
        <ele>2326.05</ele>
        <time>2019-07-19T12:00:09Z</time>
      </trkpt>
      <trkpt lat="42.87532" lon="0.20553">
        <ele>2325.09</ele>
        <time>2019-07-19T12:00:12Z</time>
      </trkpt>
      <trkpt lat="42.87522" lon="0.20554">
        <ele>2323.64</ele>
        <time>2019-07-19T12:00:19Z</time>
      </trkpt>
      <trkpt lat="42.87516" lon="0.20558">
        <ele>2325.09</ele>
        <time>2019-07-19T12:00:25Z</time>
      </trkpt>
      <trkpt lat="42.87509" lon="0.20562">
        <ele>2324.61</ele>
        <time>2019-07-19T12:00:31Z</time>
      </trkpt>
      <trkpt lat="42.87504" lon="0.20562">
        <ele>2325.09</ele>
        <time>2019-07-19T12:00:36Z</time>
      </trkpt>
      <trkpt lat="42.87501" lon="0.20561">
        <ele>2325.09</ele>
        <time>2019-07-19T12:00:40Z</time>
      </trkpt>
      <trkpt lat="42.87499" lon="0.2056">
        <ele>2325.57</ele>
        <time>2019-07-19T12:00:42Z</time>
      </trkpt>
      <trkpt lat="42.87486" lon="0.20552">
        <ele>2324.12</ele>
        <time>2019-07-19T12:00:52Z</time>
      </trkpt>
      <trkpt lat="42.8748" lon="0.20549">
        <ele>2326.05</ele>
        <time>2019-07-19T12:00:58Z</time>
      </trkpt>
      <trkpt lat="42.87475" lon="0.20548">
        <ele>2326.05</ele>
        <time>2019-07-19T12:01:03Z</time>
      </trkpt>
      <trkpt lat="42.87466" lon="0.20542">
        <ele>2326.05</ele>
        <time>2019-07-19T12:01:11Z</time>
      </trkpt>
      <trkpt lat="42.87465" lon="0.20541">
        <ele>2327.49</ele>
        <time>2019-07-19T12:01:12Z</time>
      </trkpt>
      <trkpt lat="42.87451" lon="0.20534">
        <ele>2329.41</ele>
        <time>2019-07-19T12:01:25Z</time>
      </trkpt>
      <trkpt lat="42.87446" lon="0.2053">
        <ele>2327.97</ele>
        <time>2019-07-19T12:01:32Z</time>
      </trkpt>
      <trkpt lat="42.87447" lon="0.20519">
        <ele>2332.78</ele>
        <time>2019-07-19T12:01:44Z</time>
      </trkpt>
      <trkpt lat="42.87451" lon="0.20511">
        <ele>2333.26</ele>
        <time>2019-07-19T12:01:58Z</time>
      </trkpt>
      <trkpt lat="42.87448" lon="0.20515">
        <ele>2334.22</ele>
        <time>2019-07-19T12:02:01Z</time>
      </trkpt>
      <trkpt lat="42.87434" lon="0.2052">
        <ele>2335.18</ele>
        <time>2019-07-19T12:02:13Z</time>
      </trkpt>
      <trkpt lat="42.87432" lon="0.2052">
        <ele>2336.62</ele>
        <time>2019-07-19T12:02:15Z</time>
      </trkpt>
      <trkpt lat="42.8743" lon="0.20521">
        <ele>2336.14</ele>
        <time>2019-07-19T12:02:17Z</time>
      </trkpt>
      <trkpt lat="42.87426" lon="0.2052">
        <ele>2337.1</ele>
        <time>2019-07-19T12:02:22Z</time>
      </trkpt>
      <trkpt lat="42.87425" lon="0.20521">
        <ele>2336.62</ele>
        <time>2019-07-19T12:02:25Z</time>
      </trkpt>
      <trkpt lat="42.87419" lon="0.20534">
        <ele>2339.02</ele>
        <time>2019-07-19T12:02:43Z</time>
      </trkpt>
      <trkpt lat="42.87417" lon="0.20533">
        <ele>2343.35</ele>
        <time>2019-07-19T12:02:48Z</time>
      </trkpt>
      <trkpt lat="42.87417" lon="0.20535">
        <ele>2340.95</ele>
        <time>2019-07-19T12:02:50Z</time>
      </trkpt>
      <trkpt lat="42.87412" lon="0.20543">
        <ele>2345.75</ele>
        <time>2019-07-19T12:03:04Z</time>
      </trkpt>
      <trkpt lat="42.87407" lon="0.20543">
        <ele>2337.58</ele>
        <time>2019-07-19T12:03:13Z</time>
      </trkpt>
      <trkpt lat="42.87406" lon="0.20543">
        <ele>2352.96</ele>
        <time>2019-07-19T12:03:14Z</time>
      </trkpt>
      <trkpt lat="42.87406" lon="0.20543">
        <ele>2347.2</ele>
        <time>2019-07-19T12:03:15Z</time>
      </trkpt>
      <trkpt lat="42.87407" lon="0.2055">
        <ele>2349.12</ele>
        <time>2019-07-19T12:03:29Z</time>
      </trkpt>
      <trkpt lat="42.87403" lon="0.20549">
        <ele>2351.52</ele>
        <time>2019-07-19T12:03:40Z</time>
      </trkpt>
      <trkpt lat="42.87399" lon="0.20553">
        <ele>2354.41</ele>
        <time>2019-07-19T12:03:51Z</time>
      </trkpt>
      <trkpt lat="42.87392" lon="0.20559">
        <ele>2355.37</ele>
        <time>2019-07-19T12:04:05Z</time>
      </trkpt>
      <trkpt lat="42.87392" lon="0.20558">
        <ele>2355.37</ele>
        <time>2019-07-19T12:04:18Z</time>
      </trkpt>
      <trkpt lat="42.87388" lon="0.20558">
        <ele>2353.93</ele>
        <time>2019-07-19T12:04:21Z</time>
      </trkpt>
      <trkpt lat="42.87381" lon="0.2056">
        <ele>2355.37</ele>
        <time>2019-07-19T12:04:27Z</time>
      </trkpt>
      <trkpt lat="42.87376" lon="0.20564">
        <ele>2354.89</ele>
        <time>2019-07-19T12:04:31Z</time>
      </trkpt>
      <trkpt lat="42.87366" lon="0.20564">
        <ele>2354.41</ele>
        <time>2019-07-19T12:04:39Z</time>
      </trkpt>
      <trkpt lat="42.87361" lon="0.20564">
        <ele>2356.33</ele>
        <time>2019-07-19T12:04:42Z</time>
      </trkpt>
      <trkpt lat="42.87358" lon="0.20562">
        <ele>2356.33</ele>
        <time>2019-07-19T12:04:47Z</time>
      </trkpt>
      <trkpt lat="42.87356" lon="0.20559">
        <ele>2360.17</ele>
        <time>2019-07-19T12:04:50Z</time>
      </trkpt>
      <trkpt lat="42.87356" lon="0.20558">
        <ele>2356.81</ele>
        <time>2019-07-19T12:04:51Z</time>
      </trkpt>
      <trkpt lat="42.87355" lon="0.20554">
        <ele>2357.29</ele>
        <time>2019-07-19T12:04:54Z</time>
      </trkpt>
      <trkpt lat="42.87353" lon="0.20549">
        <ele>2357.29</ele>
        <time>2019-07-19T12:04:58Z</time>
      </trkpt>
      <trkpt lat="42.87351" lon="0.20546">
        <ele>2356.81</ele>
        <time>2019-07-19T12:05:01Z</time>
      </trkpt>
      <trkpt lat="42.87346" lon="0.20542">
        <ele>2358.73</ele>
        <time>2019-07-19T12:05:06Z</time>
      </trkpt>
      <trkpt lat="42.87342" lon="0.20542">
        <ele>2358.25</ele>
        <time>2019-07-19T12:05:10Z</time>
      </trkpt>
      <trkpt lat="42.8734" lon="0.20539">
        <ele>2361.14</ele>
        <time>2019-07-19T12:05:13Z</time>
      </trkpt>
      <trkpt lat="42.87339" lon="0.20538">
        <ele>2358.73</ele>
        <time>2019-07-19T12:05:14Z</time>
      </trkpt>
      <trkpt lat="42.87339" lon="0.20536">
        <ele>2358.73</ele>
        <time>2019-07-19T12:05:17Z</time>
      </trkpt>
      <trkpt lat="42.87337" lon="0.20539">
        <ele>2359.21</ele>
        <time>2019-07-19T12:05:20Z</time>
      </trkpt>
      <trkpt lat="42.87336" lon="0.20542">
        <ele>2361.62</ele>
        <time>2019-07-19T12:05:22Z</time>
      </trkpt>
      <trkpt lat="42.87326" lon="0.20553">
        <ele>2364.02</ele>
        <time>2019-07-19T12:05:35Z</time>
      </trkpt>
      <trkpt lat="42.87325" lon="0.20554">
        <ele>2361.14</ele>
        <time>2019-07-19T12:05:36Z</time>
      </trkpt>
      <trkpt lat="42.87321" lon="0.20549">
        <ele>2365.46</ele>
        <time>2019-07-19T12:05:45Z</time>
      </trkpt>
      <trkpt lat="42.87317" lon="0.20539">
        <ele>2365.46</ele>
        <time>2019-07-19T12:05:58Z</time>
      </trkpt>
      <trkpt lat="42.87312" lon="0.20536">
        <ele>2368.83</ele>
        <time>2019-07-19T12:06:03Z</time>
      </trkpt>
      <trkpt lat="42.87312" lon="0.20533">
        <ele>2365.46</ele>
        <time>2019-07-19T12:06:06Z</time>
      </trkpt>
      <trkpt lat="42.87311" lon="0.20531">
        <ele>2368.83</ele>
        <time>2019-07-19T12:06:08Z</time>
      </trkpt>
      <trkpt lat="42.8731" lon="0.2052">
        <ele>2372.19</ele>
        <time>2019-07-19T12:06:20Z</time>
      </trkpt>
      <trkpt lat="42.87306" lon="0.20515">
        <ele>2370.75</ele>
        <time>2019-07-19T12:06:25Z</time>
      </trkpt>
      <trkpt lat="42.87303" lon="0.20501">
        <ele>2372.67</ele>
        <time>2019-07-19T12:06:39Z</time>
      </trkpt>
      <trkpt lat="42.873" lon="0.205">
        <ele>2376.52</ele>
        <time>2019-07-19T12:06:47Z</time>
      </trkpt>
      <trkpt lat="42.87294" lon="0.20503">
        <ele>2372.19</ele>
        <time>2019-07-19T12:06:56Z</time>
      </trkpt>
      <trkpt lat="42.87294" lon="0.20503">
        <ele>2378.44</ele>
        <time>2019-07-19T12:06:57Z</time>
      </trkpt>
      <trkpt lat="42.87293" lon="0.20504">
        <ele>2376.52</ele>
        <time>2019-07-19T12:06:58Z</time>
      </trkpt>
      <trkpt lat="42.87288" lon="0.20508">
        <ele>2380.36</ele>
        <time>2019-07-19T12:07:11Z</time>
      </trkpt>
      <trkpt lat="42.87287" lon="0.20511">
        <ele>2380.36</ele>
        <time>2019-07-19T12:07:15Z</time>
      </trkpt>
      <trkpt lat="42.87287" lon="0.20512">
        <ele>2376.04</ele>
        <time>2019-07-19T12:07:17Z</time>
      </trkpt>
      <trkpt lat="42.87287" lon="0.20513">
        <ele>2386.13</ele>
        <time>2019-07-19T12:07:18Z</time>
      </trkpt>
      <trkpt lat="42.87294" lon="0.20526">
        <ele>2382.76</ele>
        <time>2019-07-19T12:07:32Z</time>
      </trkpt>
      <trkpt lat="42.87294" lon="0.20529">
        <ele>2381.8</ele>
        <time>2019-07-19T12:07:35Z</time>
      </trkpt>
      <trkpt lat="42.87291" lon="0.20537">
        <ele>2385.17</ele>
        <time>2019-07-19T12:07:42Z</time>
      </trkpt>
      <trkpt lat="42.87283" lon="0.20532">
        <ele>2386.61</ele>
        <time>2019-07-19T12:07:54Z</time>
      </trkpt>
      <trkpt lat="42.87279" lon="0.20533">
        <ele>2388.05</ele>
        <time>2019-07-19T12:07:59Z</time>
      </trkpt>
      <trkpt lat="42.87275" lon="0.20541">
        <ele>2384.69</ele>
        <time>2019-07-19T12:08:12Z</time>
      </trkpt>
      <trkpt lat="42.87274" lon="0.20542">
        <ele>2393.82</ele>
        <time>2019-07-19T12:08:13Z</time>
      </trkpt>
      <trkpt lat="42.87274" lon="0.20544">
        <ele>2389.97</ele>
        <time>2019-07-19T12:08:15Z</time>
      </trkpt>
      <trkpt lat="42.87273" lon="0.20545">
        <ele>2391.42</ele>
        <time>2019-07-19T12:08:18Z</time>
      </trkpt>
      <trkpt lat="42.87267" lon="0.2055">
        <ele>2390.94</ele>
        <time>2019-07-19T12:08:30Z</time>
      </trkpt>
      <trkpt lat="42.87265" lon="0.20549">
        <ele>2390.46</ele>
        <time>2019-07-19T12:08:32Z</time>
      </trkpt>
      <trkpt lat="42.87261" lon="0.20543">
        <ele>2389.49</ele>
        <time>2019-07-19T12:08:38Z</time>
      </trkpt>
      <trkpt lat="42.87251" lon="0.20534">
        <ele>2390.94</ele>
        <time>2019-07-19T12:08:48Z</time>
      </trkpt>
      <trkpt lat="42.87248" lon="0.20533">
        <ele>2391.42</ele>
        <time>2019-07-19T12:08:52Z</time>
      </trkpt>
      <trkpt lat="42.87246" lon="0.20533">
        <ele>2390.94</ele>
        <time>2019-07-19T12:08:54Z</time>
      </trkpt>
      <trkpt lat="42.87239" lon="0.20531">
        <ele>2391.42</ele>
        <time>2019-07-19T12:09:00Z</time>
      </trkpt>
      <trkpt lat="42.87236" lon="0.20529">
        <ele>2390.46</ele>
        <time>2019-07-19T12:09:02Z</time>
      </trkpt>
      <trkpt lat="42.8723" lon="0.20526">
        <ele>2392.38</ele>
        <time>2019-07-19T12:09:07Z</time>
      </trkpt>
      <trkpt lat="42.87231" lon="0.20524">
        <ele>2391.9</ele>
        <time>2019-07-19T12:09:16Z</time>
      </trkpt>
      <trkpt lat="42.87227" lon="0.20521">
        <ele>2392.38</ele>
        <time>2019-07-19T12:09:20Z</time>
      </trkpt>
      <trkpt lat="42.87222" lon="0.20523">
        <ele>2395.74</ele>
        <time>2019-07-19T12:09:24Z</time>
      </trkpt>
      <trkpt lat="42.87221" lon="0.20524">
        <ele>2392.38</ele>
        <time>2019-07-19T12:09:25Z</time>
      </trkpt>
      <trkpt lat="42.87219" lon="0.20524">
        <ele>2392.38</ele>
        <time>2019-07-19T12:09:26Z</time>
      </trkpt>
      <trkpt lat="42.87209" lon="0.20526">
        <ele>2392.86</ele>
        <time>2019-07-19T12:09:33Z</time>
      </trkpt>
      <trkpt lat="42.87204" lon="0.20525">
        <ele>2392.38</ele>
        <time>2019-07-19T12:09:37Z</time>
      </trkpt>
      <trkpt lat="42.87189" lon="0.20536">
        <ele>2391.9</ele>
        <time>2019-07-19T12:09:49Z</time>
      </trkpt>
      <trkpt lat="42.8718" lon="0.20539">
        <ele>2395.26</ele>
        <time>2019-07-19T12:09:59Z</time>
      </trkpt>
      <trkpt lat="42.87174" lon="0.20541">
        <ele>2395.26</ele>
        <time>2019-07-19T12:10:05Z</time>
      </trkpt>
      <trkpt lat="42.87163" lon="0.20532">
        <ele>2398.15</ele>
        <time>2019-07-19T12:10:16Z</time>
      </trkpt>
      <trkpt lat="42.87162" lon="0.20531">
        <ele>2396.22</ele>
        <time>2019-07-19T12:10:17Z</time>
      </trkpt>
      <trkpt lat="42.87156" lon="0.20522">
        <ele>2395.74</ele>
        <time>2019-07-19T12:10:27Z</time>
      </trkpt>
      <trkpt lat="42.87142" lon="0.20514">
        <ele>2395.74</ele>
        <time>2019-07-19T12:10:39Z</time>
      </trkpt>
      <trkpt lat="42.8713" lon="0.2051">
        <ele>2399.11</ele>
        <time>2019-07-19T12:10:49Z</time>
      </trkpt>
      <trkpt lat="42.87127" lon="0.20509">
        <ele>2397.67</ele>
        <time>2019-07-19T12:10:51Z</time>
      </trkpt>
      <trkpt lat="42.87117" lon="0.20498">
        <ele>2397.67</ele>
        <time>2019-07-19T12:11:04Z</time>
      </trkpt>
      <trkpt lat="42.87123" lon="0.20508">
        <ele>2398.15</ele>
        <time>2019-07-19T12:11:20Z</time>
      </trkpt>
      <trkpt lat="42.87125" lon="0.20508">
        <ele>2396.7</ele>
        <time>2019-07-19T12:11:22Z</time>
      </trkpt>
      <trkpt lat="42.87125" lon="0.20507">
        <ele>2397.18</ele>
        <time>2019-07-19T12:11:49Z</time>
      </trkpt>
      <trkpt lat="42.87126" lon="0.20507">
        <ele>2393.34</ele>
        <time>2019-07-19T12:11:53Z</time>
      </trkpt>
      <trkpt lat="42.87126" lon="0.20507">
        <ele>2396.7</ele>
        <time>2019-07-19T12:11:54Z</time>
      </trkpt>
      <trkpt lat="42.87126" lon="0.20508">
        <ele>2399.59</ele>
        <time>2019-07-19T12:11:57Z</time>
      </trkpt>
      <trkpt lat="42.87126" lon="0.20508">
        <ele>2396.22</ele>
        <time>2019-07-19T12:12:11Z</time>
      </trkpt>
      <trkpt lat="42.87126" lon="0.20507">
        <ele>2392.86</ele>
        <time>2019-07-19T12:12:17Z</time>
      </trkpt>
      <trkpt lat="42.87126" lon="0.20507">
        <ele>2398.63</ele>
        <time>2019-07-19T12:12:18Z</time>
      </trkpt>
      <trkpt lat="42.87126" lon="0.20507">
        <ele>2397.67</ele>
        <time>2019-07-19T12:12:23Z</time>
      </trkpt>
      <trkpt lat="42.87124" lon="0.20507">
        <ele>2397.67</ele>
        <time>2019-07-19T12:12:25Z</time>
      </trkpt>
      <trkpt lat="42.87121" lon="0.20507">
        <ele>2396.7</ele>
        <time>2019-07-19T12:12:28Z</time>
      </trkpt>
      <trkpt lat="42.87109" lon="0.20519">
        <ele>2396.7</ele>
        <time>2019-07-19T12:12:38Z</time>
      </trkpt>
      <trkpt lat="42.87102" lon="0.20527">
        <ele>2398.63</ele>
        <time>2019-07-19T12:12:44Z</time>
      </trkpt>
      <trkpt lat="42.87093" lon="0.20537">
        <ele>2396.7</ele>
        <time>2019-07-19T12:12:55Z</time>
      </trkpt>
      <trkpt lat="42.87091" lon="0.20541">
        <ele>2396.22</ele>
        <time>2019-07-19T12:12:58Z</time>
      </trkpt>
      <trkpt lat="42.87082" lon="0.20552">
        <ele>2395.26</ele>
        <time>2019-07-19T12:13:08Z</time>
      </trkpt>
      <trkpt lat="42.87078" lon="0.20555">
        <ele>2395.74</ele>
        <time>2019-07-19T12:13:12Z</time>
      </trkpt>
      <trkpt lat="42.87063" lon="0.2057">
        <ele>2394.78</ele>
        <time>2019-07-19T12:13:25Z</time>
      </trkpt>
      <trkpt lat="42.8706" lon="0.20576">
        <ele>2393.34</ele>
        <time>2019-07-19T12:13:29Z</time>
      </trkpt>
      <trkpt lat="42.87047" lon="0.20578">
        <ele>2392.86</ele>
        <time>2019-07-19T12:13:40Z</time>
      </trkpt>
      <trkpt lat="42.87036" lon="0.20583">
        <ele>2393.82</ele>
        <time>2019-07-19T12:13:50Z</time>
      </trkpt>
      <trkpt lat="42.8703" lon="0.20603">
        <ele>2395.74</ele>
        <time>2019-07-19T12:14:02Z</time>
      </trkpt>
      <trkpt lat="42.87029" lon="0.20609">
        <ele>2394.78</ele>
        <time>2019-07-19T12:14:06Z</time>
      </trkpt>
      <trkpt lat="42.87023" lon="0.20623">
        <ele>2395.26</ele>
        <time>2019-07-19T12:14:17Z</time>
      </trkpt>
      <trkpt lat="42.87013" lon="0.20626">
        <ele>2396.7</ele>
        <time>2019-07-19T12:14:25Z</time>
      </trkpt>
      <trkpt lat="42.87005" lon="0.20641">
        <ele>2394.78</ele>
        <time>2019-07-19T12:14:36Z</time>
      </trkpt>
      <trkpt lat="42.87001" lon="0.20646">
        <ele>2395.26</ele>
        <time>2019-07-19T12:14:39Z</time>
      </trkpt>
      <trkpt lat="42.87" lon="0.20649">
        <ele>2395.74</ele>
        <time>2019-07-19T12:14:42Z</time>
      </trkpt>
      <trkpt lat="42.86993" lon="0.20655">
        <ele>2394.78</ele>
        <time>2019-07-19T12:14:49Z</time>
      </trkpt>
      <trkpt lat="42.86983" lon="0.20666">
        <ele>2399.59</ele>
        <time>2019-07-19T12:14:59Z</time>
      </trkpt>
      <trkpt lat="42.86982" lon="0.20668">
        <ele>2396.7</ele>
        <time>2019-07-19T12:15:00Z</time>
      </trkpt>
      <trkpt lat="42.86981" lon="0.20672">
        <ele>2400.07</ele>
        <time>2019-07-19T12:15:03Z</time>
      </trkpt>
      <trkpt lat="42.86979" lon="0.20674">
        <ele>2396.22</ele>
        <time>2019-07-19T12:15:05Z</time>
      </trkpt>
      <trkpt lat="42.86976" lon="0.20689">
        <ele>2400.55</ele>
        <time>2019-07-19T12:15:14Z</time>
      </trkpt>
      <trkpt lat="42.86973" lon="0.20693">
        <ele>2398.15</ele>
        <time>2019-07-19T12:15:17Z</time>
      </trkpt>
      <trkpt lat="42.86959" lon="0.20709">
        <ele>2399.59</ele>
        <time>2019-07-19T12:15:31Z</time>
      </trkpt>
      <trkpt lat="42.86956" lon="0.20709">
        <ele>2399.59</ele>
        <time>2019-07-19T12:15:34Z</time>
      </trkpt>
      <trkpt lat="42.86952" lon="0.20708">
        <ele>2395.26</ele>
        <time>2019-07-19T12:15:37Z</time>
      </trkpt>
      <trkpt lat="42.86952" lon="0.20706">
        <ele>2401.99</ele>
        <time>2019-07-19T12:15:38Z</time>
      </trkpt>
      <trkpt lat="42.86949" lon="0.20704">
        <ele>2400.07</ele>
        <time>2019-07-19T12:15:40Z</time>
      </trkpt>
      <trkpt lat="42.86945" lon="0.20702">
        <ele>2401.99</ele>
        <time>2019-07-19T12:15:43Z</time>
      </trkpt>
      <trkpt lat="42.86944" lon="0.20702">
        <ele>2398.15</ele>
        <time>2019-07-19T12:15:44Z</time>
      </trkpt>
      <trkpt lat="42.86942" lon="0.20701">
        <ele>2401.99</ele>
        <time>2019-07-19T12:15:46Z</time>
      </trkpt>
      <trkpt lat="42.8694" lon="0.207">
        <ele>2399.59</ele>
        <time>2019-07-19T12:15:48Z</time>
      </trkpt>
      <trkpt lat="42.86939" lon="0.20698">
        <ele>2400.55</ele>
        <time>2019-07-19T12:15:50Z</time>
      </trkpt>
      <trkpt lat="42.86936" lon="0.20691">
        <ele>2404.88</ele>
        <time>2019-07-19T12:16:00Z</time>
      </trkpt>
      <trkpt lat="42.86935" lon="0.20691">
        <ele>2402.95</ele>
        <time>2019-07-19T12:16:01Z</time>
      </trkpt>
      <trkpt lat="42.86926" lon="0.20686">
        <ele>2405.36</ele>
        <time>2019-07-19T12:16:13Z</time>
      </trkpt>
      <trkpt lat="42.86918" lon="0.20685">
        <ele>2408.24</ele>
        <time>2019-07-19T12:16:26Z</time>
      </trkpt>
      <trkpt lat="42.86911" lon="0.20687">
        <ele>2409.2</ele>
        <time>2019-07-19T12:16:39Z</time>
      </trkpt>
      <trkpt lat="42.86906" lon="0.20686">
        <ele>2412.57</ele>
        <time>2019-07-19T12:16:50Z</time>
      </trkpt>
      <trkpt lat="42.86901" lon="0.2068">
        <ele>2414.49</ele>
        <time>2019-07-19T12:17:01Z</time>
      </trkpt>
      <trkpt lat="42.86895" lon="0.20678">
        <ele>2416.41</ele>
        <time>2019-07-19T12:17:11Z</time>
      </trkpt>
      <trkpt lat="42.8689" lon="0.20672">
        <ele>2418.81</ele>
        <time>2019-07-19T12:17:24Z</time>
      </trkpt>
      <trkpt lat="42.86888" lon="0.20678">
        <ele>2419.3</ele>
        <time>2019-07-19T12:17:32Z</time>
      </trkpt>
      <trkpt lat="42.86886" lon="0.20685">
        <ele>2421.7</ele>
        <time>2019-07-19T12:17:44Z</time>
      </trkpt>
      <trkpt lat="42.86882" lon="0.20693">
        <ele>2424.1</ele>
        <time>2019-07-19T12:17:54Z</time>
      </trkpt>
      <trkpt lat="42.86878" lon="0.20702">
        <ele>2425.54</ele>
        <time>2019-07-19T12:18:05Z</time>
      </trkpt>
      <trkpt lat="42.86874" lon="0.20704">
        <ele>2427.95</ele>
        <time>2019-07-19T12:18:12Z</time>
      </trkpt>
      <trkpt lat="42.86869" lon="0.20707">
        <ele>2429.39</ele>
        <time>2019-07-19T12:18:23Z</time>
      </trkpt>
      <trkpt lat="42.86866" lon="0.20712">
        <ele>2432.75</ele>
        <time>2019-07-19T12:18:36Z</time>
      </trkpt>
      <trkpt lat="42.86863" lon="0.20713">
        <ele>2436.6</ele>
        <time>2019-07-19T12:18:48Z</time>
      </trkpt>
      <trkpt lat="42.86859" lon="0.20706">
        <ele>2436.12</ele>
        <time>2019-07-19T12:19:02Z</time>
      </trkpt>
      <trkpt lat="42.86858" lon="0.20708">
        <ele>2436.6</ele>
        <time>2019-07-19T12:19:04Z</time>
      </trkpt>
      <trkpt lat="42.86856" lon="0.20714">
        <ele>2437.08</ele>
        <time>2019-07-19T12:19:10Z</time>
      </trkpt>
      <trkpt lat="42.86848" lon="0.20711">
        <ele>2439.96</ele>
        <time>2019-07-19T12:19:25Z</time>
      </trkpt>
      <trkpt lat="42.86842" lon="0.2072">
        <ele>2441.89</ele>
        <time>2019-07-19T12:19:38Z</time>
      </trkpt>
      <trkpt lat="42.8684" lon="0.20719">
        <ele>2443.33</ele>
        <time>2019-07-19T12:19:41Z</time>
      </trkpt>
      <trkpt lat="42.86837" lon="0.20716">
        <ele>2445.25</ele>
        <time>2019-07-19T12:19:45Z</time>
      </trkpt>
      <trkpt lat="42.86831" lon="0.20715">
        <ele>2443.81</ele>
        <time>2019-07-19T12:19:50Z</time>
      </trkpt>
      <trkpt lat="42.86828" lon="0.20717">
        <ele>2444.29</ele>
        <time>2019-07-19T12:19:53Z</time>
      </trkpt>
      <trkpt lat="42.86824" lon="0.20721">
        <ele>2446.21</ele>
        <time>2019-07-19T12:20:01Z</time>
      </trkpt>
      <trkpt lat="42.86822" lon="0.2073">
        <ele>2447.65</ele>
        <time>2019-07-19T12:20:14Z</time>
      </trkpt>
      <trkpt lat="42.86817" lon="0.20728">
        <ele>2450.54</ele>
        <time>2019-07-19T12:20:20Z</time>
      </trkpt>
      <trkpt lat="42.86815" lon="0.20724">
        <ele>2447.17</ele>
        <time>2019-07-19T12:20:24Z</time>
      </trkpt>
      <trkpt lat="42.86815" lon="0.20722">
        <ele>2448.13</ele>
        <time>2019-07-19T12:20:27Z</time>
      </trkpt>
      <trkpt lat="42.86803" lon="0.20722">
        <ele>2452.46</ele>
        <time>2019-07-19T12:20:41Z</time>
      </trkpt>
      <trkpt lat="42.86803" lon="0.20722">
        <ele>2452.94</ele>
        <time>2019-07-19T12:20:42Z</time>
      </trkpt>
      <trkpt lat="42.868" lon="0.20718">
        <ele>2453.9</ele>
        <time>2019-07-19T12:20:46Z</time>
      </trkpt>
      <trkpt lat="42.86796" lon="0.20716">
        <ele>2453.42</ele>
        <time>2019-07-19T12:20:50Z</time>
      </trkpt>
      <trkpt lat="42.86789" lon="0.20714">
        <ele>2456.79</ele>
        <time>2019-07-19T12:21:03Z</time>
      </trkpt>
      <trkpt lat="42.86781" lon="0.20707">
        <ele>2460.15</ele>
        <time>2019-07-19T12:21:17Z</time>
      </trkpt>
      <trkpt lat="42.86775" lon="0.20705">
        <ele>2461.59</ele>
        <time>2019-07-19T12:21:31Z</time>
      </trkpt>
      <trkpt lat="42.86767" lon="0.20709">
        <ele>2464</ele>
        <time>2019-07-19T12:21:46Z</time>
      </trkpt>
      <trkpt lat="42.86759" lon="0.20706">
        <ele>2467.36</ele>
        <time>2019-07-19T12:22:00Z</time>
      </trkpt>
      <trkpt lat="42.86751" lon="0.20702">
        <ele>2469.76</ele>
        <time>2019-07-19T12:22:15Z</time>
      </trkpt>
      <trkpt lat="42.86748" lon="0.20702">
        <ele>2471.21</ele>
        <time>2019-07-19T12:22:22Z</time>
      </trkpt>
      <trkpt lat="42.86741" lon="0.20701">
        <ele>2473.61</ele>
        <time>2019-07-19T12:22:36Z</time>
      </trkpt>
      <trkpt lat="42.86739" lon="0.20698">
        <ele>2475.53</ele>
        <time>2019-07-19T12:22:47Z</time>
      </trkpt>
      <trkpt lat="42.86736" lon="0.20697">
        <ele>2477.45</ele>
        <time>2019-07-19T12:22:52Z</time>
      </trkpt>
      <trkpt lat="42.86733" lon="0.20692">
        <ele>2478.9</ele>
        <time>2019-07-19T12:23:05Z</time>
      </trkpt>
      <trkpt lat="42.86729" lon="0.20689">
        <ele>2479.86</ele>
        <time>2019-07-19T12:23:19Z</time>
      </trkpt>
      <trkpt lat="42.86729" lon="0.2069">
        <ele>2481.78</ele>
        <time>2019-07-19T12:23:22Z</time>
      </trkpt>
      <trkpt lat="42.86726" lon="0.20688">
        <ele>2485.15</ele>
        <time>2019-07-19T12:23:34Z</time>
      </trkpt>
      <trkpt lat="42.86723" lon="0.20679">
        <ele>2484.66</ele>
        <time>2019-07-19T12:23:48Z</time>
      </trkpt>
      <trkpt lat="42.86723" lon="0.20679">
        <ele>2488.51</ele>
        <time>2019-07-19T12:23:49Z</time>
      </trkpt>
      <trkpt lat="42.86723" lon="0.20676">
        <ele>2485.63</ele>
        <time>2019-07-19T12:23:54Z</time>
      </trkpt>
      <trkpt lat="42.86723" lon="0.20675">
        <ele>2488.99</ele>
        <time>2019-07-19T12:23:55Z</time>
      </trkpt>
      <trkpt lat="42.86722" lon="0.20654">
        <ele>2490.43</ele>
        <time>2019-07-19T12:24:09Z</time>
      </trkpt>
      <trkpt lat="42.86715" lon="0.20648">
        <ele>2490.91</ele>
        <time>2019-07-19T12:24:23Z</time>
      </trkpt>
      <trkpt lat="42.86713" lon="0.20648">
        <ele>2490.91</ele>
        <time>2019-07-19T12:24:36Z</time>
      </trkpt>
      <trkpt lat="42.86714" lon="0.20642">
        <ele>2490.91</ele>
        <time>2019-07-19T12:24:49Z</time>
      </trkpt>
      <trkpt lat="42.86715" lon="0.2064">
        <ele>2491.39</ele>
        <time>2019-07-19T12:25:01Z</time>
      </trkpt>
      <trkpt lat="42.86715" lon="0.2064">
        <ele>2491.39</ele>
        <time>2019-07-19T12:25:03Z</time>
      </trkpt>
      <trkpt lat="42.86716" lon="0.20637">
        <ele>2491.39</ele>
        <time>2019-07-19T12:25:06Z</time>
      </trkpt>
      <trkpt lat="42.86715" lon="0.20627">
        <ele>2494.28</ele>
        <time>2019-07-19T12:25:17Z</time>
      </trkpt>
      <trkpt lat="42.86717" lon="0.20617">
        <ele>2494.28</ele>
        <time>2019-07-19T12:25:27Z</time>
      </trkpt>
      <trkpt lat="42.86715" lon="0.20609">
        <ele>2493.8</ele>
        <time>2019-07-19T12:25:33Z</time>
      </trkpt>
      <trkpt lat="42.86715" lon="0.20599">
        <ele>2496.2</ele>
        <time>2019-07-19T12:25:42Z</time>
      </trkpt>
      <trkpt lat="42.86715" lon="0.20593">
        <ele>2498.6</ele>
        <time>2019-07-19T12:25:48Z</time>
      </trkpt>
      <trkpt lat="42.86715" lon="0.20592">
        <ele>2496.2</ele>
        <time>2019-07-19T12:25:52Z</time>
      </trkpt>
      <trkpt lat="42.86713" lon="0.20589">
        <ele>2498.12</ele>
        <time>2019-07-19T12:25:54Z</time>
      </trkpt>
      <trkpt lat="42.86712" lon="0.20584">
        <ele>2499.57</ele>
        <time>2019-07-19T12:25:59Z</time>
      </trkpt>
      <trkpt lat="42.86711" lon="0.20577">
        <ele>2501.49</ele>
        <time>2019-07-19T12:26:12Z</time>
      </trkpt>
      <trkpt lat="42.86714" lon="0.20568">
        <ele>2504.85</ele>
        <time>2019-07-19T12:26:25Z</time>
      </trkpt>
      <trkpt lat="42.86708" lon="0.20559">
        <ele>2506.77</ele>
        <time>2019-07-19T12:26:41Z</time>
      </trkpt>
      <trkpt lat="42.86705" lon="0.20552">
        <ele>2507.74</ele>
        <time>2019-07-19T12:26:49Z</time>
      </trkpt>
      <trkpt lat="42.86703" lon="0.20544">
        <ele>2508.22</ele>
        <time>2019-07-19T12:26:56Z</time>
      </trkpt>
      <trkpt lat="42.867" lon="0.2053">
        <ele>2510.62</ele>
        <time>2019-07-19T12:27:06Z</time>
      </trkpt>
      <trkpt lat="42.867" lon="0.20528">
        <ele>2508.7</ele>
        <time>2019-07-19T12:27:07Z</time>
      </trkpt>
      <trkpt lat="42.86698" lon="0.20518">
        <ele>2512.06</ele>
        <time>2019-07-19T12:27:18Z</time>
      </trkpt>
      <trkpt lat="42.86698" lon="0.20515">
        <ele>2512.06</ele>
        <time>2019-07-19T12:27:22Z</time>
      </trkpt>
      <trkpt lat="42.86699" lon="0.20511">
        <ele>2513.02</ele>
        <time>2019-07-19T12:27:26Z</time>
      </trkpt>
      <trkpt lat="42.86701" lon="0.20502">
        <ele>2514.95</ele>
        <time>2019-07-19T12:27:38Z</time>
      </trkpt>
      <trkpt lat="42.86698" lon="0.20497">
        <ele>2517.35</ele>
        <time>2019-07-19T12:27:54Z</time>
      </trkpt>
      <trkpt lat="42.86698" lon="0.20488">
        <ele>2520.71</ele>
        <time>2019-07-19T12:28:04Z</time>
      </trkpt>
      <trkpt lat="42.86697" lon="0.20479">
        <ele>2522.16</ele>
        <time>2019-07-19T12:28:17Z</time>
      </trkpt>
      <trkpt lat="42.86697" lon="0.2047">
        <ele>2525.04</ele>
        <time>2019-07-19T12:28:31Z</time>
      </trkpt>
      <trkpt lat="42.86697" lon="0.20464">
        <ele>2527.92</ele>
        <time>2019-07-19T12:28:45Z</time>
      </trkpt>
      <trkpt lat="42.86697" lon="0.20456">
        <ele>2529.85</ele>
        <time>2019-07-19T12:28:55Z</time>
      </trkpt>
      <trkpt lat="42.86696" lon="0.20445">
        <ele>2533.69</ele>
        <time>2019-07-19T12:29:12Z</time>
      </trkpt>
      <trkpt lat="42.86695" lon="0.2044">
        <ele>2534.65</ele>
        <time>2019-07-19T12:29:28Z</time>
      </trkpt>
      <trkpt lat="42.86696" lon="0.2043">
        <ele>2537.54</ele>
        <time>2019-07-19T12:29:41Z</time>
      </trkpt>
      <trkpt lat="42.86698" lon="0.20422">
        <ele>2538.5</ele>
        <time>2019-07-19T12:29:56Z</time>
      </trkpt>
      <trkpt lat="42.86696" lon="0.20408">
        <ele>2542.34</ele>
        <time>2019-07-19T12:30:06Z</time>
      </trkpt>
      <trkpt lat="42.86693" lon="0.20391">
        <ele>2543.31</ele>
        <time>2019-07-19T12:30:21Z</time>
      </trkpt>
      <trkpt lat="42.86692" lon="0.20379">
        <ele>2545.71</ele>
        <time>2019-07-19T12:30:34Z</time>
      </trkpt>
      <trkpt lat="42.86692" lon="0.20378">
        <ele>2545.71</ele>
        <time>2019-07-19T12:30:35Z</time>
      </trkpt>
      <trkpt lat="42.8669" lon="0.20365">
        <ele>2546.67</ele>
        <time>2019-07-19T12:30:46Z</time>
      </trkpt>
      <trkpt lat="42.86689" lon="0.2036">
        <ele>2548.59</ele>
        <time>2019-07-19T12:30:52Z</time>
      </trkpt>
      <trkpt lat="42.86687" lon="0.20356">
        <ele>2548.59</ele>
        <time>2019-07-19T12:30:55Z</time>
      </trkpt>
      <trkpt lat="42.86682" lon="0.20342">
        <ele>2552.44</ele>
        <time>2019-07-19T12:31:13Z</time>
      </trkpt>
      <trkpt lat="42.8668" lon="0.20335">
        <ele>2556.28</ele>
        <time>2019-07-19T12:31:27Z</time>
      </trkpt>
      <trkpt lat="42.86672" lon="0.2033">
        <ele>2558.21</ele>
        <time>2019-07-19T12:31:43Z</time>
      </trkpt>
      <trkpt lat="42.86672" lon="0.20325">
        <ele>2559.65</ele>
        <time>2019-07-19T12:31:47Z</time>
      </trkpt>
      <trkpt lat="42.86672" lon="0.20316">
        <ele>2560.13</ele>
        <time>2019-07-19T12:31:54Z</time>
      </trkpt>
      <trkpt lat="42.86675" lon="0.20298">
        <ele>2562.53</ele>
        <time>2019-07-19T12:32:08Z</time>
      </trkpt>
      <trkpt lat="42.86675" lon="0.20298">
        <ele>2558.21</ele>
        <time>2019-07-19T12:32:09Z</time>
      </trkpt>
      <trkpt lat="42.86675" lon="0.20297">
        <ele>2564.93</ele>
        <time>2019-07-19T12:32:10Z</time>
      </trkpt>
      <trkpt lat="42.86674" lon="0.20283">
        <ele>2566.86</ele>
        <time>2019-07-19T12:32:27Z</time>
      </trkpt>
      <trkpt lat="42.86679" lon="0.20284">
        <ele>2569.74</ele>
        <time>2019-07-19T12:32:38Z</time>
      </trkpt>
      <trkpt lat="42.86682" lon="0.20282">
        <ele>2570.7</ele>
        <time>2019-07-19T12:32:52Z</time>
      </trkpt>
      <trkpt lat="42.86685" lon="0.20276">
        <ele>2572.63</ele>
        <time>2019-07-19T12:33:03Z</time>
      </trkpt>
      <trkpt lat="42.86687" lon="0.20271">
        <ele>2576.47</ele>
        <time>2019-07-19T12:33:19Z</time>
      </trkpt>
      <trkpt lat="42.86692" lon="0.20273">
        <ele>2577.91</ele>
        <time>2019-07-19T12:33:34Z</time>
      </trkpt>
      <trkpt lat="42.86692" lon="0.20265">
        <ele>2581.76</ele>
        <time>2019-07-19T12:33:45Z</time>
      </trkpt>
      <trkpt lat="42.86692" lon="0.20265">
        <ele>2580.8</ele>
        <time>2019-07-19T12:33:46Z</time>
      </trkpt>
      <trkpt lat="42.86693" lon="0.2026">
        <ele>2584.16</ele>
        <time>2019-07-19T12:34:03Z</time>
      </trkpt>
      <trkpt lat="42.86693" lon="0.20248">
        <ele>2587.53</ele>
        <time>2019-07-19T12:34:19Z</time>
      </trkpt>
      <trkpt lat="42.86694" lon="0.20241">
        <ele>2590.41</ele>
        <time>2019-07-19T12:34:31Z</time>
      </trkpt>
      <trkpt lat="42.86698" lon="0.20241">
        <ele>2590.89</ele>
        <time>2019-07-19T12:34:45Z</time>
      </trkpt>
      <trkpt lat="42.86699" lon="0.20238">
        <ele>2594.25</ele>
        <time>2019-07-19T12:34:54Z</time>
      </trkpt>
      <trkpt lat="42.86699" lon="0.20234">
        <ele>2597.14</ele>
        <time>2019-07-19T12:34:59Z</time>
      </trkpt>
      <trkpt lat="42.867" lon="0.20233">
        <ele>2594.25</ele>
        <time>2019-07-19T12:35:00Z</time>
      </trkpt>
      <trkpt lat="42.86699" lon="0.20229">
        <ele>2597.62</ele>
        <time>2019-07-19T12:35:11Z</time>
      </trkpt>
      <trkpt lat="42.86698" lon="0.20224">
        <ele>2600.02</ele>
        <time>2019-07-19T12:35:27Z</time>
      </trkpt>
      <trkpt lat="42.86697" lon="0.20221">
        <ele>2602.43</ele>
        <time>2019-07-19T12:35:40Z</time>
      </trkpt>
      <trkpt lat="42.86696" lon="0.20215">
        <ele>2605.31</ele>
        <time>2019-07-19T12:35:51Z</time>
      </trkpt>
      <trkpt lat="42.86694" lon="0.20213">
        <ele>2606.27</ele>
        <time>2019-07-19T12:35:55Z</time>
      </trkpt>
      <trkpt lat="42.8669" lon="0.20205">
        <ele>2602.43</ele>
        <time>2019-07-19T12:36:08Z</time>
      </trkpt>
      <trkpt lat="42.8669" lon="0.20204">
        <ele>2613.96</ele>
        <time>2019-07-19T12:36:09Z</time>
      </trkpt>
      <trkpt lat="42.8669" lon="0.20204">
        <ele>2609.64</ele>
        <time>2019-07-19T12:36:10Z</time>
      </trkpt>
      <trkpt lat="42.86689" lon="0.20197">
        <ele>2613</ele>
        <time>2019-07-19T12:36:22Z</time>
      </trkpt>
      <trkpt lat="42.86689" lon="0.20196">
        <ele>2613</ele>
        <time>2019-07-19T12:36:23Z</time>
      </trkpt>
      <trkpt lat="42.86697" lon="0.20196">
        <ele>2613.96</ele>
        <time>2019-07-19T12:36:37Z</time>
      </trkpt>
      <trkpt lat="42.86698" lon="0.20196">
        <ele>2607.23</ele>
        <time>2019-07-19T12:36:41Z</time>
      </trkpt>
      <trkpt lat="42.86698" lon="0.20196">
        <ele>2625.02</ele>
        <time>2019-07-19T12:36:42Z</time>
      </trkpt>
      <trkpt lat="42.86699" lon="0.20195">
        <ele>2619.25</ele>
        <time>2019-07-19T12:36:43Z</time>
      </trkpt>
      <trkpt lat="42.86699" lon="0.20194">
        <ele>2617.81</ele>
        <time>2019-07-19T12:36:45Z</time>
      </trkpt>
      <trkpt lat="42.86703" lon="0.2019">
        <ele>2620.69</ele>
        <time>2019-07-19T12:36:53Z</time>
      </trkpt>
      <trkpt lat="42.86703" lon="0.2019">
        <ele>2618.29</ele>
        <time>2019-07-19T12:36:59Z</time>
      </trkpt>
      <trkpt lat="42.86713" lon="0.20191">
        <ele>2618.29</ele>
        <time>2019-07-19T12:37:09Z</time>
      </trkpt>
      <trkpt lat="42.86715" lon="0.20191">
        <ele>2618.77</ele>
        <time>2019-07-19T12:37:11Z</time>
      </trkpt>
      <trkpt lat="42.86718" lon="0.20193">
        <ele>2619.73</ele>
        <time>2019-07-19T12:37:28Z</time>
      </trkpt>
      <trkpt lat="42.86718" lon="0.20196">
        <ele>2619.73</ele>
        <time>2019-07-19T12:37:43Z</time>
      </trkpt>
      <trkpt lat="42.86721" lon="0.20199">
        <ele>2619.73</ele>
        <time>2019-07-19T12:37:55Z</time>
      </trkpt>
      <trkpt lat="42.8672" lon="0.20199">
        <ele>2618.77</ele>
        <time>2019-07-19T12:38:24Z</time>
      </trkpt>
      <trkpt lat="42.8672" lon="0.202">
        <ele>2614.92</ele>
        <time>2019-07-19T12:38:39Z</time>
      </trkpt>
      <trkpt lat="42.8672" lon="0.202">
        <ele>2620.69</ele>
        <time>2019-07-19T12:38:40Z</time>
      </trkpt>
      <trkpt lat="42.86718" lon="0.20198">
        <ele>2619.73</ele>
        <time>2019-07-19T12:38:44Z</time>
      </trkpt>
      <trkpt lat="42.86715" lon="0.20196">
        <ele>2619.73</ele>
        <time>2019-07-19T12:38:48Z</time>
      </trkpt>
      <trkpt lat="42.86712" lon="0.20194">
        <ele>2618.77</ele>
        <time>2019-07-19T12:38:51Z</time>
      </trkpt>
      <trkpt lat="42.86702" lon="0.20191">
        <ele>2616.37</ele>
        <time>2019-07-19T12:38:58Z</time>
      </trkpt>
      <trkpt lat="42.86699" lon="0.20187">
        <ele>2618.29</ele>
        <time>2019-07-19T12:39:01Z</time>
      </trkpt>
      <trkpt lat="42.86698" lon="0.20186">
        <ele>2621.17</ele>
        <time>2019-07-19T12:39:02Z</time>
      </trkpt>
      <trkpt lat="42.86685" lon="0.20177">
        <ele>2621.17</ele>
        <time>2019-07-19T12:39:14Z</time>
      </trkpt>
      <trkpt lat="42.86677" lon="0.20172">
        <ele>2622.61</ele>
        <time>2019-07-19T12:39:21Z</time>
      </trkpt>
      <trkpt lat="42.86669" lon="0.20168">
        <ele>2623.09</ele>
        <time>2019-07-19T12:39:30Z</time>
      </trkpt>
      <trkpt lat="42.86664" lon="0.20165">
        <ele>2625.98</ele>
        <time>2019-07-19T12:39:36Z</time>
      </trkpt>
      <trkpt lat="42.86662" lon="0.20159">
        <ele>2627.9</ele>
        <time>2019-07-19T12:39:44Z</time>
      </trkpt>
      <trkpt lat="42.8666" lon="0.20158">
        <ele>2628.86</ele>
        <time>2019-07-19T12:39:47Z</time>
      </trkpt>
      <trkpt lat="42.86655" lon="0.20146">
        <ele>2633.67</ele>
        <time>2019-07-19T12:39:58Z</time>
      </trkpt>
      <trkpt lat="42.86655" lon="0.20145">
        <ele>2630.79</ele>
        <time>2019-07-19T12:39:59Z</time>
      </trkpt>
      <trkpt lat="42.86653" lon="0.20137">
        <ele>2634.15</ele>
        <time>2019-07-19T12:40:11Z</time>
      </trkpt>
      <trkpt lat="42.86653" lon="0.2013">
        <ele>2635.59</ele>
        <time>2019-07-19T12:40:22Z</time>
      </trkpt>
      <trkpt lat="42.86652" lon="0.20126">
        <ele>2638.96</ele>
        <time>2019-07-19T12:40:31Z</time>
      </trkpt>
      <trkpt lat="42.86652" lon="0.20125">
        <ele>2637.99</ele>
        <time>2019-07-19T12:40:32Z</time>
      </trkpt>
      <trkpt lat="42.86646" lon="0.2012">
        <ele>2640.4</ele>
        <time>2019-07-19T12:40:45Z</time>
      </trkpt>
      <trkpt lat="42.86642" lon="0.2011">
        <ele>2644.72</ele>
        <time>2019-07-19T12:40:56Z</time>
      </trkpt>
      <trkpt lat="42.86642" lon="0.20109">
        <ele>2642.8</ele>
        <time>2019-07-19T12:40:57Z</time>
      </trkpt>
      <trkpt lat="42.86642" lon="0.20103">
        <ele>2641.84</ele>
        <time>2019-07-19T12:41:02Z</time>
      </trkpt>
      <trkpt lat="42.86637" lon="0.20088">
        <ele>2643.28</ele>
        <time>2019-07-19T12:41:17Z</time>
      </trkpt>
      <trkpt lat="42.86632" lon="0.2008">
        <ele>2645.21</ele>
        <time>2019-07-19T12:41:34Z</time>
      </trkpt>
      <trkpt lat="42.86632" lon="0.20078">
        <ele>2645.69</ele>
        <time>2019-07-19T12:41:36Z</time>
      </trkpt>
      <trkpt lat="42.86625" lon="0.20063">
        <ele>2646.17</ele>
        <time>2019-07-19T12:41:50Z</time>
      </trkpt>
      <trkpt lat="42.86624" lon="0.20065">
        <ele>2647.61</ele>
        <time>2019-07-19T12:41:52Z</time>
      </trkpt>
      <trkpt lat="42.86622" lon="0.20068">
        <ele>2647.61</ele>
        <time>2019-07-19T12:41:55Z</time>
      </trkpt>
      <trkpt lat="42.86619" lon="0.20074">
        <ele>2645.69</ele>
        <time>2019-07-19T12:42:01Z</time>
      </trkpt>
      <trkpt lat="42.86618" lon="0.20075">
        <ele>2650.49</ele>
        <time>2019-07-19T12:42:02Z</time>
      </trkpt>
      <trkpt lat="42.86615" lon="0.2008">
        <ele>2651.45</ele>
        <time>2019-07-19T12:42:10Z</time>
      </trkpt>
      <trkpt lat="42.86615" lon="0.20081">
        <ele>2647.61</ele>
        <time>2019-07-19T12:42:12Z</time>
      </trkpt>
      <trkpt lat="42.86614" lon="0.20082">
        <ele>2653.86</ele>
        <time>2019-07-19T12:42:13Z</time>
      </trkpt>
      <trkpt lat="42.86613" lon="0.20083">
        <ele>2652.9</ele>
        <time>2019-07-19T12:42:14Z</time>
      </trkpt>
      <trkpt lat="42.86615" lon="0.20079">
        <ele>2654.34</ele>
        <time>2019-07-19T12:42:25Z</time>
      </trkpt>
      <trkpt lat="42.86614" lon="0.20075">
        <ele>2655.3</ele>
        <time>2019-07-19T12:42:32Z</time>
      </trkpt>
      <trkpt lat="42.86613" lon="0.20071">
        <ele>2659.62</ele>
        <time>2019-07-19T12:42:41Z</time>
      </trkpt>
      <trkpt lat="42.86613" lon="0.2007">
        <ele>2655.78</ele>
        <time>2019-07-19T12:42:42Z</time>
      </trkpt>
      <trkpt lat="42.86613" lon="0.20066">
        <ele>2659.14</ele>
        <time>2019-07-19T12:42:52Z</time>
      </trkpt>
      <trkpt lat="42.86613" lon="0.2006">
        <ele>2661.55</ele>
        <time>2019-07-19T12:43:06Z</time>
      </trkpt>
      <trkpt lat="42.86613" lon="0.20056">
        <ele>2656.74</ele>
        <time>2019-07-19T12:43:12Z</time>
      </trkpt>
      <trkpt lat="42.86613" lon="0.20055">
        <ele>2669.24</ele>
        <time>2019-07-19T12:43:13Z</time>
      </trkpt>
      <trkpt lat="42.86612" lon="0.20054">
        <ele>2662.51</ele>
        <time>2019-07-19T12:43:14Z</time>
      </trkpt>
      <trkpt lat="42.86613" lon="0.20053">
        <ele>2665.39</ele>
        <time>2019-07-19T12:43:29Z</time>
      </trkpt>
      <trkpt lat="42.86614" lon="0.20049">
        <ele>2668.76</ele>
        <time>2019-07-19T12:43:40Z</time>
      </trkpt>
      <trkpt lat="42.8661" lon="0.20042">
        <ele>2666.35</ele>
        <time>2019-07-19T12:43:56Z</time>
      </trkpt>
      <trkpt lat="42.86609" lon="0.20042">
        <ele>2673.56</ele>
        <time>2019-07-19T12:43:57Z</time>
      </trkpt>
      <trkpt lat="42.86609" lon="0.20042">
        <ele>2673.56</ele>
        <time>2019-07-19T12:43:58Z</time>
      </trkpt>
      <trkpt lat="42.86609" lon="0.20042">
        <ele>2671.16</ele>
        <time>2019-07-19T12:44:00Z</time>
      </trkpt>
      <trkpt lat="42.86609" lon="0.20042">
        <ele>2672.6</ele>
        <time>2019-07-19T12:44:02Z</time>
      </trkpt>
      <trkpt lat="42.8661" lon="0.20042">
        <ele>2675.49</ele>
        <time>2019-07-19T12:44:05Z</time>
      </trkpt>
      <trkpt lat="42.86611" lon="0.20035">
        <ele>2674.04</ele>
        <time>2019-07-19T12:44:19Z</time>
      </trkpt>
      <trkpt lat="42.86612" lon="0.20035">
        <ele>2676.45</ele>
        <time>2019-07-19T12:44:26Z</time>
      </trkpt>
      <trkpt lat="42.86614" lon="0.2004">
        <ele>2678.37</ele>
        <time>2019-07-19T12:44:37Z</time>
      </trkpt>
      <trkpt lat="42.86613" lon="0.20043">
        <ele>2672.6</ele>
        <time>2019-07-19T12:44:43Z</time>
      </trkpt>
      <trkpt lat="42.86613" lon="0.20044">
        <ele>2686.06</ele>
        <time>2019-07-19T12:44:44Z</time>
      </trkpt>
      <trkpt lat="42.86612" lon="0.20044">
        <ele>2679.81</ele>
        <time>2019-07-19T12:44:45Z</time>
      </trkpt>
      <trkpt lat="42.8661" lon="0.20045">
        <ele>2678.85</ele>
        <time>2019-07-19T12:44:47Z</time>
      </trkpt>
      <trkpt lat="42.86608" lon="0.20045">
        <ele>2680.29</ele>
        <time>2019-07-19T12:44:49Z</time>
      </trkpt>
      <trkpt lat="42.86604" lon="0.2004">
        <ele>2683.66</ele>
        <time>2019-07-19T12:45:03Z</time>
      </trkpt>
      <trkpt lat="42.86601" lon="0.20039">
        <ele>2685.1</ele>
        <time>2019-07-19T12:45:11Z</time>
      </trkpt>
      <trkpt lat="42.86601" lon="0.20039">
        <ele>2684.14</ele>
        <time>2019-07-19T12:45:13Z</time>
      </trkpt>
      <trkpt lat="42.86601" lon="0.20037">
        <ele>2686.54</ele>
        <time>2019-07-19T12:45:20Z</time>
      </trkpt>
      <trkpt lat="42.86601" lon="0.20037">
        <ele>2677.41</ele>
        <time>2019-07-19T12:45:23Z</time>
      </trkpt>
      <trkpt lat="42.86601" lon="0.20037">
        <ele>2680.29</ele>
        <time>2019-07-19T12:45:24Z</time>
      </trkpt>
      <trkpt lat="42.86601" lon="0.20037">
        <ele>2683.66</ele>
        <time>2019-07-19T12:45:25Z</time>
      </trkpt>
      <trkpt lat="42.86601" lon="0.20037">
        <ele>2696.15</ele>
        <time>2019-07-19T12:45:26Z</time>
      </trkpt>
      <trkpt lat="42.86601" lon="0.20036">
        <ele>2687.02</ele>
        <time>2019-07-19T12:45:27Z</time>
      </trkpt>
      <trkpt lat="42.86601" lon="0.20039">
        <ele>2688.46</ele>
        <time>2019-07-19T12:45:40Z</time>
      </trkpt>
      <trkpt lat="42.86602" lon="0.20039">
        <ele>2690.87</ele>
        <time>2019-07-19T12:45:46Z</time>
      </trkpt>
      <trkpt lat="42.86601" lon="0.20047">
        <ele>2691.83</ele>
        <time>2019-07-19T12:45:59Z</time>
      </trkpt>
      <trkpt lat="42.866" lon="0.2005">
        <ele>2692.79</ele>
        <time>2019-07-19T12:46:02Z</time>
      </trkpt>
      <trkpt lat="42.86595" lon="0.20064">
        <ele>2693.75</ele>
        <time>2019-07-19T12:46:15Z</time>
      </trkpt>
      <trkpt lat="42.86595" lon="0.20069">
        <ele>2694.23</ele>
        <time>2019-07-19T12:46:28Z</time>
      </trkpt>
      <trkpt lat="42.86596" lon="0.20069">
        <ele>2694.71</ele>
        <time>2019-07-19T12:46:44Z</time>
      </trkpt>
      <trkpt lat="42.86597" lon="0.20069">
        <ele>2694.23</ele>
        <time>2019-07-19T12:47:04Z</time>
      </trkpt>
      <trkpt lat="42.86597" lon="0.20069">
        <ele>2694.71</ele>
        <time>2019-07-19T12:47:21Z</time>
      </trkpt>
      <trkpt lat="42.86597" lon="0.2007">
        <ele>2694.71</ele>
        <time>2019-07-19T12:47:43Z</time>
      </trkpt>
      <trkpt lat="42.86597" lon="0.2007">
        <ele>2700.48</ele>
        <time>2019-07-19T12:47:48Z</time>
      </trkpt>
      <trkpt lat="42.86597" lon="0.2007">
        <ele>2697.6</ele>
        <time>2019-07-19T12:47:49Z</time>
      </trkpt>
      <trkpt lat="42.86597" lon="0.2007">
        <ele>2695.67</ele>
        <time>2019-07-19T12:47:51Z</time>
      </trkpt>
      <trkpt lat="42.86597" lon="0.20071">
        <ele>2692.31</ele>
        <time>2019-07-19T12:48:01Z</time>
      </trkpt>
      <trkpt lat="42.86597" lon="0.20071">
        <ele>2692.31</ele>
        <time>2019-07-19T12:48:02Z</time>
      </trkpt>
      <trkpt lat="42.86597" lon="0.20071">
        <ele>2695.19</ele>
        <time>2019-07-19T12:48:04Z</time>
      </trkpt>
      <trkpt lat="42.86597" lon="0.20071">
        <ele>2697.12</ele>
        <time>2019-07-19T12:48:07Z</time>
      </trkpt>
      <trkpt lat="42.86597" lon="0.20071">
        <ele>2693.75</ele>
        <time>2019-07-19T12:48:08Z</time>
      </trkpt>
      <trkpt lat="42.86597" lon="0.20071">
        <ele>2700</ele>
        <time>2019-07-19T12:48:12Z</time>
      </trkpt>
      <trkpt lat="42.86597" lon="0.20071">
        <ele>2696.64</ele>
        <time>2019-07-19T12:48:13Z</time>
      </trkpt>
      <trkpt lat="42.86597" lon="0.20071">
        <ele>2695.19</ele>
        <time>2019-07-19T12:48:15Z</time>
      </trkpt>
      <trkpt lat="42.86596" lon="0.20071">
        <ele>2695.67</ele>
        <time>2019-07-19T12:48:31Z</time>
      </trkpt>
      <trkpt lat="42.86596" lon="0.20071">
        <ele>2696.15</ele>
        <time>2019-07-19T12:48:56Z</time>
      </trkpt>
      <trkpt lat="42.86596" lon="0.2007">
        <ele>2696.15</ele>
        <time>2019-07-19T12:49:25Z</time>
      </trkpt>
      <trkpt lat="42.86596" lon="0.20071">
        <ele>2696.64</ele>
        <time>2019-07-19T12:49:53Z</time>
      </trkpt>
      <trkpt lat="42.86596" lon="0.2007">
        <ele>2696.15</ele>
        <time>2019-07-19T12:50:18Z</time>
      </trkpt>
      <trkpt lat="42.86597" lon="0.20065">
        <ele>2696.15</ele>
        <time>2019-07-19T12:50:23Z</time>
      </trkpt>
      <trkpt lat="42.866" lon="0.20058">
        <ele>2695.67</ele>
        <time>2019-07-19T12:50:35Z</time>
      </trkpt>
      <trkpt lat="42.86603" lon="0.2005">
        <ele>2694.23</ele>
        <time>2019-07-19T12:50:45Z</time>
      </trkpt>
      <trkpt lat="42.86603" lon="0.20049">
        <ele>2693.75</ele>
        <time>2019-07-19T12:50:47Z</time>
      </trkpt>
      <trkpt lat="42.86603" lon="0.20043">
        <ele>2691.83</ele>
        <time>2019-07-19T12:51:00Z</time>
      </trkpt>
      <trkpt lat="42.86605" lon="0.20042">
        <ele>2690.39</ele>
        <time>2019-07-19T12:51:10Z</time>
      </trkpt>
      <trkpt lat="42.86606" lon="0.2004">
        <ele>2688.46</ele>
        <time>2019-07-19T12:51:24Z</time>
      </trkpt>
      <trkpt lat="42.86606" lon="0.2004">
        <ele>2682.22</ele>
        <time>2019-07-19T12:51:25Z</time>
      </trkpt>
      <trkpt lat="42.86606" lon="0.20039">
        <ele>2692.79</ele>
        <time>2019-07-19T12:51:26Z</time>
      </trkpt>
      <trkpt lat="42.86606" lon="0.20039">
        <ele>2687.98</ele>
        <time>2019-07-19T12:51:27Z</time>
      </trkpt>
      <trkpt lat="42.86606" lon="0.20037">
        <ele>2686.06</ele>
        <time>2019-07-19T12:51:44Z</time>
      </trkpt>
      <trkpt lat="42.86607" lon="0.20036">
        <ele>2684.14</ele>
        <time>2019-07-19T12:51:56Z</time>
      </trkpt>
      <trkpt lat="42.86607" lon="0.20036">
        <ele>2680.77</ele>
        <time>2019-07-19T12:52:09Z</time>
      </trkpt>
      <trkpt lat="42.86607" lon="0.20036">
        <ele>2681.73</ele>
        <time>2019-07-19T12:52:10Z</time>
      </trkpt>
      <trkpt lat="42.86607" lon="0.20036">
        <ele>2684.62</ele>
        <time>2019-07-19T12:52:12Z</time>
      </trkpt>
      <trkpt lat="42.86608" lon="0.20036">
        <ele>2681.25</ele>
        <time>2019-07-19T12:52:17Z</time>
      </trkpt>
      <trkpt lat="42.86608" lon="0.20036">
        <ele>2682.22</ele>
        <time>2019-07-19T12:52:21Z</time>
      </trkpt>
      <trkpt lat="42.8661" lon="0.20038">
        <ele>2678.37</ele>
        <time>2019-07-19T12:52:27Z</time>
      </trkpt>
      <trkpt lat="42.8661" lon="0.20038">
        <ele>2683.18</ele>
        <time>2019-07-19T12:52:28Z</time>
      </trkpt>
      <trkpt lat="42.8661" lon="0.20038">
        <ele>2680.29</ele>
        <time>2019-07-19T12:52:30Z</time>
      </trkpt>
      <trkpt lat="42.86613" lon="0.20036">
        <ele>2678.85</ele>
        <time>2019-07-19T12:52:40Z</time>
      </trkpt>
      <trkpt lat="42.86615" lon="0.20036">
        <ele>2676.93</ele>
        <time>2019-07-19T12:52:55Z</time>
      </trkpt>
      <trkpt lat="42.86616" lon="0.20037">
        <ele>2673.08</ele>
        <time>2019-07-19T12:53:10Z</time>
      </trkpt>
      <trkpt lat="42.86618" lon="0.20039">
        <ele>2671.16</ele>
        <time>2019-07-19T12:53:25Z</time>
      </trkpt>
      <trkpt lat="42.86617" lon="0.20043">
        <ele>2670.68</ele>
        <time>2019-07-19T12:53:38Z</time>
      </trkpt>
      <trkpt lat="42.86619" lon="0.2005">
        <ele>2667.31</ele>
        <time>2019-07-19T12:53:52Z</time>
      </trkpt>
      <trkpt lat="42.86618" lon="0.20055">
        <ele>2665.87</ele>
        <time>2019-07-19T12:53:57Z</time>
      </trkpt>
      <trkpt lat="42.86619" lon="0.2006">
        <ele>2662.99</ele>
        <time>2019-07-19T12:54:11Z</time>
      </trkpt>
      <trkpt lat="42.8662" lon="0.20065">
        <ele>2661.55</ele>
        <time>2019-07-19T12:54:19Z</time>
      </trkpt>
      <trkpt lat="42.86618" lon="0.20075">
        <ele>2658.18</ele>
        <time>2019-07-19T12:54:31Z</time>
      </trkpt>
      <trkpt lat="42.8662" lon="0.20077">
        <ele>2658.18</ele>
        <time>2019-07-19T12:54:34Z</time>
      </trkpt>
      <trkpt lat="42.8662" lon="0.20084">
        <ele>2656.26</ele>
        <time>2019-07-19T12:54:38Z</time>
      </trkpt>
      <trkpt lat="42.86627" lon="0.20092">
        <ele>2657.7</ele>
        <time>2019-07-19T12:54:50Z</time>
      </trkpt>
      <trkpt lat="42.86627" lon="0.20093">
        <ele>2654.34</ele>
        <time>2019-07-19T12:55:02Z</time>
      </trkpt>
      <trkpt lat="42.86627" lon="0.20095">
        <ele>2650.97</ele>
        <time>2019-07-19T12:55:15Z</time>
      </trkpt>
      <trkpt lat="42.8663" lon="0.20109">
        <ele>2649.05</ele>
        <time>2019-07-19T12:55:28Z</time>
      </trkpt>
      <trkpt lat="42.86634" lon="0.20114">
        <ele>2649.53</ele>
        <time>2019-07-19T12:55:31Z</time>
      </trkpt>
      <trkpt lat="42.86641" lon="0.20117">
        <ele>2650.49</ele>
        <time>2019-07-19T12:55:36Z</time>
      </trkpt>
      <trkpt lat="42.86643" lon="0.20131">
        <ele>2647.13</ele>
        <time>2019-07-19T12:55:46Z</time>
      </trkpt>
      <trkpt lat="42.86642" lon="0.20147">
        <ele>2645.69</ele>
        <time>2019-07-19T12:55:54Z</time>
      </trkpt>
      <trkpt lat="42.86641" lon="0.20154">
        <ele>2645.21</ele>
        <time>2019-07-19T12:55:59Z</time>
      </trkpt>
      <trkpt lat="42.86646" lon="0.20158">
        <ele>2642.8</ele>
        <time>2019-07-19T12:56:11Z</time>
      </trkpt>
      <trkpt lat="42.86646" lon="0.20158">
        <ele>2641.84</ele>
        <time>2019-07-19T12:56:15Z</time>
      </trkpt>
      <trkpt lat="42.86652" lon="0.20159">
        <ele>2640.4</ele>
        <time>2019-07-19T12:56:29Z</time>
      </trkpt>
      <trkpt lat="42.86652" lon="0.2016">
        <ele>2637.99</ele>
        <time>2019-07-19T12:56:36Z</time>
      </trkpt>
      <trkpt lat="42.86657" lon="0.20161">
        <ele>2636.07</ele>
        <time>2019-07-19T12:56:41Z</time>
      </trkpt>
      <trkpt lat="42.86662" lon="0.20161">
        <ele>2634.63</ele>
        <time>2019-07-19T12:56:47Z</time>
      </trkpt>
      <trkpt lat="42.86664" lon="0.20169">
        <ele>2631.75</ele>
        <time>2019-07-19T12:56:57Z</time>
      </trkpt>
      <trkpt lat="42.8667" lon="0.2017">
        <ele>2630.79</ele>
        <time>2019-07-19T12:57:01Z</time>
      </trkpt>
      <trkpt lat="42.86678" lon="0.20175">
        <ele>2632.23</ele>
        <time>2019-07-19T12:57:06Z</time>
      </trkpt>
      <trkpt lat="42.86686" lon="0.2018">
        <ele>2629.34</ele>
        <time>2019-07-19T12:57:12Z</time>
      </trkpt>
      <trkpt lat="42.86688" lon="0.20181">
        <ele>2627.42</ele>
        <time>2019-07-19T12:57:14Z</time>
      </trkpt>
      <trkpt lat="42.86692" lon="0.20182">
        <ele>2627.9</ele>
        <time>2019-07-19T12:57:17Z</time>
      </trkpt>
      <trkpt lat="42.86693" lon="0.20182">
        <ele>2628.38</ele>
        <time>2019-07-19T12:57:19Z</time>
      </trkpt>
      <trkpt lat="42.86687" lon="0.20179">
        <ele>2627.9</ele>
        <time>2019-07-19T12:57:26Z</time>
      </trkpt>
      <trkpt lat="42.86684" lon="0.2018">
        <ele>2627.42</ele>
        <time>2019-07-19T12:57:29Z</time>
      </trkpt>
      <trkpt lat="42.86679" lon="0.20182">
        <ele>2625.02</ele>
        <time>2019-07-19T12:57:33Z</time>
      </trkpt>
      <trkpt lat="42.86675" lon="0.20186">
        <ele>2623.58</ele>
        <time>2019-07-19T12:57:38Z</time>
      </trkpt>
      <trkpt lat="42.86676" lon="0.20193">
        <ele>2621.17</ele>
        <time>2019-07-19T12:57:45Z</time>
      </trkpt>
      <trkpt lat="42.8669" lon="0.20203">
        <ele>2619.25</ele>
        <time>2019-07-19T12:57:57Z</time>
      </trkpt>
      <trkpt lat="42.86691" lon="0.20207">
        <ele>2615.88</ele>
        <time>2019-07-19T12:58:03Z</time>
      </trkpt>
      <trkpt lat="42.86692" lon="0.20208">
        <ele>2615.88</ele>
        <time>2019-07-19T12:58:04Z</time>
      </trkpt>
      <trkpt lat="42.86693" lon="0.20211">
        <ele>2614.92</ele>
        <time>2019-07-19T12:58:09Z</time>
      </trkpt>
      <trkpt lat="42.86696" lon="0.2022">
        <ele>2611.56</ele>
        <time>2019-07-19T12:58:19Z</time>
      </trkpt>
      <trkpt lat="42.867" lon="0.20224">
        <ele>2608.19</ele>
        <time>2019-07-19T12:58:30Z</time>
      </trkpt>
      <trkpt lat="42.86702" lon="0.20231">
        <ele>2608.67</ele>
        <time>2019-07-19T12:58:37Z</time>
      </trkpt>
      <trkpt lat="42.86704" lon="0.20241">
        <ele>2602.91</ele>
        <time>2019-07-19T12:58:50Z</time>
      </trkpt>
      <trkpt lat="42.86704" lon="0.2025">
        <ele>2600.02</ele>
        <time>2019-07-19T12:59:00Z</time>
      </trkpt>
      <trkpt lat="42.86698" lon="0.2025">
        <ele>2598.1</ele>
        <time>2019-07-19T12:59:07Z</time>
      </trkpt>
      <trkpt lat="42.86698" lon="0.20254">
        <ele>2597.14</ele>
        <time>2019-07-19T12:59:14Z</time>
      </trkpt>
      <trkpt lat="42.86698" lon="0.20262">
        <ele>2593.77</ele>
        <time>2019-07-19T12:59:26Z</time>
      </trkpt>
      <trkpt lat="42.86697" lon="0.20268">
        <ele>2592.33</ele>
        <time>2019-07-19T12:59:37Z</time>
      </trkpt>
      <trkpt lat="42.86696" lon="0.20276">
        <ele>2588.49</ele>
        <time>2019-07-19T12:59:47Z</time>
      </trkpt>
      <trkpt lat="42.86694" lon="0.20279">
        <ele>2587.53</ele>
        <time>2019-07-19T12:59:50Z</time>
      </trkpt>
      <trkpt lat="42.86689" lon="0.20279">
        <ele>2586.08</ele>
        <time>2019-07-19T12:59:56Z</time>
      </trkpt>
      <trkpt lat="42.86688" lon="0.20292">
        <ele>2582.72</ele>
        <time>2019-07-19T13:00:08Z</time>
      </trkpt>
      <trkpt lat="42.86688" lon="0.20295">
        <ele>2581.28</ele>
        <time>2019-07-19T13:00:11Z</time>
      </trkpt>
      <trkpt lat="42.86685" lon="0.20301">
        <ele>2577.91</ele>
        <time>2019-07-19T13:00:21Z</time>
      </trkpt>
      <trkpt lat="42.86684" lon="0.20302">
        <ele>2576.95</ele>
        <time>2019-07-19T13:00:24Z</time>
      </trkpt>
      <trkpt lat="42.86681" lon="0.20313">
        <ele>2574.07</ele>
        <time>2019-07-19T13:00:34Z</time>
      </trkpt>
      <trkpt lat="42.86679" lon="0.20314">
        <ele>2573.11</ele>
        <time>2019-07-19T13:00:39Z</time>
      </trkpt>
      <trkpt lat="42.86677" lon="0.20316">
        <ele>2571.66</ele>
        <time>2019-07-19T13:00:42Z</time>
      </trkpt>
      <trkpt lat="42.86674" lon="0.2032">
        <ele>2569.74</ele>
        <time>2019-07-19T13:00:45Z</time>
      </trkpt>
      <trkpt lat="42.86673" lon="0.2033">
        <ele>2570.22</ele>
        <time>2019-07-19T13:00:52Z</time>
      </trkpt>
      <trkpt lat="42.86673" lon="0.20335">
        <ele>2568.78</ele>
        <time>2019-07-19T13:00:55Z</time>
      </trkpt>
      <trkpt lat="42.86676" lon="0.20338">
        <ele>2567.82</ele>
        <time>2019-07-19T13:01:00Z</time>
      </trkpt>
      <trkpt lat="42.8668" lon="0.20343">
        <ele>2565.9</ele>
        <time>2019-07-19T13:01:06Z</time>
      </trkpt>
      <trkpt lat="42.86683" lon="0.20351">
        <ele>2562.53</ele>
        <time>2019-07-19T13:01:14Z</time>
      </trkpt>
      <trkpt lat="42.86685" lon="0.20352">
        <ele>2562.05</ele>
        <time>2019-07-19T13:01:15Z</time>
      </trkpt>
      <trkpt lat="42.86692" lon="0.20363">
        <ele>2559.65</ele>
        <time>2019-07-19T13:01:23Z</time>
      </trkpt>
      <trkpt lat="42.86692" lon="0.20376">
        <ele>2557.73</ele>
        <time>2019-07-19T13:01:31Z</time>
      </trkpt>
      <trkpt lat="42.86694" lon="0.20384">
        <ele>2557.73</ele>
        <time>2019-07-19T13:01:36Z</time>
      </trkpt>
      <trkpt lat="42.86695" lon="0.20401">
        <ele>2554.84</ele>
        <time>2019-07-19T13:01:46Z</time>
      </trkpt>
      <trkpt lat="42.86695" lon="0.20406">
        <ele>2553.88</ele>
        <time>2019-07-19T13:01:50Z</time>
      </trkpt>
      <trkpt lat="42.86696" lon="0.20415">
        <ele>2553.4</ele>
        <time>2019-07-19T13:01:55Z</time>
      </trkpt>
      <trkpt lat="42.86698" lon="0.20434">
        <ele>2551</ele>
        <time>2019-07-19T13:02:07Z</time>
      </trkpt>
      <trkpt lat="42.86696" lon="0.20441">
        <ele>2548.11</ele>
        <time>2019-07-19T13:02:14Z</time>
      </trkpt>
      <trkpt lat="42.86696" lon="0.20453">
        <ele>2544.75</ele>
        <time>2019-07-19T13:02:23Z</time>
      </trkpt>
      <trkpt lat="42.86697" lon="0.20462">
        <ele>2541.86</ele>
        <time>2019-07-19T13:02:31Z</time>
      </trkpt>
      <trkpt lat="42.86699" lon="0.20471">
        <ele>2538.5</ele>
        <time>2019-07-19T13:02:39Z</time>
      </trkpt>
      <trkpt lat="42.86699" lon="0.20473">
        <ele>2538.5</ele>
        <time>2019-07-19T13:02:40Z</time>
      </trkpt>
      <trkpt lat="42.86699" lon="0.20478">
        <ele>2537.06</ele>
        <time>2019-07-19T13:02:44Z</time>
      </trkpt>
      <trkpt lat="42.86699" lon="0.20478">
        <ele>2536.58</ele>
        <time>2019-07-19T13:02:45Z</time>
      </trkpt>
      <trkpt lat="42.86699" lon="0.20484">
        <ele>2534.65</ele>
        <time>2019-07-19T13:02:50Z</time>
      </trkpt>
      <trkpt lat="42.86699" lon="0.20492">
        <ele>2531.29</ele>
        <time>2019-07-19T13:02:58Z</time>
      </trkpt>
      <trkpt lat="42.86699" lon="0.20493">
        <ele>2531.29</ele>
        <time>2019-07-19T13:02:59Z</time>
      </trkpt>
      <trkpt lat="42.86699" lon="0.20496">
        <ele>2530.81</ele>
        <time>2019-07-19T13:03:01Z</time>
      </trkpt>
      <trkpt lat="42.867" lon="0.20502">
        <ele>2528.89</ele>
        <time>2019-07-19T13:03:06Z</time>
      </trkpt>
      <trkpt lat="42.867" lon="0.20509">
        <ele>2526.96</ele>
        <time>2019-07-19T13:03:16Z</time>
      </trkpt>
      <trkpt lat="42.86702" lon="0.20515">
        <ele>2526</ele>
        <time>2019-07-19T13:03:22Z</time>
      </trkpt>
      <trkpt lat="42.867" lon="0.20529">
        <ele>2521.68</ele>
        <time>2019-07-19T13:03:37Z</time>
      </trkpt>
      <trkpt lat="42.867" lon="0.20531">
        <ele>2522.64</ele>
        <time>2019-07-19T13:03:38Z</time>
      </trkpt>
      <trkpt lat="42.86702" lon="0.20549">
        <ele>2520.23</ele>
        <time>2019-07-19T13:03:47Z</time>
      </trkpt>
      <trkpt lat="42.86708" lon="0.20559">
        <ele>2520.23</ele>
        <time>2019-07-19T13:03:54Z</time>
      </trkpt>
      <trkpt lat="42.86709" lon="0.20564">
        <ele>2519.27</ele>
        <time>2019-07-19T13:03:58Z</time>
      </trkpt>
      <trkpt lat="42.86712" lon="0.20572">
        <ele>2517.35</ele>
        <time>2019-07-19T13:04:06Z</time>
      </trkpt>
      <trkpt lat="42.86714" lon="0.20577">
        <ele>2516.39</ele>
        <time>2019-07-19T13:04:10Z</time>
      </trkpt>
      <trkpt lat="42.86713" lon="0.2058">
        <ele>2515.91</ele>
        <time>2019-07-19T13:04:12Z</time>
      </trkpt>
      <trkpt lat="42.8671" lon="0.20588">
        <ele>2512.54</ele>
        <time>2019-07-19T13:04:22Z</time>
      </trkpt>
      <trkpt lat="42.86709" lon="0.2059">
        <ele>2512.54</ele>
        <time>2019-07-19T13:04:24Z</time>
      </trkpt>
      <trkpt lat="42.86717" lon="0.20599">
        <ele>2511.1</ele>
        <time>2019-07-19T13:04:34Z</time>
      </trkpt>
      <trkpt lat="42.86713" lon="0.20608">
        <ele>2508.7</ele>
        <time>2019-07-19T13:04:40Z</time>
      </trkpt>
      <trkpt lat="42.86713" lon="0.20609">
        <ele>2508.7</ele>
        <time>2019-07-19T13:04:41Z</time>
      </trkpt>
      <trkpt lat="42.86714" lon="0.20613">
        <ele>2507.26</ele>
        <time>2019-07-19T13:04:44Z</time>
      </trkpt>
      <trkpt lat="42.86715" lon="0.20628">
        <ele>2505.81</ele>
        <time>2019-07-19T13:04:56Z</time>
      </trkpt>
      <trkpt lat="42.86716" lon="0.20632">
        <ele>2505.81</ele>
        <time>2019-07-19T13:05:06Z</time>
      </trkpt>
      <trkpt lat="42.86716" lon="0.20642">
        <ele>2503.89</ele>
        <time>2019-07-19T13:05:12Z</time>
      </trkpt>
      <trkpt lat="42.8672" lon="0.20648">
        <ele>2502.93</ele>
        <time>2019-07-19T13:05:17Z</time>
      </trkpt>
      <trkpt lat="42.86723" lon="0.2067">
        <ele>2502.45</ele>
        <time>2019-07-19T13:05:29Z</time>
      </trkpt>
      <trkpt lat="42.86723" lon="0.20679">
        <ele>2501.97</ele>
        <time>2019-07-19T13:05:41Z</time>
      </trkpt>
      <trkpt lat="42.86724" lon="0.20682">
        <ele>2500.05</ele>
        <time>2019-07-19T13:05:47Z</time>
      </trkpt>
      <trkpt lat="42.86727" lon="0.20685">
        <ele>2496.2</ele>
        <time>2019-07-19T13:05:55Z</time>
      </trkpt>
      <trkpt lat="42.86727" lon="0.20685">
        <ele>2501.49</ele>
        <time>2019-07-19T13:05:56Z</time>
      </trkpt>
      <trkpt lat="42.86727" lon="0.20684">
        <ele>2498.12</ele>
        <time>2019-07-19T13:05:57Z</time>
      </trkpt>
      <trkpt lat="42.86731" lon="0.20685">
        <ele>2495.72</ele>
        <time>2019-07-19T13:06:04Z</time>
      </trkpt>
      <trkpt lat="42.86733" lon="0.20689">
        <ele>2494.28</ele>
        <time>2019-07-19T13:06:13Z</time>
      </trkpt>
      <trkpt lat="42.8674" lon="0.20691">
        <ele>2492.36</ele>
        <time>2019-07-19T13:06:24Z</time>
      </trkpt>
      <trkpt lat="42.86743" lon="0.20695">
        <ele>2489.95</ele>
        <time>2019-07-19T13:06:31Z</time>
      </trkpt>
      <trkpt lat="42.86746" lon="0.20694">
        <ele>2487.55</ele>
        <time>2019-07-19T13:06:37Z</time>
      </trkpt>
      <trkpt lat="42.86747" lon="0.20694">
        <ele>2487.07</ele>
        <time>2019-07-19T13:06:38Z</time>
      </trkpt>
      <trkpt lat="42.86754" lon="0.20694">
        <ele>2484.66</ele>
        <time>2019-07-19T13:06:44Z</time>
      </trkpt>
      <trkpt lat="42.86757" lon="0.20693">
        <ele>2483.7</ele>
        <time>2019-07-19T13:06:47Z</time>
      </trkpt>
      <trkpt lat="42.86761" lon="0.20695">
        <ele>2481.3</ele>
        <time>2019-07-19T13:06:51Z</time>
      </trkpt>
      <trkpt lat="42.86764" lon="0.20696">
        <ele>2479.86</ele>
        <time>2019-07-19T13:06:56Z</time>
      </trkpt>
      <trkpt lat="42.86769" lon="0.20698">
        <ele>2478.42</ele>
        <time>2019-07-19T13:07:00Z</time>
      </trkpt>
      <trkpt lat="42.86772" lon="0.20698">
        <ele>2477.94</ele>
        <time>2019-07-19T13:07:03Z</time>
      </trkpt>
      <trkpt lat="42.86782" lon="0.20701">
        <ele>2474.57</ele>
        <time>2019-07-19T13:07:13Z</time>
      </trkpt>
      <trkpt lat="42.86783" lon="0.20701">
        <ele>2474.09</ele>
        <time>2019-07-19T13:07:14Z</time>
      </trkpt>
      <trkpt lat="42.86785" lon="0.20704">
        <ele>2472.17</ele>
        <time>2019-07-19T13:07:16Z</time>
      </trkpt>
      <trkpt lat="42.86791" lon="0.20706">
        <ele>2471.21</ele>
        <time>2019-07-19T13:07:21Z</time>
      </trkpt>
      <trkpt lat="42.86793" lon="0.20707">
        <ele>2470.73</ele>
        <time>2019-07-19T13:07:22Z</time>
      </trkpt>
      <trkpt lat="42.86799" lon="0.2071">
        <ele>2469.28</ele>
        <time>2019-07-19T13:07:26Z</time>
      </trkpt>
      <trkpt lat="42.86808" lon="0.20715">
        <ele>2467.36</ele>
        <time>2019-07-19T13:07:33Z</time>
      </trkpt>
      <trkpt lat="42.86811" lon="0.20714">
        <ele>2466.88</ele>
        <time>2019-07-19T13:07:35Z</time>
      </trkpt>
      <trkpt lat="42.86813" lon="0.20713">
        <ele>2466.88</ele>
        <time>2019-07-19T13:07:38Z</time>
      </trkpt>
      <trkpt lat="42.86817" lon="0.20722">
        <ele>2465.92</ele>
        <time>2019-07-19T13:07:43Z</time>
      </trkpt>
      <trkpt lat="42.86822" lon="0.20722">
        <ele>2462.07</ele>
        <time>2019-07-19T13:07:51Z</time>
      </trkpt>
      <trkpt lat="42.86822" lon="0.20721">
        <ele>2462.55</ele>
        <time>2019-07-19T13:07:52Z</time>
      </trkpt>
      <trkpt lat="42.86823" lon="0.20721">
        <ele>2462.55</ele>
        <time>2019-07-19T13:07:53Z</time>
      </trkpt>
      <trkpt lat="42.86839" lon="0.20711">
        <ele>2460.15</ele>
        <time>2019-07-19T13:08:04Z</time>
      </trkpt>
      <trkpt lat="42.86843" lon="0.20713">
        <ele>2459.67</ele>
        <time>2019-07-19T13:08:06Z</time>
      </trkpt>
      <trkpt lat="42.8685" lon="0.20712">
        <ele>2457.27</ele>
        <time>2019-07-19T13:08:18Z</time>
      </trkpt>
      <trkpt lat="42.86856" lon="0.2071">
        <ele>2454.38</ele>
        <time>2019-07-19T13:08:30Z</time>
      </trkpt>
      <trkpt lat="42.86858" lon="0.20708">
        <ele>2452.94</ele>
        <time>2019-07-19T13:08:35Z</time>
      </trkpt>
      <trkpt lat="42.86862" lon="0.20713">
        <ele>2450.54</ele>
        <time>2019-07-19T13:08:41Z</time>
      </trkpt>
      <trkpt lat="42.86867" lon="0.20714">
        <ele>2449.1</ele>
        <time>2019-07-19T13:08:50Z</time>
      </trkpt>
      <trkpt lat="42.8687" lon="0.20708">
        <ele>2446.21</ele>
        <time>2019-07-19T13:08:57Z</time>
      </trkpt>
      <trkpt lat="42.86872" lon="0.20707">
        <ele>2443.81</ele>
        <time>2019-07-19T13:09:04Z</time>
      </trkpt>
      <trkpt lat="42.86877" lon="0.20704">
        <ele>2442.85</ele>
        <time>2019-07-19T13:09:07Z</time>
      </trkpt>
      <trkpt lat="42.86879" lon="0.20701">
        <ele>2442.37</ele>
        <time>2019-07-19T13:09:10Z</time>
      </trkpt>
      <trkpt lat="42.86888" lon="0.20687">
        <ele>2438.52</ele>
        <time>2019-07-19T13:09:20Z</time>
      </trkpt>
      <trkpt lat="42.86888" lon="0.20686">
        <ele>2438.04</ele>
        <time>2019-07-19T13:09:21Z</time>
      </trkpt>
      <trkpt lat="42.86892" lon="0.20674">
        <ele>2435.16</ele>
        <time>2019-07-19T13:09:32Z</time>
      </trkpt>
      <trkpt lat="42.86894" lon="0.20673">
        <ele>2434.68</ele>
        <time>2019-07-19T13:09:34Z</time>
      </trkpt>
      <trkpt lat="42.86899" lon="0.20677">
        <ele>2433.23</ele>
        <time>2019-07-19T13:09:38Z</time>
      </trkpt>
      <trkpt lat="42.86904" lon="0.2068">
        <ele>2430.83</ele>
        <time>2019-07-19T13:09:45Z</time>
      </trkpt>
      <trkpt lat="42.86909" lon="0.20684">
        <ele>2429.39</ele>
        <time>2019-07-19T13:09:52Z</time>
      </trkpt>
      <trkpt lat="42.86912" lon="0.20685">
        <ele>2427.47</ele>
        <time>2019-07-19T13:09:57Z</time>
      </trkpt>
      <trkpt lat="42.86915" lon="0.20684">
        <ele>2426.99</ele>
        <time>2019-07-19T13:09:59Z</time>
      </trkpt>
      <trkpt lat="42.86919" lon="0.20684">
        <ele>2425.54</ele>
        <time>2019-07-19T13:10:05Z</time>
      </trkpt>
      <trkpt lat="42.86926" lon="0.20686">
        <ele>2422.18</ele>
        <time>2019-07-19T13:10:13Z</time>
      </trkpt>
      <trkpt lat="42.86932" lon="0.20687">
        <ele>2420.74</ele>
        <time>2019-07-19T13:10:18Z</time>
      </trkpt>
      <trkpt lat="42.86935" lon="0.20692">
        <ele>2418.81</ele>
        <time>2019-07-19T13:10:23Z</time>
      </trkpt>
      <trkpt lat="42.86938" lon="0.20698">
        <ele>2417.85</ele>
        <time>2019-07-19T13:10:27Z</time>
      </trkpt>
      <trkpt lat="42.86941" lon="0.20703">
        <ele>2417.37</ele>
        <time>2019-07-19T13:10:31Z</time>
      </trkpt>
      <trkpt lat="42.86945" lon="0.20708">
        <ele>2416.89</ele>
        <time>2019-07-19T13:10:35Z</time>
      </trkpt>
      <trkpt lat="42.86955" lon="0.20712">
        <ele>2416.89</ele>
        <time>2019-07-19T13:10:42Z</time>
      </trkpt>
      <trkpt lat="42.86958" lon="0.20716">
        <ele>2415.93</ele>
        <time>2019-07-19T13:10:46Z</time>
      </trkpt>
      <trkpt lat="42.86956" lon="0.20717">
        <ele>2415.93</ele>
        <time>2019-07-19T13:11:02Z</time>
      </trkpt>
      <trkpt lat="42.86956" lon="0.20717">
        <ele>2412.57</ele>
        <time>2019-07-19T13:11:12Z</time>
      </trkpt>
      <trkpt lat="42.86956" lon="0.20717">
        <ele>2415.45</ele>
        <time>2019-07-19T13:11:13Z</time>
      </trkpt>
      <trkpt lat="42.86956" lon="0.20717">
        <ele>2412.09</ele>
        <time>2019-07-19T13:11:24Z</time>
      </trkpt>
      <trkpt lat="42.86956" lon="0.20717">
        <ele>2415.45</ele>
        <time>2019-07-19T13:11:25Z</time>
      </trkpt>
      <trkpt lat="42.86954" lon="0.20718">
        <ele>2414.49</ele>
        <time>2019-07-19T13:11:53Z</time>
      </trkpt>
      <trkpt lat="42.86954" lon="0.20718">
        <ele>2411.12</ele>
        <time>2019-07-19T13:12:14Z</time>
      </trkpt>
      <trkpt lat="42.86954" lon="0.20718">
        <ele>2414.97</ele>
        <time>2019-07-19T13:12:15Z</time>
      </trkpt>
      <trkpt lat="42.86955" lon="0.20718">
        <ele>2414.97</ele>
        <time>2019-07-19T13:12:27Z</time>
      </trkpt>
      <trkpt lat="42.86958" lon="0.20717">
        <ele>2415.45</ele>
        <time>2019-07-19T13:12:39Z</time>
      </trkpt>
      <trkpt lat="42.86958" lon="0.20717">
        <ele>2414.97</ele>
        <time>2019-07-19T13:12:40Z</time>
      </trkpt>
      <trkpt lat="42.86958" lon="0.20717">
        <ele>2414.97</ele>
        <time>2019-07-19T13:13:09Z</time>
      </trkpt>
      <trkpt lat="42.86958" lon="0.20718">
        <ele>2415.45</ele>
        <time>2019-07-19T13:13:28Z</time>
      </trkpt>
      <trkpt lat="42.86958" lon="0.20718">
        <ele>2414.49</ele>
        <time>2019-07-19T13:14:00Z</time>
      </trkpt>
      <trkpt lat="42.86958" lon="0.20717">
        <ele>2413.53</ele>
        <time>2019-07-19T13:14:05Z</time>
      </trkpt>
      <trkpt lat="42.86958" lon="0.20717">
        <ele>2414.97</ele>
        <time>2019-07-19T13:14:23Z</time>
      </trkpt>
      <trkpt lat="42.86958" lon="0.20717">
        <ele>2416.89</ele>
        <time>2019-07-19T13:14:27Z</time>
      </trkpt>
      <trkpt lat="42.86958" lon="0.20717">
        <ele>2413.53</ele>
        <time>2019-07-19T13:14:29Z</time>
      </trkpt>
      <trkpt lat="42.86958" lon="0.20717">
        <ele>2414.01</ele>
        <time>2019-07-19T13:14:30Z</time>
      </trkpt>
      <trkpt lat="42.86959" lon="0.20715">
        <ele>2416.41</ele>
        <time>2019-07-19T13:14:55Z</time>
      </trkpt>
      <trkpt lat="42.86971" lon="0.20695">
        <ele>2416.41</ele>
        <time>2019-07-19T13:15:08Z</time>
      </trkpt>
      <trkpt lat="42.86982" lon="0.20671">
        <ele>2414.01</ele>
        <time>2019-07-19T13:15:21Z</time>
      </trkpt>
      <trkpt lat="42.86987" lon="0.20661">
        <ele>2411.12</ele>
        <time>2019-07-19T13:15:29Z</time>
      </trkpt>
      <trkpt lat="42.86988" lon="0.20661">
        <ele>2411.12</ele>
        <time>2019-07-19T13:15:30Z</time>
      </trkpt>
      <trkpt lat="42.86997" lon="0.20652">
        <ele>2410.64</ele>
        <time>2019-07-19T13:15:35Z</time>
      </trkpt>
      <trkpt lat="42.87009" lon="0.20633">
        <ele>2414.01</ele>
        <time>2019-07-19T13:15:46Z</time>
      </trkpt>
      <trkpt lat="42.87012" lon="0.20629">
        <ele>2412.57</ele>
        <time>2019-07-19T13:15:49Z</time>
      </trkpt>
      <trkpt lat="42.87016" lon="0.20626">
        <ele>2413.53</ele>
        <time>2019-07-19T13:15:53Z</time>
      </trkpt>
      <trkpt lat="42.87025" lon="0.20623">
        <ele>2412.09</ele>
        <time>2019-07-19T13:15:59Z</time>
      </trkpt>
      <trkpt lat="42.8703" lon="0.20617">
        <ele>2409.2</ele>
        <time>2019-07-19T13:16:04Z</time>
      </trkpt>
      <trkpt lat="42.87031" lon="0.20613">
        <ele>2409.68</ele>
        <time>2019-07-19T13:16:06Z</time>
      </trkpt>
      <trkpt lat="42.87031" lon="0.20599">
        <ele>2408.24</ele>
        <time>2019-07-19T13:16:13Z</time>
      </trkpt>
      <trkpt lat="42.87038" lon="0.20586">
        <ele>2407.76</ele>
        <time>2019-07-19T13:16:20Z</time>
      </trkpt>
      <trkpt lat="42.8704" lon="0.20582">
        <ele>2409.68</ele>
        <time>2019-07-19T13:16:23Z</time>
      </trkpt>
      <trkpt lat="42.8706" lon="0.20578">
        <ele>2408.24</ele>
        <time>2019-07-19T13:16:36Z</time>
      </trkpt>
      <trkpt lat="42.87076" lon="0.2056">
        <ele>2407.76</ele>
        <time>2019-07-19T13:16:49Z</time>
      </trkpt>
      <trkpt lat="42.87082" lon="0.20553">
        <ele>2408.72</ele>
        <time>2019-07-19T13:16:53Z</time>
      </trkpt>
      <trkpt lat="42.87086" lon="0.20543">
        <ele>2408.72</ele>
        <time>2019-07-19T13:16:59Z</time>
      </trkpt>
      <trkpt lat="42.87098" lon="0.20542">
        <ele>2410.64</ele>
        <time>2019-07-19T13:17:06Z</time>
      </trkpt>
      <trkpt lat="42.87102" lon="0.20542">
        <ele>2409.68</ele>
        <time>2019-07-19T13:17:10Z</time>
      </trkpt>
      <trkpt lat="42.87107" lon="0.2054">
        <ele>2408.24</ele>
        <time>2019-07-19T13:17:14Z</time>
      </trkpt>
      <trkpt lat="42.87109" lon="0.2054">
        <ele>2408.24</ele>
        <time>2019-07-19T13:17:15Z</time>
      </trkpt>
      <trkpt lat="42.87114" lon="0.2054">
        <ele>2409.2</ele>
        <time>2019-07-19T13:17:20Z</time>
      </trkpt>
      <trkpt lat="42.87126" lon="0.20542">
        <ele>2407.76</ele>
        <time>2019-07-19T13:17:28Z</time>
      </trkpt>
      <trkpt lat="42.87132" lon="0.20542">
        <ele>2408.72</ele>
        <time>2019-07-19T13:17:32Z</time>
      </trkpt>
      <trkpt lat="42.87148" lon="0.20531">
        <ele>2408.72</ele>
        <time>2019-07-19T13:17:44Z</time>
      </trkpt>
      <trkpt lat="42.87151" lon="0.20527">
        <ele>2408.72</ele>
        <time>2019-07-19T13:17:48Z</time>
      </trkpt>
      <trkpt lat="42.87161" lon="0.20529">
        <ele>2409.68</ele>
        <time>2019-07-19T13:17:54Z</time>
      </trkpt>
      <trkpt lat="42.87163" lon="0.20534">
        <ele>2409.2</ele>
        <time>2019-07-19T13:17:57Z</time>
      </trkpt>
      <trkpt lat="42.8717" lon="0.2054">
        <ele>2405.84</ele>
        <time>2019-07-19T13:18:04Z</time>
      </trkpt>
      <trkpt lat="42.8717" lon="0.2054">
        <ele>2406.8</ele>
        <time>2019-07-19T13:18:05Z</time>
      </trkpt>
      <trkpt lat="42.8717" lon="0.20541">
        <ele>2414.97</ele>
        <time>2019-07-19T13:18:20Z</time>
      </trkpt>
      <trkpt lat="42.87174" lon="0.20544">
        <ele>2408.24</ele>
        <time>2019-07-19T13:18:24Z</time>
      </trkpt>
      <trkpt lat="42.87176" lon="0.20546">
        <ele>2407.28</ele>
        <time>2019-07-19T13:18:26Z</time>
      </trkpt>
      <trkpt lat="42.87187" lon="0.2054">
        <ele>2406.8</ele>
        <time>2019-07-19T13:18:37Z</time>
      </trkpt>
      <trkpt lat="42.87189" lon="0.20538">
        <ele>2405.36</ele>
        <time>2019-07-19T13:18:38Z</time>
      </trkpt>
      <trkpt lat="42.87195" lon="0.20532">
        <ele>2407.76</ele>
        <time>2019-07-19T13:18:41Z</time>
      </trkpt>
      <trkpt lat="42.87199" lon="0.20528">
        <ele>2405.84</ele>
        <time>2019-07-19T13:18:43Z</time>
      </trkpt>
      <trkpt lat="42.87221" lon="0.20522">
        <ele>2406.8</ele>
        <time>2019-07-19T13:18:56Z</time>
      </trkpt>
      <trkpt lat="42.87225" lon="0.20522">
        <ele>2406.32</ele>
        <time>2019-07-19T13:18:59Z</time>
      </trkpt>
      <trkpt lat="42.87231" lon="0.20527">
        <ele>2405.36</ele>
        <time>2019-07-19T13:19:04Z</time>
      </trkpt>
      <trkpt lat="42.87235" lon="0.2053">
        <ele>2406.32</ele>
        <time>2019-07-19T13:19:08Z</time>
      </trkpt>
      <trkpt lat="42.87239" lon="0.20535">
        <ele>2404.88</ele>
        <time>2019-07-19T13:19:11Z</time>
      </trkpt>
      <trkpt lat="42.8724" lon="0.20535">
        <ele>2408.24</ele>
        <time>2019-07-19T13:19:12Z</time>
      </trkpt>
      <trkpt lat="42.87241" lon="0.20536">
        <ele>2405.84</ele>
        <time>2019-07-19T13:19:13Z</time>
      </trkpt>
      <trkpt lat="42.87247" lon="0.20537">
        <ele>2404.88</ele>
        <time>2019-07-19T13:19:18Z</time>
      </trkpt>
      <trkpt lat="42.87262" lon="0.20546">
        <ele>2405.36</ele>
        <time>2019-07-19T13:19:29Z</time>
      </trkpt>
      <trkpt lat="42.87265" lon="0.20551">
        <ele>2403.43</ele>
        <time>2019-07-19T13:19:32Z</time>
      </trkpt>
      <trkpt lat="42.8727" lon="0.20552">
        <ele>2407.28</ele>
        <time>2019-07-19T13:19:36Z</time>
      </trkpt>
      <trkpt lat="42.87273" lon="0.2055">
        <ele>2405.84</ele>
        <time>2019-07-19T13:19:39Z</time>
      </trkpt>
      <trkpt lat="42.87274" lon="0.20548">
        <ele>2406.8</ele>
        <time>2019-07-19T13:19:41Z</time>
      </trkpt>
      <trkpt lat="42.8728" lon="0.20535">
        <ele>2402.95</ele>
        <time>2019-07-19T13:19:55Z</time>
      </trkpt>
      <trkpt lat="42.87283" lon="0.20534">
        <ele>2401.51</ele>
        <time>2019-07-19T13:20:02Z</time>
      </trkpt>
      <trkpt lat="42.87285" lon="0.20535">
        <ele>2401.03</ele>
        <time>2019-07-19T13:20:04Z</time>
      </trkpt>
      <trkpt lat="42.87288" lon="0.20536">
        <ele>2400.55</ele>
        <time>2019-07-19T13:20:07Z</time>
      </trkpt>
      <trkpt lat="42.87291" lon="0.20537">
        <ele>2399.59</ele>
        <time>2019-07-19T13:20:12Z</time>
      </trkpt>
      <trkpt lat="42.87293" lon="0.20531">
        <ele>2399.11</ele>
        <time>2019-07-19T13:20:17Z</time>
      </trkpt>
      <trkpt lat="42.87287" lon="0.20519">
        <ele>2396.7</ele>
        <time>2019-07-19T13:20:28Z</time>
      </trkpt>
      <trkpt lat="42.87287" lon="0.20515">
        <ele>2396.22</ele>
        <time>2019-07-19T13:20:30Z</time>
      </trkpt>
      <trkpt lat="42.87291" lon="0.2051">
        <ele>2395.26</ele>
        <time>2019-07-19T13:20:36Z</time>
      </trkpt>
      <trkpt lat="42.87295" lon="0.20503">
        <ele>2392.86</ele>
        <time>2019-07-19T13:20:51Z</time>
      </trkpt>
      <trkpt lat="42.87296" lon="0.205">
        <ele>2390.46</ele>
        <time>2019-07-19T13:21:10Z</time>
      </trkpt>
      <trkpt lat="42.87297" lon="0.20498">
        <ele>2389.49</ele>
        <time>2019-07-19T13:21:14Z</time>
      </trkpt>
      <trkpt lat="42.87309" lon="0.20515">
        <ele>2386.13</ele>
        <time>2019-07-19T13:21:28Z</time>
      </trkpt>
      <trkpt lat="42.8731" lon="0.20515">
        <ele>2386.13</ele>
        <time>2019-07-19T13:21:29Z</time>
      </trkpt>
      <trkpt lat="42.87311" lon="0.20517">
        <ele>2386.13</ele>
        <time>2019-07-19T13:21:31Z</time>
      </trkpt>
      <trkpt lat="42.87314" lon="0.20522">
        <ele>2384.69</ele>
        <time>2019-07-19T13:21:35Z</time>
      </trkpt>
      <trkpt lat="42.87315" lon="0.20533">
        <ele>2382.76</ele>
        <time>2019-07-19T13:21:44Z</time>
      </trkpt>
      <trkpt lat="42.87319" lon="0.20536">
        <ele>2381.32</ele>
        <time>2019-07-19T13:21:48Z</time>
      </trkpt>
      <trkpt lat="42.87324" lon="0.20542">
        <ele>2379.88</ele>
        <time>2019-07-19T13:21:53Z</time>
      </trkpt>
      <trkpt lat="42.87325" lon="0.20543">
        <ele>2378.92</ele>
        <time>2019-07-19T13:21:55Z</time>
      </trkpt>
      <trkpt lat="42.87327" lon="0.20548">
        <ele>2377</ele>
        <time>2019-07-19T13:22:01Z</time>
      </trkpt>
      <trkpt lat="42.87332" lon="0.20544">
        <ele>2372.67</ele>
        <time>2019-07-19T13:22:07Z</time>
      </trkpt>
      <trkpt lat="42.87334" lon="0.20542">
        <ele>2377</ele>
        <time>2019-07-19T13:22:08Z</time>
      </trkpt>
      <trkpt lat="42.87335" lon="0.20538">
        <ele>2375.55</ele>
        <time>2019-07-19T13:22:11Z</time>
      </trkpt>
      <trkpt lat="42.87337" lon="0.20533">
        <ele>2374.59</ele>
        <time>2019-07-19T13:22:14Z</time>
      </trkpt>
      <trkpt lat="42.87345" lon="0.20539">
        <ele>2372.67</ele>
        <time>2019-07-19T13:22:21Z</time>
      </trkpt>
      <trkpt lat="42.87353" lon="0.20544">
        <ele>2368.83</ele>
        <time>2019-07-19T13:22:27Z</time>
      </trkpt>
      <trkpt lat="42.87358" lon="0.2055">
        <ele>2371.71</ele>
        <time>2019-07-19T13:22:32Z</time>
      </trkpt>
      <trkpt lat="42.87361" lon="0.20554">
        <ele>2371.23</ele>
        <time>2019-07-19T13:22:36Z</time>
      </trkpt>
      <trkpt lat="42.87367" lon="0.20561">
        <ele>2366.9</ele>
        <time>2019-07-19T13:22:45Z</time>
      </trkpt>
      <trkpt lat="42.87367" lon="0.20561">
        <ele>2370.27</ele>
        <time>2019-07-19T13:22:46Z</time>
      </trkpt>
      <trkpt lat="42.87386" lon="0.20556">
        <ele>2370.27</ele>
        <time>2019-07-19T13:22:58Z</time>
      </trkpt>
      <trkpt lat="42.87397" lon="0.20552">
        <ele>2367.86</ele>
        <time>2019-07-19T13:23:10Z</time>
      </trkpt>
      <trkpt lat="42.87403" lon="0.20549">
        <ele>2364.98</ele>
        <time>2019-07-19T13:23:19Z</time>
      </trkpt>
      <trkpt lat="42.87407" lon="0.20545">
        <ele>2361.62</ele>
        <time>2019-07-19T13:23:29Z</time>
      </trkpt>
      <trkpt lat="42.87414" lon="0.20542">
        <ele>2358.73</ele>
        <time>2019-07-19T13:23:40Z</time>
      </trkpt>
      <trkpt lat="42.87418" lon="0.20535">
        <ele>2357.29</ele>
        <time>2019-07-19T13:23:45Z</time>
      </trkpt>
      <trkpt lat="42.87418" lon="0.20531">
        <ele>2356.33</ele>
        <time>2019-07-19T13:23:47Z</time>
      </trkpt>
      <trkpt lat="42.87419" lon="0.20528">
        <ele>2355.85</ele>
        <time>2019-07-19T13:23:49Z</time>
      </trkpt>
      <trkpt lat="42.87424" lon="0.20528">
        <ele>2353.44</ele>
        <time>2019-07-19T13:23:56Z</time>
      </trkpt>
      <trkpt lat="42.87425" lon="0.2052">
        <ele>2352</ele>
        <time>2019-07-19T13:24:02Z</time>
      </trkpt>
      <trkpt lat="42.87425" lon="0.20518">
        <ele>2352.96</ele>
        <time>2019-07-19T13:24:03Z</time>
      </trkpt>
      <trkpt lat="42.87431" lon="0.20511">
        <ele>2351.04</ele>
        <time>2019-07-19T13:24:10Z</time>
      </trkpt>
      <trkpt lat="42.8744" lon="0.20512">
        <ele>2350.56</ele>
        <time>2019-07-19T13:24:16Z</time>
      </trkpt>
      <trkpt lat="42.87451" lon="0.20508">
        <ele>2347.2</ele>
        <time>2019-07-19T13:24:25Z</time>
      </trkpt>
      <trkpt lat="42.8745" lon="0.20515">
        <ele>2344.79</ele>
        <time>2019-07-19T13:24:32Z</time>
      </trkpt>
      <trkpt lat="42.87448" lon="0.20517">
        <ele>2344.79</ele>
        <time>2019-07-19T13:24:35Z</time>
      </trkpt>
      <trkpt lat="42.87446" lon="0.20522">
        <ele>2343.35</ele>
        <time>2019-07-19T13:24:38Z</time>
      </trkpt>
      <trkpt lat="42.87446" lon="0.20527">
        <ele>2342.39</ele>
        <time>2019-07-19T13:24:41Z</time>
      </trkpt>
      <trkpt lat="42.87449" lon="0.20532">
        <ele>2342.87</ele>
        <time>2019-07-19T13:24:45Z</time>
      </trkpt>
      <trkpt lat="42.87465" lon="0.20537">
        <ele>2341.91</ele>
        <time>2019-07-19T13:24:57Z</time>
      </trkpt>
      <trkpt lat="42.87473" lon="0.20544">
        <ele>2340.47</ele>
        <time>2019-07-19T13:25:04Z</time>
      </trkpt>
      <trkpt lat="42.87482" lon="0.20548">
        <ele>2340.95</ele>
        <time>2019-07-19T13:25:11Z</time>
      </trkpt>
      <trkpt lat="42.87487" lon="0.2055">
        <ele>2340.47</ele>
        <time>2019-07-19T13:25:14Z</time>
      </trkpt>
      <trkpt lat="42.87493" lon="0.20552">
        <ele>2340.95</ele>
        <time>2019-07-19T13:25:19Z</time>
      </trkpt>
      <trkpt lat="42.87502" lon="0.20557">
        <ele>2339.99</ele>
        <time>2019-07-19T13:25:26Z</time>
      </trkpt>
      <trkpt lat="42.87509" lon="0.20556">
        <ele>2336.62</ele>
        <time>2019-07-19T13:25:33Z</time>
      </trkpt>
      <trkpt lat="42.8751" lon="0.20556">
        <ele>2341.43</ele>
        <time>2019-07-19T13:25:34Z</time>
      </trkpt>
      <trkpt lat="42.87511" lon="0.20556">
        <ele>2339.99</ele>
        <time>2019-07-19T13:25:35Z</time>
      </trkpt>
      <trkpt lat="42.87515" lon="0.20553">
        <ele>2339.99</ele>
        <time>2019-07-19T13:25:39Z</time>
      </trkpt>
      <trkpt lat="42.87518" lon="0.20552">
        <ele>2340.47</ele>
        <time>2019-07-19T13:25:42Z</time>
      </trkpt>
      <trkpt lat="42.87522" lon="0.20551">
        <ele>2339.02</ele>
        <time>2019-07-19T13:25:45Z</time>
      </trkpt>
      <trkpt lat="42.87525" lon="0.20552">
        <ele>2338.54</ele>
        <time>2019-07-19T13:25:50Z</time>
      </trkpt>
      <trkpt lat="42.87529" lon="0.2055">
        <ele>2339.99</ele>
        <time>2019-07-19T13:25:53Z</time>
      </trkpt>
      <trkpt lat="42.87532" lon="0.20548">
        <ele>2339.51</ele>
        <time>2019-07-19T13:25:55Z</time>
      </trkpt>
      <trkpt lat="42.87536" lon="0.20547">
        <ele>2339.99</ele>
        <time>2019-07-19T13:25:58Z</time>
      </trkpt>
      <trkpt lat="42.8754" lon="0.2054">
        <ele>2340.47</ele>
        <time>2019-07-19T13:26:02Z</time>
      </trkpt>
      <trkpt lat="42.87543" lon="0.20538">
        <ele>2339.02</ele>
        <time>2019-07-19T13:26:04Z</time>
      </trkpt>
      <trkpt lat="42.87555" lon="0.20536">
        <ele>2339.51</ele>
        <time>2019-07-19T13:26:11Z</time>
      </trkpt>
      <trkpt lat="42.87563" lon="0.20538">
        <ele>2339.99</ele>
        <time>2019-07-19T13:26:16Z</time>
      </trkpt>
      <trkpt lat="42.87564" lon="0.2054">
        <ele>2339.51</ele>
        <time>2019-07-19T13:26:17Z</time>
      </trkpt>
      <trkpt lat="42.8758" lon="0.20548">
        <ele>2339.51</ele>
        <time>2019-07-19T13:26:26Z</time>
      </trkpt>
      <trkpt lat="42.87588" lon="0.20554">
        <ele>2339.02</ele>
        <time>2019-07-19T13:26:34Z</time>
      </trkpt>
      <trkpt lat="42.8759" lon="0.20556">
        <ele>2338.54</ele>
        <time>2019-07-19T13:26:37Z</time>
      </trkpt>
      <trkpt lat="42.87592" lon="0.2056">
        <ele>2337.58</ele>
        <time>2019-07-19T13:26:41Z</time>
      </trkpt>
      <trkpt lat="42.87593" lon="0.20564">
        <ele>2336.62</ele>
        <time>2019-07-19T13:26:44Z</time>
      </trkpt>
      <trkpt lat="42.87595" lon="0.2057">
        <ele>2333.74</ele>
        <time>2019-07-19T13:26:47Z</time>
      </trkpt>
      <trkpt lat="42.87595" lon="0.20576">
        <ele>2335.18</ele>
        <time>2019-07-19T13:26:51Z</time>
      </trkpt>
      <trkpt lat="42.87597" lon="0.20578">
        <ele>2333.74</ele>
        <time>2019-07-19T13:26:54Z</time>
      </trkpt>
      <trkpt lat="42.87605" lon="0.2059">
        <ele>2331.33</ele>
        <time>2019-07-19T13:27:05Z</time>
      </trkpt>
      <trkpt lat="42.87607" lon="0.20592">
        <ele>2329.89</ele>
        <time>2019-07-19T13:27:08Z</time>
      </trkpt>
      <trkpt lat="42.87613" lon="0.20592">
        <ele>2329.89</ele>
        <time>2019-07-19T13:27:13Z</time>
      </trkpt>
      <trkpt lat="42.87618" lon="0.20592">
        <ele>2329.41</ele>
        <time>2019-07-19T13:27:20Z</time>
      </trkpt>
      <trkpt lat="42.8762" lon="0.20592">
        <ele>2328.93</ele>
        <time>2019-07-19T13:27:22Z</time>
      </trkpt>
      <trkpt lat="42.8763" lon="0.20588">
        <ele>2327.49</ele>
        <time>2019-07-19T13:27:34Z</time>
      </trkpt>
      <trkpt lat="42.87639" lon="0.20585">
        <ele>2326.53</ele>
        <time>2019-07-19T13:27:45Z</time>
      </trkpt>
      <trkpt lat="42.8765" lon="0.20577">
        <ele>2324.12</ele>
        <time>2019-07-19T13:27:56Z</time>
      </trkpt>
      <trkpt lat="42.87654" lon="0.20571">
        <ele>2322.2</ele>
        <time>2019-07-19T13:28:04Z</time>
      </trkpt>
      <trkpt lat="42.87667" lon="0.20558">
        <ele>2321.72</ele>
        <time>2019-07-19T13:28:18Z</time>
      </trkpt>
      <trkpt lat="42.87673" lon="0.20556">
        <ele>2321.24</ele>
        <time>2019-07-19T13:28:23Z</time>
      </trkpt>
      <trkpt lat="42.87677" lon="0.20552">
        <ele>2319.8</ele>
        <time>2019-07-19T13:28:28Z</time>
      </trkpt>
      <trkpt lat="42.87682" lon="0.20552">
        <ele>2316.43</ele>
        <time>2019-07-19T13:28:35Z</time>
      </trkpt>
      <trkpt lat="42.87686" lon="0.20547">
        <ele>2313.55</ele>
        <time>2019-07-19T13:28:48Z</time>
      </trkpt>
      <trkpt lat="42.87689" lon="0.20542">
        <ele>2311.15</ele>
        <time>2019-07-19T13:28:55Z</time>
      </trkpt>
      <trkpt lat="42.87697" lon="0.20534">
        <ele>2307.78</ele>
        <time>2019-07-19T13:29:04Z</time>
      </trkpt>
      <trkpt lat="42.87708" lon="0.2052">
        <ele>2304.42</ele>
        <time>2019-07-19T13:29:16Z</time>
      </trkpt>
      <trkpt lat="42.87716" lon="0.20513">
        <ele>2303.46</ele>
        <time>2019-07-19T13:29:25Z</time>
      </trkpt>
      <trkpt lat="42.8772" lon="0.20511">
        <ele>2302.49</ele>
        <time>2019-07-19T13:29:28Z</time>
      </trkpt>
      <trkpt lat="42.87728" lon="0.20508">
        <ele>2302.01</ele>
        <time>2019-07-19T13:29:32Z</time>
      </trkpt>
      <trkpt lat="42.87732" lon="0.20508">
        <ele>2301.05</ele>
        <time>2019-07-19T13:29:34Z</time>
      </trkpt>
      <trkpt lat="42.87741" lon="0.20506">
        <ele>2299.13</ele>
        <time>2019-07-19T13:29:39Z</time>
      </trkpt>
      <trkpt lat="42.87755" lon="0.20487">
        <ele>2295.77</ele>
        <time>2019-07-19T13:29:50Z</time>
      </trkpt>
      <trkpt lat="42.87757" lon="0.20481">
        <ele>2295.28</ele>
        <time>2019-07-19T13:29:53Z</time>
      </trkpt>
      <trkpt lat="42.87764" lon="0.20478">
        <ele>2294.8</ele>
        <time>2019-07-19T13:29:57Z</time>
      </trkpt>
      <trkpt lat="42.87777" lon="0.20465">
        <ele>2292.4</ele>
        <time>2019-07-19T13:30:09Z</time>
      </trkpt>
      <trkpt lat="42.87789" lon="0.20456">
        <ele>2292.4</ele>
        <time>2019-07-19T13:30:17Z</time>
      </trkpt>
      <trkpt lat="42.87794" lon="0.20456">
        <ele>2289.04</ele>
        <time>2019-07-19T13:30:21Z</time>
      </trkpt>
      <trkpt lat="42.87795" lon="0.20456">
        <ele>2293.84</ele>
        <time>2019-07-19T13:30:22Z</time>
      </trkpt>
      <trkpt lat="42.87797" lon="0.20457">
        <ele>2291.92</ele>
        <time>2019-07-19T13:30:23Z</time>
      </trkpt>
      <trkpt lat="42.87804" lon="0.20456">
        <ele>2288.08</ele>
        <time>2019-07-19T13:30:34Z</time>
      </trkpt>
      <trkpt lat="42.87804" lon="0.20456">
        <ele>2294.8</ele>
        <time>2019-07-19T13:30:35Z</time>
      </trkpt>
      <trkpt lat="42.87804" lon="0.20456">
        <ele>2291.44</ele>
        <time>2019-07-19T13:30:36Z</time>
      </trkpt>
      <trkpt lat="42.87808" lon="0.20453">
        <ele>2289.52</ele>
        <time>2019-07-19T13:30:42Z</time>
      </trkpt>
      <trkpt lat="42.87813" lon="0.20446">
        <ele>2285.67</ele>
        <time>2019-07-19T13:30:53Z</time>
      </trkpt>
      <trkpt lat="42.87817" lon="0.20442">
        <ele>2282.79</ele>
        <time>2019-07-19T13:31:02Z</time>
      </trkpt>
      <trkpt lat="42.87824" lon="0.20449">
        <ele>2279.9</ele>
        <time>2019-07-19T13:31:11Z</time>
      </trkpt>
      <trkpt lat="42.87834" lon="0.20441">
        <ele>2277.5</ele>
        <time>2019-07-19T13:31:18Z</time>
      </trkpt>
      <trkpt lat="42.87848" lon="0.2042">
        <ele>2275.1</ele>
        <time>2019-07-19T13:31:33Z</time>
      </trkpt>
      <trkpt lat="42.8785" lon="0.20415">
        <ele>2274.62</ele>
        <time>2019-07-19T13:31:36Z</time>
      </trkpt>
      <trkpt lat="42.87862" lon="0.20402">
        <ele>2275.1</ele>
        <time>2019-07-19T13:31:47Z</time>
      </trkpt>
      <trkpt lat="42.8787" lon="0.20398">
        <ele>2272.69</ele>
        <time>2019-07-19T13:31:52Z</time>
      </trkpt>
      <trkpt lat="42.87879" lon="0.20398">
        <ele>2272.21</ele>
        <time>2019-07-19T13:31:57Z</time>
      </trkpt>
      <trkpt lat="42.87882" lon="0.20397">
        <ele>2273.66</ele>
        <time>2019-07-19T13:31:59Z</time>
      </trkpt>
      <trkpt lat="42.87885" lon="0.20396">
        <ele>2272.69</ele>
        <time>2019-07-19T13:32:01Z</time>
      </trkpt>
      <trkpt lat="42.87888" lon="0.20397">
        <ele>2271.73</ele>
        <time>2019-07-19T13:32:03Z</time>
      </trkpt>
      <trkpt lat="42.87899" lon="0.20409">
        <ele>2270.77</ele>
        <time>2019-07-19T13:32:15Z</time>
      </trkpt>
      <trkpt lat="42.879" lon="0.20413">
        <ele>2269.33</ele>
        <time>2019-07-19T13:32:19Z</time>
      </trkpt>
      <trkpt lat="42.87912" lon="0.20404">
        <ele>2267.89</ele>
        <time>2019-07-19T13:32:33Z</time>
      </trkpt>
      <trkpt lat="42.87912" lon="0.20403">
        <ele>2267.41</ele>
        <time>2019-07-19T13:32:34Z</time>
      </trkpt>
      <trkpt lat="42.87915" lon="0.20407">
        <ele>2265.96</ele>
        <time>2019-07-19T13:32:39Z</time>
      </trkpt>
      <trkpt lat="42.87912" lon="0.20417">
        <ele>2265</ele>
        <time>2019-07-19T13:32:46Z</time>
      </trkpt>
      <trkpt lat="42.87913" lon="0.20423">
        <ele>2263.56</ele>
        <time>2019-07-19T13:32:52Z</time>
      </trkpt>
      <trkpt lat="42.87918" lon="0.2042">
        <ele>2262.6</ele>
        <time>2019-07-19T13:32:57Z</time>
      </trkpt>
      <trkpt lat="42.87921" lon="0.20418">
        <ele>2262.12</ele>
        <time>2019-07-19T13:33:00Z</time>
      </trkpt>
      <trkpt lat="42.87927" lon="0.20429">
        <ele>2257.79</ele>
        <time>2019-07-19T13:33:13Z</time>
      </trkpt>
      <trkpt lat="42.87928" lon="0.2043">
        <ele>2257.31</ele>
        <time>2019-07-19T13:33:16Z</time>
      </trkpt>
      <trkpt lat="42.87934" lon="0.20437">
        <ele>2256.83</ele>
        <time>2019-07-19T13:33:21Z</time>
      </trkpt>
      <trkpt lat="42.87937" lon="0.20445">
        <ele>2255.39</ele>
        <time>2019-07-19T13:33:27Z</time>
      </trkpt>
      <trkpt lat="42.87937" lon="0.20458">
        <ele>2253.47</ele>
        <time>2019-07-19T13:33:36Z</time>
      </trkpt>
      <trkpt lat="42.87938" lon="0.20462">
        <ele>2252.03</ele>
        <time>2019-07-19T13:33:39Z</time>
      </trkpt>
      <trkpt lat="42.87938" lon="0.20477">
        <ele>2251.06</ele>
        <time>2019-07-19T13:33:49Z</time>
      </trkpt>
      <trkpt lat="42.87939" lon="0.20484">
        <ele>2249.14</ele>
        <time>2019-07-19T13:33:55Z</time>
      </trkpt>
      <trkpt lat="42.87941" lon="0.2049">
        <ele>2246.26</ele>
        <time>2019-07-19T13:34:03Z</time>
      </trkpt>
      <trkpt lat="42.87946" lon="0.20505">
        <ele>2245.78</ele>
        <time>2019-07-19T13:34:13Z</time>
      </trkpt>
      <trkpt lat="42.87949" lon="0.20504">
        <ele>2247.22</ele>
        <time>2019-07-19T13:34:17Z</time>
      </trkpt>
      <trkpt lat="42.87955" lon="0.20504">
        <ele>2246.26</ele>
        <time>2019-07-19T13:34:21Z</time>
      </trkpt>
      <trkpt lat="42.87957" lon="0.20518">
        <ele>2243.85</ele>
        <time>2019-07-19T13:34:31Z</time>
      </trkpt>
      <trkpt lat="42.87963" lon="0.20528">
        <ele>2242.41</ele>
        <time>2019-07-19T13:34:39Z</time>
      </trkpt>
      <trkpt lat="42.87965" lon="0.20537">
        <ele>2241.45</ele>
        <time>2019-07-19T13:34:46Z</time>
      </trkpt>
      <trkpt lat="42.87967" lon="0.20542">
        <ele>2240.97</ele>
        <time>2019-07-19T13:34:50Z</time>
      </trkpt>
      <trkpt lat="42.87967" lon="0.20546">
        <ele>2240.97</ele>
        <time>2019-07-19T13:34:52Z</time>
      </trkpt>
      <trkpt lat="42.8797" lon="0.20556">
        <ele>2241.45</ele>
        <time>2019-07-19T13:34:57Z</time>
      </trkpt>
      <trkpt lat="42.87976" lon="0.20564">
        <ele>2241.93</ele>
        <time>2019-07-19T13:35:03Z</time>
      </trkpt>
      <trkpt lat="42.87982" lon="0.20567">
        <ele>2242.41</ele>
        <time>2019-07-19T13:35:08Z</time>
      </trkpt>
      <trkpt lat="42.87994" lon="0.20568">
        <ele>2243.37</ele>
        <time>2019-07-19T13:35:17Z</time>
      </trkpt>
      <trkpt lat="42.87996" lon="0.20568">
        <ele>2242.41</ele>
        <time>2019-07-19T13:35:19Z</time>
      </trkpt>
      <trkpt lat="42.88002" lon="0.20565">
        <ele>2240.49</ele>
        <time>2019-07-19T13:35:28Z</time>
      </trkpt>
      <trkpt lat="42.8801" lon="0.20575">
        <ele>2238.57</ele>
        <time>2019-07-19T13:35:38Z</time>
      </trkpt>
      <trkpt lat="42.88013" lon="0.20575">
        <ele>2237.61</ele>
        <time>2019-07-19T13:35:40Z</time>
      </trkpt>
      <trkpt lat="42.88014" lon="0.20578">
        <ele>2235.68</ele>
        <time>2019-07-19T13:35:44Z</time>
      </trkpt>
      <trkpt lat="42.88022" lon="0.20572">
        <ele>2236.64</ele>
        <time>2019-07-19T13:35:49Z</time>
      </trkpt>
      <trkpt lat="42.88025" lon="0.20572">
        <ele>2239.05</ele>
        <time>2019-07-19T13:35:51Z</time>
      </trkpt>
      <trkpt lat="42.88041" lon="0.20566">
        <ele>2237.61</ele>
        <time>2019-07-19T13:36:06Z</time>
      </trkpt>
      <trkpt lat="42.88048" lon="0.20565">
        <ele>2235.68</ele>
        <time>2019-07-19T13:36:13Z</time>
      </trkpt>
      <trkpt lat="42.88052" lon="0.20566">
        <ele>2236.16</ele>
        <time>2019-07-19T13:36:16Z</time>
      </trkpt>
      <trkpt lat="42.88056" lon="0.20568">
        <ele>2235.2</ele>
        <time>2019-07-19T13:36:19Z</time>
      </trkpt>
      <trkpt lat="42.88061" lon="0.20566">
        <ele>2237.13</ele>
        <time>2019-07-19T13:36:22Z</time>
      </trkpt>
      <trkpt lat="42.88066" lon="0.20571">
        <ele>2236.16</ele>
        <time>2019-07-19T13:36:26Z</time>
      </trkpt>
      <trkpt lat="42.88076" lon="0.20574">
        <ele>2234.72</ele>
        <time>2019-07-19T13:36:36Z</time>
      </trkpt>
      <trkpt lat="42.88078" lon="0.20574">
        <ele>2234.72</ele>
        <time>2019-07-19T13:36:38Z</time>
      </trkpt>
      <trkpt lat="42.88089" lon="0.20571">
        <ele>2231.36</ele>
        <time>2019-07-19T13:36:47Z</time>
      </trkpt>
      <trkpt lat="42.88098" lon="0.20561">
        <ele>2228.95</ele>
        <time>2019-07-19T13:36:57Z</time>
      </trkpt>
      <trkpt lat="42.88102" lon="0.20559">
        <ele>2228.95</ele>
        <time>2019-07-19T13:37:01Z</time>
      </trkpt>
      <trkpt lat="42.88107" lon="0.20556">
        <ele>2227.99</ele>
        <time>2019-07-19T13:37:07Z</time>
      </trkpt>
      <trkpt lat="42.88109" lon="0.20552">
        <ele>2228.47</ele>
        <time>2019-07-19T13:37:09Z</time>
      </trkpt>
      <trkpt lat="42.8811" lon="0.2055">
        <ele>2227.03</ele>
        <time>2019-07-19T13:37:11Z</time>
      </trkpt>
      <trkpt lat="42.88113" lon="0.20545">
        <ele>2227.99</ele>
        <time>2019-07-19T13:37:15Z</time>
      </trkpt>
      <trkpt lat="42.88124" lon="0.20542">
        <ele>2225.59</ele>
        <time>2019-07-19T13:37:22Z</time>
      </trkpt>
      <trkpt lat="42.88125" lon="0.20541">
        <ele>2229.43</ele>
        <time>2019-07-19T13:37:23Z</time>
      </trkpt>
      <trkpt lat="42.88127" lon="0.20541">
        <ele>2227.03</ele>
        <time>2019-07-19T13:37:24Z</time>
      </trkpt>
      <trkpt lat="42.88131" lon="0.20541">
        <ele>2225.11</ele>
        <time>2019-07-19T13:37:27Z</time>
      </trkpt>
      <trkpt lat="42.88133" lon="0.20539">
        <ele>2227.51</ele>
        <time>2019-07-19T13:37:29Z</time>
      </trkpt>
      <trkpt lat="42.88136" lon="0.20537">
        <ele>2227.03</ele>
        <time>2019-07-19T13:37:32Z</time>
      </trkpt>
      <trkpt lat="42.88141" lon="0.20538">
        <ele>2225.59</ele>
        <time>2019-07-19T13:37:36Z</time>
      </trkpt>
      <trkpt lat="42.88142" lon="0.20539">
        <ele>2230.4</ele>
        <time>2019-07-19T13:37:37Z</time>
      </trkpt>
      <trkpt lat="42.88145" lon="0.20548">
        <ele>2227.99</ele>
        <time>2019-07-19T13:37:43Z</time>
      </trkpt>
      <trkpt lat="42.88146" lon="0.20554">
        <ele>2227.51</ele>
        <time>2019-07-19T13:37:46Z</time>
      </trkpt>
      <trkpt lat="42.88149" lon="0.20563">
        <ele>2227.03</ele>
        <time>2019-07-19T13:37:51Z</time>
      </trkpt>
      <trkpt lat="42.88158" lon="0.20572">
        <ele>2226.07</ele>
        <time>2019-07-19T13:38:01Z</time>
      </trkpt>
      <trkpt lat="42.8817" lon="0.20575">
        <ele>2222.22</ele>
        <time>2019-07-19T13:38:13Z</time>
      </trkpt>
      <trkpt lat="42.88174" lon="0.20575">
        <ele>2222.22</ele>
        <time>2019-07-19T13:38:17Z</time>
      </trkpt>
      <trkpt lat="42.88176" lon="0.20573">
        <ele>2224.15</ele>
        <time>2019-07-19T13:38:19Z</time>
      </trkpt>
      <trkpt lat="42.88181" lon="0.2057">
        <ele>2220.3</ele>
        <time>2019-07-19T13:38:22Z</time>
      </trkpt>
      <trkpt lat="42.88183" lon="0.20569">
        <ele>2224.63</ele>
        <time>2019-07-19T13:38:23Z</time>
      </trkpt>
      <trkpt lat="42.88186" lon="0.20568">
        <ele>2222.71</ele>
        <time>2019-07-19T13:38:26Z</time>
      </trkpt>
      <trkpt lat="42.88193" lon="0.20559">
        <ele>2222.22</ele>
        <time>2019-07-19T13:38:33Z</time>
      </trkpt>
      <trkpt lat="42.88203" lon="0.20552">
        <ele>2220.3</ele>
        <time>2019-07-19T13:38:45Z</time>
      </trkpt>
      <trkpt lat="42.88203" lon="0.20551">
        <ele>2220.78</ele>
        <time>2019-07-19T13:38:46Z</time>
      </trkpt>
      <trkpt lat="42.88209" lon="0.20541">
        <ele>2219.34</ele>
        <time>2019-07-19T13:38:56Z</time>
      </trkpt>
      <trkpt lat="42.88209" lon="0.20527">
        <ele>2215.5</ele>
        <time>2019-07-19T13:39:05Z</time>
      </trkpt>
      <trkpt lat="42.8821" lon="0.20523">
        <ele>2216.46</ele>
        <time>2019-07-19T13:39:08Z</time>
      </trkpt>
      <trkpt lat="42.8821" lon="0.20515">
        <ele>2218.86</ele>
        <time>2019-07-19T13:39:14Z</time>
      </trkpt>
      <trkpt lat="42.8821" lon="0.20514">
        <ele>2215.98</ele>
        <time>2019-07-19T13:39:15Z</time>
      </trkpt>
      <trkpt lat="42.88207" lon="0.20505">
        <ele>2217.9</ele>
        <time>2019-07-19T13:39:21Z</time>
      </trkpt>
      <trkpt lat="42.88213" lon="0.20501">
        <ele>2220.3</ele>
        <time>2019-07-19T13:39:32Z</time>
      </trkpt>
      <trkpt lat="42.88216" lon="0.20505">
        <ele>2218.38</ele>
        <time>2019-07-19T13:39:36Z</time>
      </trkpt>
      <trkpt lat="42.88217" lon="0.20505">
        <ele>2218.38</ele>
        <time>2019-07-19T13:39:41Z</time>
      </trkpt>
      <trkpt lat="42.88218" lon="0.20506">
        <ele>2218.38</ele>
        <time>2019-07-19T13:39:44Z</time>
      </trkpt>
      <trkpt lat="42.8822" lon="0.20508">
        <ele>2217.42</ele>
        <time>2019-07-19T13:39:47Z</time>
      </trkpt>
      <trkpt lat="42.8822" lon="0.20511">
        <ele>2216.94</ele>
        <time>2019-07-19T13:39:52Z</time>
      </trkpt>
      <trkpt lat="42.88223" lon="0.20514">
        <ele>2216.46</ele>
        <time>2019-07-19T13:39:56Z</time>
      </trkpt>
      <trkpt lat="42.88226" lon="0.20522">
        <ele>2214.53</ele>
        <time>2019-07-19T13:40:03Z</time>
      </trkpt>
      <trkpt lat="42.88239" lon="0.20529">
        <ele>2212.13</ele>
        <time>2019-07-19T13:40:16Z</time>
      </trkpt>
      <trkpt lat="42.88242" lon="0.20533">
        <ele>2210.21</ele>
        <time>2019-07-19T13:40:22Z</time>
      </trkpt>
      <trkpt lat="42.88248" lon="0.20535">
        <ele>2207.81</ele>
        <time>2019-07-19T13:40:30Z</time>
      </trkpt>
      <trkpt lat="42.88255" lon="0.20532">
        <ele>2207.32</ele>
        <time>2019-07-19T13:40:36Z</time>
      </trkpt>
      <trkpt lat="42.88261" lon="0.20525">
        <ele>2207.81</ele>
        <time>2019-07-19T13:40:42Z</time>
      </trkpt>
      <trkpt lat="42.88264" lon="0.20524">
        <ele>2207.32</ele>
        <time>2019-07-19T13:40:45Z</time>
      </trkpt>
      <trkpt lat="42.88274" lon="0.20516">
        <ele>2206.84</ele>
        <time>2019-07-19T13:40:54Z</time>
      </trkpt>
      <trkpt lat="42.88279" lon="0.2052">
        <ele>2207.32</ele>
        <time>2019-07-19T13:40:59Z</time>
      </trkpt>
      <trkpt lat="42.88286" lon="0.20518">
        <ele>2205.88</ele>
        <time>2019-07-19T13:41:05Z</time>
      </trkpt>
      <trkpt lat="42.88294" lon="0.20516">
        <ele>2205.88</ele>
        <time>2019-07-19T13:41:10Z</time>
      </trkpt>
      <trkpt lat="42.88297" lon="0.20515">
        <ele>2205.4</ele>
        <time>2019-07-19T13:41:12Z</time>
      </trkpt>
      <trkpt lat="42.88306" lon="0.20516">
        <ele>2204.92</ele>
        <time>2019-07-19T13:41:20Z</time>
      </trkpt>
      <trkpt lat="42.88321" lon="0.20515">
        <ele>2203.48</ele>
        <time>2019-07-19T13:41:30Z</time>
      </trkpt>
      <trkpt lat="42.88329" lon="0.20513">
        <ele>2203</ele>
        <time>2019-07-19T13:41:37Z</time>
      </trkpt>
      <trkpt lat="42.88335" lon="0.20512">
        <ele>2201.56</ele>
        <time>2019-07-19T13:41:44Z</time>
      </trkpt>
      <trkpt lat="42.88338" lon="0.20514">
        <ele>2199.63</ele>
        <time>2019-07-19T13:41:50Z</time>
      </trkpt>
      <trkpt lat="42.88346" lon="0.20511">
        <ele>2197.71</ele>
        <time>2019-07-19T13:42:00Z</time>
      </trkpt>
      <trkpt lat="42.88348" lon="0.2051">
        <ele>2197.71</ele>
        <time>2019-07-19T13:42:02Z</time>
      </trkpt>
      <trkpt lat="42.88351" lon="0.2051">
        <ele>2196.27</ele>
        <time>2019-07-19T13:42:05Z</time>
      </trkpt>
      <trkpt lat="42.88353" lon="0.20509">
        <ele>2195.31</ele>
        <time>2019-07-19T13:42:12Z</time>
      </trkpt>
      <trkpt lat="42.8836" lon="0.20505">
        <ele>2192.42</ele>
        <time>2019-07-19T13:42:24Z</time>
      </trkpt>
      <trkpt lat="42.88365" lon="0.20505">
        <ele>2191.46</ele>
        <time>2019-07-19T13:42:30Z</time>
      </trkpt>
      <trkpt lat="42.88377" lon="0.205">
        <ele>2188.1</ele>
        <time>2019-07-19T13:42:42Z</time>
      </trkpt>
      <trkpt lat="42.88378" lon="0.20502">
        <ele>2187.62</ele>
        <time>2019-07-19T13:42:44Z</time>
      </trkpt>
      <trkpt lat="42.88381" lon="0.205">
        <ele>2187.62</ele>
        <time>2019-07-19T13:42:47Z</time>
      </trkpt>
      <trkpt lat="42.88387" lon="0.20484">
        <ele>2186.18</ele>
        <time>2019-07-19T13:42:58Z</time>
      </trkpt>
      <trkpt lat="42.88388" lon="0.20467">
        <ele>2186.18</ele>
        <time>2019-07-19T13:43:07Z</time>
      </trkpt>
      <trkpt lat="42.88392" lon="0.20459">
        <ele>2186.66</ele>
        <time>2019-07-19T13:43:13Z</time>
      </trkpt>
      <trkpt lat="42.88395" lon="0.20452">
        <ele>2186.18</ele>
        <time>2019-07-19T13:43:18Z</time>
      </trkpt>
      <trkpt lat="42.88402" lon="0.20439">
        <ele>2184.25</ele>
        <time>2019-07-19T13:43:28Z</time>
      </trkpt>
      <trkpt lat="42.88403" lon="0.20438">
        <ele>2185.21</ele>
        <time>2019-07-19T13:43:30Z</time>
      </trkpt>
      <trkpt lat="42.88405" lon="0.20432">
        <ele>2186.66</ele>
        <time>2019-07-19T13:43:35Z</time>
      </trkpt>
      <trkpt lat="42.88412" lon="0.20423">
        <ele>2185.21</ele>
        <time>2019-07-19T13:43:47Z</time>
      </trkpt>
      <trkpt lat="42.88417" lon="0.20424">
        <ele>2184.25</ele>
        <time>2019-07-19T13:43:54Z</time>
      </trkpt>
      <trkpt lat="42.88418" lon="0.20429">
        <ele>2181.85</ele>
        <time>2019-07-19T13:44:02Z</time>
      </trkpt>
      <trkpt lat="42.88424" lon="0.20433">
        <ele>2178.97</ele>
        <time>2019-07-19T13:44:10Z</time>
      </trkpt>
      <trkpt lat="42.88427" lon="0.20435">
        <ele>2177.52</ele>
        <time>2019-07-19T13:44:14Z</time>
      </trkpt>
      <trkpt lat="42.88436" lon="0.2044">
        <ele>2174.64</ele>
        <time>2019-07-19T13:44:25Z</time>
      </trkpt>
      <trkpt lat="42.8845" lon="0.20445">
        <ele>2172.24</ele>
        <time>2019-07-19T13:44:35Z</time>
      </trkpt>
      <trkpt lat="42.88452" lon="0.20445">
        <ele>2171.76</ele>
        <time>2019-07-19T13:44:37Z</time>
      </trkpt>
      <trkpt lat="42.8845" lon="0.20448">
        <ele>2170.31</ele>
        <time>2019-07-19T13:44:40Z</time>
      </trkpt>
      <trkpt lat="42.88445" lon="0.20453">
        <ele>2168.87</ele>
        <time>2019-07-19T13:44:45Z</time>
      </trkpt>
      <trkpt lat="42.88443" lon="0.20458">
        <ele>2167.43</ele>
        <time>2019-07-19T13:44:48Z</time>
      </trkpt>
      <trkpt lat="42.88442" lon="0.20462">
        <ele>2166.95</ele>
        <time>2019-07-19T13:44:51Z</time>
      </trkpt>
      <trkpt lat="42.8844" lon="0.20467">
        <ele>2165.51</ele>
        <time>2019-07-19T13:44:57Z</time>
      </trkpt>
      <trkpt lat="42.8844" lon="0.20471">
        <ele>2164.06</ele>
        <time>2019-07-19T13:45:00Z</time>
      </trkpt>
      <trkpt lat="42.88439" lon="0.20472">
        <ele>2163.58</ele>
        <time>2019-07-19T13:45:01Z</time>
      </trkpt>
      <trkpt lat="42.88448" lon="0.20475">
        <ele>2161.18</ele>
        <time>2019-07-19T13:45:11Z</time>
      </trkpt>
      <trkpt lat="42.88448" lon="0.20475">
        <ele>2160.7</ele>
        <time>2019-07-19T13:45:12Z</time>
      </trkpt>
      <trkpt lat="42.88451" lon="0.20481">
        <ele>2158.3</ele>
        <time>2019-07-19T13:45:19Z</time>
      </trkpt>
      <trkpt lat="42.88453" lon="0.20484">
        <ele>2157.34</ele>
        <time>2019-07-19T13:45:22Z</time>
      </trkpt>
      <trkpt lat="42.88457" lon="0.20486">
        <ele>2156.37</ele>
        <time>2019-07-19T13:45:29Z</time>
      </trkpt>
      <trkpt lat="42.88468" lon="0.20484">
        <ele>2153.97</ele>
        <time>2019-07-19T13:45:39Z</time>
      </trkpt>
      <trkpt lat="42.88473" lon="0.20485">
        <ele>2151.57</ele>
        <time>2019-07-19T13:45:44Z</time>
      </trkpt>
      <trkpt lat="42.88479" lon="0.20485">
        <ele>2150.61</ele>
        <time>2019-07-19T13:45:48Z</time>
      </trkpt>
      <trkpt lat="42.88478" lon="0.20491">
        <ele>2149.65</ele>
        <time>2019-07-19T13:45:52Z</time>
      </trkpt>
      <trkpt lat="42.88475" lon="0.20498">
        <ele>2148.68</ele>
        <time>2019-07-19T13:45:56Z</time>
      </trkpt>
      <trkpt lat="42.88471" lon="0.20505">
        <ele>2147.72</ele>
        <time>2019-07-19T13:46:03Z</time>
      </trkpt>
      <trkpt lat="42.88466" lon="0.20515">
        <ele>2144.84</ele>
        <time>2019-07-19T13:46:14Z</time>
      </trkpt>
      <trkpt lat="42.88467" lon="0.20515">
        <ele>2144.84</ele>
        <time>2019-07-19T13:46:15Z</time>
      </trkpt>
      <trkpt lat="42.88472" lon="0.20522">
        <ele>2141.95</ele>
        <time>2019-07-19T13:46:25Z</time>
      </trkpt>
      <trkpt lat="42.88475" lon="0.20524">
        <ele>2138.59</ele>
        <time>2019-07-19T13:46:36Z</time>
      </trkpt>
      <trkpt lat="42.88479" lon="0.20527">
        <ele>2137.15</ele>
        <time>2019-07-19T13:46:45Z</time>
      </trkpt>
      <trkpt lat="42.88481" lon="0.20526">
        <ele>2136.67</ele>
        <time>2019-07-19T13:46:47Z</time>
      </trkpt>
      <trkpt lat="42.88483" lon="0.20529">
        <ele>2135.71</ele>
        <time>2019-07-19T13:46:50Z</time>
      </trkpt>
      <trkpt lat="42.88487" lon="0.20531">
        <ele>2135.71</ele>
        <time>2019-07-19T13:46:54Z</time>
      </trkpt>
      <trkpt lat="42.88492" lon="0.20546">
        <ele>2134.74</ele>
        <time>2019-07-19T13:47:03Z</time>
      </trkpt>
      <trkpt lat="42.88496" lon="0.20549">
        <ele>2134.74</ele>
        <time>2019-07-19T13:47:07Z</time>
      </trkpt>
      <trkpt lat="42.88501" lon="0.2055">
        <ele>2135.23</ele>
        <time>2019-07-19T13:47:11Z</time>
      </trkpt>
      <trkpt lat="42.88505" lon="0.20552">
        <ele>2135.71</ele>
        <time>2019-07-19T13:47:15Z</time>
      </trkpt>
      <trkpt lat="42.8851" lon="0.20551">
        <ele>2136.19</ele>
        <time>2019-07-19T13:47:20Z</time>
      </trkpt>
      <trkpt lat="42.88517" lon="0.20551">
        <ele>2137.15</ele>
        <time>2019-07-19T13:47:26Z</time>
      </trkpt>
      <trkpt lat="42.88523" lon="0.20554">
        <ele>2138.59</ele>
        <time>2019-07-19T13:47:33Z</time>
      </trkpt>
      <trkpt lat="42.88525" lon="0.20551">
        <ele>2139.55</ele>
        <time>2019-07-19T13:47:35Z</time>
      </trkpt>
      <trkpt lat="42.88526" lon="0.20551">
        <ele>2139.55</ele>
        <time>2019-07-19T13:47:36Z</time>
      </trkpt>
      <trkpt lat="42.88535" lon="0.20551">
        <ele>2137.15</ele>
        <time>2019-07-19T13:47:45Z</time>
      </trkpt>
      <trkpt lat="42.88541" lon="0.20551">
        <ele>2135.23</ele>
        <time>2019-07-19T13:47:53Z</time>
      </trkpt>
      <trkpt lat="42.88544" lon="0.2055">
        <ele>2134.74</ele>
        <time>2019-07-19T13:47:58Z</time>
      </trkpt>
      <trkpt lat="42.88546" lon="0.20545">
        <ele>2132.34</ele>
        <time>2019-07-19T13:48:04Z</time>
      </trkpt>
      <trkpt lat="42.88553" lon="0.20545">
        <ele>2130.42</ele>
        <time>2019-07-19T13:48:10Z</time>
      </trkpt>
      <trkpt lat="42.88557" lon="0.20551">
        <ele>2129.46</ele>
        <time>2019-07-19T13:48:15Z</time>
      </trkpt>
      <trkpt lat="42.88563" lon="0.20549">
        <ele>2128.98</ele>
        <time>2019-07-19T13:48:20Z</time>
      </trkpt>
      <trkpt lat="42.88574" lon="0.20544">
        <ele>2128.02</ele>
        <time>2019-07-19T13:48:30Z</time>
      </trkpt>
      <trkpt lat="42.88574" lon="0.20543">
        <ele>2128.02</ele>
        <time>2019-07-19T13:48:31Z</time>
      </trkpt>
      <trkpt lat="42.88583" lon="0.20536">
        <ele>2125.61</ele>
        <time>2019-07-19T13:48:40Z</time>
      </trkpt>
      <trkpt lat="42.88587" lon="0.20533">
        <ele>2125.61</ele>
        <time>2019-07-19T13:48:43Z</time>
      </trkpt>
      <trkpt lat="42.88595" lon="0.20528">
        <ele>2123.69</ele>
        <time>2019-07-19T13:48:51Z</time>
      </trkpt>
      <trkpt lat="42.886" lon="0.20526">
        <ele>2123.69</ele>
        <time>2019-07-19T13:49:03Z</time>
      </trkpt>
      <trkpt lat="42.88602" lon="0.20526">
        <ele>2124.17</ele>
        <time>2019-07-19T13:49:20Z</time>
      </trkpt>
      <trkpt lat="42.88603" lon="0.20525">
        <ele>2124.17</ele>
        <time>2019-07-19T13:49:33Z</time>
      </trkpt>
      <trkpt lat="42.88607" lon="0.20526">
        <ele>2124.17</ele>
        <time>2019-07-19T13:49:47Z</time>
      </trkpt>
      <trkpt lat="42.88608" lon="0.20524">
        <ele>2124.17</ele>
        <time>2019-07-19T13:49:51Z</time>
      </trkpt>
      <trkpt lat="42.88604" lon="0.20518">
        <ele>2124.17</ele>
        <time>2019-07-19T13:50:03Z</time>
      </trkpt>
      <trkpt lat="42.88601" lon="0.20512">
        <ele>2122.73</ele>
        <time>2019-07-19T13:50:13Z</time>
      </trkpt>
      <trkpt lat="42.886" lon="0.20512">
        <ele>2122.25</ele>
        <time>2019-07-19T13:50:37Z</time>
      </trkpt>
      <trkpt lat="42.88599" lon="0.20512">
        <ele>2121.29</ele>
        <time>2019-07-19T13:50:48Z</time>
      </trkpt>
      <trkpt lat="42.88599" lon="0.20512">
        <ele>2121.77</ele>
        <time>2019-07-19T13:51:15Z</time>
      </trkpt>
      <trkpt lat="42.88599" lon="0.20511">
        <ele>2120.81</ele>
        <time>2019-07-19T13:51:48Z</time>
      </trkpt>
      <trkpt lat="42.886" lon="0.20512">
        <ele>2121.77</ele>
        <time>2019-07-19T13:52:12Z</time>
      </trkpt>
      <trkpt lat="42.88599" lon="0.20513">
        <ele>2120.81</ele>
        <time>2019-07-19T13:52:36Z</time>
      </trkpt>
      <trkpt lat="42.88599" lon="0.20514">
        <ele>2121.77</ele>
        <time>2019-07-19T13:52:51Z</time>
      </trkpt>
      <trkpt lat="42.88599" lon="0.20512">
        <ele>2121.77</ele>
        <time>2019-07-19T13:53:02Z</time>
      </trkpt>
      <trkpt lat="42.88599" lon="0.2051">
        <ele>2121.29</ele>
        <time>2019-07-19T13:53:19Z</time>
      </trkpt>
      <trkpt lat="42.88601" lon="0.20509">
        <ele>2120.81</ele>
        <time>2019-07-19T13:53:34Z</time>
      </trkpt>
      <trkpt lat="42.88601" lon="0.2051">
        <ele>2118.4</ele>
        <time>2019-07-19T13:53:35Z</time>
      </trkpt>
      <trkpt lat="42.886" lon="0.20511">
        <ele>2122.25</ele>
        <time>2019-07-19T13:53:37Z</time>
      </trkpt>
      <trkpt lat="42.88601" lon="0.2051">
        <ele>2121.29</ele>
        <time>2019-07-19T13:53:45Z</time>
      </trkpt>
      <trkpt lat="42.88601" lon="0.2051">
        <ele>2121.77</ele>
        <time>2019-07-19T13:53:48Z</time>
      </trkpt>
      <trkpt lat="42.88602" lon="0.20513">
        <ele>2121.29</ele>
        <time>2019-07-19T13:53:58Z</time>
      </trkpt>
      <trkpt lat="42.88602" lon="0.20514">
        <ele>2121.29</ele>
        <time>2019-07-19T13:54:13Z</time>
      </trkpt>
      <trkpt lat="42.886" lon="0.20515">
        <ele>2121.77</ele>
        <time>2019-07-19T13:54:30Z</time>
      </trkpt>
      <trkpt lat="42.886" lon="0.20515">
        <ele>2120.81</ele>
        <time>2019-07-19T13:54:47Z</time>
      </trkpt>
      <trkpt lat="42.886" lon="0.20517">
        <ele>2120.81</ele>
        <time>2019-07-19T13:54:57Z</time>
      </trkpt>
      <trkpt lat="42.886" lon="0.20517">
        <ele>2120.81</ele>
        <time>2019-07-19T13:54:58Z</time>
      </trkpt>
      <trkpt lat="42.88601" lon="0.20515">
        <ele>2120.32</ele>
        <time>2019-07-19T13:55:09Z</time>
      </trkpt>
      <trkpt lat="42.88601" lon="0.20515">
        <ele>2120.81</ele>
        <time>2019-07-19T13:55:28Z</time>
      </trkpt>
      <trkpt lat="42.88601" lon="0.20515">
        <ele>2120.32</ele>
        <time>2019-07-19T13:55:29Z</time>
      </trkpt>
      <trkpt lat="42.88602" lon="0.20516">
        <ele>2123.21</ele>
        <time>2019-07-19T13:55:40Z</time>
      </trkpt>
      <trkpt lat="42.88602" lon="0.20516">
        <ele>2120.81</ele>
        <time>2019-07-19T13:55:41Z</time>
      </trkpt>
      <trkpt lat="42.88602" lon="0.20515">
        <ele>2120.32</ele>
        <time>2019-07-19T13:55:51Z</time>
      </trkpt>
      <trkpt lat="42.88601" lon="0.20516">
        <ele>2120.32</ele>
        <time>2019-07-19T13:56:01Z</time>
      </trkpt>
      <trkpt lat="42.88601" lon="0.20516">
        <ele>2120.32</ele>
        <time>2019-07-19T13:56:12Z</time>
      </trkpt>
      <trkpt lat="42.88601" lon="0.20516">
        <ele>2120.32</ele>
        <time>2019-07-19T13:56:37Z</time>
      </trkpt>
      <trkpt lat="42.886" lon="0.20516">
        <ele>2119.84</ele>
        <time>2019-07-19T13:57:04Z</time>
      </trkpt>
      <trkpt lat="42.88601" lon="0.20515">
        <ele>2119.84</ele>
        <time>2019-07-19T13:57:21Z</time>
      </trkpt>
      <trkpt lat="42.88601" lon="0.20515">
        <ele>2119.84</ele>
        <time>2019-07-19T13:57:36Z</time>
      </trkpt>
      <trkpt lat="42.88601" lon="0.20515">
        <ele>2119.84</ele>
        <time>2019-07-19T13:57:53Z</time>
      </trkpt>
      <trkpt lat="42.88601" lon="0.20515">
        <ele>2119.84</ele>
        <time>2019-07-19T13:58:10Z</time>
      </trkpt>
      <trkpt lat="42.88601" lon="0.20515">
        <ele>2119.84</ele>
        <time>2019-07-19T13:58:29Z</time>
      </trkpt>
      <trkpt lat="42.88601" lon="0.20515">
        <ele>2119.36</ele>
        <time>2019-07-19T13:58:49Z</time>
      </trkpt>
      <trkpt lat="42.88602" lon="0.20515">
        <ele>2119.84</ele>
        <time>2019-07-19T13:59:09Z</time>
      </trkpt>
      <trkpt lat="42.88602" lon="0.20515">
        <ele>2119.36</ele>
        <time>2019-07-19T13:59:31Z</time>
      </trkpt>
      <trkpt lat="42.88602" lon="0.20515">
        <ele>2119.84</ele>
        <time>2019-07-19T13:59:44Z</time>
      </trkpt>
      <trkpt lat="42.88601" lon="0.20515">
        <ele>2119.36</ele>
        <time>2019-07-19T14:00:00Z</time>
      </trkpt>
      <trkpt lat="42.88601" lon="0.20515">
        <ele>2118.88</ele>
        <time>2019-07-19T14:00:19Z</time>
      </trkpt>
      <trkpt lat="42.88601" lon="0.20516">
        <ele>2119.36</ele>
        <time>2019-07-19T14:00:33Z</time>
      </trkpt>
      <trkpt lat="42.88603" lon="0.20516">
        <ele>2118.88</ele>
        <time>2019-07-19T14:00:56Z</time>
      </trkpt>
      <trkpt lat="42.88603" lon="0.20515">
        <ele>2118.88</ele>
        <time>2019-07-19T14:01:22Z</time>
      </trkpt>
      <trkpt lat="42.88603" lon="0.20515">
        <ele>2118.88</ele>
        <time>2019-07-19T14:01:37Z</time>
      </trkpt>
      <trkpt lat="42.88603" lon="0.20514">
        <ele>2118.88</ele>
        <time>2019-07-19T14:02:00Z</time>
      </trkpt>
      <trkpt lat="42.88603" lon="0.20515">
        <ele>2118.88</ele>
        <time>2019-07-19T14:02:32Z</time>
      </trkpt>
      <trkpt lat="42.88602" lon="0.20514">
        <ele>2118.4</ele>
        <time>2019-07-19T14:02:48Z</time>
      </trkpt>
      <trkpt lat="42.88602" lon="0.20515">
        <ele>2118.4</ele>
        <time>2019-07-19T14:03:06Z</time>
      </trkpt>
      <trkpt lat="42.88602" lon="0.20515">
        <ele>2118.4</ele>
        <time>2019-07-19T14:03:29Z</time>
      </trkpt>
      <trkpt lat="42.88601" lon="0.20516">
        <ele>2118.4</ele>
        <time>2019-07-19T14:03:53Z</time>
      </trkpt>
      <trkpt lat="42.88601" lon="0.20515">
        <ele>2118.4</ele>
        <time>2019-07-19T14:04:07Z</time>
      </trkpt>
      <trkpt lat="42.88601" lon="0.20516">
        <ele>2118.88</ele>
        <time>2019-07-19T14:04:17Z</time>
      </trkpt>
      <trkpt lat="42.88601" lon="0.20518">
        <ele>2118.88</ele>
        <time>2019-07-19T14:04:41Z</time>
      </trkpt>
      <trkpt lat="42.88601" lon="0.20517">
        <ele>2118.4</ele>
        <time>2019-07-19T14:04:57Z</time>
      </trkpt>
      <trkpt lat="42.88602" lon="0.20517">
        <ele>2118.88</ele>
        <time>2019-07-19T14:05:19Z</time>
      </trkpt>
      <trkpt lat="42.88601" lon="0.20516">
        <ele>2118.4</ele>
        <time>2019-07-19T14:05:39Z</time>
      </trkpt>
      <trkpt lat="42.88601" lon="0.20516">
        <ele>2117.44</ele>
        <time>2019-07-19T14:05:53Z</time>
      </trkpt>
      <trkpt lat="42.88601" lon="0.20516">
        <ele>2119.36</ele>
        <time>2019-07-19T14:05:55Z</time>
      </trkpt>
      <trkpt lat="42.88601" lon="0.20516">
        <ele>2116.48</ele>
        <time>2019-07-19T14:05:57Z</time>
      </trkpt>
      <trkpt lat="42.88601" lon="0.20516">
        <ele>2122.25</ele>
        <time>2019-07-19T14:05:59Z</time>
      </trkpt>
      <trkpt lat="42.88601" lon="0.20516">
        <ele>2118.88</ele>
        <time>2019-07-19T14:06:01Z</time>
      </trkpt>
      <trkpt lat="42.88601" lon="0.20514">
        <ele>2117.92</ele>
        <time>2019-07-19T14:06:03Z</time>
      </trkpt>
      <trkpt lat="42.88602" lon="0.20514">
        <ele>2117.44</ele>
        <time>2019-07-19T14:06:33Z</time>
      </trkpt>
      <trkpt lat="42.88605" lon="0.20522">
        <ele>2118.4</ele>
        <time>2019-07-19T14:06:42Z</time>
      </trkpt>
      <trkpt lat="42.88604" lon="0.20527">
        <ele>2117.92</ele>
        <time>2019-07-19T14:06:55Z</time>
      </trkpt>
      <trkpt lat="42.88604" lon="0.20527">
        <ele>2117.92</ele>
        <time>2019-07-19T14:07:22Z</time>
      </trkpt>
      <trkpt lat="42.88604" lon="0.20527">
        <ele>2117.92</ele>
        <time>2019-07-19T14:07:53Z</time>
      </trkpt>
      <trkpt lat="42.88605" lon="0.20528">
        <ele>2117.92</ele>
        <time>2019-07-19T14:08:29Z</time>
      </trkpt>
      <trkpt lat="42.88605" lon="0.20528">
        <ele>2117.92</ele>
        <time>2019-07-19T14:08:56Z</time>
      </trkpt>
      <trkpt lat="42.88604" lon="0.20528">
        <ele>2118.4</ele>
        <time>2019-07-19T14:09:24Z</time>
      </trkpt>
      <trkpt lat="42.88604" lon="0.20528">
        <ele>2118.4</ele>
        <time>2019-07-19T14:09:34Z</time>
      </trkpt>
      <trkpt lat="42.88601" lon="0.2053">
        <ele>2119.36</ele>
        <time>2019-07-19T14:09:38Z</time>
      </trkpt>
      <trkpt lat="42.88599" lon="0.20529">
        <ele>2115.04</ele>
        <time>2019-07-19T14:09:43Z</time>
      </trkpt>
      <trkpt lat="42.88599" lon="0.20528">
        <ele>2122.73</ele>
        <time>2019-07-19T14:09:44Z</time>
      </trkpt>
      <trkpt lat="42.88599" lon="0.20528">
        <ele>2119.36</ele>
        <time>2019-07-19T14:09:45Z</time>
      </trkpt>
      <trkpt lat="42.88597" lon="0.20529">
        <ele>2119.36</ele>
        <time>2019-07-19T14:09:49Z</time>
      </trkpt>
      <trkpt lat="42.8859" lon="0.20534">
        <ele>2120.32</ele>
        <time>2019-07-19T14:10:00Z</time>
      </trkpt>
      <trkpt lat="42.8858" lon="0.20543">
        <ele>2122.25</ele>
        <time>2019-07-19T14:10:11Z</time>
      </trkpt>
      <trkpt lat="42.88577" lon="0.20545">
        <ele>2122.73</ele>
        <time>2019-07-19T14:10:13Z</time>
      </trkpt>
      <trkpt lat="42.88574" lon="0.20547">
        <ele>2122.73</ele>
        <time>2019-07-19T14:10:17Z</time>
      </trkpt>
      <trkpt lat="42.88564" lon="0.20551">
        <ele>2123.21</ele>
        <time>2019-07-19T14:10:28Z</time>
      </trkpt>
      <trkpt lat="42.88559" lon="0.20553">
        <ele>2123.69</ele>
        <time>2019-07-19T14:10:33Z</time>
      </trkpt>
      <trkpt lat="42.88548" lon="0.20547">
        <ele>2126.09</ele>
        <time>2019-07-19T14:10:46Z</time>
      </trkpt>
      <trkpt lat="42.88547" lon="0.20546">
        <ele>2118.4</ele>
        <time>2019-07-19T14:10:47Z</time>
      </trkpt>
      <trkpt lat="42.88547" lon="0.20546">
        <ele>2132.34</ele>
        <time>2019-07-19T14:10:48Z</time>
      </trkpt>
      <trkpt lat="42.88546" lon="0.20546">
        <ele>2127.53</ele>
        <time>2019-07-19T14:10:49Z</time>
      </trkpt>
      <trkpt lat="42.88544" lon="0.20547">
        <ele>2127.53</ele>
        <time>2019-07-19T14:10:55Z</time>
      </trkpt>
      <trkpt lat="42.88543" lon="0.20548">
        <ele>2128.5</ele>
        <time>2019-07-19T14:10:59Z</time>
      </trkpt>
      <trkpt lat="42.88541" lon="0.20552">
        <ele>2129.46</ele>
        <time>2019-07-19T14:11:02Z</time>
      </trkpt>
      <trkpt lat="42.88536" lon="0.20556">
        <ele>2131.38</ele>
        <time>2019-07-19T14:11:11Z</time>
      </trkpt>
      <trkpt lat="42.88533" lon="0.20561">
        <ele>2130.9</ele>
        <time>2019-07-19T14:11:15Z</time>
      </trkpt>
      <trkpt lat="42.88532" lon="0.20567">
        <ele>2130.9</ele>
        <time>2019-07-19T14:11:26Z</time>
      </trkpt>
      <trkpt lat="42.88532" lon="0.20571">
        <ele>2130.42</ele>
        <time>2019-07-19T14:11:30Z</time>
      </trkpt>
      <trkpt lat="42.88537" lon="0.2058">
        <ele>2129.94</ele>
        <time>2019-07-19T14:11:42Z</time>
      </trkpt>
      <trkpt lat="42.88538" lon="0.20583">
        <ele>2129.46</ele>
        <time>2019-07-19T14:11:46Z</time>
      </trkpt>
      <trkpt lat="42.8854" lon="0.20588">
        <ele>2129.94</ele>
        <time>2019-07-19T14:11:50Z</time>
      </trkpt>
      <trkpt lat="42.88545" lon="0.20598">
        <ele>2129.46</ele>
        <time>2019-07-19T14:12:01Z</time>
      </trkpt>
      <trkpt lat="42.88545" lon="0.20604">
        <ele>2128.02</ele>
        <time>2019-07-19T14:12:06Z</time>
      </trkpt>
      <trkpt lat="42.88543" lon="0.20608">
        <ele>2127.05</ele>
        <time>2019-07-19T14:12:10Z</time>
      </trkpt>
      <trkpt lat="42.8854" lon="0.20612">
        <ele>2126.09</ele>
        <time>2019-07-19T14:12:19Z</time>
      </trkpt>
      <trkpt lat="42.88535" lon="0.20613">
        <ele>2125.61</ele>
        <time>2019-07-19T14:12:26Z</time>
      </trkpt>
      <trkpt lat="42.88534" lon="0.20621">
        <ele>2123.69</ele>
        <time>2019-07-19T14:12:37Z</time>
      </trkpt>
      <trkpt lat="42.88534" lon="0.20623">
        <ele>2123.69</ele>
        <time>2019-07-19T14:12:41Z</time>
      </trkpt>
      <trkpt lat="42.88536" lon="0.20629">
        <ele>2123.21</ele>
        <time>2019-07-19T14:12:52Z</time>
      </trkpt>
      <trkpt lat="42.88535" lon="0.20634">
        <ele>2122.73</ele>
        <time>2019-07-19T14:13:05Z</time>
      </trkpt>
      <trkpt lat="42.88532" lon="0.20638">
        <ele>2123.21</ele>
        <time>2019-07-19T14:13:10Z</time>
      </trkpt>
      <trkpt lat="42.88533" lon="0.20651">
        <ele>2123.21</ele>
        <time>2019-07-19T14:13:21Z</time>
      </trkpt>
      <trkpt lat="42.88538" lon="0.20653">
        <ele>2122.73</ele>
        <time>2019-07-19T14:13:31Z</time>
      </trkpt>
      <trkpt lat="42.88542" lon="0.20653">
        <ele>2123.21</ele>
        <time>2019-07-19T14:13:36Z</time>
      </trkpt>
      <trkpt lat="42.88546" lon="0.20653">
        <ele>2123.21</ele>
        <time>2019-07-19T14:13:40Z</time>
      </trkpt>
      <trkpt lat="42.88563" lon="0.20657">
        <ele>2122.73</ele>
        <time>2019-07-19T14:13:54Z</time>
      </trkpt>
      <trkpt lat="42.8857" lon="0.20653">
        <ele>2121.77</ele>
        <time>2019-07-19T14:14:02Z</time>
      </trkpt>
      <trkpt lat="42.88574" lon="0.20648">
        <ele>2120.81</ele>
        <time>2019-07-19T14:14:10Z</time>
      </trkpt>
      <trkpt lat="42.88575" lon="0.20644">
        <ele>2120.32</ele>
        <time>2019-07-19T14:14:23Z</time>
      </trkpt>
      <trkpt lat="42.88577" lon="0.20641">
        <ele>2119.84</ele>
        <time>2019-07-19T14:14:33Z</time>
      </trkpt>
      <trkpt lat="42.88579" lon="0.20638">
        <ele>2119.84</ele>
        <time>2019-07-19T14:14:36Z</time>
      </trkpt>
      <trkpt lat="42.88581" lon="0.20634">
        <ele>2119.84</ele>
        <time>2019-07-19T14:14:38Z</time>
      </trkpt>
      <trkpt lat="42.88583" lon="0.20632">
        <ele>2119.36</ele>
        <time>2019-07-19T14:14:41Z</time>
      </trkpt>
      <trkpt lat="42.88587" lon="0.20633">
        <ele>2118.88</ele>
        <time>2019-07-19T14:14:46Z</time>
      </trkpt>
      <trkpt lat="42.88592" lon="0.20631">
        <ele>2118.88</ele>
        <time>2019-07-19T14:14:52Z</time>
      </trkpt>
      <trkpt lat="42.88598" lon="0.2063">
        <ele>2119.84</ele>
        <time>2019-07-19T14:15:00Z</time>
      </trkpt>
      <trkpt lat="42.886" lon="0.20631">
        <ele>2121.29</ele>
        <time>2019-07-19T14:15:04Z</time>
      </trkpt>
      <trkpt lat="42.88605" lon="0.20634">
        <ele>2122.25</ele>
        <time>2019-07-19T14:15:11Z</time>
      </trkpt>
      <trkpt lat="42.8861" lon="0.20629">
        <ele>2122.73</ele>
        <time>2019-07-19T14:15:18Z</time>
      </trkpt>
      <trkpt lat="42.88612" lon="0.20625">
        <ele>2123.69</ele>
        <time>2019-07-19T14:15:22Z</time>
      </trkpt>
      <trkpt lat="42.88618" lon="0.20624">
        <ele>2125.61</ele>
        <time>2019-07-19T14:15:30Z</time>
      </trkpt>
      <trkpt lat="42.8862" lon="0.20623">
        <ele>2125.13</ele>
        <time>2019-07-19T14:15:32Z</time>
      </trkpt>
      <trkpt lat="42.88623" lon="0.20618">
        <ele>2125.13</ele>
        <time>2019-07-19T14:15:40Z</time>
      </trkpt>
      <trkpt lat="42.88625" lon="0.20612">
        <ele>2124.65</ele>
        <time>2019-07-19T14:15:44Z</time>
      </trkpt>
      <trkpt lat="42.8863" lon="0.20603">
        <ele>2123.21</ele>
        <time>2019-07-19T14:15:54Z</time>
      </trkpt>
      <trkpt lat="42.8863" lon="0.20602">
        <ele>2123.21</ele>
        <time>2019-07-19T14:15:55Z</time>
      </trkpt>
      <trkpt lat="42.88635" lon="0.20598">
        <ele>2122.25</ele>
        <time>2019-07-19T14:16:00Z</time>
      </trkpt>
      <trkpt lat="42.88638" lon="0.20595">
        <ele>2121.77</ele>
        <time>2019-07-19T14:16:03Z</time>
      </trkpt>
      <trkpt lat="42.88639" lon="0.2059">
        <ele>2121.29</ele>
        <time>2019-07-19T14:16:06Z</time>
      </trkpt>
      <trkpt lat="42.88641" lon="0.20589">
        <ele>2121.29</ele>
        <time>2019-07-19T14:16:08Z</time>
      </trkpt>
      <trkpt lat="42.88644" lon="0.20587">
        <ele>2121.77</ele>
        <time>2019-07-19T14:16:12Z</time>
      </trkpt>
      <trkpt lat="42.88645" lon="0.20583">
        <ele>2121.77</ele>
        <time>2019-07-19T14:16:15Z</time>
      </trkpt>
      <trkpt lat="42.88647" lon="0.20578">
        <ele>2121.77</ele>
        <time>2019-07-19T14:16:21Z</time>
      </trkpt>
      <trkpt lat="42.88652" lon="0.2057">
        <ele>2122.25</ele>
        <time>2019-07-19T14:16:32Z</time>
      </trkpt>
      <trkpt lat="42.88652" lon="0.20569">
        <ele>2121.77</ele>
        <time>2019-07-19T14:16:33Z</time>
      </trkpt>
      <trkpt lat="42.88653" lon="0.20565">
        <ele>2120.32</ele>
        <time>2019-07-19T14:16:43Z</time>
      </trkpt>
      <trkpt lat="42.88653" lon="0.20563">
        <ele>2120.32</ele>
        <time>2019-07-19T14:16:50Z</time>
      </trkpt>
      <trkpt lat="42.88654" lon="0.20561">
        <ele>2119.84</ele>
        <time>2019-07-19T14:16:52Z</time>
      </trkpt>
      <trkpt lat="42.88658" lon="0.20559">
        <ele>2119.84</ele>
        <time>2019-07-19T14:17:02Z</time>
      </trkpt>
      <trkpt lat="42.88663" lon="0.20553">
        <ele>2118.4</ele>
        <time>2019-07-19T14:17:10Z</time>
      </trkpt>
      <trkpt lat="42.88667" lon="0.20549">
        <ele>2117.92</ele>
        <time>2019-07-19T14:17:14Z</time>
      </trkpt>
      <trkpt lat="42.88672" lon="0.20545">
        <ele>2117.92</ele>
        <time>2019-07-19T14:17:20Z</time>
      </trkpt>
      <trkpt lat="42.88676" lon="0.20547">
        <ele>2119.84</ele>
        <time>2019-07-19T14:17:28Z</time>
      </trkpt>
      <trkpt lat="42.88679" lon="0.20547">
        <ele>2120.32</ele>
        <time>2019-07-19T14:17:31Z</time>
      </trkpt>
      <trkpt lat="42.88684" lon="0.20546">
        <ele>2120.81</ele>
        <time>2019-07-19T14:17:35Z</time>
      </trkpt>
      <trkpt lat="42.88695" lon="0.20536">
        <ele>2120.81</ele>
        <time>2019-07-19T14:17:46Z</time>
      </trkpt>
      <trkpt lat="42.88699" lon="0.20536">
        <ele>2121.77</ele>
        <time>2019-07-19T14:17:52Z</time>
      </trkpt>
      <trkpt lat="42.88703" lon="0.20537">
        <ele>2122.73</ele>
        <time>2019-07-19T14:17:58Z</time>
      </trkpt>
      <trkpt lat="42.88707" lon="0.20536">
        <ele>2121.77</ele>
        <time>2019-07-19T14:18:06Z</time>
      </trkpt>
      <trkpt lat="42.88711" lon="0.20537">
        <ele>2123.69</ele>
        <time>2019-07-19T14:18:15Z</time>
      </trkpt>
      <trkpt lat="42.88716" lon="0.20535">
        <ele>2124.17</ele>
        <time>2019-07-19T14:18:21Z</time>
      </trkpt>
      <trkpt lat="42.88721" lon="0.20532">
        <ele>2126.09</ele>
        <time>2019-07-19T14:18:31Z</time>
      </trkpt>
      <trkpt lat="42.88728" lon="0.20531">
        <ele>2127.53</ele>
        <time>2019-07-19T14:18:40Z</time>
      </trkpt>
      <trkpt lat="42.88729" lon="0.20531">
        <ele>2128.02</ele>
        <time>2019-07-19T14:18:42Z</time>
      </trkpt>
      <trkpt lat="42.88738" lon="0.20531">
        <ele>2129.46</ele>
        <time>2019-07-19T14:18:52Z</time>
      </trkpt>
      <trkpt lat="42.88741" lon="0.20531">
        <ele>2130.42</ele>
        <time>2019-07-19T14:18:58Z</time>
      </trkpt>
      <trkpt lat="42.88743" lon="0.2053">
        <ele>2130.42</ele>
        <time>2019-07-19T14:19:00Z</time>
      </trkpt>
      <trkpt lat="42.88745" lon="0.20529">
        <ele>2130.42</ele>
        <time>2019-07-19T14:19:08Z</time>
      </trkpt>
      <trkpt lat="42.88748" lon="0.20525">
        <ele>2130.42</ele>
        <time>2019-07-19T14:19:11Z</time>
      </trkpt>
      <trkpt lat="42.88755" lon="0.20519">
        <ele>2130.42</ele>
        <time>2019-07-19T14:19:21Z</time>
      </trkpt>
      <trkpt lat="42.88757" lon="0.20518">
        <ele>2130.42</ele>
        <time>2019-07-19T14:19:24Z</time>
      </trkpt>
      <trkpt lat="42.8876" lon="0.2052">
        <ele>2129.94</ele>
        <time>2019-07-19T14:19:29Z</time>
      </trkpt>
      <trkpt lat="42.88767" lon="0.20517">
        <ele>2128.02</ele>
        <time>2019-07-19T14:19:42Z</time>
      </trkpt>
      <trkpt lat="42.88768" lon="0.20517">
        <ele>2128.02</ele>
        <time>2019-07-19T14:19:43Z</time>
      </trkpt>
      <trkpt lat="42.88772" lon="0.20516">
        <ele>2127.05</ele>
        <time>2019-07-19T14:19:50Z</time>
      </trkpt>
      <trkpt lat="42.88774" lon="0.20517">
        <ele>2126.57</ele>
        <time>2019-07-19T14:19:52Z</time>
      </trkpt>
      <trkpt lat="42.88775" lon="0.20519">
        <ele>2126.09</ele>
        <time>2019-07-19T14:19:54Z</time>
      </trkpt>
      <trkpt lat="42.88777" lon="0.20519">
        <ele>2125.61</ele>
        <time>2019-07-19T14:19:56Z</time>
      </trkpt>
      <trkpt lat="42.88781" lon="0.20519">
        <ele>2126.09</ele>
        <time>2019-07-19T14:20:02Z</time>
      </trkpt>
      <trkpt lat="42.88785" lon="0.20518">
        <ele>2126.09</ele>
        <time>2019-07-19T14:20:06Z</time>
      </trkpt>
      <trkpt lat="42.88793" lon="0.20519">
        <ele>2127.05</ele>
        <time>2019-07-19T14:20:16Z</time>
      </trkpt>
      <trkpt lat="42.88794" lon="0.20519">
        <ele>2127.05</ele>
        <time>2019-07-19T14:20:18Z</time>
      </trkpt>
      <trkpt lat="42.888" lon="0.20516">
        <ele>2126.57</ele>
        <time>2019-07-19T14:20:23Z</time>
      </trkpt>
      <trkpt lat="42.88804" lon="0.20515">
        <ele>2126.57</ele>
        <time>2019-07-19T14:20:28Z</time>
      </trkpt>
      <trkpt lat="42.88812" lon="0.20514">
        <ele>2125.13</ele>
        <time>2019-07-19T14:20:34Z</time>
      </trkpt>
      <trkpt lat="42.88819" lon="0.20516">
        <ele>2126.57</ele>
        <time>2019-07-19T14:20:43Z</time>
      </trkpt>
      <trkpt lat="42.88825" lon="0.20517">
        <ele>2127.53</ele>
        <time>2019-07-19T14:20:49Z</time>
      </trkpt>
      <trkpt lat="42.8883" lon="0.20517">
        <ele>2127.53</ele>
        <time>2019-07-19T14:20:57Z</time>
      </trkpt>
      <trkpt lat="42.88837" lon="0.20511">
        <ele>2128.02</ele>
        <time>2019-07-19T14:21:09Z</time>
      </trkpt>
      <trkpt lat="42.88837" lon="0.20514">
        <ele>2128.98</ele>
        <time>2019-07-19T14:21:13Z</time>
      </trkpt>
      <trkpt lat="42.88845" lon="0.20511">
        <ele>2128.5</ele>
        <time>2019-07-19T14:21:22Z</time>
      </trkpt>
      <trkpt lat="42.88849" lon="0.20507">
        <ele>2128.02</ele>
        <time>2019-07-19T14:21:26Z</time>
      </trkpt>
      <trkpt lat="42.88859" lon="0.20511">
        <ele>2127.53</ele>
        <time>2019-07-19T14:21:34Z</time>
      </trkpt>
      <trkpt lat="42.88864" lon="0.20513">
        <ele>2127.53</ele>
        <time>2019-07-19T14:21:39Z</time>
      </trkpt>
      <trkpt lat="42.88869" lon="0.20513">
        <ele>2127.53</ele>
        <time>2019-07-19T14:21:44Z</time>
      </trkpt>
      <trkpt lat="42.88873" lon="0.20512">
        <ele>2127.05</ele>
        <time>2019-07-19T14:21:47Z</time>
      </trkpt>
      <trkpt lat="42.88877" lon="0.20515">
        <ele>2127.05</ele>
        <time>2019-07-19T14:21:53Z</time>
      </trkpt>
      <trkpt lat="42.88882" lon="0.20507">
        <ele>2126.09</ele>
        <time>2019-07-19T14:22:04Z</time>
      </trkpt>
      <trkpt lat="42.88884" lon="0.20503">
        <ele>2126.09</ele>
        <time>2019-07-19T14:22:07Z</time>
      </trkpt>
      <trkpt lat="42.88889" lon="0.20491">
        <ele>2124.17</ele>
        <time>2019-07-19T14:22:19Z</time>
      </trkpt>
      <trkpt lat="42.88892" lon="0.20485">
        <ele>2123.21</ele>
        <time>2019-07-19T14:22:25Z</time>
      </trkpt>
      <trkpt lat="42.88895" lon="0.20483">
        <ele>2122.73</ele>
        <time>2019-07-19T14:22:30Z</time>
      </trkpt>
      <trkpt lat="42.88894" lon="0.20473">
        <ele>2120.32</ele>
        <time>2019-07-19T14:22:40Z</time>
      </trkpt>
      <trkpt lat="42.88894" lon="0.20472">
        <ele>2120.32</ele>
        <time>2019-07-19T14:22:43Z</time>
      </trkpt>
      <trkpt lat="42.88898" lon="0.20467">
        <ele>2120.32</ele>
        <time>2019-07-19T14:22:49Z</time>
      </trkpt>
      <trkpt lat="42.88898" lon="0.20461">
        <ele>2120.32</ele>
        <time>2019-07-19T14:22:53Z</time>
      </trkpt>
      <trkpt lat="42.88902" lon="0.20457">
        <ele>2121.29</ele>
        <time>2019-07-19T14:22:58Z</time>
      </trkpt>
      <trkpt lat="42.88903" lon="0.20449">
        <ele>2115.04</ele>
        <time>2019-07-19T14:23:05Z</time>
      </trkpt>
      <trkpt lat="42.88903" lon="0.20448">
        <ele>2124.65</ele>
        <time>2019-07-19T14:23:06Z</time>
      </trkpt>
      <trkpt lat="42.88903" lon="0.20447">
        <ele>2120.81</ele>
        <time>2019-07-19T14:23:07Z</time>
      </trkpt>
      <trkpt lat="42.88902" lon="0.20438">
        <ele>2121.29</ele>
        <time>2019-07-19T14:23:17Z</time>
      </trkpt>
      <trkpt lat="42.88903" lon="0.20435">
        <ele>2121.29</ele>
        <time>2019-07-19T14:23:19Z</time>
      </trkpt>
      <trkpt lat="42.88904" lon="0.20432">
        <ele>2120.81</ele>
        <time>2019-07-19T14:23:21Z</time>
      </trkpt>
      <trkpt lat="42.88911" lon="0.20423">
        <ele>2120.81</ele>
        <time>2019-07-19T14:23:31Z</time>
      </trkpt>
      <trkpt lat="42.88913" lon="0.20421">
        <ele>2120.81</ele>
        <time>2019-07-19T14:23:33Z</time>
      </trkpt>
      <trkpt lat="42.88917" lon="0.20409">
        <ele>2118.88</ele>
        <time>2019-07-19T14:23:45Z</time>
      </trkpt>
      <trkpt lat="42.88919" lon="0.20403">
        <ele>2118.88</ele>
        <time>2019-07-19T14:23:51Z</time>
      </trkpt>
      <trkpt lat="42.88922" lon="0.20399">
        <ele>2118.88</ele>
        <time>2019-07-19T14:23:55Z</time>
      </trkpt>
      <trkpt lat="42.88928" lon="0.20388">
        <ele>2119.84</ele>
        <time>2019-07-19T14:24:05Z</time>
      </trkpt>
      <trkpt lat="42.88934" lon="0.2038">
        <ele>2120.32</ele>
        <time>2019-07-19T14:24:17Z</time>
      </trkpt>
      <trkpt lat="42.88935" lon="0.2038">
        <ele>2121.29</ele>
        <time>2019-07-19T14:24:27Z</time>
      </trkpt>
      <trkpt lat="42.88937" lon="0.20386">
        <ele>2123.69</ele>
        <time>2019-07-19T14:24:39Z</time>
      </trkpt>
      <trkpt lat="42.88942" lon="0.20385">
        <ele>2124.65</ele>
        <time>2019-07-19T14:24:44Z</time>
      </trkpt>
      <trkpt lat="42.88948" lon="0.20378">
        <ele>2126.57</ele>
        <time>2019-07-19T14:24:55Z</time>
      </trkpt>
      <trkpt lat="42.8895" lon="0.20376">
        <ele>2126.57</ele>
        <time>2019-07-19T14:24:58Z</time>
      </trkpt>
      <trkpt lat="42.88954" lon="0.2037">
        <ele>2128.02</ele>
        <time>2019-07-19T14:25:05Z</time>
      </trkpt>
      <trkpt lat="42.88958" lon="0.20368">
        <ele>2128.98</ele>
        <time>2019-07-19T14:25:11Z</time>
      </trkpt>
      <trkpt lat="42.88959" lon="0.20365">
        <ele>2129.94</ele>
        <time>2019-07-19T14:25:20Z</time>
      </trkpt>
      <trkpt lat="42.88959" lon="0.20361">
        <ele>2130.42</ele>
        <time>2019-07-19T14:25:27Z</time>
      </trkpt>
      <trkpt lat="42.88962" lon="0.20358">
        <ele>2131.38</ele>
        <time>2019-07-19T14:25:34Z</time>
      </trkpt>
      <trkpt lat="42.88965" lon="0.20353">
        <ele>2131.86</ele>
        <time>2019-07-19T14:25:40Z</time>
      </trkpt>
      <trkpt lat="42.88968" lon="0.20346">
        <ele>2133.3</ele>
        <time>2019-07-19T14:25:50Z</time>
      </trkpt>
      <trkpt lat="42.88968" lon="0.20346">
        <ele>2133.3</ele>
        <time>2019-07-19T14:25:51Z</time>
      </trkpt>
      <trkpt lat="42.88969" lon="0.20342">
        <ele>2133.78</ele>
        <time>2019-07-19T14:25:53Z</time>
      </trkpt>
      <trkpt lat="42.88972" lon="0.20334">
        <ele>2135.23</ele>
        <time>2019-07-19T14:26:05Z</time>
      </trkpt>
      <trkpt lat="42.88972" lon="0.20334">
        <ele>2135.71</ele>
        <time>2019-07-19T14:26:11Z</time>
      </trkpt>
      <trkpt lat="42.88974" lon="0.2033">
        <ele>2137.15</ele>
        <time>2019-07-19T14:26:21Z</time>
      </trkpt>
      <trkpt lat="42.88975" lon="0.20325">
        <ele>2137.63</ele>
        <time>2019-07-19T14:26:24Z</time>
      </trkpt>
      <trkpt lat="42.88979" lon="0.20319">
        <ele>2140.03</ele>
        <time>2019-07-19T14:26:37Z</time>
      </trkpt>
      <trkpt lat="42.88981" lon="0.20317">
        <ele>2141.47</ele>
        <time>2019-07-19T14:26:41Z</time>
      </trkpt>
      <trkpt lat="42.88981" lon="0.20315">
        <ele>2141.47</ele>
        <time>2019-07-19T14:26:43Z</time>
      </trkpt>
      <trkpt lat="42.88982" lon="0.20312">
        <ele>2141.47</ele>
        <time>2019-07-19T14:26:45Z</time>
      </trkpt>
      <trkpt lat="42.88985" lon="0.20305">
        <ele>2142.92</ele>
        <time>2019-07-19T14:26:54Z</time>
      </trkpt>
      <trkpt lat="42.88988" lon="0.20301">
        <ele>2143.4</ele>
        <time>2019-07-19T14:27:00Z</time>
      </trkpt>
      <trkpt lat="42.88991" lon="0.20295">
        <ele>2142.92</ele>
        <time>2019-07-19T14:27:05Z</time>
      </trkpt>
      <trkpt lat="42.88995" lon="0.20287">
        <ele>2143.88</ele>
        <time>2019-07-19T14:27:15Z</time>
      </trkpt>
      <trkpt lat="42.89" lon="0.2028">
        <ele>2144.36</ele>
        <time>2019-07-19T14:27:22Z</time>
      </trkpt>
      <trkpt lat="42.89004" lon="0.20274">
        <ele>2144.36</ele>
        <time>2019-07-19T14:27:27Z</time>
      </trkpt>
      <trkpt lat="42.89005" lon="0.20272">
        <ele>2144.84</ele>
        <time>2019-07-19T14:27:29Z</time>
      </trkpt>
      <trkpt lat="42.89009" lon="0.20264">
        <ele>2145.8</ele>
        <time>2019-07-19T14:27:38Z</time>
      </trkpt>
      <trkpt lat="42.89015" lon="0.20264">
        <ele>2147.24</ele>
        <time>2019-07-19T14:27:47Z</time>
      </trkpt>
      <trkpt lat="42.89018" lon="0.20262">
        <ele>2147.72</ele>
        <time>2019-07-19T14:27:51Z</time>
      </trkpt>
      <trkpt lat="42.89025" lon="0.20258">
        <ele>2150.13</ele>
        <time>2019-07-19T14:28:03Z</time>
      </trkpt>
      <trkpt lat="42.89026" lon="0.20258">
        <ele>2150.13</ele>
        <time>2019-07-19T14:28:04Z</time>
      </trkpt>
      <trkpt lat="42.89028" lon="0.20258">
        <ele>2150.61</ele>
        <time>2019-07-19T14:28:07Z</time>
      </trkpt>
      <trkpt lat="42.89032" lon="0.20252">
        <ele>2151.57</ele>
        <time>2019-07-19T14:28:18Z</time>
      </trkpt>
      <trkpt lat="42.89036" lon="0.20244">
        <ele>2153.01</ele>
        <time>2019-07-19T14:28:27Z</time>
      </trkpt>
      <trkpt lat="42.89041" lon="0.20242">
        <ele>2154.93</ele>
        <time>2019-07-19T14:28:36Z</time>
      </trkpt>
      <trkpt lat="42.89041" lon="0.20241">
        <ele>2154.93</ele>
        <time>2019-07-19T14:28:38Z</time>
      </trkpt>
      <trkpt lat="42.89043" lon="0.20226">
        <ele>2155.41</ele>
        <time>2019-07-19T14:28:47Z</time>
      </trkpt>
      <trkpt lat="42.89043" lon="0.20222">
        <ele>2156.37</ele>
        <time>2019-07-19T14:28:50Z</time>
      </trkpt>
      <trkpt lat="42.89044" lon="0.20214">
        <ele>2157.34</ele>
        <time>2019-07-19T14:28:58Z</time>
      </trkpt>
      <trkpt lat="42.89049" lon="0.20211">
        <ele>2157.82</ele>
        <time>2019-07-19T14:29:03Z</time>
      </trkpt>
      <trkpt lat="42.89052" lon="0.20208">
        <ele>2156.86</ele>
        <time>2019-07-19T14:29:06Z</time>
      </trkpt>
      <trkpt lat="42.89059" lon="0.20203">
        <ele>2156.86</ele>
        <time>2019-07-19T14:29:17Z</time>
      </trkpt>
      <trkpt lat="42.89059" lon="0.20203">
        <ele>2156.37</ele>
        <time>2019-07-19T14:29:19Z</time>
      </trkpt>
      <trkpt lat="42.89062" lon="0.20198">
        <ele>2155.41</ele>
        <time>2019-07-19T14:29:28Z</time>
      </trkpt>
      <trkpt lat="42.89063" lon="0.20195">
        <ele>2154.45</ele>
        <time>2019-07-19T14:29:31Z</time>
      </trkpt>
      <trkpt lat="42.89066" lon="0.20191">
        <ele>2153.97</ele>
        <time>2019-07-19T14:29:34Z</time>
      </trkpt>
      <trkpt lat="42.89072" lon="0.20178">
        <ele>2154.45</ele>
        <time>2019-07-19T14:29:44Z</time>
      </trkpt>
      <trkpt lat="42.89072" lon="0.2017">
        <ele>2155.41</ele>
        <time>2019-07-19T14:29:50Z</time>
      </trkpt>
      <trkpt lat="42.89074" lon="0.20164">
        <ele>2156.37</ele>
        <time>2019-07-19T14:29:58Z</time>
      </trkpt>
      <trkpt lat="42.89078" lon="0.20159">
        <ele>2157.34</ele>
        <time>2019-07-19T14:30:05Z</time>
      </trkpt>
      <trkpt lat="42.89079" lon="0.20162">
        <ele>2157.82</ele>
        <time>2019-07-19T14:30:08Z</time>
      </trkpt>
      <trkpt lat="42.89085" lon="0.2016">
        <ele>2160.22</ele>
        <time>2019-07-19T14:30:16Z</time>
      </trkpt>
      <trkpt lat="42.89087" lon="0.20158">
        <ele>2159.26</ele>
        <time>2019-07-19T14:30:18Z</time>
      </trkpt>
      <trkpt lat="42.89092" lon="0.20154">
        <ele>2159.26</ele>
        <time>2019-07-19T14:30:24Z</time>
      </trkpt>
      <trkpt lat="42.89096" lon="0.20153">
        <ele>2159.74</ele>
        <time>2019-07-19T14:30:28Z</time>
      </trkpt>
      <trkpt lat="42.89096" lon="0.20145">
        <ele>2159.74</ele>
        <time>2019-07-19T14:30:33Z</time>
      </trkpt>
      <trkpt lat="42.89105" lon="0.20133">
        <ele>2158.3</ele>
        <time>2019-07-19T14:30:43Z</time>
      </trkpt>
      <trkpt lat="42.89112" lon="0.20129">
        <ele>2157.34</ele>
        <time>2019-07-19T14:30:54Z</time>
      </trkpt>
      <trkpt lat="42.89115" lon="0.20125">
        <ele>2155.89</ele>
        <time>2019-07-19T14:30:59Z</time>
      </trkpt>
      <trkpt lat="42.89116" lon="0.20123">
        <ele>2155.89</ele>
        <time>2019-07-19T14:31:00Z</time>
      </trkpt>
      <trkpt lat="42.89116" lon="0.20114">
        <ele>2154.93</ele>
        <time>2019-07-19T14:31:06Z</time>
      </trkpt>
      <trkpt lat="42.8912" lon="0.20107">
        <ele>2152.53</ele>
        <time>2019-07-19T14:31:18Z</time>
      </trkpt>
      <trkpt lat="42.89126" lon="0.20104">
        <ele>2150.61</ele>
        <time>2019-07-19T14:31:28Z</time>
      </trkpt>
      <trkpt lat="42.89136" lon="0.20094">
        <ele>2147.72</ele>
        <time>2019-07-19T14:31:41Z</time>
      </trkpt>
      <trkpt lat="42.89135" lon="0.2009">
        <ele>2146.28</ele>
        <time>2019-07-19T14:31:45Z</time>
      </trkpt>
      <trkpt lat="42.89138" lon="0.20086">
        <ele>2144.84</ele>
        <time>2019-07-19T14:31:56Z</time>
      </trkpt>
      <trkpt lat="42.89138" lon="0.20086">
        <ele>2144.36</ele>
        <time>2019-07-19T14:32:00Z</time>
      </trkpt>
      <trkpt lat="42.89141" lon="0.20085">
        <ele>2144.36</ele>
        <time>2019-07-19T14:32:03Z</time>
      </trkpt>
      <trkpt lat="42.89142" lon="0.20087">
        <ele>2143.4</ele>
        <time>2019-07-19T14:32:08Z</time>
      </trkpt>
      <trkpt lat="42.89144" lon="0.20085">
        <ele>2142.92</ele>
        <time>2019-07-19T14:32:11Z</time>
      </trkpt>
      <trkpt lat="42.8915" lon="0.20088">
        <ele>2140.03</ele>
        <time>2019-07-19T14:32:23Z</time>
      </trkpt>
      <trkpt lat="42.89153" lon="0.20088">
        <ele>2139.07</ele>
        <time>2019-07-19T14:32:28Z</time>
      </trkpt>
      <trkpt lat="42.89158" lon="0.20092">
        <ele>2137.15</ele>
        <time>2019-07-19T14:32:38Z</time>
      </trkpt>
      <trkpt lat="42.89166" lon="0.20091">
        <ele>2133.78</ele>
        <time>2019-07-19T14:32:48Z</time>
      </trkpt>
      <trkpt lat="42.89169" lon="0.20093">
        <ele>2133.78</ele>
        <time>2019-07-19T14:32:53Z</time>
      </trkpt>
      <trkpt lat="42.89171" lon="0.20095">
        <ele>2132.82</ele>
        <time>2019-07-19T14:32:56Z</time>
      </trkpt>
      <trkpt lat="42.89174" lon="0.20096">
        <ele>2131.86</ele>
        <time>2019-07-19T14:33:00Z</time>
      </trkpt>
      <trkpt lat="42.89176" lon="0.20098">
        <ele>2130.9</ele>
        <time>2019-07-19T14:33:03Z</time>
      </trkpt>
      <trkpt lat="42.89185" lon="0.201">
        <ele>2129.46</ele>
        <time>2019-07-19T14:33:10Z</time>
      </trkpt>
      <trkpt lat="42.89192" lon="0.201">
        <ele>2128.98</ele>
        <time>2019-07-19T14:33:15Z</time>
      </trkpt>
      <trkpt lat="42.89198" lon="0.20098">
        <ele>2128.98</ele>
        <time>2019-07-19T14:33:22Z</time>
      </trkpt>
      <trkpt lat="42.89201" lon="0.20099">
        <ele>2128.98</ele>
        <time>2019-07-19T14:33:25Z</time>
      </trkpt>
      <trkpt lat="42.89203" lon="0.20097">
        <ele>2129.46</ele>
        <time>2019-07-19T14:33:28Z</time>
      </trkpt>
      <trkpt lat="42.89205" lon="0.20096">
        <ele>2129.94</ele>
        <time>2019-07-19T14:33:30Z</time>
      </trkpt>
      <trkpt lat="42.89212" lon="0.2009">
        <ele>2129.94</ele>
        <time>2019-07-19T14:33:37Z</time>
      </trkpt>
      <trkpt lat="42.89217" lon="0.20085">
        <ele>2130.42</ele>
        <time>2019-07-19T14:33:43Z</time>
      </trkpt>
      <trkpt lat="42.89219" lon="0.20085">
        <ele>2130.9</ele>
        <time>2019-07-19T14:33:45Z</time>
      </trkpt>
      <trkpt lat="42.89228" lon="0.20083">
        <ele>2130.9</ele>
        <time>2019-07-19T14:33:53Z</time>
      </trkpt>
      <trkpt lat="42.89234" lon="0.20087">
        <ele>2131.38</ele>
        <time>2019-07-19T14:34:01Z</time>
      </trkpt>
      <trkpt lat="42.89239" lon="0.2009">
        <ele>2130.42</ele>
        <time>2019-07-19T14:34:11Z</time>
      </trkpt>
      <trkpt lat="42.8924" lon="0.2009">
        <ele>2130.9</ele>
        <time>2019-07-19T14:34:25Z</time>
      </trkpt>
      <trkpt lat="42.89239" lon="0.20089">
        <ele>2130.42</ele>
        <time>2019-07-19T14:34:32Z</time>
      </trkpt>
      <trkpt lat="42.89239" lon="0.20088">
        <ele>2129.94</ele>
        <time>2019-07-19T14:34:41Z</time>
      </trkpt>
      <trkpt lat="42.89239" lon="0.20086">
        <ele>2130.42</ele>
        <time>2019-07-19T14:34:44Z</time>
      </trkpt>
      <trkpt lat="42.89246" lon="0.20082">
        <ele>2130.42</ele>
        <time>2019-07-19T14:34:52Z</time>
      </trkpt>
      <trkpt lat="42.8925" lon="0.20082">
        <ele>2130.42</ele>
        <time>2019-07-19T14:34:56Z</time>
      </trkpt>
      <trkpt lat="42.89253" lon="0.20081">
        <ele>2129.94</ele>
        <time>2019-07-19T14:35:01Z</time>
      </trkpt>
      <trkpt lat="42.89256" lon="0.20081">
        <ele>2129.94</ele>
        <time>2019-07-19T14:35:04Z</time>
      </trkpt>
      <trkpt lat="42.89259" lon="0.20076">
        <ele>2130.42</ele>
        <time>2019-07-19T14:35:09Z</time>
      </trkpt>
      <trkpt lat="42.89264" lon="0.20072">
        <ele>2130.42</ele>
        <time>2019-07-19T14:35:14Z</time>
      </trkpt>
      <trkpt lat="42.89269" lon="0.20075">
        <ele>2130.9</ele>
        <time>2019-07-19T14:35:19Z</time>
      </trkpt>
      <trkpt lat="42.89271" lon="0.20069">
        <ele>2129.94</ele>
        <time>2019-07-19T14:35:25Z</time>
      </trkpt>
      <trkpt lat="42.89273" lon="0.20061">
        <ele>2128.02</ele>
        <time>2019-07-19T14:35:36Z</time>
      </trkpt>
      <trkpt lat="42.89277" lon="0.2005">
        <ele>2126.57</ele>
        <time>2019-07-19T14:35:46Z</time>
      </trkpt>
      <trkpt lat="42.89277" lon="0.20044">
        <ele>2125.61</ele>
        <time>2019-07-19T14:35:50Z</time>
      </trkpt>
      <trkpt lat="42.89276" lon="0.20038">
        <ele>2125.13</ele>
        <time>2019-07-19T14:35:54Z</time>
      </trkpt>
      <trkpt lat="42.89275" lon="0.2003">
        <ele>2123.21</ele>
        <time>2019-07-19T14:36:07Z</time>
      </trkpt>
      <trkpt lat="42.89274" lon="0.20026">
        <ele>2121.77</ele>
        <time>2019-07-19T14:36:15Z</time>
      </trkpt>
      <trkpt lat="42.89276" lon="0.20024">
        <ele>2120.81</ele>
        <time>2019-07-19T14:36:28Z</time>
      </trkpt>
      <trkpt lat="42.89279" lon="0.20023">
        <ele>2119.84</ele>
        <time>2019-07-19T14:36:37Z</time>
      </trkpt>
      <trkpt lat="42.89283" lon="0.20025">
        <ele>2118.4</ele>
        <time>2019-07-19T14:36:47Z</time>
      </trkpt>
      <trkpt lat="42.89283" lon="0.20017">
        <ele>2116.48</ele>
        <time>2019-07-19T14:36:57Z</time>
      </trkpt>
      <trkpt lat="42.8928" lon="0.20011">
        <ele>2114.08</ele>
        <time>2019-07-19T14:37:08Z</time>
      </trkpt>
      <trkpt lat="42.8928" lon="0.20009">
        <ele>2112.15</ele>
        <time>2019-07-19T14:37:16Z</time>
      </trkpt>
      <trkpt lat="42.89285" lon="0.20006">
        <ele>2110.23</ele>
        <time>2019-07-19T14:37:27Z</time>
      </trkpt>
      <trkpt lat="42.89286" lon="0.20004">
        <ele>2108.79</ele>
        <time>2019-07-19T14:37:36Z</time>
      </trkpt>
      <trkpt lat="42.89288" lon="0.20003">
        <ele>2108.79</ele>
        <time>2019-07-19T14:37:38Z</time>
      </trkpt>
      <trkpt lat="42.89292" lon="0.20002">
        <ele>2106.87</ele>
        <time>2019-07-19T14:37:42Z</time>
      </trkpt>
      <trkpt lat="42.89296" lon="0.20003">
        <ele>2106.39</ele>
        <time>2019-07-19T14:37:46Z</time>
      </trkpt>
      <trkpt lat="42.89299" lon="0.20001">
        <ele>2105.91</ele>
        <time>2019-07-19T14:37:48Z</time>
      </trkpt>
      <trkpt lat="42.89299" lon="0.19993">
        <ele>2104.94</ele>
        <time>2019-07-19T14:37:53Z</time>
      </trkpt>
      <trkpt lat="42.89301" lon="0.19992">
        <ele>2104.46</ele>
        <time>2019-07-19T14:37:55Z</time>
      </trkpt>
      <trkpt lat="42.89301" lon="0.19983">
        <ele>2103.02</ele>
        <time>2019-07-19T14:38:00Z</time>
      </trkpt>
      <trkpt lat="42.89296" lon="0.19971">
        <ele>2102.54</ele>
        <time>2019-07-19T14:38:08Z</time>
      </trkpt>
      <trkpt lat="42.89286" lon="0.19957">
        <ele>2101.58</ele>
        <time>2019-07-19T14:38:20Z</time>
      </trkpt>
      <trkpt lat="42.89284" lon="0.19957">
        <ele>2101.1</ele>
        <time>2019-07-19T14:38:36Z</time>
      </trkpt>
      <trkpt lat="42.89279" lon="0.19953">
        <ele>2100.14</ele>
        <time>2019-07-19T14:38:45Z</time>
      </trkpt>
      <trkpt lat="42.89274" lon="0.19949">
        <ele>2098.7</ele>
        <time>2019-07-19T14:38:56Z</time>
      </trkpt>
      <trkpt lat="42.89276" lon="0.19944">
        <ele>2097.25</ele>
        <time>2019-07-19T14:39:04Z</time>
      </trkpt>
      <trkpt lat="42.8928" lon="0.1994">
        <ele>2096.29</ele>
        <time>2019-07-19T14:39:09Z</time>
      </trkpt>
      <trkpt lat="42.89282" lon="0.19938">
        <ele>2095.33</ele>
        <time>2019-07-19T14:39:12Z</time>
      </trkpt>
      <trkpt lat="42.89282" lon="0.19933">
        <ele>2094.37</ele>
        <time>2019-07-19T14:39:16Z</time>
      </trkpt>
      <trkpt lat="42.89284" lon="0.19932">
        <ele>2093.89</ele>
        <time>2019-07-19T14:39:18Z</time>
      </trkpt>
      <trkpt lat="42.89283" lon="0.19929">
        <ele>2093.41</ele>
        <time>2019-07-19T14:39:20Z</time>
      </trkpt>
      <trkpt lat="42.89283" lon="0.19924">
        <ele>2092.45</ele>
        <time>2019-07-19T14:39:24Z</time>
      </trkpt>
      <trkpt lat="42.89284" lon="0.19922">
        <ele>2092.45</ele>
        <time>2019-07-19T14:39:26Z</time>
      </trkpt>
      <trkpt lat="42.89285" lon="0.19918">
        <ele>2091.49</ele>
        <time>2019-07-19T14:39:30Z</time>
      </trkpt>
      <trkpt lat="42.89282" lon="0.19912">
        <ele>2091.49</ele>
        <time>2019-07-19T14:39:34Z</time>
      </trkpt>
      <trkpt lat="42.89279" lon="0.19907">
        <ele>2091</ele>
        <time>2019-07-19T14:39:37Z</time>
      </trkpt>
      <trkpt lat="42.89268" lon="0.19888">
        <ele>2090.52</ele>
        <time>2019-07-19T14:39:50Z</time>
      </trkpt>
      <trkpt lat="42.8926" lon="0.19884">
        <ele>2090.52</ele>
        <time>2019-07-19T14:39:56Z</time>
      </trkpt>
      <trkpt lat="42.89255" lon="0.19874">
        <ele>2089.56</ele>
        <time>2019-07-19T14:40:04Z</time>
      </trkpt>
      <trkpt lat="42.89247" lon="0.19861">
        <ele>2086.2</ele>
        <time>2019-07-19T14:40:15Z</time>
      </trkpt>
      <trkpt lat="42.89244" lon="0.19852">
        <ele>2085.72</ele>
        <time>2019-07-19T14:40:20Z</time>
      </trkpt>
      <trkpt lat="42.89239" lon="0.19848">
        <ele>2085.72</ele>
        <time>2019-07-19T14:40:25Z</time>
      </trkpt>
      <trkpt lat="42.89237" lon="0.19843">
        <ele>2084.76</ele>
        <time>2019-07-19T14:40:30Z</time>
      </trkpt>
      <trkpt lat="42.89233" lon="0.19836">
        <ele>2083.31</ele>
        <time>2019-07-19T14:40:36Z</time>
      </trkpt>
      <trkpt lat="42.89233" lon="0.19834">
        <ele>2082.83</ele>
        <time>2019-07-19T14:40:38Z</time>
      </trkpt>
      <trkpt lat="42.89239" lon="0.19826">
        <ele>2082.35</ele>
        <time>2019-07-19T14:40:42Z</time>
      </trkpt>
      <trkpt lat="42.89242" lon="0.19817">
        <ele>2081.87</ele>
        <time>2019-07-19T14:40:48Z</time>
      </trkpt>
      <trkpt lat="42.89247" lon="0.19805">
        <ele>2081.39</ele>
        <time>2019-07-19T14:40:55Z</time>
      </trkpt>
      <trkpt lat="42.89251" lon="0.19798">
        <ele>2081.39</ele>
        <time>2019-07-19T14:41:01Z</time>
      </trkpt>
      <trkpt lat="42.89254" lon="0.19795">
        <ele>2080.91</ele>
        <time>2019-07-19T14:41:05Z</time>
      </trkpt>
      <trkpt lat="42.89263" lon="0.19785">
        <ele>2078.99</ele>
        <time>2019-07-19T14:41:18Z</time>
      </trkpt>
      <trkpt lat="42.89265" lon="0.19783">
        <ele>2079.47</ele>
        <time>2019-07-19T14:41:20Z</time>
      </trkpt>
      <trkpt lat="42.89275" lon="0.19778">
        <ele>2078.51</ele>
        <time>2019-07-19T14:41:29Z</time>
      </trkpt>
      <trkpt lat="42.89277" lon="0.19772">
        <ele>2078.51</ele>
        <time>2019-07-19T14:41:34Z</time>
      </trkpt>
      <trkpt lat="42.89278" lon="0.19769">
        <ele>2078.51</ele>
        <time>2019-07-19T14:41:36Z</time>
      </trkpt>
      <trkpt lat="42.8928" lon="0.19763">
        <ele>2078.03</ele>
        <time>2019-07-19T14:41:41Z</time>
      </trkpt>
      <trkpt lat="42.89284" lon="0.19751">
        <ele>2078.03</ele>
        <time>2019-07-19T14:41:52Z</time>
      </trkpt>
      <trkpt lat="42.89286" lon="0.1975">
        <ele>2078.03</ele>
        <time>2019-07-19T14:41:55Z</time>
      </trkpt>
      <trkpt lat="42.89294" lon="0.19743">
        <ele>2076.1</ele>
        <time>2019-07-19T14:42:06Z</time>
      </trkpt>
      <trkpt lat="42.89299" lon="0.19742">
        <ele>2075.14</ele>
        <time>2019-07-19T14:42:11Z</time>
      </trkpt>
      <trkpt lat="42.89306" lon="0.19738">
        <ele>2072.74</ele>
        <time>2019-07-19T14:42:24Z</time>
      </trkpt>
      <trkpt lat="42.89313" lon="0.19738">
        <ele>2071.3</ele>
        <time>2019-07-19T14:42:34Z</time>
      </trkpt>
      <trkpt lat="42.89315" lon="0.19741">
        <ele>2069.86</ele>
        <time>2019-07-19T14:42:42Z</time>
      </trkpt>
      <trkpt lat="42.8932" lon="0.19742">
        <ele>2068.89</ele>
        <time>2019-07-19T14:42:48Z</time>
      </trkpt>
      <trkpt lat="42.89322" lon="0.19746">
        <ele>2067.45</ele>
        <time>2019-07-19T14:42:56Z</time>
      </trkpt>
      <trkpt lat="42.89328" lon="0.19749">
        <ele>2065.53</ele>
        <time>2019-07-19T14:43:02Z</time>
      </trkpt>
      <trkpt lat="42.8933" lon="0.19747">
        <ele>2065.05</ele>
        <time>2019-07-19T14:43:04Z</time>
      </trkpt>
      <trkpt lat="42.89328" lon="0.1974">
        <ele>2063.13</ele>
        <time>2019-07-19T14:43:10Z</time>
      </trkpt>
      <trkpt lat="42.89331" lon="0.19737">
        <ele>2062.65</ele>
        <time>2019-07-19T14:43:13Z</time>
      </trkpt>
      <trkpt lat="42.89345" lon="0.19737">
        <ele>2060.24</ele>
        <time>2019-07-19T14:43:22Z</time>
      </trkpt>
      <trkpt lat="42.8935" lon="0.19738">
        <ele>2059.28</ele>
        <time>2019-07-19T14:43:26Z</time>
      </trkpt>
      <trkpt lat="42.89354" lon="0.19739">
        <ele>2058.32</ele>
        <time>2019-07-19T14:43:30Z</time>
      </trkpt>
      <trkpt lat="42.89363" lon="0.19734">
        <ele>2058.32</ele>
        <time>2019-07-19T14:43:37Z</time>
      </trkpt>
      <trkpt lat="42.89368" lon="0.19731">
        <ele>2059.28</ele>
        <time>2019-07-19T14:43:43Z</time>
      </trkpt>
      <trkpt lat="42.89371" lon="0.19728">
        <ele>2058.8</ele>
        <time>2019-07-19T14:43:46Z</time>
      </trkpt>
      <trkpt lat="42.89377" lon="0.19724">
        <ele>2059.28</ele>
        <time>2019-07-19T14:43:55Z</time>
      </trkpt>
      <trkpt lat="42.89386" lon="0.19721">
        <ele>2057.36</ele>
        <time>2019-07-19T14:44:07Z</time>
      </trkpt>
      <trkpt lat="42.89388" lon="0.19721">
        <ele>2057.36</ele>
        <time>2019-07-19T14:44:08Z</time>
      </trkpt>
      <trkpt lat="42.89395" lon="0.19717">
        <ele>2055.92</ele>
        <time>2019-07-19T14:44:18Z</time>
      </trkpt>
      <trkpt lat="42.89397" lon="0.19716">
        <ele>2054.96</ele>
        <time>2019-07-19T14:44:19Z</time>
      </trkpt>
      <trkpt lat="42.89401" lon="0.19714">
        <ele>2054.96</ele>
        <time>2019-07-19T14:44:23Z</time>
      </trkpt>
      <trkpt lat="42.89403" lon="0.19714">
        <ele>2054.96</ele>
        <time>2019-07-19T14:44:25Z</time>
      </trkpt>
      <trkpt lat="42.89404" lon="0.19712">
        <ele>2054.96</ele>
        <time>2019-07-19T14:44:27Z</time>
      </trkpt>
      <trkpt lat="42.89407" lon="0.19709">
        <ele>2054.96</ele>
        <time>2019-07-19T14:44:32Z</time>
      </trkpt>
      <trkpt lat="42.89411" lon="0.19713">
        <ele>2052.55</ele>
        <time>2019-07-19T14:44:41Z</time>
      </trkpt>
      <trkpt lat="42.89412" lon="0.19712">
        <ele>2053.03</ele>
        <time>2019-07-19T14:44:43Z</time>
      </trkpt>
      <trkpt lat="42.89417" lon="0.19719">
        <ele>2051.11</ele>
        <time>2019-07-19T14:44:54Z</time>
      </trkpt>
      <trkpt lat="42.89422" lon="0.19725">
        <ele>2049.67</ele>
        <time>2019-07-19T14:45:02Z</time>
      </trkpt>
      <trkpt lat="42.89428" lon="0.19727">
        <ele>2049.67</ele>
        <time>2019-07-19T14:45:10Z</time>
      </trkpt>
      <trkpt lat="42.89439" lon="0.19736">
        <ele>2049.19</ele>
        <time>2019-07-19T14:45:20Z</time>
      </trkpt>
      <trkpt lat="42.89445" lon="0.19745">
        <ele>2047.75</ele>
        <time>2019-07-19T14:45:27Z</time>
      </trkpt>
      <trkpt lat="42.8945" lon="0.19755">
        <ele>2046.3</ele>
        <time>2019-07-19T14:45:39Z</time>
      </trkpt>
      <trkpt lat="42.8945" lon="0.19756">
        <ele>2046.3</ele>
        <time>2019-07-19T14:45:40Z</time>
      </trkpt>
      <trkpt lat="42.89455" lon="0.19765">
        <ele>2044.38</ele>
        <time>2019-07-19T14:45:52Z</time>
      </trkpt>
      <trkpt lat="42.89458" lon="0.19768">
        <ele>2044.38</ele>
        <time>2019-07-19T14:45:56Z</time>
      </trkpt>
      <trkpt lat="42.89467" lon="0.19773">
        <ele>2043.42</ele>
        <time>2019-07-19T14:46:08Z</time>
      </trkpt>
      <trkpt lat="42.89469" lon="0.19777">
        <ele>2043.42</ele>
        <time>2019-07-19T14:46:11Z</time>
      </trkpt>
      <trkpt lat="42.89474" lon="0.19782">
        <ele>2043.42</ele>
        <time>2019-07-19T14:46:16Z</time>
      </trkpt>
      <trkpt lat="42.89477" lon="0.19784">
        <ele>2043.42</ele>
        <time>2019-07-19T14:46:19Z</time>
      </trkpt>
      <trkpt lat="42.89481" lon="0.19787">
        <ele>2044.38</ele>
        <time>2019-07-19T14:46:24Z</time>
      </trkpt>
      <trkpt lat="42.89486" lon="0.19805">
        <ele>2043.42</ele>
        <time>2019-07-19T14:46:35Z</time>
      </trkpt>
      <trkpt lat="42.89493" lon="0.19809">
        <ele>2044.38</ele>
        <time>2019-07-19T14:46:43Z</time>
      </trkpt>
      <trkpt lat="42.89497" lon="0.19811">
        <ele>2044.38</ele>
        <time>2019-07-19T14:46:48Z</time>
      </trkpt>
      <trkpt lat="42.895" lon="0.19808">
        <ele>2043.9</ele>
        <time>2019-07-19T14:46:52Z</time>
      </trkpt>
      <trkpt lat="42.89509" lon="0.19812">
        <ele>2042.94</ele>
        <time>2019-07-19T14:47:02Z</time>
      </trkpt>
      <trkpt lat="42.89519" lon="0.19819">
        <ele>2043.42</ele>
        <time>2019-07-19T14:47:11Z</time>
      </trkpt>
      <trkpt lat="42.89527" lon="0.19828">
        <ele>2042.94</ele>
        <time>2019-07-19T14:47:22Z</time>
      </trkpt>
      <trkpt lat="42.89531" lon="0.1983">
        <ele>2041.5</ele>
        <time>2019-07-19T14:47:34Z</time>
      </trkpt>
      <trkpt lat="42.89534" lon="0.19831">
        <ele>2041.98</ele>
        <time>2019-07-19T14:47:44Z</time>
      </trkpt>
      <trkpt lat="42.8954" lon="0.19835">
        <ele>2042.46</ele>
        <time>2019-07-19T14:47:51Z</time>
      </trkpt>
      <trkpt lat="42.89542" lon="0.19838">
        <ele>2042.94</ele>
        <time>2019-07-19T14:47:53Z</time>
      </trkpt>
      <trkpt lat="42.89545" lon="0.19839">
        <ele>2042.94</ele>
        <time>2019-07-19T14:47:55Z</time>
      </trkpt>
      <trkpt lat="42.89548" lon="0.1984">
        <ele>2043.9</ele>
        <time>2019-07-19T14:48:00Z</time>
      </trkpt>
      <trkpt lat="42.89554" lon="0.19845">
        <ele>2042.94</ele>
        <time>2019-07-19T14:48:08Z</time>
      </trkpt>
      <trkpt lat="42.89556" lon="0.19847">
        <ele>2042.46</ele>
        <time>2019-07-19T14:48:10Z</time>
      </trkpt>
      <trkpt lat="42.89563" lon="0.19851">
        <ele>2042.46</ele>
        <time>2019-07-19T14:48:16Z</time>
      </trkpt>
      <trkpt lat="42.89571" lon="0.19856">
        <ele>2043.42</ele>
        <time>2019-07-19T14:48:27Z</time>
      </trkpt>
      <trkpt lat="42.89573" lon="0.19855">
        <ele>2042.94</ele>
        <time>2019-07-19T14:48:31Z</time>
      </trkpt>
      <trkpt lat="42.89583" lon="0.19855">
        <ele>2043.42</ele>
        <time>2019-07-19T14:48:41Z</time>
      </trkpt>
      <trkpt lat="42.89594" lon="0.19859">
        <ele>2042.94</ele>
        <time>2019-07-19T14:48:52Z</time>
      </trkpt>
      <trkpt lat="42.89597" lon="0.1986">
        <ele>2042.94</ele>
        <time>2019-07-19T14:48:55Z</time>
      </trkpt>
      <trkpt lat="42.89602" lon="0.19867">
        <ele>2041.98</ele>
        <time>2019-07-19T14:49:03Z</time>
      </trkpt>
      <trkpt lat="42.89608" lon="0.19875">
        <ele>2041.98</ele>
        <time>2019-07-19T14:49:13Z</time>
      </trkpt>
      <trkpt lat="42.8961" lon="0.19877">
        <ele>2041.98</ele>
        <time>2019-07-19T14:49:15Z</time>
      </trkpt>
      <trkpt lat="42.89616" lon="0.19884">
        <ele>2042.46</ele>
        <time>2019-07-19T14:49:25Z</time>
      </trkpt>
      <trkpt lat="42.89621" lon="0.19891">
        <ele>2043.42</ele>
        <time>2019-07-19T14:49:34Z</time>
      </trkpt>
      <trkpt lat="42.89627" lon="0.19904">
        <ele>2042.94</ele>
        <time>2019-07-19T14:49:45Z</time>
      </trkpt>
      <trkpt lat="42.89628" lon="0.19917">
        <ele>2042.94</ele>
        <time>2019-07-19T14:49:55Z</time>
      </trkpt>
      <trkpt lat="42.8963" lon="0.19921">
        <ele>2042.94</ele>
        <time>2019-07-19T14:49:58Z</time>
      </trkpt>
      <trkpt lat="42.89631" lon="0.19924">
        <ele>2042.94</ele>
        <time>2019-07-19T14:50:00Z</time>
      </trkpt>
      <trkpt lat="42.89633" lon="0.19928">
        <ele>2042.46</ele>
        <time>2019-07-19T14:50:04Z</time>
      </trkpt>
      <trkpt lat="42.89636" lon="0.19934">
        <ele>2043.42</ele>
        <time>2019-07-19T14:50:12Z</time>
      </trkpt>
      <trkpt lat="42.89637" lon="0.19937">
        <ele>2043.42</ele>
        <time>2019-07-19T14:50:15Z</time>
      </trkpt>
      <trkpt lat="42.89641" lon="0.19943">
        <ele>2043.9</ele>
        <time>2019-07-19T14:50:20Z</time>
      </trkpt>
      <trkpt lat="42.89644" lon="0.19951">
        <ele>2042.94</ele>
        <time>2019-07-19T14:50:26Z</time>
      </trkpt>
      <trkpt lat="42.89646" lon="0.19964">
        <ele>2042.94</ele>
        <time>2019-07-19T14:50:34Z</time>
      </trkpt>
      <trkpt lat="42.89647" lon="0.19968">
        <ele>2042.46</ele>
        <time>2019-07-19T14:50:37Z</time>
      </trkpt>
      <trkpt lat="42.89657" lon="0.19988">
        <ele>2042.94</ele>
        <time>2019-07-19T14:50:50Z</time>
      </trkpt>
      <trkpt lat="42.89657" lon="0.19989">
        <ele>2042.46</ele>
        <time>2019-07-19T14:50:51Z</time>
      </trkpt>
      <trkpt lat="42.89661" lon="0.19992">
        <ele>2042.94</ele>
        <time>2019-07-19T14:50:54Z</time>
      </trkpt>
      <trkpt lat="42.89672" lon="0.19999">
        <ele>2042.46</ele>
        <time>2019-07-19T14:51:06Z</time>
      </trkpt>
      <trkpt lat="42.89671" lon="0.19998">
        <ele>2041.02</ele>
        <time>2019-07-19T14:51:10Z</time>
      </trkpt>
      <trkpt lat="42.89671" lon="0.19998">
        <ele>2040.54</ele>
        <time>2019-07-19T14:51:36Z</time>
      </trkpt>
      <trkpt lat="42.89672" lon="0.19999">
        <ele>2040.54</ele>
        <time>2019-07-19T14:52:02Z</time>
      </trkpt>
      <trkpt lat="42.89672" lon="0.19999">
        <ele>2040.54</ele>
        <time>2019-07-19T14:52:34Z</time>
      </trkpt>
      <trkpt lat="42.89672" lon="0.2">
        <ele>2040.05</ele>
        <time>2019-07-19T14:53:04Z</time>
      </trkpt>
      <trkpt lat="42.89672" lon="0.2">
        <ele>2040.05</ele>
        <time>2019-07-19T14:53:42Z</time>
      </trkpt>
      <trkpt lat="42.89672" lon="0.2">
        <ele>2040.05</ele>
        <time>2019-07-19T14:54:20Z</time>
      </trkpt>
      <trkpt lat="42.89672" lon="0.2">
        <ele>2040.05</ele>
        <time>2019-07-19T14:54:52Z</time>
      </trkpt>
      <trkpt lat="42.89672" lon="0.20001">
        <ele>2040.05</ele>
        <time>2019-07-19T14:55:06Z</time>
      </trkpt>
      <trkpt lat="42.89673" lon="0.20002">
        <ele>2040.54</ele>
        <time>2019-07-19T14:55:11Z</time>
      </trkpt>
      <trkpt lat="42.89671" lon="0.20007">
        <ele>2039.57</ele>
        <time>2019-07-19T14:55:17Z</time>
      </trkpt>
      <trkpt lat="42.8967" lon="0.20009">
        <ele>2039.57</ele>
        <time>2019-07-19T14:55:19Z</time>
      </trkpt>
      <trkpt lat="42.89664" lon="0.20016">
        <ele>2038.13</ele>
        <time>2019-07-19T14:55:27Z</time>
      </trkpt>
      <trkpt lat="42.89659" lon="0.20018">
        <ele>2036.69</ele>
        <time>2019-07-19T14:55:33Z</time>
      </trkpt>
      <trkpt lat="42.89665" lon="0.20029">
        <ele>2034.77</ele>
        <time>2019-07-19T14:55:43Z</time>
      </trkpt>
      <trkpt lat="42.89665" lon="0.20033">
        <ele>2033.81</ele>
        <time>2019-07-19T14:55:46Z</time>
      </trkpt>
      <trkpt lat="42.89665" lon="0.20038">
        <ele>2032.36</ele>
        <time>2019-07-19T14:55:50Z</time>
      </trkpt>
      <trkpt lat="42.89666" lon="0.2004">
        <ele>2032.36</ele>
        <time>2019-07-19T14:55:52Z</time>
      </trkpt>
      <trkpt lat="42.89666" lon="0.20044">
        <ele>2031.4</ele>
        <time>2019-07-19T14:55:55Z</time>
      </trkpt>
      <trkpt lat="42.89672" lon="0.20042">
        <ele>2030.92</ele>
        <time>2019-07-19T14:56:00Z</time>
      </trkpt>
      <trkpt lat="42.89675" lon="0.20039">
        <ele>2030.92</ele>
        <time>2019-07-19T14:56:03Z</time>
      </trkpt>
      <trkpt lat="42.89679" lon="0.20034">
        <ele>2030.92</ele>
        <time>2019-07-19T14:56:07Z</time>
      </trkpt>
      <trkpt lat="42.89682" lon="0.20032">
        <ele>2030.92</ele>
        <time>2019-07-19T14:56:10Z</time>
      </trkpt>
      <trkpt lat="42.89685" lon="0.2003">
        <ele>2030.92</ele>
        <time>2019-07-19T14:56:12Z</time>
      </trkpt>
      <trkpt lat="42.89691" lon="0.20028">
        <ele>2029.96</ele>
        <time>2019-07-19T14:56:16Z</time>
      </trkpt>
      <trkpt lat="42.89694" lon="0.20027">
        <ele>2029.96</ele>
        <time>2019-07-19T14:56:18Z</time>
      </trkpt>
      <trkpt lat="42.89697" lon="0.20025">
        <ele>2032.84</ele>
        <time>2019-07-19T14:56:20Z</time>
      </trkpt>
      <trkpt lat="42.89699" lon="0.20024">
        <ele>2029.48</ele>
        <time>2019-07-19T14:56:21Z</time>
      </trkpt>
      <trkpt lat="42.89703" lon="0.20022">
        <ele>2029</ele>
        <time>2019-07-19T14:56:24Z</time>
      </trkpt>
      <trkpt lat="42.89707" lon="0.2002">
        <ele>2028.04</ele>
        <time>2019-07-19T14:56:27Z</time>
      </trkpt>
      <trkpt lat="42.89709" lon="0.20019">
        <ele>2028.04</ele>
        <time>2019-07-19T14:56:28Z</time>
      </trkpt>
      <trkpt lat="42.89714" lon="0.20017">
        <ele>2026.6</ele>
        <time>2019-07-19T14:56:32Z</time>
      </trkpt>
      <trkpt lat="42.89727" lon="0.20011">
        <ele>2026.12</ele>
        <time>2019-07-19T14:56:41Z</time>
      </trkpt>
      <trkpt lat="42.89733" lon="0.20003">
        <ele>2025.64</ele>
        <time>2019-07-19T14:56:47Z</time>
      </trkpt>
      <trkpt lat="42.89744" lon="0.20008">
        <ele>2025.64</ele>
        <time>2019-07-19T14:56:55Z</time>
      </trkpt>
      <trkpt lat="42.89752" lon="0.20012">
        <ele>2024.67</ele>
        <time>2019-07-19T14:57:01Z</time>
      </trkpt>
      <trkpt lat="42.89757" lon="0.20019">
        <ele>2021.31</ele>
        <time>2019-07-19T14:57:12Z</time>
      </trkpt>
      <trkpt lat="42.8976" lon="0.20022">
        <ele>2019.87</ele>
        <time>2019-07-19T14:57:17Z</time>
      </trkpt>
      <trkpt lat="42.89767" lon="0.20028">
        <ele>2017.46</ele>
        <time>2019-07-19T14:57:24Z</time>
      </trkpt>
      <trkpt lat="42.89778" lon="0.20033">
        <ele>2014.1</ele>
        <time>2019-07-19T14:57:32Z</time>
      </trkpt>
      <trkpt lat="42.89782" lon="0.20036">
        <ele>2013.14</ele>
        <time>2019-07-19T14:57:35Z</time>
      </trkpt>
      <trkpt lat="42.89789" lon="0.20041">
        <ele>2010.73</ele>
        <time>2019-07-19T14:57:41Z</time>
      </trkpt>
      <trkpt lat="42.89795" lon="0.20043">
        <ele>2009.77</ele>
        <time>2019-07-19T14:57:44Z</time>
      </trkpt>
      <trkpt lat="42.89799" lon="0.20046">
        <ele>2009.29</ele>
        <time>2019-07-19T14:57:47Z</time>
      </trkpt>
      <trkpt lat="42.89814" lon="0.2005">
        <ele>2006.41</ele>
        <time>2019-07-19T14:57:57Z</time>
      </trkpt>
      <trkpt lat="42.89815" lon="0.2005">
        <ele>2005.93</ele>
        <time>2019-07-19T14:57:58Z</time>
      </trkpt>
      <trkpt lat="42.89819" lon="0.2005">
        <ele>2005.45</ele>
        <time>2019-07-19T14:58:00Z</time>
      </trkpt>
      <trkpt lat="42.89829" lon="0.20054">
        <ele>2003.04</ele>
        <time>2019-07-19T14:58:08Z</time>
      </trkpt>
      <trkpt lat="42.89831" lon="0.20055">
        <ele>2002.08</ele>
        <time>2019-07-19T14:58:10Z</time>
      </trkpt>
      <trkpt lat="42.89833" lon="0.20055">
        <ele>2001.12</ele>
        <time>2019-07-19T14:58:12Z</time>
      </trkpt>
      <trkpt lat="42.89841" lon="0.20058">
        <ele>1998.72</ele>
        <time>2019-07-19T14:58:21Z</time>
      </trkpt>
      <trkpt lat="42.89853" lon="0.20063">
        <ele>1995.83</ele>
        <time>2019-07-19T14:58:31Z</time>
      </trkpt>
      <trkpt lat="42.89865" lon="0.20062">
        <ele>1993.91</ele>
        <time>2019-07-19T14:58:46Z</time>
      </trkpt>
      <trkpt lat="42.89866" lon="0.20064">
        <ele>1992.95</ele>
        <time>2019-07-19T14:58:56Z</time>
      </trkpt>
      <trkpt lat="42.89866" lon="0.20064">
        <ele>1992.47</ele>
        <time>2019-07-19T14:59:13Z</time>
      </trkpt>
      <trkpt lat="42.89867" lon="0.20067">
        <ele>1990.55</ele>
        <time>2019-07-19T14:59:24Z</time>
      </trkpt>
      <trkpt lat="42.89873" lon="0.20074">
        <ele>1988.62</ele>
        <time>2019-07-19T14:59:34Z</time>
      </trkpt>
      <trkpt lat="42.89874" lon="0.20076">
        <ele>1987.66</ele>
        <time>2019-07-19T14:59:37Z</time>
      </trkpt>
      <trkpt lat="42.89877" lon="0.20083">
        <ele>1986.22</ele>
        <time>2019-07-19T14:59:43Z</time>
      </trkpt>
      <trkpt lat="42.89877" lon="0.20097">
        <ele>1982.38</ele>
        <time>2019-07-19T14:59:51Z</time>
      </trkpt>
      <trkpt lat="42.89877" lon="0.20099">
        <ele>1982.38</ele>
        <time>2019-07-19T14:59:52Z</time>
      </trkpt>
      <trkpt lat="42.89877" lon="0.201">
        <ele>1982.38</ele>
        <time>2019-07-19T14:59:53Z</time>
      </trkpt>
      <trkpt lat="42.89872" lon="0.20112">
        <ele>1979.01</ele>
        <time>2019-07-19T15:00:03Z</time>
      </trkpt>
      <trkpt lat="42.89866" lon="0.20124">
        <ele>1975.65</ele>
        <time>2019-07-19T15:00:13Z</time>
      </trkpt>
      <trkpt lat="42.89861" lon="0.20135">
        <ele>1973.24</ele>
        <time>2019-07-19T15:00:21Z</time>
      </trkpt>
      <trkpt lat="42.89861" lon="0.20139">
        <ele>1972.28</ele>
        <time>2019-07-19T15:00:24Z</time>
      </trkpt>
      <trkpt lat="42.8986" lon="0.20145">
        <ele>1971.32</ele>
        <time>2019-07-19T15:00:28Z</time>
      </trkpt>
      <trkpt lat="42.89859" lon="0.20151">
        <ele>1969.88</ele>
        <time>2019-07-19T15:00:31Z</time>
      </trkpt>
      <trkpt lat="42.89862" lon="0.20174">
        <ele>1966.99</ele>
        <time>2019-07-19T15:00:43Z</time>
      </trkpt>
      <trkpt lat="42.89863" lon="0.20177">
        <ele>1966.99</ele>
        <time>2019-07-19T15:00:45Z</time>
      </trkpt>
      <trkpt lat="42.89866" lon="0.20183">
        <ele>1967.48</ele>
        <time>2019-07-19T15:00:53Z</time>
      </trkpt>
      <trkpt lat="42.8987" lon="0.20187">
        <ele>1967.96</ele>
        <time>2019-07-19T15:00:58Z</time>
      </trkpt>
      <trkpt lat="42.89874" lon="0.20197">
        <ele>1966.99</ele>
        <time>2019-07-19T15:01:03Z</time>
      </trkpt>
      <trkpt lat="42.89879" lon="0.20203">
        <ele>1966.03</ele>
        <time>2019-07-19T15:01:08Z</time>
      </trkpt>
      <trkpt lat="42.8989" lon="0.20219">
        <ele>1964.11</ele>
        <time>2019-07-19T15:01:19Z</time>
      </trkpt>
      <trkpt lat="42.89894" lon="0.20226">
        <ele>1963.63</ele>
        <time>2019-07-19T15:01:23Z</time>
      </trkpt>
      <trkpt lat="42.89899" lon="0.20234">
        <ele>1963.63</ele>
        <time>2019-07-19T15:01:29Z</time>
      </trkpt>
      <trkpt lat="42.89901" lon="0.20235">
        <ele>1963.63</ele>
        <time>2019-07-19T15:01:31Z</time>
      </trkpt>
      <trkpt lat="42.89909" lon="0.20243">
        <ele>1963.63</ele>
        <time>2019-07-19T15:01:38Z</time>
      </trkpt>
      <trkpt lat="42.89918" lon="0.20254">
        <ele>1962.67</ele>
        <time>2019-07-19T15:01:46Z</time>
      </trkpt>
      <trkpt lat="42.89923" lon="0.20262">
        <ele>1961.71</ele>
        <time>2019-07-19T15:01:52Z</time>
      </trkpt>
      <trkpt lat="42.89927" lon="0.20266">
        <ele>1960.75</ele>
        <time>2019-07-19T15:01:56Z</time>
      </trkpt>
      <trkpt lat="42.89939" lon="0.20271">
        <ele>1960.75</ele>
        <time>2019-07-19T15:02:06Z</time>
      </trkpt>
      <trkpt lat="42.89941" lon="0.20274">
        <ele>1960.75</ele>
        <time>2019-07-19T15:02:08Z</time>
      </trkpt>
      <trkpt lat="42.89948" lon="0.20288">
        <ele>1959.3</ele>
        <time>2019-07-19T15:02:16Z</time>
      </trkpt>
      <trkpt lat="42.89949" lon="0.20296">
        <ele>1958.82</ele>
        <time>2019-07-19T15:02:20Z</time>
      </trkpt>
      <trkpt lat="42.89951" lon="0.20304">
        <ele>1957.86</ele>
        <time>2019-07-19T15:02:24Z</time>
      </trkpt>
      <trkpt lat="42.89955" lon="0.20313">
        <ele>1955.94</ele>
        <time>2019-07-19T15:02:30Z</time>
      </trkpt>
      <trkpt lat="42.89957" lon="0.20331">
        <ele>1953.54</ele>
        <time>2019-07-19T15:02:41Z</time>
      </trkpt>
      <trkpt lat="42.8996" lon="0.20348">
        <ele>1951.13</ele>
        <time>2019-07-19T15:02:49Z</time>
      </trkpt>
      <trkpt lat="42.89969" lon="0.20369">
        <ele>1948.25</ele>
        <time>2019-07-19T15:03:01Z</time>
      </trkpt>
      <trkpt lat="42.89971" lon="0.20376">
        <ele>1947.29</ele>
        <time>2019-07-19T15:03:05Z</time>
      </trkpt>
      <trkpt lat="42.89973" lon="0.2038">
        <ele>1946.81</ele>
        <time>2019-07-19T15:03:07Z</time>
      </trkpt>
      <trkpt lat="42.89977" lon="0.20398">
        <ele>1943.44</ele>
        <time>2019-07-19T15:03:20Z</time>
      </trkpt>
      <trkpt lat="42.89977" lon="0.204">
        <ele>1942.96</ele>
        <time>2019-07-19T15:03:21Z</time>
      </trkpt>
      <trkpt lat="42.89985" lon="0.20408">
        <ele>1941.52</ele>
        <time>2019-07-19T15:03:29Z</time>
      </trkpt>
      <trkpt lat="42.89989" lon="0.20416">
        <ele>1940.08</ele>
        <time>2019-07-19T15:03:35Z</time>
      </trkpt>
      <trkpt lat="42.89994" lon="0.20426">
        <ele>1937.67</ele>
        <time>2019-07-19T15:03:42Z</time>
      </trkpt>
      <trkpt lat="42.9" lon="0.20429">
        <ele>1936.23</ele>
        <time>2019-07-19T15:03:47Z</time>
      </trkpt>
      <trkpt lat="42.90004" lon="0.20429">
        <ele>1935.75</ele>
        <time>2019-07-19T15:03:50Z</time>
      </trkpt>
      <trkpt lat="42.90007" lon="0.20431">
        <ele>1933.35</ele>
        <time>2019-07-19T15:03:56Z</time>
      </trkpt>
      <trkpt lat="42.90011" lon="0.20432">
        <ele>1931.91</ele>
        <time>2019-07-19T15:03:59Z</time>
      </trkpt>
      <trkpt lat="42.90014" lon="0.20431">
        <ele>1931.91</ele>
        <time>2019-07-19T15:04:02Z</time>
      </trkpt>
      <trkpt lat="42.90017" lon="0.20436">
        <ele>1930.46</ele>
        <time>2019-07-19T15:04:06Z</time>
      </trkpt>
      <trkpt lat="42.90024" lon="0.20439">
        <ele>1928.06</ele>
        <time>2019-07-19T15:04:13Z</time>
      </trkpt>
      <trkpt lat="42.90026" lon="0.2044">
        <ele>1927.58</ele>
        <time>2019-07-19T15:04:15Z</time>
      </trkpt>
      <trkpt lat="42.9003" lon="0.20441">
        <ele>1926.62</ele>
        <time>2019-07-19T15:04:18Z</time>
      </trkpt>
      <trkpt lat="42.90037" lon="0.20452">
        <ele>1923.25</ele>
        <time>2019-07-19T15:04:27Z</time>
      </trkpt>
      <trkpt lat="42.90037" lon="0.20453">
        <ele>1923.25</ele>
        <time>2019-07-19T15:04:28Z</time>
      </trkpt>
      <trkpt lat="42.90044" lon="0.20459">
        <ele>1921.81</ele>
        <time>2019-07-19T15:04:34Z</time>
      </trkpt>
      <trkpt lat="42.90048" lon="0.20463">
        <ele>1920.85</ele>
        <time>2019-07-19T15:04:38Z</time>
      </trkpt>
      <trkpt lat="42.90056" lon="0.20476">
        <ele>1918.45</ele>
        <time>2019-07-19T15:04:47Z</time>
      </trkpt>
      <trkpt lat="42.90057" lon="0.20478">
        <ele>1917.97</ele>
        <time>2019-07-19T15:04:48Z</time>
      </trkpt>
      <trkpt lat="42.9006" lon="0.20485">
        <ele>1917.01</ele>
        <time>2019-07-19T15:04:52Z</time>
      </trkpt>
      <trkpt lat="42.90067" lon="0.20491">
        <ele>1914.6</ele>
        <time>2019-07-19T15:04:59Z</time>
      </trkpt>
      <trkpt lat="42.90067" lon="0.20492">
        <ele>1914.6</ele>
        <time>2019-07-19T15:05:00Z</time>
      </trkpt>
      <trkpt lat="42.90071" lon="0.20496">
        <ele>1913.64</ele>
        <time>2019-07-19T15:05:03Z</time>
      </trkpt>
      <trkpt lat="42.90074" lon="0.20503">
        <ele>1911.72</ele>
        <time>2019-07-19T15:05:08Z</time>
      </trkpt>
      <trkpt lat="42.90078" lon="0.2051">
        <ele>1909.8</ele>
        <time>2019-07-19T15:05:13Z</time>
      </trkpt>
      <trkpt lat="42.90082" lon="0.20517">
        <ele>1907.39</ele>
        <time>2019-07-19T15:05:18Z</time>
      </trkpt>
      <trkpt lat="42.90092" lon="0.2053">
        <ele>1904.03</ele>
        <time>2019-07-19T15:05:29Z</time>
      </trkpt>
      <trkpt lat="42.90095" lon="0.20536">
        <ele>1902.11</ele>
        <time>2019-07-19T15:05:33Z</time>
      </trkpt>
      <trkpt lat="42.90097" lon="0.20543">
        <ele>1899.7</ele>
        <time>2019-07-19T15:05:38Z</time>
      </trkpt>
      <trkpt lat="42.90105" lon="0.20557">
        <ele>1895.86</ele>
        <time>2019-07-19T15:05:48Z</time>
      </trkpt>
      <trkpt lat="42.9011" lon="0.20571">
        <ele>1892.49</ele>
        <time>2019-07-19T15:05:57Z</time>
      </trkpt>
      <trkpt lat="42.90112" lon="0.20577">
        <ele>1891.53</ele>
        <time>2019-07-19T15:06:01Z</time>
      </trkpt>
      <trkpt lat="42.90113" lon="0.20582">
        <ele>1889.61</ele>
        <time>2019-07-19T15:06:05Z</time>
      </trkpt>
      <trkpt lat="42.90114" lon="0.20583">
        <ele>1889.13</ele>
        <time>2019-07-19T15:06:06Z</time>
      </trkpt>
      <trkpt lat="42.90117" lon="0.2059">
        <ele>1887.21</ele>
        <time>2019-07-19T15:06:11Z</time>
      </trkpt>
      <trkpt lat="42.90116" lon="0.20595">
        <ele>1892.01</ele>
        <time>2019-07-19T15:06:13Z</time>
      </trkpt>
      <trkpt lat="42.90116" lon="0.206">
        <ele>1885.76</ele>
        <time>2019-07-19T15:06:17Z</time>
      </trkpt>
      <trkpt lat="42.90116" lon="0.20601">
        <ele>1885.28</ele>
        <time>2019-07-19T15:06:18Z</time>
      </trkpt>
      <trkpt lat="42.9012" lon="0.20607">
        <ele>1884.32</ele>
        <time>2019-07-19T15:06:22Z</time>
      </trkpt>
      <trkpt lat="42.90122" lon="0.20612">
        <ele>1884.32</ele>
        <time>2019-07-19T15:06:25Z</time>
      </trkpt>
      <trkpt lat="42.90125" lon="0.20614">
        <ele>1886.24</ele>
        <time>2019-07-19T15:06:29Z</time>
      </trkpt>
      <trkpt lat="42.90125" lon="0.20615">
        <ele>1882.88</ele>
        <time>2019-07-19T15:06:30Z</time>
      </trkpt>
      <trkpt lat="42.90124" lon="0.20615">
        <ele>1881.92</ele>
        <time>2019-07-19T15:06:33Z</time>
      </trkpt>
      <trkpt lat="42.90126" lon="0.20617">
        <ele>1882.4</ele>
        <time>2019-07-19T15:06:35Z</time>
      </trkpt>
      <trkpt lat="42.90127" lon="0.20619">
        <ele>1882.88</ele>
        <time>2019-07-19T15:06:37Z</time>
      </trkpt>
      <trkpt lat="42.90133" lon="0.20633">
        <ele>1879.51</ele>
        <time>2019-07-19T15:06:46Z</time>
      </trkpt>
      <trkpt lat="42.90133" lon="0.20638">
        <ele>1878.07</ele>
        <time>2019-07-19T15:06:49Z</time>
      </trkpt>
      <trkpt lat="42.90133" lon="0.20638">
        <ele>1878.07</ele>
        <time>2019-07-19T15:06:50Z</time>
      </trkpt>
      <trkpt lat="42.90138" lon="0.20649">
        <ele>1876.15</ele>
        <time>2019-07-19T15:06:58Z</time>
      </trkpt>
      <trkpt lat="42.90141" lon="0.20657">
        <ele>1874.23</ele>
        <time>2019-07-19T15:07:03Z</time>
      </trkpt>
      <trkpt lat="42.90147" lon="0.20674">
        <ele>1870.86</ele>
        <time>2019-07-19T15:07:15Z</time>
      </trkpt>
      <trkpt lat="42.90149" lon="0.20677">
        <ele>1869.9</ele>
        <time>2019-07-19T15:07:17Z</time>
      </trkpt>
      <trkpt lat="42.9015" lon="0.20686">
        <ele>1868.46</ele>
        <time>2019-07-19T15:07:21Z</time>
      </trkpt>
      <trkpt lat="42.9015" lon="0.20688">
        <ele>1867.98</ele>
        <time>2019-07-19T15:07:22Z</time>
      </trkpt>
      <trkpt lat="42.90156" lon="0.207">
        <ele>1866.06</ele>
        <time>2019-07-19T15:07:29Z</time>
      </trkpt>
      <trkpt lat="42.90157" lon="0.20702">
        <ele>1865.58</ele>
        <time>2019-07-19T15:07:30Z</time>
      </trkpt>
      <trkpt lat="42.90164" lon="0.2072">
        <ele>1862.21</ele>
        <time>2019-07-19T15:07:40Z</time>
      </trkpt>
      <trkpt lat="42.90167" lon="0.20727">
        <ele>1860.77</ele>
        <time>2019-07-19T15:07:45Z</time>
      </trkpt>
      <trkpt lat="42.90168" lon="0.20728">
        <ele>1860.29</ele>
        <time>2019-07-19T15:07:47Z</time>
      </trkpt>
      <trkpt lat="42.90178" lon="0.20737">
        <ele>1856.92</ele>
        <time>2019-07-19T15:07:58Z</time>
      </trkpt>
      <trkpt lat="42.90181" lon="0.20741">
        <ele>1854.52</ele>
        <time>2019-07-19T15:08:08Z</time>
      </trkpt>
      <trkpt lat="42.90181" lon="0.2074">
        <ele>1854.52</ele>
        <time>2019-07-19T15:08:23Z</time>
      </trkpt>
      <trkpt lat="42.90184" lon="0.20742">
        <ele>1854.04</ele>
        <time>2019-07-19T15:08:27Z</time>
      </trkpt>
      <trkpt lat="42.90187" lon="0.20743">
        <ele>1852.12</ele>
        <time>2019-07-19T15:08:31Z</time>
      </trkpt>
      <trkpt lat="42.90184" lon="0.20749">
        <ele>1850.19</ele>
        <time>2019-07-19T15:08:38Z</time>
      </trkpt>
      <trkpt lat="42.90177" lon="0.20756">
        <ele>1848.75</ele>
        <time>2019-07-19T15:08:45Z</time>
      </trkpt>
      <trkpt lat="42.90172" lon="0.20759">
        <ele>1846.83</ele>
        <time>2019-07-19T15:08:51Z</time>
      </trkpt>
      <trkpt lat="42.9017" lon="0.20766">
        <ele>1844.91</ele>
        <time>2019-07-19T15:08:58Z</time>
      </trkpt>
      <trkpt lat="42.90169" lon="0.20771">
        <ele>1843.47</ele>
        <time>2019-07-19T15:09:02Z</time>
      </trkpt>
      <trkpt lat="42.90171" lon="0.20772">
        <ele>1842.5</ele>
        <time>2019-07-19T15:09:05Z</time>
      </trkpt>
      <trkpt lat="42.90174" lon="0.20778">
        <ele>1840.58</ele>
        <time>2019-07-19T15:09:10Z</time>
      </trkpt>
      <trkpt lat="42.90174" lon="0.20784">
        <ele>1839.14</ele>
        <time>2019-07-19T15:09:15Z</time>
      </trkpt>
      <trkpt lat="42.90176" lon="0.20787">
        <ele>1838.66</ele>
        <time>2019-07-19T15:09:20Z</time>
      </trkpt>
      <trkpt lat="42.90178" lon="0.20786">
        <ele>1837.7</ele>
        <time>2019-07-19T15:09:23Z</time>
      </trkpt>
      <trkpt lat="42.90178" lon="0.20788">
        <ele>1836.74</ele>
        <time>2019-07-19T15:09:25Z</time>
      </trkpt>
      <trkpt lat="42.90179" lon="0.2079">
        <ele>1835.77</ele>
        <time>2019-07-19T15:09:27Z</time>
      </trkpt>
      <trkpt lat="42.90181" lon="0.2079">
        <ele>1835.77</ele>
        <time>2019-07-19T15:09:29Z</time>
      </trkpt>
      <trkpt lat="42.90183" lon="0.2079">
        <ele>1834.81</ele>
        <time>2019-07-19T15:09:32Z</time>
      </trkpt>
      <trkpt lat="42.9019" lon="0.20796">
        <ele>1832.41</ele>
        <time>2019-07-19T15:09:40Z</time>
      </trkpt>
      <trkpt lat="42.90194" lon="0.20797">
        <ele>1830.49</ele>
        <time>2019-07-19T15:09:44Z</time>
      </trkpt>
      <trkpt lat="42.90196" lon="0.20797">
        <ele>1830.01</ele>
        <time>2019-07-19T15:09:46Z</time>
      </trkpt>
      <trkpt lat="42.90197" lon="0.20798">
        <ele>1829.53</ele>
        <time>2019-07-19T15:09:48Z</time>
      </trkpt>
      <trkpt lat="42.90204" lon="0.20798">
        <ele>1827.12</ele>
        <time>2019-07-19T15:09:55Z</time>
      </trkpt>
      <trkpt lat="42.90207" lon="0.20799">
        <ele>1826.16</ele>
        <time>2019-07-19T15:09:58Z</time>
      </trkpt>
      <trkpt lat="42.90214" lon="0.20808">
        <ele>1822.8</ele>
        <time>2019-07-19T15:10:07Z</time>
      </trkpt>
      <trkpt lat="42.9022" lon="0.20813">
        <ele>1820.87</ele>
        <time>2019-07-19T15:10:14Z</time>
      </trkpt>
      <trkpt lat="42.90222" lon="0.20817">
        <ele>1818.95</ele>
        <time>2019-07-19T15:10:19Z</time>
      </trkpt>
      <trkpt lat="42.9022" lon="0.20829">
        <ele>1816.55</ele>
        <time>2019-07-19T15:10:29Z</time>
      </trkpt>
      <trkpt lat="42.9022" lon="0.20834">
        <ele>1815.11</ele>
        <time>2019-07-19T15:10:34Z</time>
      </trkpt>
      <trkpt lat="42.90224" lon="0.20838">
        <ele>1813.66</ele>
        <time>2019-07-19T15:10:40Z</time>
      </trkpt>
      <trkpt lat="42.90226" lon="0.20838">
        <ele>1812.22</ele>
        <time>2019-07-19T15:10:44Z</time>
      </trkpt>
      <trkpt lat="42.90227" lon="0.2084">
        <ele>1811.26</ele>
        <time>2019-07-19T15:10:48Z</time>
      </trkpt>
      <trkpt lat="42.90231" lon="0.20838">
        <ele>1809.34</ele>
        <time>2019-07-19T15:10:56Z</time>
      </trkpt>
      <trkpt lat="42.90233" lon="0.20839">
        <ele>1808.38</ele>
        <time>2019-07-19T15:10:58Z</time>
      </trkpt>
      <trkpt lat="42.90241" lon="0.20839">
        <ele>1805.49</ele>
        <time>2019-07-19T15:11:08Z</time>
      </trkpt>
      <trkpt lat="42.90245" lon="0.2084">
        <ele>1804.53</ele>
        <time>2019-07-19T15:11:12Z</time>
      </trkpt>
      <trkpt lat="42.90252" lon="0.20837">
        <ele>1803.09</ele>
        <time>2019-07-19T15:11:23Z</time>
      </trkpt>
      <trkpt lat="42.90254" lon="0.20834">
        <ele>1800.69</ele>
        <time>2019-07-19T15:11:33Z</time>
      </trkpt>
      <trkpt lat="42.90258" lon="0.20834">
        <ele>1799.73</ele>
        <time>2019-07-19T15:11:44Z</time>
      </trkpt>
      <trkpt lat="42.90263" lon="0.20836">
        <ele>1796.84</ele>
        <time>2019-07-19T15:11:55Z</time>
      </trkpt>
      <trkpt lat="42.90265" lon="0.20836">
        <ele>1794.92</ele>
        <time>2019-07-19T15:12:05Z</time>
      </trkpt>
      <trkpt lat="42.90268" lon="0.20834">
        <ele>1794.44</ele>
        <time>2019-07-19T15:12:11Z</time>
      </trkpt>
      <trkpt lat="42.9027" lon="0.2084">
        <ele>1792.52</ele>
        <time>2019-07-19T15:12:16Z</time>
      </trkpt>
      <trkpt lat="42.90274" lon="0.20842">
        <ele>1790.59</ele>
        <time>2019-07-19T15:12:25Z</time>
      </trkpt>
      <trkpt lat="42.90278" lon="0.20841">
        <ele>1788.19</ele>
        <time>2019-07-19T15:12:35Z</time>
      </trkpt>
      <trkpt lat="42.90279" lon="0.20849">
        <ele>1785.79</ele>
        <time>2019-07-19T15:12:46Z</time>
      </trkpt>
      <trkpt lat="42.90279" lon="0.20849">
        <ele>1785.31</ele>
        <time>2019-07-19T15:12:48Z</time>
      </trkpt>
      <trkpt lat="42.90285" lon="0.20849">
        <ele>1782.9</ele>
        <time>2019-07-19T15:12:57Z</time>
      </trkpt>
      <trkpt lat="42.90287" lon="0.20852">
        <ele>1781.46</ele>
        <time>2019-07-19T15:13:03Z</time>
      </trkpt>
      <trkpt lat="42.90287" lon="0.20856">
        <ele>1780.5</ele>
        <time>2019-07-19T15:13:07Z</time>
      </trkpt>
      <trkpt lat="42.90291" lon="0.20857">
        <ele>1779.06</ele>
        <time>2019-07-19T15:13:12Z</time>
      </trkpt>
      <trkpt lat="42.90299" lon="0.20861">
        <ele>1777.13</ele>
        <time>2019-07-19T15:13:18Z</time>
      </trkpt>
      <trkpt lat="42.90303" lon="0.2086">
        <ele>1776.65</ele>
        <time>2019-07-19T15:13:21Z</time>
      </trkpt>
      <trkpt lat="42.90309" lon="0.20862">
        <ele>1776.65</ele>
        <time>2019-07-19T15:13:26Z</time>
      </trkpt>
      <trkpt lat="42.90313" lon="0.20866">
        <ele>1777.13</ele>
        <time>2019-07-19T15:13:31Z</time>
      </trkpt>
      <trkpt lat="42.90315" lon="0.20868">
        <ele>1777.13</ele>
        <time>2019-07-19T15:13:34Z</time>
      </trkpt>
      <trkpt lat="42.9032" lon="0.20873">
        <ele>1777.61</ele>
        <time>2019-07-19T15:13:39Z</time>
      </trkpt>
      <trkpt lat="42.90322" lon="0.20874">
        <ele>1778.1</ele>
        <time>2019-07-19T15:13:41Z</time>
      </trkpt>
      <trkpt lat="42.90327" lon="0.20876">
        <ele>1778.1</ele>
        <time>2019-07-19T15:13:53Z</time>
      </trkpt>
      <trkpt lat="42.90329" lon="0.20877">
        <ele>1777.61</ele>
        <time>2019-07-19T15:13:58Z</time>
      </trkpt>
      <trkpt lat="42.90336" lon="0.20884">
        <ele>1775.21</ele>
        <time>2019-07-19T15:14:10Z</time>
      </trkpt>
      <trkpt lat="42.90342" lon="0.20886">
        <ele>1773.77</ele>
        <time>2019-07-19T15:14:16Z</time>
      </trkpt>
      <trkpt lat="42.90345" lon="0.20889">
        <ele>1773.29</ele>
        <time>2019-07-19T15:14:20Z</time>
      </trkpt>
      <trkpt lat="42.90347" lon="0.2089">
        <ele>1772.33</ele>
        <time>2019-07-19T15:14:24Z</time>
      </trkpt>
      <trkpt lat="42.90351" lon="0.20894">
        <ele>1770.89</ele>
        <time>2019-07-19T15:14:30Z</time>
      </trkpt>
      <trkpt lat="42.90354" lon="0.20895">
        <ele>1769.92</ele>
        <time>2019-07-19T15:14:33Z</time>
      </trkpt>
      <trkpt lat="42.90355" lon="0.20897">
        <ele>1769.44</ele>
        <time>2019-07-19T15:14:35Z</time>
      </trkpt>
      <trkpt lat="42.9036" lon="0.209">
        <ele>1768</ele>
        <time>2019-07-19T15:14:41Z</time>
      </trkpt>
      <trkpt lat="42.90369" lon="0.20909">
        <ele>1765.12</ele>
        <time>2019-07-19T15:14:55Z</time>
      </trkpt>
      <trkpt lat="42.90372" lon="0.2091">
        <ele>1765.12</ele>
        <time>2019-07-19T15:14:58Z</time>
      </trkpt>
      <trkpt lat="42.90377" lon="0.2091">
        <ele>1764.16</ele>
        <time>2019-07-19T15:15:02Z</time>
      </trkpt>
      <trkpt lat="42.90383" lon="0.20913">
        <ele>1762.71</ele>
        <time>2019-07-19T15:15:11Z</time>
      </trkpt>
      <trkpt lat="42.90387" lon="0.20918">
        <ele>1760.79</ele>
        <time>2019-07-19T15:15:17Z</time>
      </trkpt>
      <trkpt lat="42.90394" lon="0.20923">
        <ele>1759.35</ele>
        <time>2019-07-19T15:15:27Z</time>
      </trkpt>
      <trkpt lat="42.90395" lon="0.20924">
        <ele>1758.87</ele>
        <time>2019-07-19T15:15:28Z</time>
      </trkpt>
      <trkpt lat="42.90402" lon="0.20931">
        <ele>1756.47</ele>
        <time>2019-07-19T15:15:38Z</time>
      </trkpt>
      <trkpt lat="42.90408" lon="0.20933">
        <ele>1755.5</ele>
        <time>2019-07-19T15:15:43Z</time>
      </trkpt>
      <trkpt lat="42.90412" lon="0.20935">
        <ele>1754.54</ele>
        <time>2019-07-19T15:15:47Z</time>
      </trkpt>
      <trkpt lat="42.90416" lon="0.20939">
        <ele>1753.1</ele>
        <time>2019-07-19T15:15:52Z</time>
      </trkpt>
      <trkpt lat="42.90422" lon="0.20938">
        <ele>1752.14</ele>
        <time>2019-07-19T15:15:57Z</time>
      </trkpt>
      <trkpt lat="42.90428" lon="0.2094">
        <ele>1750.7</ele>
        <time>2019-07-19T15:16:02Z</time>
      </trkpt>
      <trkpt lat="42.90433" lon="0.20945">
        <ele>1748.29</ele>
        <time>2019-07-19T15:16:08Z</time>
      </trkpt>
      <trkpt lat="42.90434" lon="0.20946">
        <ele>1748.29</ele>
        <time>2019-07-19T15:16:10Z</time>
      </trkpt>
      <trkpt lat="42.9044" lon="0.2095">
        <ele>1746.85</ele>
        <time>2019-07-19T15:16:17Z</time>
      </trkpt>
      <trkpt lat="42.90441" lon="0.20951">
        <ele>1745.89</ele>
        <time>2019-07-19T15:16:20Z</time>
      </trkpt>
      <trkpt lat="42.90444" lon="0.20954">
        <ele>1745.41</ele>
        <time>2019-07-19T15:16:23Z</time>
      </trkpt>
      <trkpt lat="42.90447" lon="0.20961">
        <ele>1744.45</ele>
        <time>2019-07-19T15:16:28Z</time>
      </trkpt>
      <trkpt lat="42.90452" lon="0.20971">
        <ele>1743.97</ele>
        <time>2019-07-19T15:16:41Z</time>
      </trkpt>
      <trkpt lat="42.90457" lon="0.2097">
        <ele>1741.08</ele>
        <time>2019-07-19T15:16:52Z</time>
      </trkpt>
      <trkpt lat="42.90457" lon="0.20958">
        <ele>1738.2</ele>
        <time>2019-07-19T15:17:04Z</time>
      </trkpt>
      <trkpt lat="42.90457" lon="0.20956">
        <ele>1737.72</ele>
        <time>2019-07-19T15:17:06Z</time>
      </trkpt>
      <trkpt lat="42.9046" lon="0.20954">
        <ele>1737.24</ele>
        <time>2019-07-19T15:17:09Z</time>
      </trkpt>
      <trkpt lat="42.90462" lon="0.20952">
        <ele>1736.76</ele>
        <time>2019-07-19T15:17:12Z</time>
      </trkpt>
      <trkpt lat="42.90465" lon="0.2095">
        <ele>1735.32</ele>
        <time>2019-07-19T15:17:17Z</time>
      </trkpt>
      <trkpt lat="42.90472" lon="0.20951">
        <ele>1732.43</ele>
        <time>2019-07-19T15:17:29Z</time>
      </trkpt>
      <trkpt lat="42.90475" lon="0.20952">
        <ele>1730.03</ele>
        <time>2019-07-19T15:17:41Z</time>
      </trkpt>
      <trkpt lat="42.90478" lon="0.20956">
        <ele>1727.15</ele>
        <time>2019-07-19T15:17:53Z</time>
      </trkpt>
      <trkpt lat="42.90481" lon="0.20959">
        <ele>1725.22</ele>
        <time>2019-07-19T15:18:03Z</time>
      </trkpt>
      <trkpt lat="42.90484" lon="0.20961">
        <ele>1723.78</ele>
        <time>2019-07-19T15:18:10Z</time>
      </trkpt>
      <trkpt lat="42.90491" lon="0.20958">
        <ele>1720.9</ele>
        <time>2019-07-19T15:18:18Z</time>
      </trkpt>
      <trkpt lat="42.90495" lon="0.20952">
        <ele>1718.49</ele>
        <time>2019-07-19T15:18:25Z</time>
      </trkpt>
      <trkpt lat="42.90497" lon="0.20951">
        <ele>1718.01</ele>
        <time>2019-07-19T15:18:28Z</time>
      </trkpt>
      <trkpt lat="42.905" lon="0.20947">
        <ele>1716.57</ele>
        <time>2019-07-19T15:18:32Z</time>
      </trkpt>
      <trkpt lat="42.90505" lon="0.20942">
        <ele>1714.65</ele>
        <time>2019-07-19T15:18:43Z</time>
      </trkpt>
      <trkpt lat="42.90505" lon="0.20933">
        <ele>1712.73</ele>
        <time>2019-07-19T15:18:54Z</time>
      </trkpt>
      <trkpt lat="42.90506" lon="0.20932">
        <ele>1712.25</ele>
        <time>2019-07-19T15:18:56Z</time>
      </trkpt>
      <trkpt lat="42.90509" lon="0.20931">
        <ele>1711.28</ele>
        <time>2019-07-19T15:18:59Z</time>
      </trkpt>
      <trkpt lat="42.90512" lon="0.20926">
        <ele>1708.88</ele>
        <time>2019-07-19T15:19:08Z</time>
      </trkpt>
      <trkpt lat="42.90513" lon="0.20925">
        <ele>1708.88</ele>
        <time>2019-07-19T15:19:12Z</time>
      </trkpt>
      <trkpt lat="42.90516" lon="0.20922">
        <ele>1707.44</ele>
        <time>2019-07-19T15:19:16Z</time>
      </trkpt>
      <trkpt lat="42.90523" lon="0.20922">
        <ele>1704.55</ele>
        <time>2019-07-19T15:19:24Z</time>
      </trkpt>
      <trkpt lat="42.90528" lon="0.2092">
        <ele>1702.15</ele>
        <time>2019-07-19T15:19:30Z</time>
      </trkpt>
      <trkpt lat="42.90533" lon="0.20918">
        <ele>1699.75</ele>
        <time>2019-07-19T15:19:37Z</time>
      </trkpt>
      <trkpt lat="42.90534" lon="0.20916">
        <ele>1699.27</ele>
        <time>2019-07-19T15:19:39Z</time>
      </trkpt>
      <trkpt lat="42.90542" lon="0.20915">
        <ele>1695.9</ele>
        <time>2019-07-19T15:19:50Z</time>
      </trkpt>
      <trkpt lat="42.90543" lon="0.20914">
        <ele>1695.42</ele>
        <time>2019-07-19T15:19:52Z</time>
      </trkpt>
      <trkpt lat="42.90552" lon="0.20913">
        <ele>1692.06</ele>
        <time>2019-07-19T15:20:04Z</time>
      </trkpt>
      <trkpt lat="42.90557" lon="0.20914">
        <ele>1691.1</ele>
        <time>2019-07-19T15:20:09Z</time>
      </trkpt>
      <trkpt lat="42.90561" lon="0.20914">
        <ele>1689.65</ele>
        <time>2019-07-19T15:20:21Z</time>
      </trkpt>
      <trkpt lat="42.90563" lon="0.20916">
        <ele>1688.69</ele>
        <time>2019-07-19T15:20:39Z</time>
      </trkpt>
      <trkpt lat="42.90565" lon="0.20917">
        <ele>1687.73</ele>
        <time>2019-07-19T15:20:43Z</time>
      </trkpt>
      <trkpt lat="42.90566" lon="0.20927">
        <ele>1684.37</ele>
        <time>2019-07-19T15:20:54Z</time>
      </trkpt>
      <trkpt lat="42.90562" lon="0.20928">
        <ele>1681.96</ele>
        <time>2019-07-19T15:21:05Z</time>
      </trkpt>
      <trkpt lat="42.90562" lon="0.20928">
        <ele>1681.48</ele>
        <time>2019-07-19T15:21:29Z</time>
      </trkpt>
      <trkpt lat="42.90561" lon="0.2093">
        <ele>1681.96</ele>
        <time>2019-07-19T15:21:37Z</time>
      </trkpt>
      <trkpt lat="42.90559" lon="0.20935">
        <ele>1681</ele>
        <time>2019-07-19T15:21:50Z</time>
      </trkpt>
      <trkpt lat="42.90558" lon="0.20938">
        <ele>1679.56</ele>
        <time>2019-07-19T15:21:54Z</time>
      </trkpt>
      <trkpt lat="42.90553" lon="0.20952">
        <ele>1676.68</ele>
        <time>2019-07-19T15:22:04Z</time>
      </trkpt>
      <trkpt lat="42.90553" lon="0.20955">
        <ele>1676.2</ele>
        <time>2019-07-19T15:22:06Z</time>
      </trkpt>
      <trkpt lat="42.9055" lon="0.20963">
        <ele>1674.27</ele>
        <time>2019-07-19T15:22:14Z</time>
      </trkpt>
      <trkpt lat="42.90552" lon="0.20967">
        <ele>1673.31</ele>
        <time>2019-07-19T15:22:17Z</time>
      </trkpt>
      <trkpt lat="42.90551" lon="0.20971">
        <ele>1672.83</ele>
        <time>2019-07-19T15:22:20Z</time>
      </trkpt>
      <trkpt lat="42.9055" lon="0.20985">
        <ele>1668.99</ele>
        <time>2019-07-19T15:22:31Z</time>
      </trkpt>
      <trkpt lat="42.90549" lon="0.20988">
        <ele>1668.51</ele>
        <time>2019-07-19T15:22:33Z</time>
      </trkpt>
      <trkpt lat="42.90546" lon="0.20994">
        <ele>1667.06</ele>
        <time>2019-07-19T15:22:38Z</time>
      </trkpt>
      <trkpt lat="42.90545" lon="0.21003">
        <ele>1665.62</ele>
        <time>2019-07-19T15:22:44Z</time>
      </trkpt>
      <trkpt lat="42.90546" lon="0.21011">
        <ele>1664.18</ele>
        <time>2019-07-19T15:22:57Z</time>
      </trkpt>
      <trkpt lat="42.90549" lon="0.21015">
        <ele>1662.26</ele>
        <time>2019-07-19T15:23:02Z</time>
      </trkpt>
      <trkpt lat="42.90551" lon="0.21022">
        <ele>1660.81</ele>
        <time>2019-07-19T15:23:07Z</time>
      </trkpt>
      <trkpt lat="42.90554" lon="0.21028">
        <ele>1657.45</ele>
        <time>2019-07-19T15:23:17Z</time>
      </trkpt>
      <trkpt lat="42.90557" lon="0.21028">
        <ele>1656.01</ele>
        <time>2019-07-19T15:23:22Z</time>
      </trkpt>
      <trkpt lat="42.90557" lon="0.21032">
        <ele>1655.05</ele>
        <time>2019-07-19T15:23:27Z</time>
      </trkpt>
      <trkpt lat="42.90558" lon="0.21035">
        <ele>1654.09</ele>
        <time>2019-07-19T15:23:29Z</time>
      </trkpt>
      <trkpt lat="42.90559" lon="0.21037">
        <ele>1653.12</ele>
        <time>2019-07-19T15:23:31Z</time>
      </trkpt>
      <trkpt lat="42.9056" lon="0.21039">
        <ele>1652.64</ele>
        <time>2019-07-19T15:23:33Z</time>
      </trkpt>
      <trkpt lat="42.90563" lon="0.21046">
        <ele>1649.28</ele>
        <time>2019-07-19T15:23:40Z</time>
      </trkpt>
      <trkpt lat="42.90567" lon="0.21058">
        <ele>1646.4</ele>
        <time>2019-07-19T15:23:50Z</time>
      </trkpt>
      <trkpt lat="42.90571" lon="0.21074">
        <ele>1643.03</ele>
        <time>2019-07-19T15:24:03Z</time>
      </trkpt>
      <trkpt lat="42.90572" lon="0.21075">
        <ele>1642.55</ele>
        <time>2019-07-19T15:24:04Z</time>
      </trkpt>
      <trkpt lat="42.90577" lon="0.21079">
        <ele>1642.07</ele>
        <time>2019-07-19T15:24:09Z</time>
      </trkpt>
      <trkpt lat="42.90578" lon="0.21084">
        <ele>1641.59</ele>
        <time>2019-07-19T15:24:12Z</time>
      </trkpt>
      <trkpt lat="42.90582" lon="0.21091">
        <ele>1640.63</ele>
        <time>2019-07-19T15:24:19Z</time>
      </trkpt>
      <trkpt lat="42.90587" lon="0.21098">
        <ele>1638.7</ele>
        <time>2019-07-19T15:24:26Z</time>
      </trkpt>
      <trkpt lat="42.90589" lon="0.21098">
        <ele>1638.22</ele>
        <time>2019-07-19T15:24:29Z</time>
      </trkpt>
      <trkpt lat="42.90591" lon="0.21099">
        <ele>1636.78</ele>
        <time>2019-07-19T15:24:31Z</time>
      </trkpt>
      <trkpt lat="42.90594" lon="0.21099">
        <ele>1636.3</ele>
        <time>2019-07-19T15:24:33Z</time>
      </trkpt>
      <trkpt lat="42.90607" lon="0.21106">
        <ele>1632.94</ele>
        <time>2019-07-19T15:24:45Z</time>
      </trkpt>
      <trkpt lat="42.90608" lon="0.21107">
        <ele>1632.94</ele>
        <time>2019-07-19T15:24:46Z</time>
      </trkpt>
      <trkpt lat="42.9061" lon="0.21112">
        <ele>1631.01</ele>
        <time>2019-07-19T15:24:51Z</time>
      </trkpt>
      <trkpt lat="42.90612" lon="0.21114">
        <ele>1630.53</ele>
        <time>2019-07-19T15:24:53Z</time>
      </trkpt>
      <trkpt lat="42.90618" lon="0.21117">
        <ele>1629.57</ele>
        <time>2019-07-19T15:24:58Z</time>
      </trkpt>
      <trkpt lat="42.90623" lon="0.21117">
        <ele>1629.57</ele>
        <time>2019-07-19T15:25:02Z</time>
      </trkpt>
      <trkpt lat="42.90625" lon="0.21119">
        <ele>1629.09</ele>
        <time>2019-07-19T15:25:04Z</time>
      </trkpt>
      <trkpt lat="42.90632" lon="0.21122">
        <ele>1628.13</ele>
        <time>2019-07-19T15:25:10Z</time>
      </trkpt>
      <trkpt lat="42.90635" lon="0.21122">
        <ele>1628.13</ele>
        <time>2019-07-19T15:25:12Z</time>
      </trkpt>
      <trkpt lat="42.90643" lon="0.21121">
        <ele>1626.69</ele>
        <time>2019-07-19T15:25:17Z</time>
      </trkpt>
      <trkpt lat="42.90657" lon="0.21123">
        <ele>1624.28</ele>
        <time>2019-07-19T15:25:28Z</time>
      </trkpt>
      <trkpt lat="42.90659" lon="0.21123">
        <ele>1624.28</ele>
        <time>2019-07-19T15:25:29Z</time>
      </trkpt>
      <trkpt lat="42.90672" lon="0.21127">
        <ele>1622.84</ele>
        <time>2019-07-19T15:25:39Z</time>
      </trkpt>
      <trkpt lat="42.90675" lon="0.21127">
        <ele>1622.36</ele>
        <time>2019-07-19T15:25:41Z</time>
      </trkpt>
      <trkpt lat="42.90676" lon="0.21126">
        <ele>1621.88</ele>
        <time>2019-07-19T15:25:42Z</time>
      </trkpt>
      <trkpt lat="42.90679" lon="0.21124">
        <ele>1621.4</ele>
        <time>2019-07-19T15:25:46Z</time>
      </trkpt>
      <trkpt lat="42.90689" lon="0.21125">
        <ele>1619.96</ele>
        <time>2019-07-19T15:25:55Z</time>
      </trkpt>
      <trkpt lat="42.9069" lon="0.21125">
        <ele>1619.96</ele>
        <time>2019-07-19T15:25:56Z</time>
      </trkpt>
      <trkpt lat="42.90698" lon="0.21121">
        <ele>1618.04</ele>
        <time>2019-07-19T15:26:03Z</time>
      </trkpt>
      <trkpt lat="42.907" lon="0.2112">
        <ele>1617.56</ele>
        <time>2019-07-19T15:26:05Z</time>
      </trkpt>
      <trkpt lat="42.90702" lon="0.21125">
        <ele>1616.11</ele>
        <time>2019-07-19T15:26:08Z</time>
      </trkpt>
      <trkpt lat="42.90703" lon="0.21133">
        <ele>1615.63</ele>
        <time>2019-07-19T15:26:11Z</time>
      </trkpt>
      <trkpt lat="42.90712" lon="0.21147">
        <ele>1612.27</ele>
        <time>2019-07-19T15:26:23Z</time>
      </trkpt>
      <trkpt lat="42.90716" lon="0.21151">
        <ele>1611.79</ele>
        <time>2019-07-19T15:26:29Z</time>
      </trkpt>
      <trkpt lat="42.90717" lon="0.21161">
        <ele>1609.86</ele>
        <time>2019-07-19T15:26:35Z</time>
      </trkpt>
      <trkpt lat="42.90723" lon="0.21171">
        <ele>1608.9</ele>
        <time>2019-07-19T15:26:42Z</time>
      </trkpt>
      <trkpt lat="42.90721" lon="0.21174">
        <ele>1609.38</ele>
        <time>2019-07-19T15:26:59Z</time>
      </trkpt>
      <trkpt lat="42.9072" lon="0.21176">
        <ele>1608.9</ele>
        <time>2019-07-19T15:27:02Z</time>
      </trkpt>
      <trkpt lat="42.90724" lon="0.21186">
        <ele>1608.42</ele>
        <time>2019-07-19T15:27:10Z</time>
      </trkpt>
      <trkpt lat="42.90727" lon="0.21189">
        <ele>1608.42</ele>
        <time>2019-07-19T15:27:13Z</time>
      </trkpt>
      <trkpt lat="42.9073" lon="0.21195">
        <ele>1607.94</ele>
        <time>2019-07-19T15:27:18Z</time>
      </trkpt>
      <trkpt lat="42.9074" lon="0.21205">
        <ele>1607.46</ele>
        <time>2019-07-19T15:27:29Z</time>
      </trkpt>
      <trkpt lat="42.90742" lon="0.21209">
        <ele>1606.5</ele>
        <time>2019-07-19T15:27:32Z</time>
      </trkpt>
      <trkpt lat="42.9075" lon="0.21219">
        <ele>1606.5</ele>
        <time>2019-07-19T15:27:38Z</time>
      </trkpt>
      <trkpt lat="42.90753" lon="0.21223">
        <ele>1606.5</ele>
        <time>2019-07-19T15:27:42Z</time>
      </trkpt>
      <trkpt lat="42.90754" lon="0.2123">
        <ele>1604.58</ele>
        <time>2019-07-19T15:27:46Z</time>
      </trkpt>
      <trkpt lat="42.90757" lon="0.21242">
        <ele>1604.58</ele>
        <time>2019-07-19T15:27:53Z</time>
      </trkpt>
      <trkpt lat="42.90759" lon="0.21247">
        <ele>1604.58</ele>
        <time>2019-07-19T15:27:56Z</time>
      </trkpt>
      <trkpt lat="42.90758" lon="0.21249">
        <ele>1604.58</ele>
        <time>2019-07-19T15:27:58Z</time>
      </trkpt>
      <trkpt lat="42.90761" lon="0.21256">
        <ele>1603.62</ele>
        <time>2019-07-19T15:28:03Z</time>
      </trkpt>
      <trkpt lat="42.90761" lon="0.2126">
        <ele>1603.14</ele>
        <time>2019-07-19T15:28:06Z</time>
      </trkpt>
      <trkpt lat="42.90762" lon="0.21271">
        <ele>1603.62</ele>
        <time>2019-07-19T15:28:16Z</time>
      </trkpt>
      <trkpt lat="42.90764" lon="0.21274">
        <ele>1603.14</ele>
        <time>2019-07-19T15:28:18Z</time>
      </trkpt>
      <trkpt lat="42.90766" lon="0.2128">
        <ele>1603.62</ele>
        <time>2019-07-19T15:28:23Z</time>
      </trkpt>
      <trkpt lat="42.90772" lon="0.21284">
        <ele>1602.66</ele>
        <time>2019-07-19T15:28:28Z</time>
      </trkpt>
      <trkpt lat="42.90785" lon="0.2129">
        <ele>1599.77</ele>
        <time>2019-07-19T15:28:38Z</time>
      </trkpt>
      <trkpt lat="42.9079" lon="0.21295">
        <ele>1599.77</ele>
        <time>2019-07-19T15:28:43Z</time>
      </trkpt>
      <trkpt lat="42.90801" lon="0.21303">
        <ele>1601.21</ele>
        <time>2019-07-19T15:28:54Z</time>
      </trkpt>
      <trkpt lat="42.90818" lon="0.21313">
        <ele>1599.77</ele>
        <time>2019-07-19T15:29:07Z</time>
      </trkpt>
      <trkpt lat="42.90821" lon="0.21314">
        <ele>1600.25</ele>
        <time>2019-07-19T15:29:10Z</time>
      </trkpt>
      <trkpt lat="42.90826" lon="0.21327">
        <ele>1599.29</ele>
        <time>2019-07-19T15:29:18Z</time>
      </trkpt>
      <trkpt lat="42.90838" lon="0.21339">
        <ele>1597.37</ele>
        <time>2019-07-19T15:29:30Z</time>
      </trkpt>
      <trkpt lat="42.90847" lon="0.21349">
        <ele>1596.41</ele>
        <time>2019-07-19T15:29:38Z</time>
      </trkpt>
      <trkpt lat="42.9085" lon="0.21353">
        <ele>1595.93</ele>
        <time>2019-07-19T15:29:42Z</time>
      </trkpt>
      <trkpt lat="42.90859" lon="0.21365">
        <ele>1594.96</ele>
        <time>2019-07-19T15:29:51Z</time>
      </trkpt>
      <trkpt lat="42.90862" lon="0.21372">
        <ele>1594.48</ele>
        <time>2019-07-19T15:29:56Z</time>
      </trkpt>
      <trkpt lat="42.90866" lon="0.21381">
        <ele>1594</ele>
        <time>2019-07-19T15:30:01Z</time>
      </trkpt>
      <trkpt lat="42.9087" lon="0.21385">
        <ele>1593.52</ele>
        <time>2019-07-19T15:30:06Z</time>
      </trkpt>
      <trkpt lat="42.90874" lon="0.21388">
        <ele>1593.52</ele>
        <time>2019-07-19T15:30:09Z</time>
      </trkpt>
      <trkpt lat="42.90877" lon="0.21387">
        <ele>1593.04</ele>
        <time>2019-07-19T15:30:12Z</time>
      </trkpt>
      <trkpt lat="42.90883" lon="0.21389">
        <ele>1591.6</ele>
        <time>2019-07-19T15:30:17Z</time>
      </trkpt>
      <trkpt lat="42.90886" lon="0.21392">
        <ele>1591.12</ele>
        <time>2019-07-19T15:30:20Z</time>
      </trkpt>
      <trkpt lat="42.9089" lon="0.21397">
        <ele>1590.16</ele>
        <time>2019-07-19T15:30:24Z</time>
      </trkpt>
      <trkpt lat="42.90895" lon="0.21401">
        <ele>1589.68</ele>
        <time>2019-07-19T15:30:29Z</time>
      </trkpt>
      <trkpt lat="42.90896" lon="0.2141">
        <ele>1589.68</ele>
        <time>2019-07-19T15:30:35Z</time>
      </trkpt>
      <trkpt lat="42.90904" lon="0.21416">
        <ele>1588.72</ele>
        <time>2019-07-19T15:30:41Z</time>
      </trkpt>
      <trkpt lat="42.90906" lon="0.21423">
        <ele>1589.2</ele>
        <time>2019-07-19T15:30:49Z</time>
      </trkpt>
      <trkpt lat="42.90909" lon="0.21426">
        <ele>1588.24</ele>
        <time>2019-07-19T15:30:53Z</time>
      </trkpt>
      <trkpt lat="42.90915" lon="0.21435">
        <ele>1588.24</ele>
        <time>2019-07-19T15:31:01Z</time>
      </trkpt>
      <trkpt lat="42.90922" lon="0.21437">
        <ele>1589.2</ele>
        <time>2019-07-19T15:31:06Z</time>
      </trkpt>
      <trkpt lat="42.90932" lon="0.21442">
        <ele>1587.75</ele>
        <time>2019-07-19T15:31:13Z</time>
      </trkpt>
      <trkpt lat="42.90944" lon="0.21447">
        <ele>1586.79</ele>
        <time>2019-07-19T15:31:24Z</time>
      </trkpt>
      <trkpt lat="42.90946" lon="0.21447">
        <ele>1586.79</ele>
        <time>2019-07-19T15:31:25Z</time>
      </trkpt>
      <trkpt lat="42.9095" lon="0.21452">
        <ele>1584.87</ele>
        <time>2019-07-19T15:31:30Z</time>
      </trkpt>
      <trkpt lat="42.90955" lon="0.21458">
        <ele>1584.39</ele>
        <time>2019-07-19T15:31:35Z</time>
      </trkpt>
      <trkpt lat="42.9096" lon="0.21463">
        <ele>1584.39</ele>
        <time>2019-07-19T15:31:40Z</time>
      </trkpt>
      <trkpt lat="42.90972" lon="0.21473">
        <ele>1582.47</ele>
        <time>2019-07-19T15:31:51Z</time>
      </trkpt>
      <trkpt lat="42.90973" lon="0.21474">
        <ele>1581.99</ele>
        <time>2019-07-19T15:31:52Z</time>
      </trkpt>
      <trkpt lat="42.90977" lon="0.21477">
        <ele>1581.03</ele>
        <time>2019-07-19T15:31:56Z</time>
      </trkpt>
      <trkpt lat="42.90989" lon="0.21486">
        <ele>1579.58</ele>
        <time>2019-07-19T15:32:06Z</time>
      </trkpt>
      <trkpt lat="42.90995" lon="0.21489">
        <ele>1579.58</ele>
        <time>2019-07-19T15:32:10Z</time>
      </trkpt>
      <trkpt lat="42.91007" lon="0.21499">
        <ele>1579.1</ele>
        <time>2019-07-19T15:32:20Z</time>
      </trkpt>
      <trkpt lat="42.91008" lon="0.21503">
        <ele>1578.62</ele>
        <time>2019-07-19T15:32:22Z</time>
      </trkpt>
      <trkpt lat="42.91013" lon="0.21504">
        <ele>1578.14</ele>
        <time>2019-07-19T15:32:26Z</time>
      </trkpt>
      <trkpt lat="42.91016" lon="0.21505">
        <ele>1578.14</ele>
        <time>2019-07-19T15:32:28Z</time>
      </trkpt>
      <trkpt lat="42.91026" lon="0.21514">
        <ele>1575.74</ele>
        <time>2019-07-19T15:32:39Z</time>
      </trkpt>
      <trkpt lat="42.91028" lon="0.21518">
        <ele>1575.26</ele>
        <time>2019-07-19T15:32:41Z</time>
      </trkpt>
      <trkpt lat="42.9103" lon="0.21523">
        <ele>1574.3</ele>
        <time>2019-07-19T15:32:45Z</time>
      </trkpt>
      <trkpt lat="42.91039" lon="0.21524">
        <ele>1573.33</ele>
        <time>2019-07-19T15:32:53Z</time>
      </trkpt>
      <trkpt lat="42.91047" lon="0.21527">
        <ele>1572.37</ele>
        <time>2019-07-19T15:33:00Z</time>
      </trkpt>
      <trkpt lat="42.91051" lon="0.21531">
        <ele>1571.41</ele>
        <time>2019-07-19T15:33:04Z</time>
      </trkpt>
      <trkpt lat="42.91054" lon="0.21534">
        <ele>1569.97</ele>
        <time>2019-07-19T15:33:10Z</time>
      </trkpt>
      <trkpt lat="42.91064" lon="0.21537">
        <ele>1568.53</ele>
        <time>2019-07-19T15:33:17Z</time>
      </trkpt>
      <trkpt lat="42.91071" lon="0.21536">
        <ele>1567.57</ele>
        <time>2019-07-19T15:33:23Z</time>
      </trkpt>
      <trkpt lat="42.91074" lon="0.21536">
        <ele>1567.57</ele>
        <time>2019-07-19T15:33:25Z</time>
      </trkpt>
      <trkpt lat="42.91076" lon="0.21535">
        <ele>1567.57</ele>
        <time>2019-07-19T15:33:27Z</time>
      </trkpt>
      <trkpt lat="42.91081" lon="0.21527">
        <ele>1567.09</ele>
        <time>2019-07-19T15:33:33Z</time>
      </trkpt>
      <trkpt lat="42.91082" lon="0.21526">
        <ele>1567.57</ele>
        <time>2019-07-19T15:33:35Z</time>
      </trkpt>
      <trkpt lat="42.91086" lon="0.21523">
        <ele>1568.05</ele>
        <time>2019-07-19T15:33:38Z</time>
      </trkpt>
      <trkpt lat="42.91089" lon="0.21509">
        <ele>1570.93</ele>
        <time>2019-07-19T15:33:49Z</time>
      </trkpt>
      <trkpt lat="42.9109" lon="0.21506">
        <ele>1571.41</ele>
        <time>2019-07-19T15:33:51Z</time>
      </trkpt>
      <trkpt lat="42.91092" lon="0.21503">
        <ele>1573.33</ele>
        <time>2019-07-19T15:33:57Z</time>
      </trkpt>
      <trkpt lat="42.91093" lon="0.21499">
        <ele>1573.33</ele>
        <time>2019-07-19T15:33:59Z</time>
      </trkpt>
      <trkpt lat="42.91095" lon="0.21496">
        <ele>1574.3</ele>
        <time>2019-07-19T15:34:03Z</time>
      </trkpt>
      <trkpt lat="42.91098" lon="0.21494">
        <ele>1574.3</ele>
        <time>2019-07-19T15:34:06Z</time>
      </trkpt>
      <trkpt lat="42.91109" lon="0.21491">
        <ele>1572.85</ele>
        <time>2019-07-19T15:34:15Z</time>
      </trkpt>
      <trkpt lat="42.91111" lon="0.21488">
        <ele>1574.3</ele>
        <time>2019-07-19T15:34:17Z</time>
      </trkpt>
      <trkpt lat="42.91115" lon="0.21481">
        <ele>1574.78</ele>
        <time>2019-07-19T15:34:22Z</time>
      </trkpt>
      <trkpt lat="42.91121" lon="0.21472">
        <ele>1576.22</ele>
        <time>2019-07-19T15:34:29Z</time>
      </trkpt>
      <trkpt lat="42.91123" lon="0.21469">
        <ele>1575.74</ele>
        <time>2019-07-19T15:34:32Z</time>
      </trkpt>
      <trkpt lat="42.91126" lon="0.21469">
        <ele>1575.26</ele>
        <time>2019-07-19T15:34:34Z</time>
      </trkpt>
      <trkpt lat="42.91132" lon="0.21476">
        <ele>1574.3</ele>
        <time>2019-07-19T15:34:41Z</time>
      </trkpt>
      <trkpt lat="42.91137" lon="0.2148">
        <ele>1572.85</ele>
        <time>2019-07-19T15:34:46Z</time>
      </trkpt>
      <trkpt lat="42.91142" lon="0.21483">
        <ele>1571.41</ele>
        <time>2019-07-19T15:34:52Z</time>
      </trkpt>
      <trkpt lat="42.91143" lon="0.21486">
        <ele>1570.45</ele>
        <time>2019-07-19T15:34:54Z</time>
      </trkpt>
      <trkpt lat="42.91156" lon="0.21501">
        <ele>1569.01</ele>
        <time>2019-07-19T15:35:06Z</time>
      </trkpt>
      <trkpt lat="42.91165" lon="0.21508">
        <ele>1568.53</ele>
        <time>2019-07-19T15:35:13Z</time>
      </trkpt>
      <trkpt lat="42.91175" lon="0.21517">
        <ele>1569.49</ele>
        <time>2019-07-19T15:35:23Z</time>
      </trkpt>
      <trkpt lat="42.91179" lon="0.21522">
        <ele>1569.49</ele>
        <time>2019-07-19T15:35:27Z</time>
      </trkpt>
      <trkpt lat="42.91179" lon="0.21532">
        <ele>1569.49</ele>
        <time>2019-07-19T15:35:34Z</time>
      </trkpt>
      <trkpt lat="42.91187" lon="0.21539">
        <ele>1567.57</ele>
        <time>2019-07-19T15:35:42Z</time>
      </trkpt>
      <trkpt lat="42.91199" lon="0.21556">
        <ele>1566.12</ele>
        <time>2019-07-19T15:35:54Z</time>
      </trkpt>
      <trkpt lat="42.91207" lon="0.21565">
        <ele>1565.64</ele>
        <time>2019-07-19T15:36:02Z</time>
      </trkpt>
      <trkpt lat="42.91214" lon="0.21571">
        <ele>1565.64</ele>
        <time>2019-07-19T15:36:08Z</time>
      </trkpt>
      <trkpt lat="42.91222" lon="0.21576">
        <ele>1566.12</ele>
        <time>2019-07-19T15:36:15Z</time>
      </trkpt>
      <trkpt lat="42.91228" lon="0.21579">
        <ele>1566.61</ele>
        <time>2019-07-19T15:36:20Z</time>
      </trkpt>
      <trkpt lat="42.9123" lon="0.2158">
        <ele>1567.09</ele>
        <time>2019-07-19T15:36:22Z</time>
      </trkpt>
      <trkpt lat="42.91233" lon="0.21582">
        <ele>1567.09</ele>
        <time>2019-07-19T15:36:25Z</time>
      </trkpt>
      <trkpt lat="42.91248" lon="0.21589">
        <ele>1568.05</ele>
        <time>2019-07-19T15:36:38Z</time>
      </trkpt>
      <trkpt lat="42.91257" lon="0.21595">
        <ele>1568.53</ele>
        <time>2019-07-19T15:36:45Z</time>
      </trkpt>
      <trkpt lat="42.91263" lon="0.216">
        <ele>1569.01</ele>
        <time>2019-07-19T15:36:51Z</time>
      </trkpt>
      <trkpt lat="42.9127" lon="0.21602">
        <ele>1569.01</ele>
        <time>2019-07-19T15:36:57Z</time>
      </trkpt>
      <trkpt lat="42.91279" lon="0.2161">
        <ele>1569.49</ele>
        <time>2019-07-19T15:37:05Z</time>
      </trkpt>
      <trkpt lat="42.91294" lon="0.2162">
        <ele>1569.97</ele>
        <time>2019-07-19T15:37:18Z</time>
      </trkpt>
      <trkpt lat="42.913" lon="0.21621">
        <ele>1569.49</ele>
        <time>2019-07-19T15:37:22Z</time>
      </trkpt>
      <trkpt lat="42.91309" lon="0.21626">
        <ele>1569.49</ele>
        <time>2019-07-19T15:37:29Z</time>
      </trkpt>
      <trkpt lat="42.91321" lon="0.2163">
        <ele>1569.49</ele>
        <time>2019-07-19T15:37:39Z</time>
      </trkpt>
      <trkpt lat="42.91326" lon="0.21632">
        <ele>1569.49</ele>
        <time>2019-07-19T15:37:43Z</time>
      </trkpt>
      <trkpt lat="42.91328" lon="0.21634">
        <ele>1569.49</ele>
        <time>2019-07-19T15:37:45Z</time>
      </trkpt>
      <trkpt lat="42.91342" lon="0.21642">
        <ele>1570.93</ele>
        <time>2019-07-19T15:37:56Z</time>
      </trkpt>
      <trkpt lat="42.91344" lon="0.21642">
        <ele>1570.93</ele>
        <time>2019-07-19T15:37:57Z</time>
      </trkpt>
      <trkpt lat="42.91348" lon="0.21645">
        <ele>1571.41</ele>
        <time>2019-07-19T15:38:01Z</time>
      </trkpt>
      <trkpt lat="42.91351" lon="0.21646">
        <ele>1571.41</ele>
        <time>2019-07-19T15:38:03Z</time>
      </trkpt>
      <trkpt lat="42.91365" lon="0.21658">
        <ele>1570.93</ele>
        <time>2019-07-19T15:38:15Z</time>
      </trkpt>
      <trkpt lat="42.91374" lon="0.21664">
        <ele>1569.97</ele>
        <time>2019-07-19T15:38:22Z</time>
      </trkpt>
      <trkpt lat="42.91378" lon="0.21665">
        <ele>1569.49</ele>
        <time>2019-07-19T15:38:25Z</time>
      </trkpt>
      <trkpt lat="42.91382" lon="0.2167">
        <ele>1569.49</ele>
        <time>2019-07-19T15:38:29Z</time>
      </trkpt>
      <trkpt lat="42.91394" lon="0.21674">
        <ele>1569.01</ele>
        <time>2019-07-19T15:38:38Z</time>
      </trkpt>
      <trkpt lat="42.91399" lon="0.21677">
        <ele>1568.53</ele>
        <time>2019-07-19T15:38:42Z</time>
      </trkpt>
      <trkpt lat="42.9141" lon="0.21679">
        <ele>1568.05</ele>
        <time>2019-07-19T15:38:50Z</time>
      </trkpt>
      <trkpt lat="42.91424" lon="0.21682">
        <ele>1568.05</ele>
        <time>2019-07-19T15:39:01Z</time>
      </trkpt>
      <trkpt lat="42.91439" lon="0.2168">
        <ele>1567.57</ele>
        <time>2019-07-19T15:39:12Z</time>
      </trkpt>
      <trkpt lat="42.91441" lon="0.2168">
        <ele>1568.05</ele>
        <time>2019-07-19T15:39:13Z</time>
      </trkpt>
      <trkpt lat="42.91451" lon="0.21678">
        <ele>1568.05</ele>
        <time>2019-07-19T15:39:20Z</time>
      </trkpt>
      <trkpt lat="42.91459" lon="0.21675">
        <ele>1568.05</ele>
        <time>2019-07-19T15:39:26Z</time>
      </trkpt>
      <trkpt lat="42.91463" lon="0.21675">
        <ele>1567.57</ele>
        <time>2019-07-19T15:39:29Z</time>
      </trkpt>
      <trkpt lat="42.91466" lon="0.21669">
        <ele>1567.57</ele>
        <time>2019-07-19T15:39:36Z</time>
      </trkpt>
      <trkpt lat="42.91469" lon="0.21664">
        <ele>1567.09</ele>
        <time>2019-07-19T15:39:47Z</time>
      </trkpt>
      <trkpt lat="42.91469" lon="0.21664">
        <ele>1566.61</ele>
        <time>2019-07-19T15:40:06Z</time>
      </trkpt>
      <trkpt lat="42.91469" lon="0.21664">
        <ele>1566.61</ele>
        <time>2019-07-19T15:40:37Z</time>
      </trkpt>
      <trkpt lat="42.91469" lon="0.21665">
        <ele>1566.61</ele>
        <time>2019-07-19T15:40:54Z</time>
      </trkpt>
      <trkpt lat="42.91469" lon="0.21665">
        <ele>1566.12</ele>
        <time>2019-07-19T15:41:27Z</time>
      </trkpt>
      <trkpt lat="42.91469" lon="0.21666">
        <ele>1566.12</ele>
        <time>2019-07-19T15:42:00Z</time>
      </trkpt>
      <trkpt lat="42.91469" lon="0.21666">
        <ele>1566.12</ele>
        <time>2019-07-19T15:42:31Z</time>
      </trkpt>
      <trkpt lat="42.91468" lon="0.21666">
        <ele>1566.12</ele>
        <time>2019-07-19T15:43:01Z</time>
      </trkpt>
      <trkpt lat="42.91468" lon="0.21666">
        <ele>1565.64</ele>
        <time>2019-07-19T15:43:34Z</time>
      </trkpt>
      <trkpt lat="42.91467" lon="0.21666">
        <ele>1565.64</ele>
        <time>2019-07-19T15:44:09Z</time>
      </trkpt>
      <trkpt lat="42.91467" lon="0.21666">
        <ele>1565.64</ele>
        <time>2019-07-19T15:44:43Z</time>
      </trkpt>
      <trkpt lat="42.91467" lon="0.21666">
        <ele>1565.16</ele>
        <time>2019-07-19T15:45:14Z</time>
      </trkpt>
      <trkpt lat="42.91467" lon="0.21666">
        <ele>1565.16</ele>
        <time>2019-07-19T15:45:50Z</time>
      </trkpt>
      <trkpt lat="42.91467" lon="0.21666">
        <ele>1565.16</ele>
        <time>2019-07-19T15:46:23Z</time>
      </trkpt>
      <trkpt lat="42.91467" lon="0.21666">
        <ele>1564.68</ele>
        <time>2019-07-19T15:47:00Z</time>
      </trkpt>
      <trkpt lat="42.91467" lon="0.21666">
        <ele>1564.68</ele>
        <time>2019-07-19T15:47:37Z</time>
      </trkpt>
      <trkpt lat="42.91467" lon="0.21666">
        <ele>1564.2</ele>
        <time>2019-07-19T15:48:11Z</time>
      </trkpt>
      <trkpt lat="42.91467" lon="0.21666">
        <ele>1564.2</ele>
        <time>2019-07-19T15:48:44Z</time>
      </trkpt>
      <trkpt lat="42.91467" lon="0.21665">
        <ele>1563.72</ele>
        <time>2019-07-19T15:49:24Z</time>
      </trkpt>
      <trkpt lat="42.91467" lon="0.21666">
        <ele>1563.72</ele>
        <time>2019-07-19T15:50:00Z</time>
      </trkpt>
      <trkpt lat="42.91468" lon="0.21666">
        <ele>1563.72</ele>
        <time>2019-07-19T15:50:32Z</time>
      </trkpt>
      <trkpt lat="42.91468" lon="0.21666">
        <ele>1563.72</ele>
        <time>2019-07-19T15:51:08Z</time>
      </trkpt>
      <trkpt lat="42.91468" lon="0.21666">
        <ele>1563.24</ele>
        <time>2019-07-19T15:51:44Z</time>
      </trkpt>
      <trkpt lat="42.91468" lon="0.21666">
        <ele>1563.24</ele>
        <time>2019-07-19T15:52:22Z</time>
      </trkpt>
      <trkpt lat="42.91468" lon="0.21665">
        <ele>1563.24</ele>
        <time>2019-07-19T15:52:58Z</time>
      </trkpt>
      <trkpt lat="42.91468" lon="0.21664">
        <ele>1562.76</ele>
        <time>2019-07-19T15:53:37Z</time>
      </trkpt>
      <trkpt lat="42.91468" lon="0.21665">
        <ele>1562.76</ele>
        <time>2019-07-19T15:54:12Z</time>
      </trkpt>
      <trkpt lat="42.91468" lon="0.21666">
        <ele>1562.76</ele>
        <time>2019-07-19T15:54:49Z</time>
      </trkpt>
      <trkpt lat="42.91468" lon="0.21665">
        <ele>1562.28</ele>
        <time>2019-07-19T15:55:17Z</time>
      </trkpt>
      <trkpt lat="42.91468" lon="0.21666">
        <ele>1562.76</ele>
        <time>2019-07-19T15:55:45Z</time>
      </trkpt>
      <trkpt lat="42.91468" lon="0.21666">
        <ele>1563.24</ele>
        <time>2019-07-19T15:55:56Z</time>
      </trkpt>
      <trkpt lat="42.91473" lon="0.21664">
        <ele>1564.2</ele>
        <time>2019-07-19T15:56:00Z</time>
      </trkpt>
      <trkpt lat="42.91476" lon="0.21662">
        <ele>1563.72</ele>
        <time>2019-07-19T15:56:02Z</time>
      </trkpt>
      <trkpt lat="42.91481" lon="0.21659">
        <ele>1563.24</ele>
        <time>2019-07-19T15:56:07Z</time>
      </trkpt>
      <trkpt lat="42.91488" lon="0.21653">
        <ele>1559.4</ele>
        <time>2019-07-19T15:56:13Z</time>
      </trkpt>
      <trkpt lat="42.91489" lon="0.21652">
        <ele>1564.68</ele>
        <time>2019-07-19T15:56:14Z</time>
      </trkpt>
      <trkpt lat="42.91502" lon="0.21634">
        <ele>1561.32</ele>
        <time>2019-07-19T15:56:28Z</time>
      </trkpt>
      <trkpt lat="42.9151" lon="0.21624">
        <ele>1560.84</ele>
        <time>2019-07-19T15:56:36Z</time>
      </trkpt>
      <trkpt lat="42.91519" lon="0.2161">
        <ele>1560.84</ele>
        <time>2019-07-19T15:56:46Z</time>
      </trkpt>
      <trkpt lat="42.91521" lon="0.21604">
        <ele>1560.84</ele>
        <time>2019-07-19T15:56:49Z</time>
      </trkpt>
      <trkpt lat="42.91525" lon="0.21593">
        <ele>1561.32</ele>
        <time>2019-07-19T15:56:56Z</time>
      </trkpt>
      <trkpt lat="42.9153" lon="0.21583">
        <ele>1560.84</ele>
        <time>2019-07-19T15:57:02Z</time>
      </trkpt>
      <trkpt lat="42.91531" lon="0.21579">
        <ele>1560.84</ele>
        <time>2019-07-19T15:57:04Z</time>
      </trkpt>
      <trkpt lat="42.91535" lon="0.2157">
        <ele>1560.84</ele>
        <time>2019-07-19T15:57:09Z</time>
      </trkpt>
      <trkpt lat="42.91538" lon="0.21555">
        <ele>1560.36</ele>
        <time>2019-07-19T15:57:18Z</time>
      </trkpt>
      <trkpt lat="42.91543" lon="0.2154">
        <ele>1559.88</ele>
        <time>2019-07-19T15:57:26Z</time>
      </trkpt>
      <trkpt lat="42.91544" lon="0.21536">
        <ele>1559.88</ele>
        <time>2019-07-19T15:57:28Z</time>
      </trkpt>
      <trkpt lat="42.91547" lon="0.21526">
        <ele>1558.92</ele>
        <time>2019-07-19T15:57:34Z</time>
      </trkpt>
      <trkpt lat="42.9155" lon="0.21517">
        <ele>1557.95</ele>
        <time>2019-07-19T15:57:39Z</time>
      </trkpt>
      <trkpt lat="42.91552" lon="0.21509">
        <ele>1557.47</ele>
        <time>2019-07-19T15:57:44Z</time>
      </trkpt>
      <trkpt lat="42.91557" lon="0.21497">
        <ele>1556.03</ele>
        <time>2019-07-19T15:57:51Z</time>
      </trkpt>
      <trkpt lat="42.91562" lon="0.21478">
        <ele>1555.55</ele>
        <time>2019-07-19T15:58:02Z</time>
      </trkpt>
      <trkpt lat="42.91566" lon="0.21464">
        <ele>1554.59</ele>
        <time>2019-07-19T15:58:10Z</time>
      </trkpt>
      <trkpt lat="42.91568" lon="0.21451">
        <ele>1554.11</ele>
        <time>2019-07-19T15:58:17Z</time>
      </trkpt>
      <trkpt lat="42.9157" lon="0.21448">
        <ele>1554.11</ele>
        <time>2019-07-19T15:58:19Z</time>
      </trkpt>
      <trkpt lat="42.9157" lon="0.21444">
        <ele>1553.15</ele>
        <time>2019-07-19T15:58:22Z</time>
      </trkpt>
      <trkpt lat="42.91571" lon="0.21442">
        <ele>1553.15</ele>
        <time>2019-07-19T15:58:24Z</time>
      </trkpt>
      <trkpt lat="42.91574" lon="0.21435">
        <ele>1551.71</ele>
        <time>2019-07-19T15:58:29Z</time>
      </trkpt>
      <trkpt lat="42.9158" lon="0.21424">
        <ele>1550.26</ele>
        <time>2019-07-19T15:58:39Z</time>
      </trkpt>
      <trkpt lat="42.91578" lon="0.21418">
        <ele>1549.3</ele>
        <time>2019-07-19T15:58:42Z</time>
      </trkpt>
      <trkpt lat="42.91584" lon="0.21409">
        <ele>1545.94</ele>
        <time>2019-07-19T15:58:50Z</time>
      </trkpt>
      <trkpt lat="42.91585" lon="0.21407">
        <ele>1545.94</ele>
        <time>2019-07-19T15:58:52Z</time>
      </trkpt>
      <trkpt lat="42.91587" lon="0.21401">
        <ele>1544.5</ele>
        <time>2019-07-19T15:58:57Z</time>
      </trkpt>
      <trkpt lat="42.9159" lon="0.21392">
        <ele>1542.09</ele>
        <time>2019-07-19T15:59:06Z</time>
      </trkpt>
      <trkpt lat="42.91592" lon="0.21388">
        <ele>1541.13</ele>
        <time>2019-07-19T15:59:10Z</time>
      </trkpt>
      <trkpt lat="42.91595" lon="0.21382">
        <ele>1538.73</ele>
        <time>2019-07-19T15:59:21Z</time>
      </trkpt>
      <trkpt lat="42.91595" lon="0.21381">
        <ele>1538.25</ele>
        <time>2019-07-19T15:59:22Z</time>
      </trkpt>
      <trkpt lat="42.91594" lon="0.21377">
        <ele>1537.77</ele>
        <time>2019-07-19T15:59:30Z</time>
      </trkpt>
      <trkpt lat="42.91592" lon="0.21376">
        <ele>1536.8</ele>
        <time>2019-07-19T15:59:34Z</time>
      </trkpt>
      <trkpt lat="42.91591" lon="0.21374">
        <ele>1536.32</ele>
        <time>2019-07-19T15:59:36Z</time>
      </trkpt>
      <trkpt lat="42.9159" lon="0.2137">
        <ele>1534.88</ele>
        <time>2019-07-19T15:59:40Z</time>
      </trkpt>
      <trkpt lat="42.91592" lon="0.21364">
        <ele>1532.48</ele>
        <time>2019-07-19T15:59:51Z</time>
      </trkpt>
      <trkpt lat="42.91592" lon="0.21361">
        <ele>1531.52</ele>
        <time>2019-07-19T15:59:54Z</time>
      </trkpt>
      <trkpt lat="42.91594" lon="0.21357">
        <ele>1529.11</ele>
        <time>2019-07-19T16:00:07Z</time>
      </trkpt>
      <trkpt lat="42.91593" lon="0.21356">
        <ele>1527.67</ele>
        <time>2019-07-19T16:00:15Z</time>
      </trkpt>
      <trkpt lat="42.91591" lon="0.21353">
        <ele>1526.71</ele>
        <time>2019-07-19T16:00:18Z</time>
      </trkpt>
      <trkpt lat="42.9159" lon="0.2135">
        <ele>1525.75</ele>
        <time>2019-07-19T16:00:21Z</time>
      </trkpt>
      <trkpt lat="42.91588" lon="0.21348">
        <ele>1525.75</ele>
        <time>2019-07-19T16:00:23Z</time>
      </trkpt>
      <trkpt lat="42.91591" lon="0.21343">
        <ele>1523.83</ele>
        <time>2019-07-19T16:00:29Z</time>
      </trkpt>
      <trkpt lat="42.91593" lon="0.21341">
        <ele>1522.87</ele>
        <time>2019-07-19T16:00:32Z</time>
      </trkpt>
      <trkpt lat="42.91596" lon="0.21338">
        <ele>1522.39</ele>
        <time>2019-07-19T16:00:36Z</time>
      </trkpt>
      <trkpt lat="42.91596" lon="0.21336">
        <ele>1521.9</ele>
        <time>2019-07-19T16:00:38Z</time>
      </trkpt>
      <trkpt lat="42.91599" lon="0.21331">
        <ele>1520.46</ele>
        <time>2019-07-19T16:00:42Z</time>
      </trkpt>
      <trkpt lat="42.91598" lon="0.21329">
        <ele>1519.98</ele>
        <time>2019-07-19T16:00:47Z</time>
      </trkpt>
      <trkpt lat="42.91594" lon="0.21327">
        <ele>1517.1</ele>
        <time>2019-07-19T16:00:58Z</time>
      </trkpt>
      <trkpt lat="42.91593" lon="0.21327">
        <ele>1516.62</ele>
        <time>2019-07-19T16:01:00Z</time>
      </trkpt>
      <trkpt lat="42.91596" lon="0.21319">
        <ele>1514.69</ele>
        <time>2019-07-19T16:01:08Z</time>
      </trkpt>
      <trkpt lat="42.91595" lon="0.21316">
        <ele>1513.73</ele>
        <time>2019-07-19T16:01:15Z</time>
      </trkpt>
      <trkpt lat="42.91595" lon="0.21313">
        <ele>1512.29</ele>
        <time>2019-07-19T16:01:19Z</time>
      </trkpt>
      <trkpt lat="42.91592" lon="0.21309">
        <ele>1510.85</ele>
        <time>2019-07-19T16:01:23Z</time>
      </trkpt>
      <trkpt lat="42.91589" lon="0.21306">
        <ele>1509.89</ele>
        <time>2019-07-19T16:01:27Z</time>
      </trkpt>
      <trkpt lat="42.91587" lon="0.21303">
        <ele>1508.93</ele>
        <time>2019-07-19T16:01:31Z</time>
      </trkpt>
      <trkpt lat="42.9158" lon="0.21292">
        <ele>1506.04</ele>
        <time>2019-07-19T16:01:42Z</time>
      </trkpt>
      <trkpt lat="42.91579" lon="0.21289">
        <ele>1505.08</ele>
        <time>2019-07-19T16:01:46Z</time>
      </trkpt>
      <trkpt lat="42.91575" lon="0.21283">
        <ele>1503.16</ele>
        <time>2019-07-19T16:01:52Z</time>
      </trkpt>
      <trkpt lat="42.91574" lon="0.21278">
        <ele>1502.2</ele>
        <time>2019-07-19T16:01:56Z</time>
      </trkpt>
      <trkpt lat="42.91572" lon="0.21274">
        <ele>1500.76</ele>
        <time>2019-07-19T16:01:59Z</time>
      </trkpt>
      <trkpt lat="42.91572" lon="0.21273">
        <ele>1500.27</ele>
        <time>2019-07-19T16:02:00Z</time>
      </trkpt>
      <trkpt lat="42.91571" lon="0.21265">
        <ele>1498.35</ele>
        <time>2019-07-19T16:02:06Z</time>
      </trkpt>
      <trkpt lat="42.91568" lon="0.21259">
        <ele>1497.39</ele>
        <time>2019-07-19T16:02:09Z</time>
      </trkpt>
      <trkpt lat="42.91566" lon="0.21253">
        <ele>1496.91</ele>
        <time>2019-07-19T16:02:12Z</time>
      </trkpt>
      <trkpt lat="42.91561" lon="0.21245">
        <ele>1494.99</ele>
        <time>2019-07-19T16:02:19Z</time>
      </trkpt>
      <trkpt lat="42.91561" lon="0.21241">
        <ele>1494.51</ele>
        <time>2019-07-19T16:02:22Z</time>
      </trkpt>
      <trkpt lat="42.91558" lon="0.21235">
        <ele>1494.03</ele>
        <time>2019-07-19T16:02:27Z</time>
      </trkpt>
      <trkpt lat="42.9156" lon="0.21232">
        <ele>1493.55</ele>
        <time>2019-07-19T16:02:29Z</time>
      </trkpt>
      <trkpt lat="42.9156" lon="0.21229">
        <ele>1493.55</ele>
        <time>2019-07-19T16:02:31Z</time>
      </trkpt>
      <trkpt lat="42.91558" lon="0.21227">
        <ele>1493.55</ele>
        <time>2019-07-19T16:02:33Z</time>
      </trkpt>
      <trkpt lat="42.91564" lon="0.21229">
        <ele>1492.1</ele>
        <time>2019-07-19T16:02:39Z</time>
      </trkpt>
      <trkpt lat="42.91569" lon="0.21229">
        <ele>1490.66</ele>
        <time>2019-07-19T16:02:44Z</time>
      </trkpt>
      <trkpt lat="42.91573" lon="0.21227">
        <ele>1489.7</ele>
        <time>2019-07-19T16:02:48Z</time>
      </trkpt>
      <trkpt lat="42.91574" lon="0.21225">
        <ele>1489.22</ele>
        <time>2019-07-19T16:02:51Z</time>
      </trkpt>
      <trkpt lat="42.91575" lon="0.21217">
        <ele>1486.82</ele>
        <time>2019-07-19T16:03:00Z</time>
      </trkpt>
      <trkpt lat="42.91571" lon="0.21207">
        <ele>1483.93</ele>
        <time>2019-07-19T16:03:10Z</time>
      </trkpt>
      <trkpt lat="42.91567" lon="0.21198">
        <ele>1481.53</ele>
        <time>2019-07-19T16:03:20Z</time>
      </trkpt>
      <trkpt lat="42.9157" lon="0.21193">
        <ele>1479.61</ele>
        <time>2019-07-19T16:03:26Z</time>
      </trkpt>
      <trkpt lat="42.91569" lon="0.21187">
        <ele>1477.2</ele>
        <time>2019-07-19T16:03:33Z</time>
      </trkpt>
      <trkpt lat="42.91573" lon="0.21183">
        <ele>1475.76</ele>
        <time>2019-07-19T16:03:39Z</time>
      </trkpt>
      <trkpt lat="42.91573" lon="0.2118">
        <ele>1473.84</ele>
        <time>2019-07-19T16:03:47Z</time>
      </trkpt>
      <trkpt lat="42.91573" lon="0.21179">
        <ele>1473.36</ele>
        <time>2019-07-19T16:03:49Z</time>
      </trkpt>
      <trkpt lat="42.91572" lon="0.21172">
        <ele>1470.95</ele>
        <time>2019-07-19T16:03:57Z</time>
      </trkpt>
      <trkpt lat="42.91572" lon="0.2117">
        <ele>1470.47</ele>
        <time>2019-07-19T16:04:00Z</time>
      </trkpt>
      <trkpt lat="42.91575" lon="0.2116">
        <ele>1467.59</ele>
        <time>2019-07-19T16:04:11Z</time>
      </trkpt>
      <trkpt lat="42.91574" lon="0.21155">
        <ele>1465.67</ele>
        <time>2019-07-19T16:04:15Z</time>
      </trkpt>
      <trkpt lat="42.91574" lon="0.21151">
        <ele>1462.78</ele>
        <time>2019-07-19T16:04:24Z</time>
      </trkpt>
      <trkpt lat="42.91576" lon="0.21145">
        <ele>1459.9</ele>
        <time>2019-07-19T16:04:33Z</time>
      </trkpt>
      <trkpt lat="42.91577" lon="0.21139">
        <ele>1458.46</ele>
        <time>2019-07-19T16:04:37Z</time>
      </trkpt>
      <trkpt lat="42.91581" lon="0.21129">
        <ele>1456.05</ele>
        <time>2019-07-19T16:04:45Z</time>
      </trkpt>
      <trkpt lat="42.91587" lon="0.21126">
        <ele>1454.61</ele>
        <time>2019-07-19T16:04:51Z</time>
      </trkpt>
      <trkpt lat="42.91589" lon="0.21122">
        <ele>1452.21</ele>
        <time>2019-07-19T16:04:58Z</time>
      </trkpt>
      <trkpt lat="42.91591" lon="0.21122">
        <ele>1451.25</ele>
        <time>2019-07-19T16:05:00Z</time>
      </trkpt>
      <trkpt lat="42.91589" lon="0.21116">
        <ele>1449.81</ele>
        <time>2019-07-19T16:05:04Z</time>
      </trkpt>
      <trkpt lat="42.9159" lon="0.21108">
        <ele>1448.36</ele>
        <time>2019-07-19T16:05:10Z</time>
      </trkpt>
      <trkpt lat="42.91592" lon="0.21103">
        <ele>1446.92</ele>
        <time>2019-07-19T16:05:14Z</time>
      </trkpt>
      <trkpt lat="42.91598" lon="0.21093">
        <ele>1445</ele>
        <time>2019-07-19T16:05:23Z</time>
      </trkpt>
      <trkpt lat="42.91597" lon="0.21079">
        <ele>1443.08</ele>
        <time>2019-07-19T16:05:29Z</time>
      </trkpt>
      <trkpt lat="42.91597" lon="0.21075">
        <ele>1442.6</ele>
        <time>2019-07-19T16:05:31Z</time>
      </trkpt>
      <trkpt lat="42.91596" lon="0.21069">
        <ele>1442.11</ele>
        <time>2019-07-19T16:05:34Z</time>
      </trkpt>
      <trkpt lat="42.91598" lon="0.21052">
        <ele>1439.71</ele>
        <time>2019-07-19T16:05:44Z</time>
      </trkpt>
      <trkpt lat="42.91601" lon="0.21044">
        <ele>1437.79</ele>
        <time>2019-07-19T16:05:50Z</time>
      </trkpt>
      <trkpt lat="42.91602" lon="0.21041">
        <ele>1437.79</ele>
        <time>2019-07-19T16:05:52Z</time>
      </trkpt>
      <trkpt lat="42.91606" lon="0.21034">
        <ele>1436.35</ele>
        <time>2019-07-19T16:05:57Z</time>
      </trkpt>
      <trkpt lat="42.91613" lon="0.21014">
        <ele>1435.39</ele>
        <time>2019-07-19T16:06:09Z</time>
      </trkpt>
      <trkpt lat="42.91617" lon="0.2101">
        <ele>1435.87</ele>
        <time>2019-07-19T16:06:16Z</time>
      </trkpt>
      <trkpt lat="42.91623" lon="0.21002">
        <ele>1435.87</ele>
        <time>2019-07-19T16:06:27Z</time>
      </trkpt>
      <trkpt lat="42.91626" lon="0.20998">
        <ele>1434.91</ele>
        <time>2019-07-19T16:06:32Z</time>
      </trkpt>
      <trkpt lat="42.91635" lon="0.20993">
        <ele>1432.5</ele>
        <time>2019-07-19T16:06:41Z</time>
      </trkpt>
      <trkpt lat="42.9164" lon="0.20978">
        <ele>1429.62</ele>
        <time>2019-07-19T16:06:55Z</time>
      </trkpt>
      <trkpt lat="42.91638" lon="0.20972">
        <ele>1430.1</ele>
        <time>2019-07-19T16:07:01Z</time>
      </trkpt>
      <trkpt lat="42.91636" lon="0.20967">
        <ele>1430.1</ele>
        <time>2019-07-19T16:07:04Z</time>
      </trkpt>
      <trkpt lat="42.91631" lon="0.20947">
        <ele>1431.54</ele>
        <time>2019-07-19T16:07:15Z</time>
      </trkpt>
      <trkpt lat="42.91631" lon="0.20944">
        <ele>1431.54</ele>
        <time>2019-07-19T16:07:17Z</time>
      </trkpt>
      <trkpt lat="42.91635" lon="0.2093">
        <ele>1432.02</ele>
        <time>2019-07-19T16:07:28Z</time>
      </trkpt>
      <trkpt lat="42.9164" lon="0.20925">
        <ele>1430.58</ele>
        <time>2019-07-19T16:07:38Z</time>
      </trkpt>
      <trkpt lat="42.91645" lon="0.20927">
        <ele>1429.14</ele>
        <time>2019-07-19T16:07:47Z</time>
      </trkpt>
      <trkpt lat="42.91647" lon="0.20929">
        <ele>1429.14</ele>
        <time>2019-07-19T16:07:49Z</time>
      </trkpt>
      <trkpt lat="42.91653" lon="0.20931">
        <ele>1428.66</ele>
        <time>2019-07-19T16:08:00Z</time>
      </trkpt>
      <trkpt lat="42.91654" lon="0.2093">
        <ele>1428.66</ele>
        <time>2019-07-19T16:08:02Z</time>
      </trkpt>
      <trkpt lat="42.9166" lon="0.20923">
        <ele>1430.1</ele>
        <time>2019-07-19T16:08:12Z</time>
      </trkpt>
      <trkpt lat="42.91667" lon="0.20921">
        <ele>1432.5</ele>
        <time>2019-07-19T16:08:22Z</time>
      </trkpt>
      <trkpt lat="42.91669" lon="0.20925">
        <ele>1434.91</ele>
        <time>2019-07-19T16:08:33Z</time>
      </trkpt>
      <trkpt lat="42.91673" lon="0.2093">
        <ele>1435.87</ele>
        <time>2019-07-19T16:08:41Z</time>
      </trkpt>
      <trkpt lat="42.91675" lon="0.20932">
        <ele>1435.87</ele>
        <time>2019-07-19T16:08:44Z</time>
      </trkpt>
      <trkpt lat="42.91678" lon="0.20933">
        <ele>1435.87</ele>
        <time>2019-07-19T16:08:46Z</time>
      </trkpt>
      <trkpt lat="42.91677" lon="0.20935">
        <ele>1435.87</ele>
        <time>2019-07-19T16:08:58Z</time>
      </trkpt>
      <trkpt lat="42.91677" lon="0.20937">
        <ele>1435.87</ele>
        <time>2019-07-19T16:09:14Z</time>
      </trkpt>
      <trkpt lat="42.91676" lon="0.20936">
        <ele>1435.87</ele>
        <time>2019-07-19T16:09:31Z</time>
      </trkpt>
      <trkpt lat="42.91675" lon="0.20937">
        <ele>1435.39</ele>
        <time>2019-07-19T16:09:50Z</time>
      </trkpt>
      <trkpt lat="42.91675" lon="0.20939">
        <ele>1435.39</ele>
        <time>2019-07-19T16:10:07Z</time>
      </trkpt>
      <trkpt lat="42.91676" lon="0.20939">
        <ele>1435.39</ele>
        <time>2019-07-19T16:10:08Z</time>
      </trkpt>
      <trkpt lat="42.91685" lon="0.20943">
        <ele>1434.91</ele>
        <time>2019-07-19T16:10:19Z</time>
      </trkpt>
      <trkpt lat="42.91685" lon="0.20943">
        <ele>1434.42</ele>
        <time>2019-07-19T16:10:22Z</time>
      </trkpt>
      <trkpt lat="42.91685" lon="0.20944">
        <ele>1434.42</ele>
        <time>2019-07-19T16:10:38Z</time>
      </trkpt>
    </trkseg>
  </trk>
</gpx>